<?xml version="1.0" encoding="UTF-8" standalone="no" ?>
<gpx xmlns="http://www.topografix.com/GPX/1/1" xmlns:xsi="http://www.w3.org/2001/XMLSchema-instance" xsi:schemaLocation="http://www.topografix.com/GPX/1/1 http://www.topografix.com/GPX/1/1/gpx.xsd" version="1.1" creator="VisuGPX - https://www.visugpx.com">
  <metadata>
    <name>Autour de Tours 1</name>
    <desc><![CDATA[Rando de 8 jours autour de Tours 
Jour 1
hub03grtours]]></desc>
  </metadata>
  <trk>
    <name><![CDATA[--Joué-lès-Tours-- OR-5509111:Brenne 1]]></name>
    <trkseg>
      <trkpt lat="47.36086" lon="0.6757">
        <ele>69</ele>
        <time>2016-05-09T15:46:15Z</time>
      </trkpt>
      <trkpt lat="47.36075" lon="0.6758">
        <ele>70</ele>
        <time>2016-05-09T15:48:15Z</time>
      </trkpt>
      <trkpt lat="47.3607" lon="0.67585">
        <ele>70</ele>
        <time>2016-05-09T15:50:15Z</time>
      </trkpt>
      <trkpt lat="47.36063" lon="0.67593">
        <ele>70</ele>
        <time>2016-05-09T15:52:15Z</time>
      </trkpt>
      <trkpt lat="47.36056" lon="0.67603">
        <ele>70</ele>
        <time>2016-05-09T15:54:15Z</time>
      </trkpt>
      <trkpt lat="47.36047" lon="0.67617">
        <ele>70</ele>
        <time>2016-05-09T15:56:15Z</time>
      </trkpt>
      <trkpt lat="47.36042" lon="0.67632">
        <ele>71</ele>
        <time>2016-05-09T15:58:15Z</time>
      </trkpt>
      <trkpt lat="47.36014" lon="0.6772">
        <ele>72</ele>
        <time>2016-05-09T16:00:15Z</time>
      </trkpt>
      <trkpt lat="47.3601" lon="0.67731">
        <ele>72</ele>
        <time>2016-05-09T16:02:15Z</time>
      </trkpt>
      <trkpt lat="47.36005" lon="0.67748">
        <ele>72</ele>
        <time>2016-05-09T16:04:15Z</time>
      </trkpt>
      <trkpt lat="47.36001" lon="0.67755">
        <ele>72</ele>
        <time>2016-05-09T16:06:15Z</time>
      </trkpt>
      <trkpt lat="47.35998" lon="0.67763">
        <ele>72</ele>
        <time>2016-05-09T16:08:15Z</time>
      </trkpt>
      <trkpt lat="47.35994" lon="0.6777">
        <ele>72</ele>
        <time>2016-05-09T16:10:15Z</time>
      </trkpt>
      <trkpt lat="47.35992" lon="0.67773">
        <ele>72</ele>
        <time>2016-05-09T16:12:15Z</time>
      </trkpt>
      <trkpt lat="47.35989" lon="0.6778">
        <ele>72</ele>
        <time>2016-05-09T16:14:15Z</time>
      </trkpt>
      <trkpt lat="47.35987" lon="0.67782">
        <ele>73</ele>
        <time>2016-05-09T16:16:15Z</time>
      </trkpt>
      <trkpt lat="47.35963" lon="0.67815">
        <ele>73</ele>
        <time>2016-05-09T16:18:15Z</time>
      </trkpt>
      <trkpt lat="47.35956" lon="0.67826">
        <ele>73</ele>
        <time>2016-05-09T16:20:15Z</time>
      </trkpt>
      <trkpt lat="47.35935" lon="0.67859">
        <ele>73</ele>
        <time>2016-05-09T16:22:15Z</time>
      </trkpt>
      <trkpt lat="47.35905" lon="0.67913">
        <ele>70</ele>
        <time>2016-05-09T16:24:15Z</time>
      </trkpt>
      <trkpt lat="47.35894" lon="0.67932">
        <ele>69</ele>
        <time>2016-05-09T16:26:15Z</time>
      </trkpt>
      <trkpt lat="47.35866" lon="0.67985">
        <ele>67</ele>
        <time>2016-05-09T16:28:15Z</time>
      </trkpt>
      <trkpt lat="47.3585" lon="0.68016">
        <ele>66</ele>
        <time>2016-05-09T16:30:15Z</time>
      </trkpt>
      <trkpt lat="47.35846" lon="0.68026">
        <ele>66</ele>
        <time>2016-05-09T16:32:15Z</time>
      </trkpt>
      <trkpt lat="47.35833" lon="0.6805">
        <ele>66</ele>
        <time>2016-05-09T16:34:15Z</time>
      </trkpt>
      <trkpt lat="47.35819" lon="0.68076">
        <ele>66</ele>
        <time>2016-05-09T16:36:15Z</time>
      </trkpt>
      <trkpt lat="47.35801" lon="0.68107">
        <ele>65</ele>
        <time>2016-05-09T16:38:15Z</time>
      </trkpt>
      <trkpt lat="47.35798" lon="0.68112">
        <ele>65</ele>
        <time>2016-05-09T16:40:15Z</time>
      </trkpt>
      <trkpt lat="47.35788" lon="0.68127">
        <ele>65</ele>
        <time>2016-05-09T16:42:15Z</time>
      </trkpt>
      <trkpt lat="47.35784" lon="0.68135">
        <ele>65</ele>
        <time>2016-05-09T16:44:15Z</time>
      </trkpt>
      <trkpt lat="47.35777" lon="0.68148">
        <ele>65</ele>
        <time>2016-05-09T16:46:15Z</time>
      </trkpt>
      <trkpt lat="47.35777" lon="0.68148">
        <ele>65</ele>
        <time>2016-05-09T16:48:15Z</time>
      </trkpt>
      <trkpt lat="47.35758" lon="0.68129">
        <ele>65</ele>
        <time>2016-05-09T16:50:15Z</time>
      </trkpt>
      <trkpt lat="47.35737" lon="0.68107">
        <ele>65</ele>
        <time>2016-05-09T16:52:15Z</time>
      </trkpt>
      <trkpt lat="47.35737" lon="0.68107">
        <ele>65</ele>
        <time>2016-05-09T16:54:15Z</time>
      </trkpt>
      <trkpt lat="47.35733" lon="0.68117">
        <ele>65</ele>
        <time>2016-05-09T16:56:15Z</time>
      </trkpt>
      <trkpt lat="47.35725" lon="0.68132">
        <ele>66</ele>
        <time>2016-05-09T16:58:15Z</time>
      </trkpt>
      <trkpt lat="47.35717" lon="0.68149">
        <ele>66</ele>
        <time>2016-05-09T17:00:15Z</time>
      </trkpt>
      <trkpt lat="47.35713" lon="0.68157">
        <ele>66</ele>
        <time>2016-05-09T17:02:15Z</time>
      </trkpt>
      <trkpt lat="47.35709" lon="0.68162">
        <ele>66</ele>
        <time>2016-05-09T17:04:15Z</time>
      </trkpt>
      <trkpt lat="47.35707" lon="0.68164">
        <ele>66</ele>
        <time>2016-05-09T17:06:15Z</time>
      </trkpt>
      <trkpt lat="47.35703" lon="0.68167">
        <ele>66</ele>
        <time>2016-05-09T17:08:15Z</time>
      </trkpt>
      <trkpt lat="47.35701" lon="0.68169">
        <ele>66</ele>
        <time>2016-05-09T17:10:15Z</time>
      </trkpt>
      <trkpt lat="47.35699" lon="0.6817">
        <ele>66</ele>
        <time>2016-05-09T17:12:15Z</time>
      </trkpt>
      <trkpt lat="47.35696" lon="0.68172">
        <ele>67</ele>
        <time>2016-05-09T17:14:15Z</time>
      </trkpt>
      <trkpt lat="47.35693" lon="0.68173">
        <ele>67</ele>
        <time>2016-05-09T17:16:15Z</time>
      </trkpt>
      <trkpt lat="47.35684" lon="0.68174">
        <ele>67</ele>
        <time>2016-05-09T17:18:15Z</time>
      </trkpt>
      <trkpt lat="47.35649" lon="0.68172">
        <ele>67</ele>
        <time>2016-05-09T17:20:15Z</time>
      </trkpt>
      <trkpt lat="47.35644" lon="0.68171">
        <ele>67</ele>
        <time>2016-05-09T17:22:15Z</time>
      </trkpt>
      <trkpt lat="47.35633" lon="0.68171">
        <ele>67</ele>
        <time>2016-05-09T17:24:15Z</time>
      </trkpt>
      <trkpt lat="47.35629" lon="0.68171">
        <ele>67</ele>
        <time>2016-05-09T17:26:15Z</time>
      </trkpt>
      <trkpt lat="47.35615" lon="0.6817">
        <ele>67</ele>
        <time>2016-05-09T17:28:15Z</time>
      </trkpt>
      <trkpt lat="47.35606" lon="0.6817">
        <ele>67</ele>
        <time>2016-05-09T17:30:15Z</time>
      </trkpt>
      <trkpt lat="47.356" lon="0.68171">
        <ele>67</ele>
        <time>2016-05-09T17:32:15Z</time>
      </trkpt>
      <trkpt lat="47.35589" lon="0.68174">
        <ele>68</ele>
        <time>2016-05-09T17:34:15Z</time>
      </trkpt>
      <trkpt lat="47.35583" lon="0.68176">
        <ele>68</ele>
        <time>2016-05-09T17:36:15Z</time>
      </trkpt>
      <trkpt lat="47.35561" lon="0.68184">
        <ele>69</ele>
        <time>2016-05-09T17:38:15Z</time>
      </trkpt>
      <trkpt lat="47.3555" lon="0.68188">
        <ele>70</ele>
        <time>2016-05-09T17:40:15Z</time>
      </trkpt>
      <trkpt lat="47.35538" lon="0.68193">
        <ele>70</ele>
        <time>2016-05-09T17:42:15Z</time>
      </trkpt>
      <trkpt lat="47.35528" lon="0.68199">
        <ele>71</ele>
        <time>2016-05-09T17:44:15Z</time>
      </trkpt>
      <trkpt lat="47.35522" lon="0.68202">
        <ele>71</ele>
        <time>2016-05-09T17:46:15Z</time>
      </trkpt>
      <trkpt lat="47.35504" lon="0.68212">
        <ele>71</ele>
        <time>2016-05-09T17:48:15Z</time>
      </trkpt>
      <trkpt lat="47.35487" lon="0.68221">
        <ele>71</ele>
        <time>2016-05-09T17:50:15Z</time>
      </trkpt>
      <trkpt lat="47.3547" lon="0.68229">
        <ele>72</ele>
        <time>2016-05-09T17:52:15Z</time>
      </trkpt>
      <trkpt lat="47.35466" lon="0.6823">
        <ele>72</ele>
        <time>2016-05-09T17:54:15Z</time>
      </trkpt>
      <trkpt lat="47.35462" lon="0.68231">
        <ele>71</ele>
        <time>2016-05-09T17:56:15Z</time>
      </trkpt>
      <trkpt lat="47.35458" lon="0.68232">
        <ele>71</ele>
        <time>2016-05-09T17:58:15Z</time>
      </trkpt>
      <trkpt lat="47.35453" lon="0.68232">
        <ele>71</ele>
        <time>2016-05-09T18:00:15Z</time>
      </trkpt>
      <trkpt lat="47.35448" lon="0.68233">
        <ele>71</ele>
        <time>2016-05-09T18:02:15Z</time>
      </trkpt>
      <trkpt lat="47.35442" lon="0.68232">
        <ele>71</ele>
        <time>2016-05-09T18:04:15Z</time>
      </trkpt>
      <trkpt lat="47.3542" lon="0.68228">
        <ele>71</ele>
        <time>2016-05-09T18:06:15Z</time>
      </trkpt>
      <trkpt lat="47.35406" lon="0.68224">
        <ele>71</ele>
        <time>2016-05-09T18:08:15Z</time>
      </trkpt>
      <trkpt lat="47.35399" lon="0.68223">
        <ele>71</ele>
        <time>2016-05-09T18:10:15Z</time>
      </trkpt>
      <trkpt lat="47.35394" lon="0.68222">
        <ele>70</ele>
        <time>2016-05-09T18:12:15Z</time>
      </trkpt>
      <trkpt lat="47.35389" lon="0.68221">
        <ele>70</ele>
        <time>2016-05-09T18:14:15Z</time>
      </trkpt>
      <trkpt lat="47.35385" lon="0.68221">
        <ele>70</ele>
        <time>2016-05-09T18:16:15Z</time>
      </trkpt>
      <trkpt lat="47.35379" lon="0.6822">
        <ele>70</ele>
        <time>2016-05-09T18:18:15Z</time>
      </trkpt>
      <trkpt lat="47.35372" lon="0.68221">
        <ele>70</ele>
        <time>2016-05-09T18:20:15Z</time>
      </trkpt>
      <trkpt lat="47.35362" lon="0.68223">
        <ele>70</ele>
        <time>2016-05-09T18:22:15Z</time>
      </trkpt>
      <trkpt lat="47.35344" lon="0.68225">
        <ele>70</ele>
        <time>2016-05-09T18:24:15Z</time>
      </trkpt>
      <trkpt lat="47.3534" lon="0.68226">
        <ele>70</ele>
        <time>2016-05-09T18:26:15Z</time>
      </trkpt>
      <trkpt lat="47.3534" lon="0.68226">
        <ele>70</ele>
        <time>2016-05-09T18:28:15Z</time>
      </trkpt>
      <trkpt lat="47.3533" lon="0.68213">
        <ele>71</ele>
        <time>2016-05-09T18:30:15Z</time>
      </trkpt>
      <trkpt lat="47.35294" lon="0.68173">
        <ele>74</ele>
        <time>2016-05-09T18:32:15Z</time>
      </trkpt>
      <trkpt lat="47.35287" lon="0.68165">
        <ele>75</ele>
        <time>2016-05-09T18:34:15Z</time>
      </trkpt>
      <trkpt lat="47.35279" lon="0.68155">
        <ele>76</ele>
        <time>2016-05-09T18:36:15Z</time>
      </trkpt>
      <trkpt lat="47.35274" lon="0.68151">
        <ele>76</ele>
        <time>2016-05-09T18:38:15Z</time>
      </trkpt>
      <trkpt lat="47.35265" lon="0.68144">
        <ele>77</ele>
        <time>2016-05-09T18:40:15Z</time>
      </trkpt>
      <trkpt lat="47.35252" lon="0.68137">
        <ele>78</ele>
        <time>2016-05-09T18:42:15Z</time>
      </trkpt>
      <trkpt lat="47.35247" lon="0.68134">
        <ele>78</ele>
        <time>2016-05-09T18:44:15Z</time>
      </trkpt>
      <trkpt lat="47.35239" lon="0.68128">
        <ele>79</ele>
        <time>2016-05-09T18:46:15Z</time>
      </trkpt>
      <trkpt lat="47.35233" lon="0.68123">
        <ele>79</ele>
        <time>2016-05-09T18:48:15Z</time>
      </trkpt>
      <trkpt lat="47.35233" lon="0.68123">
        <ele>79</ele>
        <time>2016-05-09T18:50:15Z</time>
      </trkpt>
      <trkpt lat="47.35227" lon="0.68125">
        <ele>79</ele>
        <time>2016-05-09T18:52:15Z</time>
      </trkpt>
      <trkpt lat="47.3521" lon="0.6813">
        <ele>80</ele>
        <time>2016-05-09T18:54:15Z</time>
      </trkpt>
      <trkpt lat="47.35204" lon="0.68131">
        <ele>81</ele>
        <time>2016-05-09T18:56:15Z</time>
      </trkpt>
      <trkpt lat="47.35157" lon="0.68139">
        <ele>83</ele>
        <time>2016-05-09T18:58:15Z</time>
      </trkpt>
      <trkpt lat="47.3514" lon="0.68142">
        <ele>83</ele>
        <time>2016-05-09T19:00:15Z</time>
      </trkpt>
      <trkpt lat="47.3514" lon="0.68142">
        <ele>83</ele>
        <time>2016-05-09T19:02:15Z</time>
      </trkpt>
      <trkpt lat="47.35133" lon="0.68086">
        <ele>85</ele>
        <time>2016-05-09T19:04:15Z</time>
      </trkpt>
      <trkpt lat="47.35122" lon="0.68007">
        <ele>85</ele>
        <time>2016-05-09T19:06:15Z</time>
      </trkpt>
      <trkpt lat="47.35117" lon="0.67976">
        <ele>84</ele>
        <time>2016-05-09T19:08:15Z</time>
      </trkpt>
      <trkpt lat="47.35112" lon="0.67949">
        <ele>84</ele>
        <time>2016-05-09T19:10:15Z</time>
      </trkpt>
      <trkpt lat="47.35106" lon="0.67915">
        <ele>84</ele>
        <time>2016-05-09T19:12:15Z</time>
      </trkpt>
      <trkpt lat="47.35106" lon="0.67915">
        <ele>84</ele>
        <time>2016-05-09T19:14:15Z</time>
      </trkpt>
      <trkpt lat="47.35107" lon="0.67912">
        <ele>84</ele>
        <time>2016-05-09T19:16:15Z</time>
      </trkpt>
      <trkpt lat="47.35107" lon="0.6791">
        <ele>84</ele>
        <time>2016-05-09T19:18:15Z</time>
      </trkpt>
      <trkpt lat="47.35107" lon="0.67907">
        <ele>84</ele>
        <time>2016-05-09T19:20:15Z</time>
      </trkpt>
      <trkpt lat="47.35107" lon="0.67905">
        <ele>84</ele>
        <time>2016-05-09T19:22:15Z</time>
      </trkpt>
      <trkpt lat="47.35106" lon="0.67901">
        <ele>84</ele>
        <time>2016-05-09T19:24:15Z</time>
      </trkpt>
      <trkpt lat="47.35105" lon="0.67896">
        <ele>84</ele>
        <time>2016-05-09T19:26:15Z</time>
      </trkpt>
      <trkpt lat="47.35103" lon="0.67886">
        <ele>84</ele>
        <time>2016-05-09T19:28:15Z</time>
      </trkpt>
      <trkpt lat="47.35091" lon="0.67839">
        <ele>84</ele>
        <time>2016-05-09T19:30:15Z</time>
      </trkpt>
      <trkpt lat="47.35083" lon="0.67806">
        <ele>83</ele>
        <time>2016-05-09T19:32:15Z</time>
      </trkpt>
      <trkpt lat="47.35088" lon="0.67799">
        <ele>82</ele>
        <time>2016-05-09T19:34:15Z</time>
      </trkpt>
      <trkpt lat="47.3509" lon="0.67796">
        <ele>82</ele>
        <time>2016-05-09T19:36:15Z</time>
      </trkpt>
      <trkpt lat="47.35093" lon="0.67791">
        <ele>82</ele>
        <time>2016-05-09T19:38:15Z</time>
      </trkpt>
      <trkpt lat="47.35092" lon="0.67783">
        <ele>82</ele>
        <time>2016-05-09T19:40:15Z</time>
      </trkpt>
      <trkpt lat="47.35092" lon="0.67778">
        <ele>81</ele>
        <time>2016-05-09T19:42:15Z</time>
      </trkpt>
      <trkpt lat="47.35091" lon="0.67772">
        <ele>81</ele>
        <time>2016-05-09T19:44:15Z</time>
      </trkpt>
      <trkpt lat="47.35089" lon="0.67764">
        <ele>81</ele>
        <time>2016-05-09T19:46:15Z</time>
      </trkpt>
      <trkpt lat="47.35087" lon="0.67758">
        <ele>80</ele>
        <time>2016-05-09T19:48:15Z</time>
      </trkpt>
      <trkpt lat="47.35085" lon="0.67752">
        <ele>80</ele>
        <time>2016-05-09T19:50:15Z</time>
      </trkpt>
      <trkpt lat="47.35083" lon="0.67747">
        <ele>80</ele>
        <time>2016-05-09T19:52:15Z</time>
      </trkpt>
      <trkpt lat="47.35082" lon="0.67742">
        <ele>80</ele>
        <time>2016-05-09T19:54:15Z</time>
      </trkpt>
      <trkpt lat="47.3508" lon="0.67737">
        <ele>80</ele>
        <time>2016-05-09T19:56:15Z</time>
      </trkpt>
      <trkpt lat="47.35079" lon="0.67731">
        <ele>79</ele>
        <time>2016-05-09T19:58:15Z</time>
      </trkpt>
      <trkpt lat="47.35066" lon="0.67642">
        <ele>77</ele>
        <time>2016-05-09T20:00:15Z</time>
      </trkpt>
      <trkpt lat="47.35052" lon="0.67541">
        <ele>75</ele>
        <time>2016-05-09T20:02:15Z</time>
      </trkpt>
      <trkpt lat="47.35052" lon="0.67538">
        <ele>75</ele>
        <time>2016-05-09T20:04:15Z</time>
      </trkpt>
      <trkpt lat="47.35051" lon="0.67536">
        <ele>75</ele>
        <time>2016-05-09T20:06:15Z</time>
      </trkpt>
      <trkpt lat="47.3505" lon="0.67534">
        <ele>75</ele>
        <time>2016-05-09T20:08:15Z</time>
      </trkpt>
      <trkpt lat="47.35049" lon="0.67534">
        <ele>75</ele>
        <time>2016-05-09T20:10:15Z</time>
      </trkpt>
      <trkpt lat="47.35048" lon="0.67533">
        <ele>75</ele>
        <time>2016-05-09T20:12:15Z</time>
      </trkpt>
      <trkpt lat="47.35046" lon="0.67533">
        <ele>75</ele>
        <time>2016-05-09T20:14:15Z</time>
      </trkpt>
      <trkpt lat="47.35045" lon="0.67531">
        <ele>75</ele>
        <time>2016-05-09T20:16:15Z</time>
      </trkpt>
      <trkpt lat="47.35041" lon="0.67531">
        <ele>75</ele>
        <time>2016-05-09T20:18:15Z</time>
      </trkpt>
      <trkpt lat="47.35037" lon="0.67531">
        <ele>75</ele>
        <time>2016-05-09T20:20:15Z</time>
      </trkpt>
      <trkpt lat="47.35033" lon="0.67535">
        <ele>76</ele>
        <time>2016-05-09T20:22:15Z</time>
      </trkpt>
      <trkpt lat="47.35031" lon="0.67535">
        <ele>76</ele>
        <time>2016-05-09T20:24:15Z</time>
      </trkpt>
      <trkpt lat="47.35014" lon="0.67541">
        <ele>76</ele>
        <time>2016-05-09T20:26:15Z</time>
      </trkpt>
      <trkpt lat="47.35014" lon="0.67541">
        <ele>76</ele>
        <time>2016-05-09T20:28:15Z</time>
      </trkpt>
      <trkpt lat="47.35005" lon="0.67544">
        <ele>77</ele>
        <time>2016-05-09T20:30:15Z</time>
      </trkpt>
      <trkpt lat="47.34997" lon="0.67547">
        <ele>77</ele>
        <time>2016-05-09T20:32:15Z</time>
      </trkpt>
      <trkpt lat="47.34977" lon="0.67556">
        <ele>78</ele>
        <time>2016-05-09T20:34:15Z</time>
      </trkpt>
      <trkpt lat="47.34975" lon="0.67557">
        <ele>78</ele>
        <time>2016-05-09T20:36:15Z</time>
      </trkpt>
      <trkpt lat="47.34969" lon="0.67561">
        <ele>78</ele>
        <time>2016-05-09T20:38:15Z</time>
      </trkpt>
      <trkpt lat="47.34963" lon="0.67565">
        <ele>78</ele>
        <time>2016-05-09T20:40:15Z</time>
      </trkpt>
      <trkpt lat="47.34957" lon="0.6757">
        <ele>78</ele>
        <time>2016-05-09T20:42:15Z</time>
      </trkpt>
      <trkpt lat="47.34955" lon="0.67573">
        <ele>79</ele>
        <time>2016-05-09T20:44:15Z</time>
      </trkpt>
      <trkpt lat="47.34952" lon="0.67576">
        <ele>79</ele>
        <time>2016-05-09T20:46:15Z</time>
      </trkpt>
      <trkpt lat="47.3491" lon="0.67619">
        <ele>80</ele>
        <time>2016-05-09T20:48:15Z</time>
      </trkpt>
      <trkpt lat="47.349" lon="0.67628">
        <ele>80</ele>
        <time>2016-05-09T20:50:15Z</time>
      </trkpt>
      <trkpt lat="47.34892" lon="0.67636">
        <ele>80</ele>
        <time>2016-05-09T20:52:15Z</time>
      </trkpt>
      <trkpt lat="47.34816" lon="0.67711">
        <ele>78</ele>
        <time>2016-05-09T20:54:15Z</time>
      </trkpt>
      <trkpt lat="47.34812" lon="0.67714">
        <ele>78</ele>
        <time>2016-05-09T20:56:15Z</time>
      </trkpt>
      <trkpt lat="47.34809" lon="0.67716">
        <ele>78</ele>
        <time>2016-05-09T20:58:15Z</time>
      </trkpt>
      <trkpt lat="47.34799" lon="0.6772">
        <ele>78</ele>
        <time>2016-05-09T21:00:15Z</time>
      </trkpt>
      <trkpt lat="47.34796" lon="0.67721">
        <ele>78</ele>
        <time>2016-05-09T21:02:15Z</time>
      </trkpt>
      <trkpt lat="47.34789" lon="0.67721">
        <ele>78</ele>
        <time>2016-05-09T21:04:15Z</time>
      </trkpt>
      <trkpt lat="47.34786" lon="0.67719">
        <ele>78</ele>
        <time>2016-05-09T21:06:15Z</time>
      </trkpt>
      <trkpt lat="47.3478" lon="0.67717">
        <ele>78</ele>
        <time>2016-05-09T21:08:15Z</time>
      </trkpt>
      <trkpt lat="47.34769" lon="0.6771">
        <ele>78</ele>
        <time>2016-05-09T21:10:15Z</time>
      </trkpt>
      <trkpt lat="47.34759" lon="0.67704">
        <ele>78</ele>
        <time>2016-05-09T21:12:15Z</time>
      </trkpt>
      <trkpt lat="47.34744" lon="0.67694">
        <ele>78</ele>
        <time>2016-05-09T21:14:15Z</time>
      </trkpt>
      <trkpt lat="47.34745" lon="0.6769">
        <ele>78</ele>
        <time>2016-05-09T21:16:15Z</time>
      </trkpt>
      <trkpt lat="47.34745" lon="0.67688">
        <ele>78</ele>
        <time>2016-05-09T21:18:15Z</time>
      </trkpt>
      <trkpt lat="47.34745" lon="0.67686">
        <ele>77</ele>
        <time>2016-05-09T21:20:15Z</time>
      </trkpt>
      <trkpt lat="47.34745" lon="0.67683">
        <ele>77</ele>
        <time>2016-05-09T21:22:15Z</time>
      </trkpt>
      <trkpt lat="47.34745" lon="0.67681">
        <ele>77</ele>
        <time>2016-05-09T21:24:15Z</time>
      </trkpt>
      <trkpt lat="47.34744" lon="0.67679">
        <ele>77</ele>
        <time>2016-05-09T21:26:15Z</time>
      </trkpt>
      <trkpt lat="47.34743" lon="0.67678">
        <ele>77</ele>
        <time>2016-05-09T21:28:15Z</time>
      </trkpt>
      <trkpt lat="47.34741" lon="0.67676">
        <ele>77</ele>
        <time>2016-05-09T21:30:15Z</time>
      </trkpt>
      <trkpt lat="47.34739" lon="0.67674">
        <ele>77</ele>
        <time>2016-05-09T21:32:15Z</time>
      </trkpt>
      <trkpt lat="47.34736" lon="0.67673">
        <ele>77</ele>
        <time>2016-05-09T21:34:15Z</time>
      </trkpt>
      <trkpt lat="47.34734" lon="0.67673">
        <ele>77</ele>
        <time>2016-05-09T21:36:15Z</time>
      </trkpt>
      <trkpt lat="47.34732" lon="0.67674">
        <ele>77</ele>
        <time>2016-05-09T21:38:15Z</time>
      </trkpt>
      <trkpt lat="47.34731" lon="0.67674">
        <ele>77</ele>
        <time>2016-05-09T21:40:15Z</time>
      </trkpt>
      <trkpt lat="47.34729" lon="0.67676">
        <ele>77</ele>
        <time>2016-05-09T21:42:15Z</time>
      </trkpt>
      <trkpt lat="47.34727" lon="0.67682">
        <ele>77</ele>
        <time>2016-05-09T21:44:15Z</time>
      </trkpt>
      <trkpt lat="47.3468" lon="0.67648">
        <ele>77</ele>
        <time>2016-05-09T21:46:15Z</time>
      </trkpt>
      <trkpt lat="47.34657" lon="0.67632">
        <ele>76</ele>
        <time>2016-05-09T21:48:15Z</time>
      </trkpt>
      <trkpt lat="47.34633" lon="0.67615">
        <ele>76</ele>
        <time>2016-05-09T21:50:15Z</time>
      </trkpt>
      <trkpt lat="47.34628" lon="0.67612">
        <ele>76</ele>
        <time>2016-05-09T21:52:15Z</time>
      </trkpt>
      <trkpt lat="47.34625" lon="0.67609">
        <ele>76</ele>
        <time>2016-05-09T21:54:15Z</time>
      </trkpt>
      <trkpt lat="47.34622" lon="0.67608">
        <ele>76</ele>
        <time>2016-05-09T21:56:15Z</time>
      </trkpt>
      <trkpt lat="47.34617" lon="0.67606">
        <ele>76</ele>
        <time>2016-05-09T21:58:15Z</time>
      </trkpt>
      <trkpt lat="47.34612" lon="0.67604">
        <ele>76</ele>
        <time>2016-05-09T22:00:15Z</time>
      </trkpt>
      <trkpt lat="47.34604" lon="0.67603">
        <ele>76</ele>
        <time>2016-05-09T22:02:15Z</time>
      </trkpt>
      <trkpt lat="47.34599" lon="0.67603">
        <ele>76</ele>
        <time>2016-05-09T22:04:15Z</time>
      </trkpt>
      <trkpt lat="47.34586" lon="0.67604">
        <ele>76</ele>
        <time>2016-05-09T22:06:15Z</time>
      </trkpt>
      <trkpt lat="47.34573" lon="0.67606">
        <ele>76</ele>
        <time>2016-05-09T22:08:15Z</time>
      </trkpt>
      <trkpt lat="47.34565" lon="0.67608">
        <ele>76</ele>
        <time>2016-05-09T22:10:15Z</time>
      </trkpt>
      <trkpt lat="47.34561" lon="0.67608">
        <ele>76</ele>
        <time>2016-05-09T22:12:15Z</time>
      </trkpt>
      <trkpt lat="47.34553" lon="0.67608">
        <ele>77</ele>
        <time>2016-05-09T22:14:15Z</time>
      </trkpt>
      <trkpt lat="47.34546" lon="0.67608">
        <ele>77</ele>
        <time>2016-05-09T22:16:15Z</time>
      </trkpt>
      <trkpt lat="47.34538" lon="0.67607">
        <ele>77</ele>
        <time>2016-05-09T22:18:15Z</time>
      </trkpt>
      <trkpt lat="47.3453" lon="0.67605">
        <ele>77</ele>
        <time>2016-05-09T22:20:15Z</time>
      </trkpt>
      <trkpt lat="47.34525" lon="0.67603">
        <ele>77</ele>
        <time>2016-05-09T22:22:15Z</time>
      </trkpt>
      <trkpt lat="47.34516" lon="0.676">
        <ele>77</ele>
        <time>2016-05-09T22:24:15Z</time>
      </trkpt>
      <trkpt lat="47.34503" lon="0.67593">
        <ele>77</ele>
        <time>2016-05-09T22:26:15Z</time>
      </trkpt>
      <trkpt lat="47.34479" lon="0.67578">
        <ele>79</ele>
        <time>2016-05-09T22:28:15Z</time>
      </trkpt>
      <trkpt lat="47.34446" lon="0.67553">
        <ele>81</ele>
        <time>2016-05-09T22:30:15Z</time>
      </trkpt>
      <trkpt lat="47.34432" lon="0.67544">
        <ele>83</ele>
        <time>2016-05-09T22:32:15Z</time>
      </trkpt>
      <trkpt lat="47.34422" lon="0.67539">
        <ele>84</ele>
        <time>2016-05-09T22:34:15Z</time>
      </trkpt>
      <trkpt lat="47.34409" lon="0.67533">
        <ele>84</ele>
        <time>2016-05-09T22:36:15Z</time>
      </trkpt>
      <trkpt lat="47.34402" lon="0.6753">
        <ele>84</ele>
        <time>2016-05-09T22:38:15Z</time>
      </trkpt>
      <trkpt lat="47.34363" lon="0.67518">
        <ele>85</ele>
        <time>2016-05-09T22:40:15Z</time>
      </trkpt>
      <trkpt lat="47.34345" lon="0.67512">
        <ele>86</ele>
        <time>2016-05-09T22:42:15Z</time>
      </trkpt>
      <trkpt lat="47.34336" lon="0.67508">
        <ele>86</ele>
        <time>2016-05-09T22:44:15Z</time>
      </trkpt>
      <trkpt lat="47.3433" lon="0.67506">
        <ele>86</ele>
        <time>2016-05-09T22:46:15Z</time>
      </trkpt>
      <trkpt lat="47.34327" lon="0.67505">
        <ele>86</ele>
        <time>2016-05-09T22:48:15Z</time>
      </trkpt>
      <trkpt lat="47.34324" lon="0.67503">
        <ele>86</ele>
        <time>2016-05-09T22:50:15Z</time>
      </trkpt>
      <trkpt lat="47.34319" lon="0.67498">
        <ele>87</ele>
        <time>2016-05-09T22:52:15Z</time>
      </trkpt>
      <trkpt lat="47.34315" lon="0.67497">
        <ele>87</ele>
        <time>2016-05-09T22:54:15Z</time>
      </trkpt>
      <trkpt lat="47.34311" lon="0.67497">
        <ele>87</ele>
        <time>2016-05-09T22:56:15Z</time>
      </trkpt>
      <trkpt lat="47.34306" lon="0.67497">
        <ele>87</ele>
        <time>2016-05-09T22:58:15Z</time>
      </trkpt>
      <trkpt lat="47.34302" lon="0.67496">
        <ele>87</ele>
        <time>2016-05-09T23:00:15Z</time>
      </trkpt>
      <trkpt lat="47.34299" lon="0.67496">
        <ele>87</ele>
        <time>2016-05-09T23:02:15Z</time>
      </trkpt>
      <trkpt lat="47.34293" lon="0.67495">
        <ele>88</ele>
        <time>2016-05-09T23:04:15Z</time>
      </trkpt>
      <trkpt lat="47.34265" lon="0.67485">
        <ele>89</ele>
        <time>2016-05-09T23:06:15Z</time>
      </trkpt>
      <trkpt lat="47.34243" lon="0.67478">
        <ele>89</ele>
        <time>2016-05-09T23:08:15Z</time>
      </trkpt>
      <trkpt lat="47.34225" lon="0.67472">
        <ele>90</ele>
        <time>2016-05-09T23:10:15Z</time>
      </trkpt>
      <trkpt lat="47.34205" lon="0.67469">
        <ele>90</ele>
        <time>2016-05-09T23:12:15Z</time>
      </trkpt>
      <trkpt lat="47.34177" lon="0.67465">
        <ele>91</ele>
        <time>2016-05-09T23:14:15Z</time>
      </trkpt>
      <trkpt lat="47.34171" lon="0.67464">
        <ele>92</ele>
        <time>2016-05-09T23:16:15Z</time>
      </trkpt>
      <trkpt lat="47.34154" lon="0.67462">
        <ele>92</ele>
        <time>2016-05-09T23:18:15Z</time>
      </trkpt>
      <trkpt lat="47.34138" lon="0.6746">
        <ele>93</ele>
        <time>2016-05-09T23:20:15Z</time>
      </trkpt>
      <trkpt lat="47.34113" lon="0.67457">
        <ele>94</ele>
        <time>2016-05-09T23:22:15Z</time>
      </trkpt>
      <trkpt lat="47.34094" lon="0.67455">
        <ele>95</ele>
        <time>2016-05-09T23:24:15Z</time>
      </trkpt>
      <trkpt lat="47.34088" lon="0.67454">
        <ele>95</ele>
        <time>2016-05-09T23:26:15Z</time>
      </trkpt>
      <trkpt lat="47.34077" lon="0.67451">
        <ele>96</ele>
        <time>2016-05-09T23:28:15Z</time>
      </trkpt>
      <trkpt lat="47.34076" lon="0.6745">
        <ele>96</ele>
        <time>2016-05-09T23:30:15Z</time>
      </trkpt>
      <trkpt lat="47.34076" lon="0.67448">
        <ele>96</ele>
        <time>2016-05-09T23:32:15Z</time>
      </trkpt>
      <trkpt lat="47.34075" lon="0.67447">
        <ele>96</ele>
        <time>2016-05-09T23:34:15Z</time>
      </trkpt>
      <trkpt lat="47.34073" lon="0.67446">
        <ele>97</ele>
        <time>2016-05-09T23:36:15Z</time>
      </trkpt>
      <trkpt lat="47.34072" lon="0.67445">
        <ele>97</ele>
        <time>2016-05-09T23:38:15Z</time>
      </trkpt>
      <trkpt lat="47.3407" lon="0.67446">
        <ele>97</ele>
        <time>2016-05-09T23:40:15Z</time>
      </trkpt>
      <trkpt lat="47.34069" lon="0.67447">
        <ele>97</ele>
        <time>2016-05-09T23:42:15Z</time>
      </trkpt>
      <trkpt lat="47.34069" lon="0.67448">
        <ele>97</ele>
        <time>2016-05-09T23:44:15Z</time>
      </trkpt>
      <trkpt lat="47.34068" lon="0.6745">
        <ele>97</ele>
        <time>2016-05-09T23:46:15Z</time>
      </trkpt>
      <trkpt lat="47.34068" lon="0.67452">
        <ele>97</ele>
        <time>2016-05-09T23:48:15Z</time>
      </trkpt>
      <trkpt lat="47.34064" lon="0.67452">
        <ele>97</ele>
        <time>2016-05-09T23:50:15Z</time>
      </trkpt>
      <trkpt lat="47.34048" lon="0.6745">
        <ele>99</ele>
        <time>2016-05-09T23:52:15Z</time>
      </trkpt>
      <trkpt lat="47.34026" lon="0.67445">
        <ele>101</ele>
        <time>2016-05-09T23:54:15Z</time>
      </trkpt>
      <trkpt lat="47.34011" lon="0.67442">
        <ele>103</ele>
        <time>2016-05-09T23:56:15Z</time>
      </trkpt>
      <trkpt lat="47.3399" lon="0.6744">
        <ele>104</ele>
        <time>2016-05-09T23:58:15Z</time>
      </trkpt>
      <trkpt lat="47.33979" lon="0.67441">
        <ele>104</ele>
        <time>2016-05-10T00:00:15Z</time>
      </trkpt>
      <trkpt lat="47.3397" lon="0.67443">
        <ele>104</ele>
        <time>2016-05-10T00:02:15Z</time>
      </trkpt>
      <trkpt lat="47.33961" lon="0.67446">
        <ele>104</ele>
        <time>2016-05-10T00:04:15Z</time>
      </trkpt>
      <trkpt lat="47.33954" lon="0.67449">
        <ele>103</ele>
        <time>2016-05-10T00:06:15Z</time>
      </trkpt>
      <trkpt lat="47.33948" lon="0.67453">
        <ele>103</ele>
        <time>2016-05-10T00:08:15Z</time>
      </trkpt>
      <trkpt lat="47.33942" lon="0.67458">
        <ele>103</ele>
        <time>2016-05-10T00:10:15Z</time>
      </trkpt>
      <trkpt lat="47.33936" lon="0.67464">
        <ele>103</ele>
        <time>2016-05-10T00:12:15Z</time>
      </trkpt>
      <trkpt lat="47.33929" lon="0.67471">
        <ele>103</ele>
        <time>2016-05-10T00:14:15Z</time>
      </trkpt>
      <trkpt lat="47.33927" lon="0.67475">
        <ele>103</ele>
        <time>2016-05-10T00:16:15Z</time>
      </trkpt>
      <trkpt lat="47.33923" lon="0.67481">
        <ele>102</ele>
        <time>2016-05-10T00:18:15Z</time>
      </trkpt>
      <trkpt lat="47.33918" lon="0.6749">
        <ele>102</ele>
        <time>2016-05-10T00:20:15Z</time>
      </trkpt>
      <trkpt lat="47.33916" lon="0.67494">
        <ele>102</ele>
        <time>2016-05-10T00:22:15Z</time>
      </trkpt>
      <trkpt lat="47.33914" lon="0.675">
        <ele>102</ele>
        <time>2016-05-10T00:24:15Z</time>
      </trkpt>
      <trkpt lat="47.33908" lon="0.67515">
        <ele>101</ele>
        <time>2016-05-10T00:26:15Z</time>
      </trkpt>
      <trkpt lat="47.33902" lon="0.67527">
        <ele>100</ele>
        <time>2016-05-10T00:28:15Z</time>
      </trkpt>
      <trkpt lat="47.339" lon="0.67532">
        <ele>100</ele>
        <time>2016-05-10T00:30:15Z</time>
      </trkpt>
      <trkpt lat="47.33896" lon="0.6754">
        <ele>100</ele>
        <time>2016-05-10T00:32:15Z</time>
      </trkpt>
      <trkpt lat="47.33893" lon="0.67547">
        <ele>99</ele>
        <time>2016-05-10T00:34:15Z</time>
      </trkpt>
      <trkpt lat="47.3389" lon="0.67552">
        <ele>99</ele>
        <time>2016-05-10T00:36:15Z</time>
      </trkpt>
      <trkpt lat="47.33884" lon="0.6756">
        <ele>99</ele>
        <time>2016-05-10T00:38:15Z</time>
      </trkpt>
      <trkpt lat="47.33857" lon="0.67597">
        <ele>96</ele>
        <time>2016-05-10T00:40:15Z</time>
      </trkpt>
      <trkpt lat="47.33852" lon="0.67603">
        <ele>96</ele>
        <time>2016-05-10T00:42:15Z</time>
      </trkpt>
      <trkpt lat="47.33831" lon="0.67626">
        <ele>95</ele>
        <time>2016-05-10T00:44:15Z</time>
      </trkpt>
      <trkpt lat="47.338" lon="0.6766">
        <ele>94</ele>
        <time>2016-05-10T00:46:15Z</time>
      </trkpt>
      <trkpt lat="47.33788" lon="0.67671">
        <ele>93</ele>
        <time>2016-05-10T00:48:15Z</time>
      </trkpt>
      <trkpt lat="47.33772" lon="0.67681">
        <ele>93</ele>
        <time>2016-05-10T00:50:15Z</time>
      </trkpt>
      <trkpt lat="47.33728" lon="0.67701">
        <ele>93</ele>
        <time>2016-05-10T00:52:15Z</time>
      </trkpt>
      <trkpt lat="47.33669" lon="0.67734">
        <ele>94</ele>
        <time>2016-05-10T00:54:15Z</time>
      </trkpt>
      <trkpt lat="47.33665" lon="0.67737">
        <ele>94</ele>
        <time>2016-05-10T00:56:15Z</time>
      </trkpt>
      <trkpt lat="47.33649" lon="0.67748">
        <ele>93</ele>
        <time>2016-05-10T00:58:15Z</time>
      </trkpt>
      <trkpt lat="47.33646" lon="0.67751">
        <ele>93</ele>
        <time>2016-05-10T01:00:15Z</time>
      </trkpt>
      <trkpt lat="47.33641" lon="0.67755">
        <ele>93</ele>
        <time>2016-05-10T01:02:15Z</time>
      </trkpt>
      <trkpt lat="47.33641" lon="0.67755">
        <ele>93</ele>
        <time>2016-05-10T01:04:15Z</time>
      </trkpt>
      <trkpt lat="47.3364" lon="0.67755">
        <ele>93</ele>
        <time>2016-05-10T01:06:15Z</time>
      </trkpt>
      <trkpt lat="47.3364" lon="0.67754">
        <ele>93</ele>
        <time>2016-05-10T01:08:15Z</time>
      </trkpt>
      <trkpt lat="47.33639" lon="0.67754">
        <ele>93</ele>
        <time>2016-05-10T01:10:15Z</time>
      </trkpt>
      <trkpt lat="47.33639" lon="0.67753">
        <ele>93</ele>
        <time>2016-05-10T01:12:15Z</time>
      </trkpt>
      <trkpt lat="47.33638" lon="0.67753">
        <ele>93</ele>
        <time>2016-05-10T01:14:15Z</time>
      </trkpt>
      <trkpt lat="47.33637" lon="0.67752">
        <ele>93</ele>
        <time>2016-05-10T01:16:15Z</time>
      </trkpt>
      <trkpt lat="47.33636" lon="0.67752">
        <ele>93</ele>
        <time>2016-05-10T01:18:15Z</time>
      </trkpt>
      <trkpt lat="47.33635" lon="0.67752">
        <ele>93</ele>
        <time>2016-05-10T01:20:15Z</time>
      </trkpt>
      <trkpt lat="47.33635" lon="0.67753">
        <ele>93</ele>
        <time>2016-05-10T01:22:15Z</time>
      </trkpt>
      <trkpt lat="47.33634" lon="0.67753">
        <ele>93</ele>
        <time>2016-05-10T01:24:15Z</time>
      </trkpt>
      <trkpt lat="47.33633" lon="0.67753">
        <ele>93</ele>
        <time>2016-05-10T01:26:15Z</time>
      </trkpt>
      <trkpt lat="47.33633" lon="0.67754">
        <ele>93</ele>
        <time>2016-05-10T01:28:15Z</time>
      </trkpt>
      <trkpt lat="47.33632" lon="0.67754">
        <ele>93</ele>
        <time>2016-05-10T01:30:15Z</time>
      </trkpt>
      <trkpt lat="47.33632" lon="0.67755">
        <ele>93</ele>
        <time>2016-05-10T01:32:15Z</time>
      </trkpt>
      <trkpt lat="47.33631" lon="0.67755">
        <ele>93</ele>
        <time>2016-05-10T01:34:15Z</time>
      </trkpt>
      <trkpt lat="47.33631" lon="0.67756">
        <ele>93</ele>
        <time>2016-05-10T01:36:15Z</time>
      </trkpt>
      <trkpt lat="47.33631" lon="0.67757">
        <ele>93</ele>
        <time>2016-05-10T01:38:15Z</time>
      </trkpt>
      <trkpt lat="47.3363" lon="0.67757">
        <ele>93</ele>
        <time>2016-05-10T01:40:15Z</time>
      </trkpt>
      <trkpt lat="47.3363" lon="0.67758">
        <ele>93</ele>
        <time>2016-05-10T01:42:15Z</time>
      </trkpt>
      <trkpt lat="47.3363" lon="0.67759">
        <ele>93</ele>
        <time>2016-05-10T01:44:15Z</time>
      </trkpt>
      <trkpt lat="47.3363" lon="0.6776">
        <ele>93</ele>
        <time>2016-05-10T01:46:15Z</time>
      </trkpt>
      <trkpt lat="47.33623" lon="0.6776">
        <ele>92</ele>
        <time>2016-05-10T01:48:15Z</time>
      </trkpt>
      <trkpt lat="47.3362" lon="0.67761">
        <ele>92</ele>
        <time>2016-05-10T01:50:15Z</time>
      </trkpt>
      <trkpt lat="47.33614" lon="0.67763">
        <ele>92</ele>
        <time>2016-05-10T01:52:15Z</time>
      </trkpt>
      <trkpt lat="47.33588" lon="0.67775">
        <ele>91</ele>
        <time>2016-05-10T01:54:15Z</time>
      </trkpt>
      <trkpt lat="47.33585" lon="0.67777">
        <ele>91</ele>
        <time>2016-05-10T01:56:15Z</time>
      </trkpt>
      <trkpt lat="47.33579" lon="0.6778">
        <ele>91</ele>
        <time>2016-05-10T01:58:15Z</time>
      </trkpt>
      <trkpt lat="47.33576" lon="0.67782">
        <ele>91</ele>
        <time>2016-05-10T02:00:15Z</time>
      </trkpt>
      <trkpt lat="47.33564" lon="0.67787">
        <ele>92</ele>
        <time>2016-05-10T02:02:15Z</time>
      </trkpt>
      <trkpt lat="47.3356" lon="0.67789">
        <ele>92</ele>
        <time>2016-05-10T02:04:15Z</time>
      </trkpt>
      <trkpt lat="47.33555" lon="0.6779">
        <ele>92</ele>
        <time>2016-05-10T02:06:15Z</time>
      </trkpt>
      <trkpt lat="47.33549" lon="0.67791">
        <ele>92</ele>
        <time>2016-05-10T02:08:15Z</time>
      </trkpt>
      <trkpt lat="47.33544" lon="0.67791">
        <ele>92</ele>
        <time>2016-05-10T02:10:15Z</time>
      </trkpt>
      <trkpt lat="47.33535" lon="0.67792">
        <ele>92</ele>
        <time>2016-05-10T02:12:15Z</time>
      </trkpt>
      <trkpt lat="47.33485" lon="0.6779">
        <ele>92</ele>
        <time>2016-05-10T02:14:15Z</time>
      </trkpt>
      <trkpt lat="47.33477" lon="0.6779">
        <ele>92</ele>
        <time>2016-05-10T02:16:15Z</time>
      </trkpt>
      <trkpt lat="47.33475" lon="0.6779">
        <ele>92</ele>
        <time>2016-05-10T02:18:15Z</time>
      </trkpt>
      <trkpt lat="47.33472" lon="0.6779">
        <ele>91</ele>
        <time>2016-05-10T02:20:15Z</time>
      </trkpt>
      <trkpt lat="47.33449" lon="0.67796">
        <ele>91</ele>
        <time>2016-05-10T02:22:15Z</time>
      </trkpt>
      <trkpt lat="47.33435" lon="0.678">
        <ele>91</ele>
        <time>2016-05-10T02:24:15Z</time>
      </trkpt>
      <trkpt lat="47.33423" lon="0.67804">
        <ele>91</ele>
        <time>2016-05-10T02:26:15Z</time>
      </trkpt>
      <trkpt lat="47.33423" lon="0.67804">
        <ele>91</ele>
        <time>2016-05-10T02:28:15Z</time>
      </trkpt>
      <trkpt lat="47.33427" lon="0.67832">
        <ele>91</ele>
        <time>2016-05-10T02:30:15Z</time>
      </trkpt>
      <trkpt lat="47.33445" lon="0.6793">
        <ele>93</ele>
        <time>2016-05-10T02:32:15Z</time>
      </trkpt>
      <trkpt lat="47.3345" lon="0.6797">
        <ele>92</ele>
        <time>2016-05-10T02:34:15Z</time>
      </trkpt>
      <trkpt lat="47.3345" lon="0.6797">
        <ele>92</ele>
        <time>2016-05-10T02:36:15Z</time>
      </trkpt>
      <trkpt lat="47.33445" lon="0.6793">
        <ele>93</ele>
        <time>2016-05-10T02:38:15Z</time>
      </trkpt>
      <trkpt lat="47.33427" lon="0.67832">
        <ele>91</ele>
        <time>2016-05-10T02:40:15Z</time>
      </trkpt>
      <trkpt lat="47.33423" lon="0.67804">
        <ele>91</ele>
        <time>2016-05-10T02:42:15Z</time>
      </trkpt>
      <trkpt lat="47.33423" lon="0.67804">
        <ele>91</ele>
        <time>2016-05-10T02:44:15Z</time>
      </trkpt>
      <trkpt lat="47.33391" lon="0.67816">
        <ele>91</ele>
        <time>2016-05-10T02:46:15Z</time>
      </trkpt>
      <trkpt lat="47.33383" lon="0.67819">
        <ele>91</ele>
        <time>2016-05-10T02:48:15Z</time>
      </trkpt>
      <trkpt lat="47.33342" lon="0.6784">
        <ele>91</ele>
        <time>2016-05-10T02:50:15Z</time>
      </trkpt>
      <trkpt lat="47.33325" lon="0.67849">
        <ele>91</ele>
        <time>2016-05-10T02:52:15Z</time>
      </trkpt>
      <trkpt lat="47.33311" lon="0.67856">
        <ele>91</ele>
        <time>2016-05-10T02:54:15Z</time>
      </trkpt>
      <trkpt lat="47.33307" lon="0.67857">
        <ele>91</ele>
        <time>2016-05-10T02:56:15Z</time>
      </trkpt>
      <trkpt lat="47.33305" lon="0.67857">
        <ele>91</ele>
        <time>2016-05-10T02:58:15Z</time>
      </trkpt>
      <trkpt lat="47.33301" lon="0.67858">
        <ele>91</ele>
        <time>2016-05-10T03:00:15Z</time>
      </trkpt>
      <trkpt lat="47.33296" lon="0.67856">
        <ele>91</ele>
        <time>2016-05-10T03:02:15Z</time>
      </trkpt>
      <trkpt lat="47.3329" lon="0.67852">
        <ele>91</ele>
        <time>2016-05-10T03:04:15Z</time>
      </trkpt>
      <trkpt lat="47.33286" lon="0.67849">
        <ele>91</ele>
        <time>2016-05-10T03:06:15Z</time>
      </trkpt>
      <trkpt lat="47.33283" lon="0.67846">
        <ele>91</ele>
        <time>2016-05-10T03:08:15Z</time>
      </trkpt>
      <trkpt lat="47.33281" lon="0.67843">
        <ele>91</ele>
        <time>2016-05-10T03:10:15Z</time>
      </trkpt>
      <trkpt lat="47.33277" lon="0.67836">
        <ele>91</ele>
        <time>2016-05-10T03:12:15Z</time>
      </trkpt>
      <trkpt lat="47.33274" lon="0.6783">
        <ele>91</ele>
        <time>2016-05-10T03:14:15Z</time>
      </trkpt>
      <trkpt lat="47.33271" lon="0.67824">
        <ele>91</ele>
        <time>2016-05-10T03:16:15Z</time>
      </trkpt>
      <trkpt lat="47.33267" lon="0.67815">
        <ele>91</ele>
        <time>2016-05-10T03:18:15Z</time>
      </trkpt>
      <trkpt lat="47.33261" lon="0.67798">
        <ele>90</ele>
        <time>2016-05-10T03:20:15Z</time>
      </trkpt>
      <trkpt lat="47.33246" lon="0.67758">
        <ele>89</ele>
        <time>2016-05-10T03:22:15Z</time>
      </trkpt>
      <trkpt lat="47.33242" lon="0.67746">
        <ele>89</ele>
        <time>2016-05-10T03:24:15Z</time>
      </trkpt>
      <trkpt lat="47.33238" lon="0.67738">
        <ele>89</ele>
        <time>2016-05-10T03:26:15Z</time>
      </trkpt>
      <trkpt lat="47.33234" lon="0.67726">
        <ele>89</ele>
        <time>2016-05-10T03:28:15Z</time>
      </trkpt>
      <trkpt lat="47.33223" lon="0.67698">
        <ele>89</ele>
        <time>2016-05-10T03:30:15Z</time>
      </trkpt>
      <trkpt lat="47.33197" lon="0.67634">
        <ele>90</ele>
        <time>2016-05-10T03:32:15Z</time>
      </trkpt>
      <trkpt lat="47.33194" lon="0.67626">
        <ele>90</ele>
        <time>2016-05-10T03:34:15Z</time>
      </trkpt>
      <trkpt lat="47.33191" lon="0.67618">
        <ele>90</ele>
        <time>2016-05-10T03:36:15Z</time>
      </trkpt>
      <trkpt lat="47.33152" lon="0.67517">
        <ele>90</ele>
        <time>2016-05-10T03:38:15Z</time>
      </trkpt>
      <trkpt lat="47.33144" lon="0.67499">
        <ele>90</ele>
        <time>2016-05-10T03:40:15Z</time>
      </trkpt>
      <trkpt lat="47.33143" lon="0.67497">
        <ele>90</ele>
        <time>2016-05-10T03:42:15Z</time>
      </trkpt>
      <trkpt lat="47.33138" lon="0.67484">
        <ele>90</ele>
        <time>2016-05-10T03:44:15Z</time>
      </trkpt>
      <trkpt lat="47.33137" lon="0.67483">
        <ele>90</ele>
        <time>2016-05-10T03:46:15Z</time>
      </trkpt>
      <trkpt lat="47.33129" lon="0.6746">
        <ele>89</ele>
        <time>2016-05-10T03:48:15Z</time>
      </trkpt>
      <trkpt lat="47.33117" lon="0.6743">
        <ele>89</ele>
        <time>2016-05-10T03:50:15Z</time>
      </trkpt>
      <trkpt lat="47.33113" lon="0.67421">
        <ele>89</ele>
        <time>2016-05-10T03:52:15Z</time>
      </trkpt>
      <trkpt lat="47.33088" lon="0.67356">
        <ele>89</ele>
        <time>2016-05-10T03:54:15Z</time>
      </trkpt>
      <trkpt lat="47.33083" lon="0.67346">
        <ele>89</ele>
        <time>2016-05-10T03:56:15Z</time>
      </trkpt>
      <trkpt lat="47.3308" lon="0.67337">
        <ele>89</ele>
        <time>2016-05-10T03:58:15Z</time>
      </trkpt>
      <trkpt lat="47.33079" lon="0.67336">
        <ele>89</ele>
        <time>2016-05-10T04:00:15Z</time>
      </trkpt>
      <trkpt lat="47.33072" lon="0.67319">
        <ele>89</ele>
        <time>2016-05-10T04:02:15Z</time>
      </trkpt>
      <trkpt lat="47.33069" lon="0.67312">
        <ele>89</ele>
        <time>2016-05-10T04:04:15Z</time>
      </trkpt>
      <trkpt lat="47.33066" lon="0.67304">
        <ele>89</ele>
        <time>2016-05-10T04:06:15Z</time>
      </trkpt>
      <trkpt lat="47.33062" lon="0.67292">
        <ele>89</ele>
        <time>2016-05-10T04:08:15Z</time>
      </trkpt>
      <trkpt lat="47.3305" lon="0.67258">
        <ele>89</ele>
        <time>2016-05-10T04:10:15Z</time>
      </trkpt>
      <trkpt lat="47.33023" lon="0.67186">
        <ele>90</ele>
        <time>2016-05-10T04:12:15Z</time>
      </trkpt>
      <trkpt lat="47.32933" lon="0.66958">
        <ele>92</ele>
        <time>2016-05-10T04:14:15Z</time>
      </trkpt>
      <trkpt lat="47.32872" lon="0.66799">
        <ele>93</ele>
        <time>2016-05-10T04:16:15Z</time>
      </trkpt>
      <trkpt lat="47.32854" lon="0.66754">
        <ele>94</ele>
        <time>2016-05-10T04:18:15Z</time>
      </trkpt>
      <trkpt lat="47.32852" lon="0.66746">
        <ele>94</ele>
        <time>2016-05-10T04:20:15Z</time>
      </trkpt>
      <trkpt lat="47.32851" lon="0.6674">
        <ele>94</ele>
        <time>2016-05-10T04:22:15Z</time>
      </trkpt>
      <trkpt lat="47.3285" lon="0.6673">
        <ele>94</ele>
        <time>2016-05-10T04:24:15Z</time>
      </trkpt>
      <trkpt lat="47.32852" lon="0.66719">
        <ele>93</ele>
        <time>2016-05-10T04:26:15Z</time>
      </trkpt>
      <trkpt lat="47.32853" lon="0.66707">
        <ele>93</ele>
        <time>2016-05-10T04:28:15Z</time>
      </trkpt>
      <trkpt lat="47.32855" lon="0.66685">
        <ele>93</ele>
        <time>2016-05-10T04:30:15Z</time>
      </trkpt>
      <trkpt lat="47.32861" lon="0.66641">
        <ele>93</ele>
        <time>2016-05-10T04:32:15Z</time>
      </trkpt>
      <trkpt lat="47.32863" lon="0.66628">
        <ele>93</ele>
        <time>2016-05-10T04:34:15Z</time>
      </trkpt>
      <trkpt lat="47.32886" lon="0.66452">
        <ele>94</ele>
        <time>2016-05-10T04:36:15Z</time>
      </trkpt>
      <trkpt lat="47.32888" lon="0.66435">
        <ele>93</ele>
        <time>2016-05-10T04:38:15Z</time>
      </trkpt>
      <trkpt lat="47.32891" lon="0.66414">
        <ele>93</ele>
        <time>2016-05-10T04:40:15Z</time>
      </trkpt>
      <trkpt lat="47.32897" lon="0.6638">
        <ele>93</ele>
        <time>2016-05-10T04:42:15Z</time>
      </trkpt>
      <trkpt lat="47.32897" lon="0.6638">
        <ele>93</ele>
        <time>2016-05-10T04:44:15Z</time>
      </trkpt>
      <trkpt lat="47.32898" lon="0.66375">
        <ele>93</ele>
        <time>2016-05-10T04:46:15Z</time>
      </trkpt>
      <trkpt lat="47.32886" lon="0.66372">
        <ele>93</ele>
        <time>2016-05-10T04:48:15Z</time>
      </trkpt>
      <trkpt lat="47.32884" lon="0.66371">
        <ele>93</ele>
        <time>2016-05-10T04:50:15Z</time>
      </trkpt>
      <trkpt lat="47.32841" lon="0.66342">
        <ele>91</ele>
        <time>2016-05-10T04:52:15Z</time>
      </trkpt>
      <trkpt lat="47.32817" lon="0.66327">
        <ele>91</ele>
        <time>2016-05-10T04:54:15Z</time>
      </trkpt>
      <trkpt lat="47.32805" lon="0.6632">
        <ele>91</ele>
        <time>2016-05-10T04:56:15Z</time>
      </trkpt>
      <trkpt lat="47.32788" lon="0.66312">
        <ele>91</ele>
        <time>2016-05-10T04:58:15Z</time>
      </trkpt>
      <trkpt lat="47.32763" lon="0.66304">
        <ele>91</ele>
        <time>2016-05-10T05:00:15Z</time>
      </trkpt>
      <trkpt lat="47.32741" lon="0.66298">
        <ele>91</ele>
        <time>2016-05-10T05:02:15Z</time>
      </trkpt>
      <trkpt lat="47.32723" lon="0.66294">
        <ele>92</ele>
        <time>2016-05-10T05:04:15Z</time>
      </trkpt>
      <trkpt lat="47.32692" lon="0.66289">
        <ele>92</ele>
        <time>2016-05-10T05:06:15Z</time>
      </trkpt>
      <trkpt lat="47.3265" lon="0.66281">
        <ele>92</ele>
        <time>2016-05-10T05:08:15Z</time>
      </trkpt>
      <trkpt lat="47.32626" lon="0.66276">
        <ele>92</ele>
        <time>2016-05-10T05:10:15Z</time>
      </trkpt>
      <trkpt lat="47.32592" lon="0.6627">
        <ele>91</ele>
        <time>2016-05-10T05:12:15Z</time>
      </trkpt>
      <trkpt lat="47.32471" lon="0.6626">
        <ele>93</ele>
        <time>2016-05-10T05:14:15Z</time>
      </trkpt>
      <trkpt lat="47.32444" lon="0.66257">
        <ele>92</ele>
        <time>2016-05-10T05:16:15Z</time>
      </trkpt>
      <trkpt lat="47.32413" lon="0.6625">
        <ele>92</ele>
        <time>2016-05-10T05:18:15Z</time>
      </trkpt>
      <trkpt lat="47.32384" lon="0.6624">
        <ele>92</ele>
        <time>2016-05-10T05:20:15Z</time>
      </trkpt>
      <trkpt lat="47.32376" lon="0.66235">
        <ele>92</ele>
        <time>2016-05-10T05:22:15Z</time>
      </trkpt>
      <trkpt lat="47.32329" lon="0.6621">
        <ele>92</ele>
        <time>2016-05-10T05:24:15Z</time>
      </trkpt>
      <trkpt lat="47.32322" lon="0.66205">
        <ele>92</ele>
        <time>2016-05-10T05:26:15Z</time>
      </trkpt>
      <trkpt lat="47.32322" lon="0.66205">
        <ele>92</ele>
        <time>2016-05-10T05:28:15Z</time>
      </trkpt>
      <trkpt lat="47.32321" lon="0.66197">
        <ele>92</ele>
        <time>2016-05-10T05:30:15Z</time>
      </trkpt>
      <trkpt lat="47.3232" lon="0.66194">
        <ele>92</ele>
        <time>2016-05-10T05:32:15Z</time>
      </trkpt>
      <trkpt lat="47.32318" lon="0.66191">
        <ele>92</ele>
        <time>2016-05-10T05:34:15Z</time>
      </trkpt>
      <trkpt lat="47.32313" lon="0.66186">
        <ele>91</ele>
        <time>2016-05-10T05:36:15Z</time>
      </trkpt>
      <trkpt lat="47.32308" lon="0.66184">
        <ele>91</ele>
        <time>2016-05-10T05:38:15Z</time>
      </trkpt>
      <trkpt lat="47.32302" lon="0.66184">
        <ele>91</ele>
        <time>2016-05-10T05:40:15Z</time>
      </trkpt>
      <trkpt lat="47.323" lon="0.66185">
        <ele>91</ele>
        <time>2016-05-10T05:42:15Z</time>
      </trkpt>
      <trkpt lat="47.32296" lon="0.66187">
        <ele>91</ele>
        <time>2016-05-10T05:44:15Z</time>
      </trkpt>
      <trkpt lat="47.32293" lon="0.66191">
        <ele>92</ele>
        <time>2016-05-10T05:46:15Z</time>
      </trkpt>
      <trkpt lat="47.32291" lon="0.66197">
        <ele>92</ele>
        <time>2016-05-10T05:48:15Z</time>
      </trkpt>
      <trkpt lat="47.3229" lon="0.66204">
        <ele>92</ele>
        <time>2016-05-10T05:50:15Z</time>
      </trkpt>
      <trkpt lat="47.32289" lon="0.6621">
        <ele>92</ele>
        <time>2016-05-10T05:52:15Z</time>
      </trkpt>
      <trkpt lat="47.3229" lon="0.66216">
        <ele>92</ele>
        <time>2016-05-10T05:54:15Z</time>
      </trkpt>
      <trkpt lat="47.32292" lon="0.66224">
        <ele>92</ele>
        <time>2016-05-10T05:56:15Z</time>
      </trkpt>
      <trkpt lat="47.32287" lon="0.66239">
        <ele>93</ele>
        <time>2016-05-10T05:58:15Z</time>
      </trkpt>
      <trkpt lat="47.32284" lon="0.66253">
        <ele>93</ele>
        <time>2016-05-10T06:00:15Z</time>
      </trkpt>
      <trkpt lat="47.3228" lon="0.66269">
        <ele>93</ele>
        <time>2016-05-10T06:02:15Z</time>
      </trkpt>
      <trkpt lat="47.32277" lon="0.66279">
        <ele>93</ele>
        <time>2016-05-10T06:04:15Z</time>
      </trkpt>
      <trkpt lat="47.32246" lon="0.6635">
        <ele>93</ele>
        <time>2016-05-10T06:06:15Z</time>
      </trkpt>
      <trkpt lat="47.32201" lon="0.66464">
        <ele>91</ele>
        <time>2016-05-10T06:08:15Z</time>
      </trkpt>
      <trkpt lat="47.32197" lon="0.66475">
        <ele>90</ele>
        <time>2016-05-10T06:10:15Z</time>
      </trkpt>
      <trkpt lat="47.32188" lon="0.665">
        <ele>90</ele>
        <time>2016-05-10T06:12:15Z</time>
      </trkpt>
      <trkpt lat="47.32187" lon="0.66505">
        <ele>90</ele>
        <time>2016-05-10T06:14:15Z</time>
      </trkpt>
      <trkpt lat="47.32184" lon="0.66528">
        <ele>90</ele>
        <time>2016-05-10T06:16:15Z</time>
      </trkpt>
      <trkpt lat="47.32182" lon="0.66545">
        <ele>90</ele>
        <time>2016-05-10T06:18:15Z</time>
      </trkpt>
      <trkpt lat="47.3218" lon="0.66555">
        <ele>90</ele>
        <time>2016-05-10T06:20:15Z</time>
      </trkpt>
      <trkpt lat="47.32177" lon="0.66563">
        <ele>90</ele>
        <time>2016-05-10T06:22:15Z</time>
      </trkpt>
      <trkpt lat="47.32171" lon="0.66574">
        <ele>90</ele>
        <time>2016-05-10T06:24:15Z</time>
      </trkpt>
      <trkpt lat="47.32166" lon="0.66582">
        <ele>90</ele>
        <time>2016-05-10T06:26:15Z</time>
      </trkpt>
      <trkpt lat="47.32158" lon="0.66596">
        <ele>90</ele>
        <time>2016-05-10T06:28:15Z</time>
      </trkpt>
      <trkpt lat="47.32153" lon="0.66603">
        <ele>90</ele>
        <time>2016-05-10T06:30:15Z</time>
      </trkpt>
      <trkpt lat="47.3215" lon="0.66611">
        <ele>90</ele>
        <time>2016-05-10T06:32:15Z</time>
      </trkpt>
      <trkpt lat="47.32144" lon="0.66624">
        <ele>90</ele>
        <time>2016-05-10T06:34:15Z</time>
      </trkpt>
      <trkpt lat="47.32116" lon="0.66689">
        <ele>89</ele>
        <time>2016-05-10T06:36:15Z</time>
      </trkpt>
      <trkpt lat="47.32077" lon="0.66775">
        <ele>89</ele>
        <time>2016-05-10T06:38:15Z</time>
      </trkpt>
      <trkpt lat="47.32076" lon="0.66777">
        <ele>89</ele>
        <time>2016-05-10T06:40:15Z</time>
      </trkpt>
      <trkpt lat="47.3207" lon="0.66787">
        <ele>89</ele>
        <time>2016-05-10T06:42:15Z</time>
      </trkpt>
      <trkpt lat="47.32062" lon="0.66794">
        <ele>89</ele>
        <time>2016-05-10T06:44:15Z</time>
      </trkpt>
      <trkpt lat="47.32057" lon="0.66798">
        <ele>89</ele>
        <time>2016-05-10T06:46:15Z</time>
      </trkpt>
      <trkpt lat="47.32051" lon="0.668">
        <ele>89</ele>
        <time>2016-05-10T06:48:15Z</time>
      </trkpt>
      <trkpt lat="47.32037" lon="0.66802">
        <ele>89</ele>
        <time>2016-05-10T06:50:15Z</time>
      </trkpt>
      <trkpt lat="47.31927" lon="0.66802">
        <ele>86</ele>
        <time>2016-05-10T06:52:15Z</time>
      </trkpt>
      <trkpt lat="47.31904" lon="0.66803">
        <ele>86</ele>
        <time>2016-05-10T06:54:15Z</time>
      </trkpt>
      <trkpt lat="47.31805" lon="0.66819">
        <ele>85</ele>
        <time>2016-05-10T06:56:15Z</time>
      </trkpt>
      <trkpt lat="47.31795" lon="0.66822">
        <ele>85</ele>
        <time>2016-05-10T06:58:15Z</time>
      </trkpt>
      <trkpt lat="47.31741" lon="0.66835">
        <ele>85</ele>
        <time>2016-05-10T07:00:15Z</time>
      </trkpt>
      <trkpt lat="47.31712" lon="0.66844">
        <ele>84</ele>
        <time>2016-05-10T07:02:15Z</time>
      </trkpt>
      <trkpt lat="47.31671" lon="0.66854">
        <ele>82</ele>
        <time>2016-05-10T07:04:15Z</time>
      </trkpt>
      <trkpt lat="47.31666" lon="0.66855">
        <ele>82</ele>
        <time>2016-05-10T07:06:15Z</time>
      </trkpt>
      <trkpt lat="47.31648" lon="0.6686">
        <ele>82</ele>
        <time>2016-05-10T07:08:15Z</time>
      </trkpt>
      <trkpt lat="47.31639" lon="0.66862">
        <ele>82</ele>
        <time>2016-05-10T07:10:15Z</time>
      </trkpt>
      <trkpt lat="47.31612" lon="0.66871">
        <ele>82</ele>
        <time>2016-05-10T07:12:15Z</time>
      </trkpt>
      <trkpt lat="47.31602" lon="0.66874">
        <ele>82</ele>
        <time>2016-05-10T07:14:15Z</time>
      </trkpt>
      <trkpt lat="47.31584" lon="0.66878">
        <ele>82</ele>
        <time>2016-05-10T07:16:15Z</time>
      </trkpt>
      <trkpt lat="47.31561" lon="0.66885">
        <ele>83</ele>
        <time>2016-05-10T07:18:15Z</time>
      </trkpt>
      <trkpt lat="47.31549" lon="0.66888">
        <ele>83</ele>
        <time>2016-05-10T07:20:15Z</time>
      </trkpt>
      <trkpt lat="47.31459" lon="0.66913">
        <ele>87</ele>
        <time>2016-05-10T07:22:15Z</time>
      </trkpt>
      <trkpt lat="47.31445" lon="0.66918">
        <ele>88</ele>
        <time>2016-05-10T07:24:15Z</time>
      </trkpt>
      <trkpt lat="47.31427" lon="0.66926">
        <ele>89</ele>
        <time>2016-05-10T07:26:15Z</time>
      </trkpt>
      <trkpt lat="47.31399" lon="0.66938">
        <ele>90</ele>
        <time>2016-05-10T07:28:15Z</time>
      </trkpt>
      <trkpt lat="47.31389" lon="0.66943">
        <ele>90</ele>
        <time>2016-05-10T07:30:15Z</time>
      </trkpt>
      <trkpt lat="47.31381" lon="0.66948">
        <ele>90</ele>
        <time>2016-05-10T07:32:15Z</time>
      </trkpt>
      <trkpt lat="47.31355" lon="0.66966">
        <ele>90</ele>
        <time>2016-05-10T07:34:15Z</time>
      </trkpt>
      <trkpt lat="47.31342" lon="0.66976">
        <ele>90</ele>
        <time>2016-05-10T07:36:15Z</time>
      </trkpt>
      <trkpt lat="47.31316" lon="0.67001">
        <ele>89</ele>
        <time>2016-05-10T07:38:15Z</time>
      </trkpt>
      <trkpt lat="47.31296" lon="0.67021">
        <ele>89</ele>
        <time>2016-05-10T07:40:15Z</time>
      </trkpt>
      <trkpt lat="47.31263" lon="0.67062">
        <ele>89</ele>
        <time>2016-05-10T07:42:15Z</time>
      </trkpt>
      <trkpt lat="47.31212" lon="0.67125">
        <ele>89</ele>
        <time>2016-05-10T07:44:15Z</time>
      </trkpt>
      <trkpt lat="47.31187" lon="0.67164">
        <ele>89</ele>
        <time>2016-05-10T07:46:15Z</time>
      </trkpt>
      <trkpt lat="47.31184" lon="0.67169">
        <ele>89</ele>
        <time>2016-05-10T07:48:15Z</time>
      </trkpt>
      <trkpt lat="47.31181" lon="0.67176">
        <ele>89</ele>
        <time>2016-05-10T07:50:15Z</time>
      </trkpt>
      <trkpt lat="47.31125" lon="0.67322">
        <ele>88</ele>
        <time>2016-05-10T07:52:15Z</time>
      </trkpt>
      <trkpt lat="47.31092" lon="0.674">
        <ele>87</ele>
        <time>2016-05-10T07:54:15Z</time>
      </trkpt>
      <trkpt lat="47.31076" lon="0.67441">
        <ele>87</ele>
        <time>2016-05-10T07:56:15Z</time>
      </trkpt>
      <trkpt lat="47.31062" lon="0.6748">
        <ele>88</ele>
        <time>2016-05-10T07:58:15Z</time>
      </trkpt>
      <trkpt lat="47.31055" lon="0.67504">
        <ele>88</ele>
        <time>2016-05-10T08:00:15Z</time>
      </trkpt>
      <trkpt lat="47.31048" lon="0.67528">
        <ele>88</ele>
        <time>2016-05-10T08:02:15Z</time>
      </trkpt>
      <trkpt lat="47.31011" lon="0.67675">
        <ele>85</ele>
        <time>2016-05-10T08:04:15Z</time>
      </trkpt>
      <trkpt lat="47.31008" lon="0.67688">
        <ele>85</ele>
        <time>2016-05-10T08:06:15Z</time>
      </trkpt>
      <trkpt lat="47.31005" lon="0.67707">
        <ele>84</ele>
        <time>2016-05-10T08:08:15Z</time>
      </trkpt>
      <trkpt lat="47.31003" lon="0.67726">
        <ele>84</ele>
        <time>2016-05-10T08:10:15Z</time>
      </trkpt>
      <trkpt lat="47.31002" lon="0.67745">
        <ele>84</ele>
        <time>2016-05-10T08:12:15Z</time>
      </trkpt>
      <trkpt lat="47.31003" lon="0.67765">
        <ele>83</ele>
        <time>2016-05-10T08:14:15Z</time>
      </trkpt>
      <trkpt lat="47.31007" lon="0.67796">
        <ele>82</ele>
        <time>2016-05-10T08:16:15Z</time>
      </trkpt>
      <trkpt lat="47.31009" lon="0.67807">
        <ele>82</ele>
        <time>2016-05-10T08:18:15Z</time>
      </trkpt>
      <trkpt lat="47.3101" lon="0.67817">
        <ele>81</ele>
        <time>2016-05-10T08:20:15Z</time>
      </trkpt>
      <trkpt lat="47.31021" lon="0.67859">
        <ele>80</ele>
        <time>2016-05-10T08:22:15Z</time>
      </trkpt>
      <trkpt lat="47.31025" lon="0.67881">
        <ele>80</ele>
        <time>2016-05-10T08:24:15Z</time>
      </trkpt>
      <trkpt lat="47.31026" lon="0.67904">
        <ele>80</ele>
        <time>2016-05-10T08:26:15Z</time>
      </trkpt>
      <trkpt lat="47.31024" lon="0.67925">
        <ele>80</ele>
        <time>2016-05-10T08:28:15Z</time>
      </trkpt>
      <trkpt lat="47.31013" lon="0.67988">
        <ele>81</ele>
        <time>2016-05-10T08:30:15Z</time>
      </trkpt>
      <trkpt lat="47.31006" lon="0.68026">
        <ele>82</ele>
        <time>2016-05-10T08:32:15Z</time>
      </trkpt>
      <trkpt lat="47.31003" lon="0.68046">
        <ele>81</ele>
        <time>2016-05-10T08:34:15Z</time>
      </trkpt>
      <trkpt lat="47.30997" lon="0.68076">
        <ele>81</ele>
        <time>2016-05-10T08:36:15Z</time>
      </trkpt>
      <trkpt lat="47.30992" lon="0.68096">
        <ele>80</ele>
        <time>2016-05-10T08:38:15Z</time>
      </trkpt>
      <trkpt lat="47.30989" lon="0.68108">
        <ele>80</ele>
        <time>2016-05-10T08:40:15Z</time>
      </trkpt>
      <trkpt lat="47.30983" lon="0.68126">
        <ele>79</ele>
        <time>2016-05-10T08:42:15Z</time>
      </trkpt>
      <trkpt lat="47.30979" lon="0.68136">
        <ele>78</ele>
        <time>2016-05-10T08:44:15Z</time>
      </trkpt>
      <trkpt lat="47.30959" lon="0.68181">
        <ele>76</ele>
        <time>2016-05-10T08:46:15Z</time>
      </trkpt>
      <trkpt lat="47.30943" lon="0.68211">
        <ele>74</ele>
        <time>2016-05-10T08:48:15Z</time>
      </trkpt>
      <trkpt lat="47.3094" lon="0.68216">
        <ele>73</ele>
        <time>2016-05-10T08:50:15Z</time>
      </trkpt>
      <trkpt lat="47.30934" lon="0.68223">
        <ele>73</ele>
        <time>2016-05-10T08:52:15Z</time>
      </trkpt>
      <trkpt lat="47.30929" lon="0.68228">
        <ele>72</ele>
        <time>2016-05-10T08:54:15Z</time>
      </trkpt>
      <trkpt lat="47.30917" lon="0.68238">
        <ele>70</ele>
        <time>2016-05-10T08:56:15Z</time>
      </trkpt>
      <trkpt lat="47.30911" lon="0.6824">
        <ele>70</ele>
        <time>2016-05-10T08:58:15Z</time>
      </trkpt>
      <trkpt lat="47.30906" lon="0.68242">
        <ele>70</ele>
        <time>2016-05-10T09:00:15Z</time>
      </trkpt>
      <trkpt lat="47.30897" lon="0.68244">
        <ele>71</ele>
        <time>2016-05-10T09:02:15Z</time>
      </trkpt>
      <trkpt lat="47.30892" lon="0.68244">
        <ele>71</ele>
        <time>2016-05-10T09:04:15Z</time>
      </trkpt>
      <trkpt lat="47.30884" lon="0.68242">
        <ele>71</ele>
        <time>2016-05-10T09:06:15Z</time>
      </trkpt>
      <trkpt lat="47.30877" lon="0.68239">
        <ele>71</ele>
        <time>2016-05-10T09:08:15Z</time>
      </trkpt>
      <trkpt lat="47.30869" lon="0.68235">
        <ele>71</ele>
        <time>2016-05-10T09:10:15Z</time>
      </trkpt>
      <trkpt lat="47.30863" lon="0.68231">
        <ele>71</ele>
        <time>2016-05-10T09:12:15Z</time>
      </trkpt>
      <trkpt lat="47.30856" lon="0.68224">
        <ele>70</ele>
        <time>2016-05-10T09:14:15Z</time>
      </trkpt>
      <trkpt lat="47.30843" lon="0.68206">
        <ele>69</ele>
        <time>2016-05-10T09:16:15Z</time>
      </trkpt>
      <trkpt lat="47.30838" lon="0.68198">
        <ele>68</ele>
        <time>2016-05-10T09:18:15Z</time>
      </trkpt>
      <trkpt lat="47.30828" lon="0.68184">
        <ele>67</ele>
        <time>2016-05-10T09:20:15Z</time>
      </trkpt>
      <trkpt lat="47.30822" lon="0.68176">
        <ele>67</ele>
        <time>2016-05-10T09:22:15Z</time>
      </trkpt>
      <trkpt lat="47.30815" lon="0.68167">
        <ele>67</ele>
        <time>2016-05-10T09:24:15Z</time>
      </trkpt>
      <trkpt lat="47.30812" lon="0.68163">
        <ele>67</ele>
        <time>2016-05-10T09:26:15Z</time>
      </trkpt>
      <trkpt lat="47.30805" lon="0.68156">
        <ele>68</ele>
        <time>2016-05-10T09:28:15Z</time>
      </trkpt>
      <trkpt lat="47.30789" lon="0.68144">
        <ele>69</ele>
        <time>2016-05-10T09:30:15Z</time>
      </trkpt>
      <trkpt lat="47.30782" lon="0.68141">
        <ele>69</ele>
        <time>2016-05-10T09:32:15Z</time>
      </trkpt>
      <trkpt lat="47.30775" lon="0.6814">
        <ele>70</ele>
        <time>2016-05-10T09:34:15Z</time>
      </trkpt>
      <trkpt lat="47.30763" lon="0.68139">
        <ele>71</ele>
        <time>2016-05-10T09:36:15Z</time>
      </trkpt>
      <trkpt lat="47.30752" lon="0.6814">
        <ele>72</ele>
        <time>2016-05-10T09:38:15Z</time>
      </trkpt>
      <trkpt lat="47.30744" lon="0.68142">
        <ele>74</ele>
        <time>2016-05-10T09:40:15Z</time>
      </trkpt>
      <trkpt lat="47.30734" lon="0.68145">
        <ele>75</ele>
        <time>2016-05-10T09:42:15Z</time>
      </trkpt>
      <trkpt lat="47.30723" lon="0.68151">
        <ele>77</ele>
        <time>2016-05-10T09:44:15Z</time>
      </trkpt>
      <trkpt lat="47.30714" lon="0.68158">
        <ele>79</ele>
        <time>2016-05-10T09:46:15Z</time>
      </trkpt>
      <trkpt lat="47.30708" lon="0.68163">
        <ele>80</ele>
        <time>2016-05-10T09:48:15Z</time>
      </trkpt>
      <trkpt lat="47.30703" lon="0.68168">
        <ele>81</ele>
        <time>2016-05-10T09:50:15Z</time>
      </trkpt>
      <trkpt lat="47.30696" lon="0.68178">
        <ele>82</ele>
        <time>2016-05-10T09:52:15Z</time>
      </trkpt>
      <trkpt lat="47.30686" lon="0.68197">
        <ele>84</ele>
        <time>2016-05-10T09:54:15Z</time>
      </trkpt>
      <trkpt lat="47.30678" lon="0.68215">
        <ele>85</ele>
        <time>2016-05-10T09:56:15Z</time>
      </trkpt>
      <trkpt lat="47.30675" lon="0.68226">
        <ele>85</ele>
        <time>2016-05-10T09:58:15Z</time>
      </trkpt>
      <trkpt lat="47.30666" lon="0.68253">
        <ele>86</ele>
        <time>2016-05-10T10:00:15Z</time>
      </trkpt>
      <trkpt lat="47.30661" lon="0.68274">
        <ele>87</ele>
        <time>2016-05-10T10:02:15Z</time>
      </trkpt>
      <trkpt lat="47.30657" lon="0.68295">
        <ele>87</ele>
        <time>2016-05-10T10:04:15Z</time>
      </trkpt>
      <trkpt lat="47.30654" lon="0.68323">
        <ele>87</ele>
        <time>2016-05-10T10:06:15Z</time>
      </trkpt>
      <trkpt lat="47.30653" lon="0.68353">
        <ele>88</ele>
        <time>2016-05-10T10:08:15Z</time>
      </trkpt>
      <trkpt lat="47.30653" lon="0.68404">
        <ele>88</ele>
        <time>2016-05-10T10:10:15Z</time>
      </trkpt>
      <trkpt lat="47.30653" lon="0.68523">
        <ele>87</ele>
        <time>2016-05-10T10:12:15Z</time>
      </trkpt>
      <trkpt lat="47.30652" lon="0.68554">
        <ele>87</ele>
        <time>2016-05-10T10:14:15Z</time>
      </trkpt>
      <trkpt lat="47.3065" lon="0.68602">
        <ele>87</ele>
        <time>2016-05-10T10:16:15Z</time>
      </trkpt>
      <trkpt lat="47.30648" lon="0.6863">
        <ele>87</ele>
        <time>2016-05-10T10:18:15Z</time>
      </trkpt>
      <trkpt lat="47.30644" lon="0.68661">
        <ele>86</ele>
        <time>2016-05-10T10:20:15Z</time>
      </trkpt>
      <trkpt lat="47.30639" lon="0.68687">
        <ele>87</ele>
        <time>2016-05-10T10:22:15Z</time>
      </trkpt>
      <trkpt lat="47.30636" lon="0.68698">
        <ele>87</ele>
        <time>2016-05-10T10:24:15Z</time>
      </trkpt>
      <trkpt lat="47.30631" lon="0.68714">
        <ele>88</ele>
        <time>2016-05-10T10:26:15Z</time>
      </trkpt>
      <trkpt lat="47.30625" lon="0.68733">
        <ele>88</ele>
        <time>2016-05-10T10:28:15Z</time>
      </trkpt>
      <trkpt lat="47.30607" lon="0.68784">
        <ele>90</ele>
        <time>2016-05-10T10:30:15Z</time>
      </trkpt>
      <trkpt lat="47.30603" lon="0.68795">
        <ele>90</ele>
        <time>2016-05-10T10:32:15Z</time>
      </trkpt>
      <trkpt lat="47.30559" lon="0.68921">
        <ele>89</ele>
        <time>2016-05-10T10:34:15Z</time>
      </trkpt>
      <trkpt lat="47.30544" lon="0.68974">
        <ele>88</ele>
        <time>2016-05-10T10:36:15Z</time>
      </trkpt>
      <trkpt lat="47.30539" lon="0.68989">
        <ele>88</ele>
        <time>2016-05-10T10:38:15Z</time>
      </trkpt>
      <trkpt lat="47.30535" lon="0.69004">
        <ele>87</ele>
        <time>2016-05-10T10:40:15Z</time>
      </trkpt>
      <trkpt lat="47.30531" lon="0.6902">
        <ele>87</ele>
        <time>2016-05-10T10:42:15Z</time>
      </trkpt>
      <trkpt lat="47.30527" lon="0.69037">
        <ele>87</ele>
        <time>2016-05-10T10:44:15Z</time>
      </trkpt>
      <trkpt lat="47.30523" lon="0.69053">
        <ele>87</ele>
        <time>2016-05-10T10:46:15Z</time>
      </trkpt>
      <trkpt lat="47.3052" lon="0.69069">
        <ele>87</ele>
        <time>2016-05-10T10:48:15Z</time>
      </trkpt>
      <trkpt lat="47.30517" lon="0.69085">
        <ele>87</ele>
        <time>2016-05-10T10:50:15Z</time>
      </trkpt>
      <trkpt lat="47.30514" lon="0.691">
        <ele>87</ele>
        <time>2016-05-10T10:52:15Z</time>
      </trkpt>
      <trkpt lat="47.30512" lon="0.69115">
        <ele>87</ele>
        <time>2016-05-10T10:54:15Z</time>
      </trkpt>
      <trkpt lat="47.3051" lon="0.69127">
        <ele>87</ele>
        <time>2016-05-10T10:56:15Z</time>
      </trkpt>
      <trkpt lat="47.30509" lon="0.69138">
        <ele>87</ele>
        <time>2016-05-10T10:58:15Z</time>
      </trkpt>
      <trkpt lat="47.30508" lon="0.69147">
        <ele>87</ele>
        <time>2016-05-10T11:00:15Z</time>
      </trkpt>
      <trkpt lat="47.30507" lon="0.69154">
        <ele>87</ele>
        <time>2016-05-10T11:02:15Z</time>
      </trkpt>
      <trkpt lat="47.30506" lon="0.69158">
        <ele>87</ele>
        <time>2016-05-10T11:04:15Z</time>
      </trkpt>
      <trkpt lat="47.30506" lon="0.6916">
        <ele>87</ele>
        <time>2016-05-10T11:06:15Z</time>
      </trkpt>
      <trkpt lat="47.30505" lon="0.69164">
        <ele>87</ele>
        <time>2016-05-10T11:08:15Z</time>
      </trkpt>
      <trkpt lat="47.30503" lon="0.6918">
        <ele>87</ele>
        <time>2016-05-10T11:10:15Z</time>
      </trkpt>
      <trkpt lat="47.30501" lon="0.69195">
        <ele>87</ele>
        <time>2016-05-10T11:12:15Z</time>
      </trkpt>
      <trkpt lat="47.30501" lon="0.692">
        <ele>87</ele>
        <time>2016-05-10T11:14:15Z</time>
      </trkpt>
      <trkpt lat="47.305" lon="0.69209">
        <ele>88</ele>
        <time>2016-05-10T11:16:15Z</time>
      </trkpt>
      <trkpt lat="47.30498" lon="0.69223">
        <ele>88</ele>
        <time>2016-05-10T11:18:15Z</time>
      </trkpt>
      <trkpt lat="47.30497" lon="0.69229">
        <ele>88</ele>
        <time>2016-05-10T11:20:15Z</time>
      </trkpt>
      <trkpt lat="47.30495" lon="0.69245">
        <ele>88</ele>
        <time>2016-05-10T11:22:15Z</time>
      </trkpt>
      <trkpt lat="47.30493" lon="0.69262">
        <ele>89</ele>
        <time>2016-05-10T11:24:15Z</time>
      </trkpt>
      <trkpt lat="47.30492" lon="0.69264">
        <ele>89</ele>
        <time>2016-05-10T11:26:15Z</time>
      </trkpt>
      <trkpt lat="47.30491" lon="0.69278">
        <ele>90</ele>
        <time>2016-05-10T11:28:15Z</time>
      </trkpt>
      <trkpt lat="47.30489" lon="0.69286">
        <ele>90</ele>
        <time>2016-05-10T11:30:15Z</time>
      </trkpt>
      <trkpt lat="47.30489" lon="0.69294">
        <ele>91</ele>
        <time>2016-05-10T11:32:15Z</time>
      </trkpt>
      <trkpt lat="47.30487" lon="0.69304">
        <ele>91</ele>
        <time>2016-05-10T11:34:15Z</time>
      </trkpt>
      <trkpt lat="47.30486" lon="0.69316">
        <ele>92</ele>
        <time>2016-05-10T11:36:15Z</time>
      </trkpt>
      <trkpt lat="47.30484" lon="0.69329">
        <ele>93</ele>
        <time>2016-05-10T11:38:15Z</time>
      </trkpt>
      <trkpt lat="47.30483" lon="0.69343">
        <ele>93</ele>
        <time>2016-05-10T11:40:15Z</time>
      </trkpt>
      <trkpt lat="47.30481" lon="0.69359">
        <ele>94</ele>
        <time>2016-05-10T11:42:15Z</time>
      </trkpt>
      <trkpt lat="47.30479" lon="0.69375">
        <ele>94</ele>
        <time>2016-05-10T11:44:15Z</time>
      </trkpt>
      <trkpt lat="47.30477" lon="0.69392">
        <ele>95</ele>
        <time>2016-05-10T11:46:15Z</time>
      </trkpt>
      <trkpt lat="47.30475" lon="0.69409">
        <ele>95</ele>
        <time>2016-05-10T11:48:15Z</time>
      </trkpt>
      <trkpt lat="47.30474" lon="0.69418">
        <ele>96</ele>
        <time>2016-05-10T11:50:15Z</time>
      </trkpt>
      <trkpt lat="47.30472" lon="0.69432">
        <ele>96</ele>
        <time>2016-05-10T11:52:15Z</time>
      </trkpt>
      <trkpt lat="47.30471" lon="0.69443">
        <ele>96</ele>
        <time>2016-05-10T11:54:15Z</time>
      </trkpt>
      <trkpt lat="47.30469" lon="0.69461">
        <ele>96</ele>
        <time>2016-05-10T11:56:15Z</time>
      </trkpt>
      <trkpt lat="47.30467" lon="0.69478">
        <ele>96</ele>
        <time>2016-05-10T11:58:15Z</time>
      </trkpt>
      <trkpt lat="47.30464" lon="0.69496">
        <ele>96</ele>
        <time>2016-05-10T12:00:15Z</time>
      </trkpt>
      <trkpt lat="47.30462" lon="0.69514">
        <ele>96</ele>
        <time>2016-05-10T12:02:15Z</time>
      </trkpt>
      <trkpt lat="47.3046" lon="0.69531">
        <ele>96</ele>
        <time>2016-05-10T12:04:15Z</time>
      </trkpt>
      <trkpt lat="47.30457" lon="0.69548">
        <ele>96</ele>
        <time>2016-05-10T12:06:15Z</time>
      </trkpt>
      <trkpt lat="47.30454" lon="0.69565">
        <ele>96</ele>
        <time>2016-05-10T12:08:15Z</time>
      </trkpt>
      <trkpt lat="47.3045" lon="0.69582">
        <ele>96</ele>
        <time>2016-05-10T12:10:15Z</time>
      </trkpt>
      <trkpt lat="47.30445" lon="0.69598">
        <ele>96</ele>
        <time>2016-05-10T12:12:15Z</time>
      </trkpt>
      <trkpt lat="47.30441" lon="0.69614">
        <ele>96</ele>
        <time>2016-05-10T12:14:15Z</time>
      </trkpt>
      <trkpt lat="47.30435" lon="0.6963">
        <ele>96</ele>
        <time>2016-05-10T12:16:15Z</time>
      </trkpt>
      <trkpt lat="47.30429" lon="0.69644">
        <ele>97</ele>
        <time>2016-05-10T12:18:15Z</time>
      </trkpt>
      <trkpt lat="47.30423" lon="0.69659">
        <ele>97</ele>
        <time>2016-05-10T12:20:15Z</time>
      </trkpt>
      <trkpt lat="47.30417" lon="0.69673">
        <ele>97</ele>
        <time>2016-05-10T12:22:15Z</time>
      </trkpt>
      <trkpt lat="47.30409" lon="0.69687">
        <ele>97</ele>
        <time>2016-05-10T12:24:15Z</time>
      </trkpt>
      <trkpt lat="47.30402" lon="0.697">
        <ele>97</ele>
        <time>2016-05-10T12:26:15Z</time>
      </trkpt>
      <trkpt lat="47.30394" lon="0.69712">
        <ele>96</ele>
        <time>2016-05-10T12:28:15Z</time>
      </trkpt>
      <trkpt lat="47.30385" lon="0.69725">
        <ele>96</ele>
        <time>2016-05-10T12:30:15Z</time>
      </trkpt>
      <trkpt lat="47.30376" lon="0.69737">
        <ele>96</ele>
        <time>2016-05-10T12:32:15Z</time>
      </trkpt>
      <trkpt lat="47.30367" lon="0.69747">
        <ele>95</ele>
        <time>2016-05-10T12:34:15Z</time>
      </trkpt>
      <trkpt lat="47.30359" lon="0.69756">
        <ele>95</ele>
        <time>2016-05-10T12:36:15Z</time>
      </trkpt>
      <trkpt lat="47.3035" lon="0.69764">
        <ele>94</ele>
        <time>2016-05-10T12:38:15Z</time>
      </trkpt>
      <trkpt lat="47.30343" lon="0.69771">
        <ele>94</ele>
        <time>2016-05-10T12:40:15Z</time>
      </trkpt>
      <trkpt lat="47.30336" lon="0.69777">
        <ele>93</ele>
        <time>2016-05-10T12:42:15Z</time>
      </trkpt>
      <trkpt lat="47.3033" lon="0.69782">
        <ele>93</ele>
        <time>2016-05-10T12:44:15Z</time>
      </trkpt>
      <trkpt lat="47.30326" lon="0.69786">
        <ele>93</ele>
        <time>2016-05-10T12:46:15Z</time>
      </trkpt>
      <trkpt lat="47.30321" lon="0.6979">
        <ele>93</ele>
        <time>2016-05-10T12:48:15Z</time>
      </trkpt>
      <trkpt lat="47.30318" lon="0.69793">
        <ele>93</ele>
        <time>2016-05-10T12:50:15Z</time>
      </trkpt>
      <trkpt lat="47.30295" lon="0.69812">
        <ele>92</ele>
        <time>2016-05-10T12:52:15Z</time>
      </trkpt>
      <trkpt lat="47.30273" lon="0.69831">
        <ele>91</ele>
        <time>2016-05-10T12:54:15Z</time>
      </trkpt>
      <trkpt lat="47.30255" lon="0.69846">
        <ele>91</ele>
        <time>2016-05-10T12:56:15Z</time>
      </trkpt>
      <trkpt lat="47.30247" lon="0.69854">
        <ele>91</ele>
        <time>2016-05-10T12:58:15Z</time>
      </trkpt>
      <trkpt lat="47.30238" lon="0.69862">
        <ele>91</ele>
        <time>2016-05-10T13:00:15Z</time>
      </trkpt>
      <trkpt lat="47.30231" lon="0.69867">
        <ele>91</ele>
        <time>2016-05-10T13:02:15Z</time>
      </trkpt>
      <trkpt lat="47.30222" lon="0.69869">
        <ele>91</ele>
        <time>2016-05-10T13:04:15Z</time>
      </trkpt>
      <trkpt lat="47.30216" lon="0.69868">
        <ele>91</ele>
        <time>2016-05-10T13:06:15Z</time>
      </trkpt>
      <trkpt lat="47.3021" lon="0.69866">
        <ele>90</ele>
        <time>2016-05-10T13:08:15Z</time>
      </trkpt>
      <trkpt lat="47.30203" lon="0.69862">
        <ele>90</ele>
        <time>2016-05-10T13:10:15Z</time>
      </trkpt>
      <trkpt lat="47.30191" lon="0.69853">
        <ele>89</ele>
        <time>2016-05-10T13:12:15Z</time>
      </trkpt>
      <trkpt lat="47.30178" lon="0.6984">
        <ele>88</ele>
        <time>2016-05-10T13:14:15Z</time>
      </trkpt>
      <trkpt lat="47.30155" lon="0.69815">
        <ele>87</ele>
        <time>2016-05-10T13:16:15Z</time>
      </trkpt>
      <trkpt lat="47.30132" lon="0.69773">
        <ele>88</ele>
        <time>2016-05-10T13:18:15Z</time>
      </trkpt>
      <trkpt lat="47.30121" lon="0.69723">
        <ele>88</ele>
        <time>2016-05-10T13:20:15Z</time>
      </trkpt>
      <trkpt lat="47.3012" lon="0.69678">
        <ele>88</ele>
        <time>2016-05-10T13:22:15Z</time>
      </trkpt>
      <trkpt lat="47.30119" lon="0.69643">
        <ele>87</ele>
        <time>2016-05-10T13:24:15Z</time>
      </trkpt>
      <trkpt lat="47.30116" lon="0.69617">
        <ele>88</ele>
        <time>2016-05-10T13:26:15Z</time>
      </trkpt>
      <trkpt lat="47.3011" lon="0.69592">
        <ele>88</ele>
        <time>2016-05-10T13:28:15Z</time>
      </trkpt>
      <trkpt lat="47.30102" lon="0.69572">
        <ele>88</ele>
        <time>2016-05-10T13:30:15Z</time>
      </trkpt>
      <trkpt lat="47.30098" lon="0.69565">
        <ele>88</ele>
        <time>2016-05-10T13:32:15Z</time>
      </trkpt>
      <trkpt lat="47.30092" lon="0.69559">
        <ele>89</ele>
        <time>2016-05-10T13:34:15Z</time>
      </trkpt>
      <trkpt lat="47.30084" lon="0.69556">
        <ele>89</ele>
        <time>2016-05-10T13:36:15Z</time>
      </trkpt>
      <trkpt lat="47.30077" lon="0.69557">
        <ele>89</ele>
        <time>2016-05-10T13:38:15Z</time>
      </trkpt>
      <trkpt lat="47.30068" lon="0.69558">
        <ele>89</ele>
        <time>2016-05-10T13:40:15Z</time>
      </trkpt>
      <trkpt lat="47.30059" lon="0.69564">
        <ele>90</ele>
        <time>2016-05-10T13:42:15Z</time>
      </trkpt>
      <trkpt lat="47.30052" lon="0.69572">
        <ele>90</ele>
        <time>2016-05-10T13:44:15Z</time>
      </trkpt>
      <trkpt lat="47.30026" lon="0.69608">
        <ele>92</ele>
        <time>2016-05-10T13:46:15Z</time>
      </trkpt>
      <trkpt lat="47.30026" lon="0.69608">
        <ele>92</ele>
        <time>2016-05-10T13:48:15Z</time>
      </trkpt>
      <trkpt lat="47.30023" lon="0.69605">
        <ele>92</ele>
        <time>2016-05-10T13:50:15Z</time>
      </trkpt>
      <trkpt lat="47.30021" lon="0.69602">
        <ele>92</ele>
        <time>2016-05-10T13:52:15Z</time>
      </trkpt>
      <trkpt lat="47.30018" lon="0.696">
        <ele>92</ele>
        <time>2016-05-10T13:54:15Z</time>
      </trkpt>
      <trkpt lat="47.30015" lon="0.69598">
        <ele>92</ele>
        <time>2016-05-10T13:56:15Z</time>
      </trkpt>
      <trkpt lat="47.30012" lon="0.69596">
        <ele>92</ele>
        <time>2016-05-10T13:58:15Z</time>
      </trkpt>
      <trkpt lat="47.30008" lon="0.69596">
        <ele>92</ele>
        <time>2016-05-10T14:00:15Z</time>
      </trkpt>
      <trkpt lat="47.30005" lon="0.69596">
        <ele>92</ele>
        <time>2016-05-10T14:02:15Z</time>
      </trkpt>
      <trkpt lat="47.30002" lon="0.69596">
        <ele>92</ele>
        <time>2016-05-10T14:04:15Z</time>
      </trkpt>
      <trkpt lat="47.29999" lon="0.69597">
        <ele>93</ele>
        <time>2016-05-10T14:06:15Z</time>
      </trkpt>
      <trkpt lat="47.29996" lon="0.69599">
        <ele>93</ele>
        <time>2016-05-10T14:08:15Z</time>
      </trkpt>
      <trkpt lat="47.29993" lon="0.69601">
        <ele>93</ele>
        <time>2016-05-10T14:10:15Z</time>
      </trkpt>
      <trkpt lat="47.2999" lon="0.69603">
        <ele>93</ele>
        <time>2016-05-10T14:12:15Z</time>
      </trkpt>
      <trkpt lat="47.29988" lon="0.69606">
        <ele>93</ele>
        <time>2016-05-10T14:14:15Z</time>
      </trkpt>
      <trkpt lat="47.29985" lon="0.6961">
        <ele>93</ele>
        <time>2016-05-10T14:16:15Z</time>
      </trkpt>
      <trkpt lat="47.29983" lon="0.69614">
        <ele>93</ele>
        <time>2016-05-10T14:18:15Z</time>
      </trkpt>
      <trkpt lat="47.29982" lon="0.69618">
        <ele>94</ele>
        <time>2016-05-10T14:20:15Z</time>
      </trkpt>
      <trkpt lat="47.2998" lon="0.69623">
        <ele>94</ele>
        <time>2016-05-10T14:22:15Z</time>
      </trkpt>
      <trkpt lat="47.2998" lon="0.69627">
        <ele>94</ele>
        <time>2016-05-10T14:24:15Z</time>
      </trkpt>
      <trkpt lat="47.29979" lon="0.69632">
        <ele>94</ele>
        <time>2016-05-10T14:26:15Z</time>
      </trkpt>
      <trkpt lat="47.29979" lon="0.69637">
        <ele>94</ele>
        <time>2016-05-10T14:28:15Z</time>
      </trkpt>
      <trkpt lat="47.29979" lon="0.69642">
        <ele>94</ele>
        <time>2016-05-10T14:30:15Z</time>
      </trkpt>
      <trkpt lat="47.2998" lon="0.69646">
        <ele>94</ele>
        <time>2016-05-10T14:32:15Z</time>
      </trkpt>
      <trkpt lat="47.29981" lon="0.69651">
        <ele>95</ele>
        <time>2016-05-10T14:34:15Z</time>
      </trkpt>
      <trkpt lat="47.29983" lon="0.69655">
        <ele>95</ele>
        <time>2016-05-10T14:36:15Z</time>
      </trkpt>
      <trkpt lat="47.29985" lon="0.6966">
        <ele>95</ele>
        <time>2016-05-10T14:38:15Z</time>
      </trkpt>
      <trkpt lat="47.2997" lon="0.69699">
        <ele>95</ele>
        <time>2016-05-10T14:40:15Z</time>
      </trkpt>
      <trkpt lat="47.29963" lon="0.69716">
        <ele>95</ele>
        <time>2016-05-10T14:42:15Z</time>
      </trkpt>
      <trkpt lat="47.29954" lon="0.69735">
        <ele>94</ele>
        <time>2016-05-10T14:44:15Z</time>
      </trkpt>
      <trkpt lat="47.29947" lon="0.69753">
        <ele>93</ele>
        <time>2016-05-10T14:46:15Z</time>
      </trkpt>
      <trkpt lat="47.29944" lon="0.69766">
        <ele>92</ele>
        <time>2016-05-10T14:48:15Z</time>
      </trkpt>
      <trkpt lat="47.29943" lon="0.6978">
        <ele>91</ele>
        <time>2016-05-10T14:50:15Z</time>
      </trkpt>
      <trkpt lat="47.29944" lon="0.69795">
        <ele>90</ele>
        <time>2016-05-10T14:52:15Z</time>
      </trkpt>
      <trkpt lat="47.29948" lon="0.6981">
        <ele>89</ele>
        <time>2016-05-10T14:54:15Z</time>
      </trkpt>
      <trkpt lat="47.29951" lon="0.69825">
        <ele>88</ele>
        <time>2016-05-10T14:56:15Z</time>
      </trkpt>
      <trkpt lat="47.29958" lon="0.69839">
        <ele>88</ele>
        <time>2016-05-10T14:58:15Z</time>
      </trkpt>
      <trkpt lat="47.29969" lon="0.69857">
        <ele>88</ele>
        <time>2016-05-10T15:00:15Z</time>
      </trkpt>
      <trkpt lat="47.30018" lon="0.6993">
        <ele>89</ele>
        <time>2016-05-10T15:02:15Z</time>
      </trkpt>
      <trkpt lat="47.30036" lon="0.69955">
        <ele>89</ele>
        <time>2016-05-10T15:04:15Z</time>
      </trkpt>
      <trkpt lat="47.30051" lon="0.6998">
        <ele>89</ele>
        <time>2016-05-10T15:06:15Z</time>
      </trkpt>
      <trkpt lat="47.30064" lon="0.70008">
        <ele>91</ele>
        <time>2016-05-10T15:08:15Z</time>
      </trkpt>
      <trkpt lat="47.3008" lon="0.70042">
        <ele>93</ele>
        <time>2016-05-10T15:10:15Z</time>
      </trkpt>
      <trkpt lat="47.30093" lon="0.70073">
        <ele>93</ele>
        <time>2016-05-10T15:12:15Z</time>
      </trkpt>
      <trkpt lat="47.30104" lon="0.70107">
        <ele>92</ele>
        <time>2016-05-10T15:14:15Z</time>
      </trkpt>
      <trkpt lat="47.30112" lon="0.70137">
        <ele>91</ele>
        <time>2016-05-10T15:16:15Z</time>
      </trkpt>
      <trkpt lat="47.3013" lon="0.70186">
        <ele>92</ele>
        <time>2016-05-10T15:18:15Z</time>
      </trkpt>
      <trkpt lat="47.30144" lon="0.70234">
        <ele>93</ele>
        <time>2016-05-10T15:20:15Z</time>
      </trkpt>
      <trkpt lat="47.30148" lon="0.70272">
        <ele>92</ele>
        <time>2016-05-10T15:22:15Z</time>
      </trkpt>
      <trkpt lat="47.30144" lon="0.70316">
        <ele>90</ele>
        <time>2016-05-10T15:24:15Z</time>
      </trkpt>
      <trkpt lat="47.30141" lon="0.70348">
        <ele>88</ele>
        <time>2016-05-10T15:26:15Z</time>
      </trkpt>
      <trkpt lat="47.30142" lon="0.70373">
        <ele>88</ele>
        <time>2016-05-10T15:28:15Z</time>
      </trkpt>
      <trkpt lat="47.30145" lon="0.70397">
        <ele>88</ele>
        <time>2016-05-10T15:30:15Z</time>
      </trkpt>
      <trkpt lat="47.30151" lon="0.70425">
        <ele>88</ele>
        <time>2016-05-10T15:32:15Z</time>
      </trkpt>
      <trkpt lat="47.30156" lon="0.7045">
        <ele>89</ele>
        <time>2016-05-10T15:34:15Z</time>
      </trkpt>
      <trkpt lat="47.30162" lon="0.7047">
        <ele>89</ele>
        <time>2016-05-10T15:36:15Z</time>
      </trkpt>
      <trkpt lat="47.30165" lon="0.70492">
        <ele>90</ele>
        <time>2016-05-10T15:38:15Z</time>
      </trkpt>
      <trkpt lat="47.30171" lon="0.70552">
        <ele>89</ele>
        <time>2016-05-10T15:40:15Z</time>
      </trkpt>
      <trkpt lat="47.3018" lon="0.70633">
        <ele>87</ele>
        <time>2016-05-10T15:42:15Z</time>
      </trkpt>
      <trkpt lat="47.30184" lon="0.70681">
        <ele>87</ele>
        <time>2016-05-10T15:44:15Z</time>
      </trkpt>
      <trkpt lat="47.30185" lon="0.707">
        <ele>87</ele>
        <time>2016-05-10T15:46:15Z</time>
      </trkpt>
      <trkpt lat="47.30185" lon="0.70713">
        <ele>87</ele>
        <time>2016-05-10T15:48:15Z</time>
      </trkpt>
      <trkpt lat="47.30176" lon="0.70792">
        <ele>88</ele>
        <time>2016-05-10T15:50:15Z</time>
      </trkpt>
      <trkpt lat="47.3017" lon="0.70857">
        <ele>90</ele>
        <time>2016-05-10T15:52:15Z</time>
      </trkpt>
      <trkpt lat="47.30162" lon="0.7091">
        <ele>91</ele>
        <time>2016-05-10T15:54:15Z</time>
      </trkpt>
      <trkpt lat="47.3015" lon="0.70987">
        <ele>89</ele>
        <time>2016-05-10T15:56:15Z</time>
      </trkpt>
      <trkpt lat="47.30146" lon="0.71014">
        <ele>89</ele>
        <time>2016-05-10T15:58:15Z</time>
      </trkpt>
      <trkpt lat="47.30146" lon="0.71037">
        <ele>89</ele>
        <time>2016-05-10T16:00:15Z</time>
      </trkpt>
      <trkpt lat="47.30146" lon="0.71056">
        <ele>88</ele>
        <time>2016-05-10T16:02:15Z</time>
      </trkpt>
      <trkpt lat="47.30159" lon="0.71252">
        <ele>93</ele>
        <time>2016-05-10T16:04:15Z</time>
      </trkpt>
      <trkpt lat="47.30163" lon="0.71297">
        <ele>93</ele>
        <time>2016-05-10T16:06:15Z</time>
      </trkpt>
      <trkpt lat="47.30165" lon="0.71313">
        <ele>93</ele>
        <time>2016-05-10T16:08:15Z</time>
      </trkpt>
      <trkpt lat="47.30173" lon="0.71356">
        <ele>92</ele>
        <time>2016-05-10T16:10:15Z</time>
      </trkpt>
      <trkpt lat="47.30176" lon="0.71372">
        <ele>91</ele>
        <time>2016-05-10T16:12:15Z</time>
      </trkpt>
      <trkpt lat="47.30178" lon="0.71388">
        <ele>91</ele>
        <time>2016-05-10T16:14:15Z</time>
      </trkpt>
      <trkpt lat="47.3018" lon="0.71399">
        <ele>90</ele>
        <time>2016-05-10T16:16:15Z</time>
      </trkpt>
      <trkpt lat="47.30168" lon="0.71417">
        <ele>90</ele>
        <time>2016-05-10T16:18:15Z</time>
      </trkpt>
      <trkpt lat="47.30156" lon="0.71432">
        <ele>90</ele>
        <time>2016-05-10T16:20:15Z</time>
      </trkpt>
      <trkpt lat="47.30144" lon="0.7145">
        <ele>90</ele>
        <time>2016-05-10T16:22:15Z</time>
      </trkpt>
      <trkpt lat="47.30139" lon="0.7146">
        <ele>90</ele>
        <time>2016-05-10T16:24:15Z</time>
      </trkpt>
      <trkpt lat="47.30135" lon="0.71471">
        <ele>90</ele>
        <time>2016-05-10T16:26:15Z</time>
      </trkpt>
      <trkpt lat="47.30132" lon="0.71482">
        <ele>90</ele>
        <time>2016-05-10T16:28:15Z</time>
      </trkpt>
      <trkpt lat="47.30129" lon="0.71499">
        <ele>90</ele>
        <time>2016-05-10T16:30:15Z</time>
      </trkpt>
      <trkpt lat="47.30126" lon="0.71514">
        <ele>89</ele>
        <time>2016-05-10T16:32:15Z</time>
      </trkpt>
      <trkpt lat="47.30122" lon="0.71544">
        <ele>89</ele>
        <time>2016-05-10T16:34:15Z</time>
      </trkpt>
      <trkpt lat="47.30118" lon="0.71573">
        <ele>89</ele>
        <time>2016-05-10T16:36:15Z</time>
      </trkpt>
      <trkpt lat="47.30118" lon="0.71573">
        <ele>89</ele>
        <time>2016-05-10T16:38:15Z</time>
      </trkpt>
      <trkpt lat="47.30118" lon="0.71587">
        <ele>89</ele>
        <time>2016-05-10T16:40:15Z</time>
      </trkpt>
      <trkpt lat="47.30116" lon="0.71608">
        <ele>89</ele>
        <time>2016-05-10T16:42:15Z</time>
      </trkpt>
      <trkpt lat="47.30117" lon="0.71619">
        <ele>89</ele>
        <time>2016-05-10T16:44:15Z</time>
      </trkpt>
      <trkpt lat="47.30101" lon="0.71648">
        <ele>90</ele>
        <time>2016-05-10T16:46:15Z</time>
      </trkpt>
      <trkpt lat="47.30091" lon="0.71668">
        <ele>90</ele>
        <time>2016-05-10T16:48:15Z</time>
      </trkpt>
      <trkpt lat="47.30086" lon="0.71677">
        <ele>90</ele>
        <time>2016-05-10T16:50:15Z</time>
      </trkpt>
      <trkpt lat="47.30062" lon="0.71724">
        <ele>91</ele>
        <time>2016-05-10T16:52:15Z</time>
      </trkpt>
      <trkpt lat="47.3004" lon="0.71765">
        <ele>91</ele>
        <time>2016-05-10T16:54:15Z</time>
      </trkpt>
      <trkpt lat="47.30035" lon="0.71774">
        <ele>91</ele>
        <time>2016-05-10T16:56:15Z</time>
      </trkpt>
      <trkpt lat="47.29982" lon="0.71875">
        <ele>92</ele>
        <time>2016-05-10T16:58:15Z</time>
      </trkpt>
      <trkpt lat="47.29961" lon="0.71915">
        <ele>92</ele>
        <time>2016-05-10T17:00:15Z</time>
      </trkpt>
      <trkpt lat="47.29941" lon="0.71955">
        <ele>91</ele>
        <time>2016-05-10T17:02:15Z</time>
      </trkpt>
      <trkpt lat="47.29913" lon="0.72007">
        <ele>90</ele>
        <time>2016-05-10T17:04:15Z</time>
      </trkpt>
      <trkpt lat="47.29872" lon="0.72082">
        <ele>89</ele>
        <time>2016-05-10T17:06:15Z</time>
      </trkpt>
      <trkpt lat="47.29824" lon="0.72177">
        <ele>89</ele>
        <time>2016-05-10T17:08:15Z</time>
      </trkpt>
      <trkpt lat="47.29747" lon="0.72325">
        <ele>88</ele>
        <time>2016-05-10T17:10:15Z</time>
      </trkpt>
      <trkpt lat="47.29739" lon="0.7234">
        <ele>88</ele>
        <time>2016-05-10T17:12:15Z</time>
      </trkpt>
      <trkpt lat="47.29707" lon="0.72401">
        <ele>90</ele>
        <time>2016-05-10T17:14:15Z</time>
      </trkpt>
      <trkpt lat="47.29641" lon="0.72527">
        <ele>90</ele>
        <time>2016-05-10T17:16:15Z</time>
      </trkpt>
      <trkpt lat="47.29598" lon="0.7261">
        <ele>89</ele>
        <time>2016-05-10T17:18:15Z</time>
      </trkpt>
      <trkpt lat="47.29575" lon="0.72654">
        <ele>90</ele>
        <time>2016-05-10T17:20:15Z</time>
      </trkpt>
      <trkpt lat="47.29552" lon="0.72698">
        <ele>90</ele>
        <time>2016-05-10T17:22:15Z</time>
      </trkpt>
      <trkpt lat="47.29534" lon="0.72731">
        <ele>90</ele>
        <time>2016-05-10T17:24:15Z</time>
      </trkpt>
      <trkpt lat="47.29516" lon="0.72764">
        <ele>90</ele>
        <time>2016-05-10T17:26:15Z</time>
      </trkpt>
      <trkpt lat="47.29494" lon="0.72803">
        <ele>91</ele>
        <time>2016-05-10T17:28:15Z</time>
      </trkpt>
      <trkpt lat="47.2947" lon="0.72849">
        <ele>93</ele>
        <time>2016-05-10T17:30:15Z</time>
      </trkpt>
      <trkpt lat="47.29469" lon="0.72848">
        <ele>93</ele>
        <time>2016-05-10T17:32:15Z</time>
      </trkpt>
      <trkpt lat="47.29468" lon="0.72847">
        <ele>92</ele>
        <time>2016-05-10T17:34:15Z</time>
      </trkpt>
      <trkpt lat="47.29467" lon="0.72846">
        <ele>92</ele>
        <time>2016-05-10T17:36:15Z</time>
      </trkpt>
      <trkpt lat="47.29466" lon="0.72846">
        <ele>92</ele>
        <time>2016-05-10T17:38:15Z</time>
      </trkpt>
      <trkpt lat="47.29464" lon="0.72847">
        <ele>92</ele>
        <time>2016-05-10T17:40:15Z</time>
      </trkpt>
      <trkpt lat="47.29462" lon="0.72848">
        <ele>92</ele>
        <time>2016-05-10T17:42:15Z</time>
      </trkpt>
      <trkpt lat="47.29461" lon="0.72849">
        <ele>92</ele>
        <time>2016-05-10T17:44:15Z</time>
      </trkpt>
      <trkpt lat="47.2946" lon="0.72851">
        <ele>92</ele>
        <time>2016-05-10T17:46:15Z</time>
      </trkpt>
      <trkpt lat="47.29459" lon="0.72854">
        <ele>92</ele>
        <time>2016-05-10T17:48:15Z</time>
      </trkpt>
      <trkpt lat="47.29459" lon="0.72858">
        <ele>92</ele>
        <time>2016-05-10T17:50:15Z</time>
      </trkpt>
      <trkpt lat="47.2946" lon="0.72861">
        <ele>92</ele>
        <time>2016-05-10T17:52:15Z</time>
      </trkpt>
      <trkpt lat="47.29461" lon="0.72863">
        <ele>92</ele>
        <time>2016-05-10T17:54:15Z</time>
      </trkpt>
      <trkpt lat="47.29462" lon="0.72865">
        <ele>93</ele>
        <time>2016-05-10T17:56:15Z</time>
      </trkpt>
      <trkpt lat="47.29442" lon="0.72904">
        <ele>92</ele>
        <time>2016-05-10T17:58:15Z</time>
      </trkpt>
      <trkpt lat="47.29357" lon="0.73065">
        <ele>93</ele>
        <time>2016-05-10T18:00:15Z</time>
      </trkpt>
      <trkpt lat="47.29335" lon="0.73108">
        <ele>93</ele>
        <time>2016-05-10T18:02:15Z</time>
      </trkpt>
      <trkpt lat="47.29326" lon="0.73126">
        <ele>94</ele>
        <time>2016-05-10T18:04:15Z</time>
      </trkpt>
      <trkpt lat="47.29305" lon="0.73171">
        <ele>96</ele>
        <time>2016-05-10T18:06:15Z</time>
      </trkpt>
      <trkpt lat="47.29238" lon="0.73296">
        <ele>96</ele>
        <time>2016-05-10T18:08:15Z</time>
      </trkpt>
      <trkpt lat="47.29217" lon="0.73338">
        <ele>92</ele>
        <time>2016-05-10T18:10:15Z</time>
      </trkpt>
      <trkpt lat="47.29213" lon="0.73348">
        <ele>90</ele>
        <time>2016-05-10T18:12:15Z</time>
      </trkpt>
      <trkpt lat="47.29211" lon="0.73364">
        <ele>89</ele>
        <time>2016-05-10T18:14:15Z</time>
      </trkpt>
      <trkpt lat="47.29212" lon="0.73375">
        <ele>88</ele>
        <time>2016-05-10T18:16:15Z</time>
      </trkpt>
      <trkpt lat="47.29212" lon="0.7338">
        <ele>87</ele>
        <time>2016-05-10T18:18:15Z</time>
      </trkpt>
      <trkpt lat="47.29226" lon="0.73417">
        <ele>87</ele>
        <time>2016-05-10T18:20:15Z</time>
      </trkpt>
      <trkpt lat="47.29229" lon="0.73425">
        <ele>86</ele>
        <time>2016-05-10T18:22:15Z</time>
      </trkpt>
      <trkpt lat="47.29229" lon="0.73429">
        <ele>86</ele>
        <time>2016-05-10T18:24:15Z</time>
      </trkpt>
      <trkpt lat="47.29229" lon="0.73434">
        <ele>85</ele>
        <time>2016-05-10T18:26:15Z</time>
      </trkpt>
      <trkpt lat="47.29229" lon="0.73439">
        <ele>84</ele>
        <time>2016-05-10T18:28:15Z</time>
      </trkpt>
      <trkpt lat="47.29228" lon="0.73443">
        <ele>84</ele>
        <time>2016-05-10T18:30:15Z</time>
      </trkpt>
      <trkpt lat="47.29225" lon="0.73448">
        <ele>82</ele>
        <time>2016-05-10T18:32:15Z</time>
      </trkpt>
      <trkpt lat="47.29223" lon="0.73451">
        <ele>82</ele>
        <time>2016-05-10T18:34:15Z</time>
      </trkpt>
      <trkpt lat="47.29221" lon="0.73453">
        <ele>81</ele>
        <time>2016-05-10T18:36:15Z</time>
      </trkpt>
      <trkpt lat="47.29219" lon="0.73455">
        <ele>80</ele>
        <time>2016-05-10T18:38:15Z</time>
      </trkpt>
      <trkpt lat="47.29217" lon="0.73456">
        <ele>80</ele>
        <time>2016-05-10T18:40:15Z</time>
      </trkpt>
      <trkpt lat="47.29215" lon="0.73457">
        <ele>79</ele>
        <time>2016-05-10T18:42:15Z</time>
      </trkpt>
      <trkpt lat="47.29213" lon="0.73457">
        <ele>79</ele>
        <time>2016-05-10T18:44:15Z</time>
      </trkpt>
      <trkpt lat="47.29208" lon="0.73458">
        <ele>78</ele>
        <time>2016-05-10T18:46:15Z</time>
      </trkpt>
      <trkpt lat="47.29201" lon="0.73457">
        <ele>76</ele>
        <time>2016-05-10T18:48:15Z</time>
      </trkpt>
      <trkpt lat="47.29193" lon="0.73453">
        <ele>75</ele>
        <time>2016-05-10T18:50:15Z</time>
      </trkpt>
      <trkpt lat="47.29187" lon="0.73449">
        <ele>75</ele>
        <time>2016-05-10T18:52:15Z</time>
      </trkpt>
      <trkpt lat="47.29183" lon="0.73447">
        <ele>74</ele>
        <time>2016-05-10T18:54:15Z</time>
      </trkpt>
      <trkpt lat="47.29181" lon="0.73445">
        <ele>74</ele>
        <time>2016-05-10T18:56:15Z</time>
      </trkpt>
      <trkpt lat="47.29175" lon="0.73438">
        <ele>73</ele>
        <time>2016-05-10T18:58:15Z</time>
      </trkpt>
      <trkpt lat="47.29166" lon="0.73424">
        <ele>73</ele>
        <time>2016-05-10T19:00:15Z</time>
      </trkpt>
      <trkpt lat="47.29154" lon="0.73401">
        <ele>74</ele>
        <time>2016-05-10T19:02:15Z</time>
      </trkpt>
      <trkpt lat="47.29142" lon="0.73372">
        <ele>75</ele>
        <time>2016-05-10T19:04:15Z</time>
      </trkpt>
      <trkpt lat="47.29126" lon="0.73343">
        <ele>74</ele>
        <time>2016-05-10T19:06:15Z</time>
      </trkpt>
      <trkpt lat="47.291" lon="0.73298">
        <ele>71</ele>
        <time>2016-05-10T19:08:15Z</time>
      </trkpt>
      <trkpt lat="47.29089" lon="0.7328">
        <ele>70</ele>
        <time>2016-05-10T19:10:15Z</time>
      </trkpt>
      <trkpt lat="47.29085" lon="0.73275">
        <ele>69</ele>
        <time>2016-05-10T19:12:15Z</time>
      </trkpt>
      <trkpt lat="47.29083" lon="0.73272">
        <ele>69</ele>
        <time>2016-05-10T19:14:15Z</time>
      </trkpt>
      <trkpt lat="47.2908" lon="0.73269">
        <ele>68</ele>
        <time>2016-05-10T19:16:15Z</time>
      </trkpt>
      <trkpt lat="47.29077" lon="0.73267">
        <ele>68</ele>
        <time>2016-05-10T19:18:15Z</time>
      </trkpt>
      <trkpt lat="47.29074" lon="0.73266">
        <ele>68</ele>
        <time>2016-05-10T19:20:15Z</time>
      </trkpt>
      <trkpt lat="47.29072" lon="0.73267">
        <ele>67</ele>
        <time>2016-05-10T19:22:15Z</time>
      </trkpt>
      <trkpt lat="47.29069" lon="0.73268">
        <ele>67</ele>
        <time>2016-05-10T19:24:15Z</time>
      </trkpt>
      <trkpt lat="47.29068" lon="0.73271">
        <ele>67</ele>
        <time>2016-05-10T19:26:15Z</time>
      </trkpt>
      <trkpt lat="47.29067" lon="0.73274">
        <ele>66</ele>
        <time>2016-05-10T19:28:15Z</time>
      </trkpt>
      <trkpt lat="47.29066" lon="0.73278">
        <ele>66</ele>
        <time>2016-05-10T19:30:15Z</time>
      </trkpt>
      <trkpt lat="47.29067" lon="0.73283">
        <ele>66</ele>
        <time>2016-05-10T19:32:15Z</time>
      </trkpt>
      <trkpt lat="47.29067" lon="0.73288">
        <ele>66</ele>
        <time>2016-05-10T19:34:15Z</time>
      </trkpt>
      <trkpt lat="47.29069" lon="0.73293">
        <ele>66</ele>
        <time>2016-05-10T19:36:15Z</time>
      </trkpt>
      <trkpt lat="47.29073" lon="0.73302">
        <ele>66</ele>
        <time>2016-05-10T19:38:15Z</time>
      </trkpt>
      <trkpt lat="47.29083" lon="0.73322">
        <ele>66</ele>
        <time>2016-05-10T19:40:15Z</time>
      </trkpt>
      <trkpt lat="47.29109" lon="0.73368">
        <ele>68</ele>
        <time>2016-05-10T19:42:15Z</time>
      </trkpt>
      <trkpt lat="47.29119" lon="0.73384">
        <ele>68</ele>
        <time>2016-05-10T19:44:15Z</time>
      </trkpt>
      <trkpt lat="47.29122" lon="0.73392">
        <ele>68</ele>
        <time>2016-05-10T19:46:15Z</time>
      </trkpt>
      <trkpt lat="47.29127" lon="0.73405">
        <ele>68</ele>
        <time>2016-05-10T19:48:15Z</time>
      </trkpt>
      <trkpt lat="47.29127" lon="0.73405">
        <ele>68</ele>
        <time>2016-05-10T19:50:15Z</time>
      </trkpt>
      <trkpt lat="47.29115" lon="0.73419">
        <ele>64</ele>
        <time>2016-05-10T19:52:15Z</time>
      </trkpt>
      <trkpt lat="47.29108" lon="0.7342">
        <ele>63</ele>
        <time>2016-05-10T19:54:15Z</time>
      </trkpt>
      <trkpt lat="47.29096" lon="0.73424">
        <ele>60</ele>
        <time>2016-05-10T19:56:15Z</time>
      </trkpt>
      <trkpt lat="47.29093" lon="0.73421">
        <ele>60</ele>
        <time>2016-05-10T19:58:15Z</time>
      </trkpt>
      <trkpt lat="47.29091" lon="0.7342">
        <ele>59</ele>
        <time>2016-05-10T20:00:15Z</time>
      </trkpt>
      <trkpt lat="47.29087" lon="0.73419">
        <ele>59</ele>
        <time>2016-05-10T20:02:15Z</time>
      </trkpt>
      <trkpt lat="47.29084" lon="0.73421">
        <ele>58</ele>
        <time>2016-05-10T20:04:15Z</time>
      </trkpt>
      <trkpt lat="47.29083" lon="0.73422">
        <ele>58</ele>
        <time>2016-05-10T20:06:15Z</time>
      </trkpt>
      <trkpt lat="47.29082" lon="0.73424">
        <ele>58</ele>
        <time>2016-05-10T20:08:15Z</time>
      </trkpt>
      <trkpt lat="47.29081" lon="0.73426">
        <ele>57</ele>
        <time>2016-05-10T20:10:15Z</time>
      </trkpt>
      <trkpt lat="47.29079" lon="0.73429">
        <ele>57</ele>
        <time>2016-05-10T20:12:15Z</time>
      </trkpt>
      <trkpt lat="47.29079" lon="0.7343">
        <ele>57</ele>
        <time>2016-05-10T20:14:15Z</time>
      </trkpt>
      <trkpt lat="47.29079" lon="0.73435">
        <ele>57</ele>
        <time>2016-05-10T20:16:15Z</time>
      </trkpt>
      <trkpt lat="47.29058" lon="0.73449">
        <ele>56</ele>
        <time>2016-05-10T20:18:15Z</time>
      </trkpt>
      <trkpt lat="47.29055" lon="0.73455">
        <ele>55</ele>
        <time>2016-05-10T20:20:15Z</time>
      </trkpt>
      <trkpt lat="47.29054" lon="0.73455">
        <ele>55</ele>
        <time>2016-05-10T20:22:15Z</time>
      </trkpt>
      <trkpt lat="47.29024" lon="0.73475">
        <ele>54</ele>
        <time>2016-05-10T20:24:15Z</time>
      </trkpt>
      <trkpt lat="47.28993" lon="0.73493">
        <ele>54</ele>
        <time>2016-05-10T20:26:15Z</time>
      </trkpt>
      <trkpt lat="47.28988" lon="0.73496">
        <ele>54</ele>
        <time>2016-05-10T20:28:15Z</time>
      </trkpt>
      <trkpt lat="47.28982" lon="0.73499">
        <ele>54</ele>
        <time>2016-05-10T20:30:15Z</time>
      </trkpt>
      <trkpt lat="47.28973" lon="0.73505">
        <ele>54</ele>
        <time>2016-05-10T20:32:15Z</time>
      </trkpt>
      <trkpt lat="47.28952" lon="0.73518">
        <ele>54</ele>
        <time>2016-05-10T20:34:15Z</time>
      </trkpt>
      <trkpt lat="47.28948" lon="0.7352">
        <ele>54</ele>
        <time>2016-05-10T20:36:15Z</time>
      </trkpt>
      <trkpt lat="47.28944" lon="0.73523">
        <ele>54</ele>
        <time>2016-05-10T20:38:15Z</time>
      </trkpt>
      <trkpt lat="47.2894" lon="0.73525">
        <ele>54</ele>
        <time>2016-05-10T20:40:15Z</time>
      </trkpt>
      <trkpt lat="47.28928" lon="0.73532">
        <ele>54</ele>
        <time>2016-05-10T20:42:15Z</time>
      </trkpt>
      <trkpt lat="47.28915" lon="0.73539">
        <ele>54</ele>
        <time>2016-05-10T20:44:15Z</time>
      </trkpt>
      <trkpt lat="47.28908" lon="0.73544">
        <ele>54</ele>
        <time>2016-05-10T20:46:15Z</time>
      </trkpt>
      <trkpt lat="47.28891" lon="0.73554">
        <ele>54</ele>
        <time>2016-05-10T20:48:15Z</time>
      </trkpt>
      <trkpt lat="47.28885" lon="0.73558">
        <ele>54</ele>
        <time>2016-05-10T20:50:15Z</time>
      </trkpt>
      <trkpt lat="47.28859" lon="0.73575">
        <ele>54</ele>
        <time>2016-05-10T20:52:15Z</time>
      </trkpt>
      <trkpt lat="47.28853" lon="0.73579">
        <ele>55</ele>
        <time>2016-05-10T20:54:15Z</time>
      </trkpt>
      <trkpt lat="47.28827" lon="0.73595">
        <ele>55</ele>
        <time>2016-05-10T20:56:15Z</time>
      </trkpt>
      <trkpt lat="47.28822" lon="0.73599">
        <ele>55</ele>
        <time>2016-05-10T20:58:15Z</time>
      </trkpt>
      <trkpt lat="47.28804" lon="0.7361">
        <ele>56</ele>
        <time>2016-05-10T21:00:15Z</time>
      </trkpt>
      <trkpt lat="47.28795" lon="0.73615">
        <ele>56</ele>
        <time>2016-05-10T21:02:15Z</time>
      </trkpt>
      <trkpt lat="47.28788" lon="0.7362">
        <ele>57</ele>
        <time>2016-05-10T21:04:15Z</time>
      </trkpt>
      <trkpt lat="47.28787" lon="0.7362">
        <ele>57</ele>
        <time>2016-05-10T21:06:15Z</time>
      </trkpt>
      <trkpt lat="47.28749" lon="0.73644">
        <ele>58</ele>
        <time>2016-05-10T21:08:15Z</time>
      </trkpt>
      <trkpt lat="47.28739" lon="0.7365">
        <ele>58</ele>
        <time>2016-05-10T21:10:15Z</time>
      </trkpt>
      <trkpt lat="47.28721" lon="0.73659">
        <ele>58</ele>
        <time>2016-05-10T21:12:15Z</time>
      </trkpt>
      <trkpt lat="47.287" lon="0.73669">
        <ele>59</ele>
        <time>2016-05-10T21:14:15Z</time>
      </trkpt>
      <trkpt lat="47.28698" lon="0.73669">
        <ele>59</ele>
        <time>2016-05-10T21:16:15Z</time>
      </trkpt>
      <trkpt lat="47.28694" lon="0.73671">
        <ele>59</ele>
        <time>2016-05-10T21:18:15Z</time>
      </trkpt>
      <trkpt lat="47.2868" lon="0.73677">
        <ele>59</ele>
        <time>2016-05-10T21:20:15Z</time>
      </trkpt>
      <trkpt lat="47.2866" lon="0.73685">
        <ele>59</ele>
        <time>2016-05-10T21:22:15Z</time>
      </trkpt>
      <trkpt lat="47.28641" lon="0.73693">
        <ele>60</ele>
        <time>2016-05-10T21:24:15Z</time>
      </trkpt>
      <trkpt lat="47.28636" lon="0.73695">
        <ele>60</ele>
        <time>2016-05-10T21:26:15Z</time>
      </trkpt>
      <trkpt lat="47.28615" lon="0.73704">
        <ele>60</ele>
        <time>2016-05-10T21:28:15Z</time>
      </trkpt>
      <trkpt lat="47.28585" lon="0.73716">
        <ele>60</ele>
        <time>2016-05-10T21:30:15Z</time>
      </trkpt>
      <trkpt lat="47.28452" lon="0.73768">
        <ele>67</ele>
        <time>2016-05-10T21:32:15Z</time>
      </trkpt>
      <trkpt lat="47.2844" lon="0.73774">
        <ele>68</ele>
        <time>2016-05-10T21:34:15Z</time>
      </trkpt>
      <trkpt lat="47.28429" lon="0.73781">
        <ele>69</ele>
        <time>2016-05-10T21:36:15Z</time>
      </trkpt>
      <trkpt lat="47.28421" lon="0.73789">
        <ele>70</ele>
        <time>2016-05-10T21:38:15Z</time>
      </trkpt>
      <trkpt lat="47.2841" lon="0.73804">
        <ele>72</ele>
        <time>2016-05-10T21:40:15Z</time>
      </trkpt>
      <trkpt lat="47.284" lon="0.73821">
        <ele>74</ele>
        <time>2016-05-10T21:42:15Z</time>
      </trkpt>
      <trkpt lat="47.28392" lon="0.73845">
        <ele>76</ele>
        <time>2016-05-10T21:44:15Z</time>
      </trkpt>
      <trkpt lat="47.2839" lon="0.73861">
        <ele>77</ele>
        <time>2016-05-10T21:46:15Z</time>
      </trkpt>
      <trkpt lat="47.28388" lon="0.73891">
        <ele>79</ele>
        <time>2016-05-10T21:48:15Z</time>
      </trkpt>
      <trkpt lat="47.28387" lon="0.73931">
        <ele>80</ele>
        <time>2016-05-10T21:50:15Z</time>
      </trkpt>
      <trkpt lat="47.28386" lon="0.73946">
        <ele>81</ele>
        <time>2016-05-10T21:52:15Z</time>
      </trkpt>
      <trkpt lat="47.28383" lon="0.73963">
        <ele>82</ele>
        <time>2016-05-10T21:54:15Z</time>
      </trkpt>
      <trkpt lat="47.28377" lon="0.73982">
        <ele>82</ele>
        <time>2016-05-10T21:56:15Z</time>
      </trkpt>
      <trkpt lat="47.28372" lon="0.73997">
        <ele>83</ele>
        <time>2016-05-10T21:58:15Z</time>
      </trkpt>
      <trkpt lat="47.28362" lon="0.74011">
        <ele>84</ele>
        <time>2016-05-10T22:00:15Z</time>
      </trkpt>
      <trkpt lat="47.2835" lon="0.74024">
        <ele>86</ele>
        <time>2016-05-10T22:02:15Z</time>
      </trkpt>
      <trkpt lat="47.28335" lon="0.74036">
        <ele>87</ele>
        <time>2016-05-10T22:04:15Z</time>
      </trkpt>
      <trkpt lat="47.28331" lon="0.74037">
        <ele>87</ele>
        <time>2016-05-10T22:06:15Z</time>
      </trkpt>
      <trkpt lat="47.28312" lon="0.74047">
        <ele>87</ele>
        <time>2016-05-10T22:08:15Z</time>
      </trkpt>
      <trkpt lat="47.28226" lon="0.74075">
        <ele>88</ele>
        <time>2016-05-10T22:10:15Z</time>
      </trkpt>
      <trkpt lat="47.28222" lon="0.74076">
        <ele>88</ele>
        <time>2016-05-10T22:12:15Z</time>
      </trkpt>
      <trkpt lat="47.2821" lon="0.7408">
        <ele>88</ele>
        <time>2016-05-10T22:14:15Z</time>
      </trkpt>
      <trkpt lat="47.28197" lon="0.74084">
        <ele>89</ele>
        <time>2016-05-10T22:16:15Z</time>
      </trkpt>
      <trkpt lat="47.28135" lon="0.74108">
        <ele>89</ele>
        <time>2016-05-10T22:18:15Z</time>
      </trkpt>
      <trkpt lat="47.28111" lon="0.74115">
        <ele>89</ele>
        <time>2016-05-10T22:20:15Z</time>
      </trkpt>
      <trkpt lat="47.28083" lon="0.7412">
        <ele>88</ele>
        <time>2016-05-10T22:22:15Z</time>
      </trkpt>
      <trkpt lat="47.2807" lon="0.74122">
        <ele>89</ele>
        <time>2016-05-10T22:24:15Z</time>
      </trkpt>
      <trkpt lat="47.2806" lon="0.74122">
        <ele>89</ele>
        <time>2016-05-10T22:26:15Z</time>
      </trkpt>
      <trkpt lat="47.28052" lon="0.74122">
        <ele>89</ele>
        <time>2016-05-10T22:28:15Z</time>
      </trkpt>
      <trkpt lat="47.28033" lon="0.74124">
        <ele>89</ele>
        <time>2016-05-10T22:30:15Z</time>
      </trkpt>
      <trkpt lat="47.28033" lon="0.74124">
        <ele>89</ele>
        <time>2016-05-10T22:32:15Z</time>
      </trkpt>
      <trkpt lat="47.28032" lon="0.74119">
        <ele>89</ele>
        <time>2016-05-10T22:34:15Z</time>
      </trkpt>
      <trkpt lat="47.2803" lon="0.74115">
        <ele>89</ele>
        <time>2016-05-10T22:36:15Z</time>
      </trkpt>
      <trkpt lat="47.28025" lon="0.74111">
        <ele>89</ele>
        <time>2016-05-10T22:38:15Z</time>
      </trkpt>
      <trkpt lat="47.28021" lon="0.7411">
        <ele>89</ele>
        <time>2016-05-10T22:40:15Z</time>
      </trkpt>
      <trkpt lat="47.28018" lon="0.74112">
        <ele>89</ele>
        <time>2016-05-10T22:42:15Z</time>
      </trkpt>
      <trkpt lat="47.28015" lon="0.74115">
        <ele>89</ele>
        <time>2016-05-10T22:44:15Z</time>
      </trkpt>
      <trkpt lat="47.28013" lon="0.7412">
        <ele>89</ele>
        <time>2016-05-10T22:46:15Z</time>
      </trkpt>
      <trkpt lat="47.28012" lon="0.74128">
        <ele>89</ele>
        <time>2016-05-10T22:48:15Z</time>
      </trkpt>
      <trkpt lat="47.28014" lon="0.74134">
        <ele>89</ele>
        <time>2016-05-10T22:50:15Z</time>
      </trkpt>
      <trkpt lat="47.28016" lon="0.74138">
        <ele>89</ele>
        <time>2016-05-10T22:52:15Z</time>
      </trkpt>
      <trkpt lat="47.28016" lon="0.74141">
        <ele>89</ele>
        <time>2016-05-10T22:54:15Z</time>
      </trkpt>
      <trkpt lat="47.28017" lon="0.74146">
        <ele>89</ele>
        <time>2016-05-10T22:56:15Z</time>
      </trkpt>
      <trkpt lat="47.28016" lon="0.74151">
        <ele>89</ele>
        <time>2016-05-10T22:58:15Z</time>
      </trkpt>
      <trkpt lat="47.28014" lon="0.74156">
        <ele>89</ele>
        <time>2016-05-10T23:00:15Z</time>
      </trkpt>
      <trkpt lat="47.28011" lon="0.74162">
        <ele>89</ele>
        <time>2016-05-10T23:02:15Z</time>
      </trkpt>
      <trkpt lat="47.28007" lon="0.74169">
        <ele>89</ele>
        <time>2016-05-10T23:04:15Z</time>
      </trkpt>
      <trkpt lat="47.27998" lon="0.74178">
        <ele>89</ele>
        <time>2016-05-10T23:06:15Z</time>
      </trkpt>
      <trkpt lat="47.27989" lon="0.74185">
        <ele>89</ele>
        <time>2016-05-10T23:08:15Z</time>
      </trkpt>
      <trkpt lat="47.27979" lon="0.74197">
        <ele>89</ele>
        <time>2016-05-10T23:10:15Z</time>
      </trkpt>
      <trkpt lat="47.27967" lon="0.74216">
        <ele>88</ele>
        <time>2016-05-10T23:12:15Z</time>
      </trkpt>
      <trkpt lat="47.27955" lon="0.74239">
        <ele>89</ele>
        <time>2016-05-10T23:14:15Z</time>
      </trkpt>
      <trkpt lat="47.27938" lon="0.74275">
        <ele>89</ele>
        <time>2016-05-10T23:16:15Z</time>
      </trkpt>
      <trkpt lat="47.27933" lon="0.7429">
        <ele>89</ele>
        <time>2016-05-10T23:18:15Z</time>
      </trkpt>
      <trkpt lat="47.2791" lon="0.74337">
        <ele>89</ele>
        <time>2016-05-10T23:20:15Z</time>
      </trkpt>
      <trkpt lat="47.27886" lon="0.74379">
        <ele>89</ele>
        <time>2016-05-10T23:22:15Z</time>
      </trkpt>
      <trkpt lat="47.27861" lon="0.74423">
        <ele>90</ele>
        <time>2016-05-10T23:24:15Z</time>
      </trkpt>
      <trkpt lat="47.27841" lon="0.74452">
        <ele>90</ele>
        <time>2016-05-10T23:26:15Z</time>
      </trkpt>
      <trkpt lat="47.27821" lon="0.74485">
        <ele>89</ele>
        <time>2016-05-10T23:28:15Z</time>
      </trkpt>
      <trkpt lat="47.27812" lon="0.745">
        <ele>90</ele>
        <time>2016-05-10T23:30:15Z</time>
      </trkpt>
      <trkpt lat="47.27799" lon="0.74521">
        <ele>90</ele>
        <time>2016-05-10T23:32:15Z</time>
      </trkpt>
      <trkpt lat="47.27756" lon="0.74606">
        <ele>90</ele>
        <time>2016-05-10T23:34:15Z</time>
      </trkpt>
      <trkpt lat="47.2775" lon="0.74619">
        <ele>90</ele>
        <time>2016-05-10T23:36:15Z</time>
      </trkpt>
      <trkpt lat="47.27736" lon="0.74645">
        <ele>90</ele>
        <time>2016-05-10T23:38:15Z</time>
      </trkpt>
      <trkpt lat="47.27723" lon="0.7467">
        <ele>90</ele>
        <time>2016-05-10T23:40:15Z</time>
      </trkpt>
      <trkpt lat="47.27713" lon="0.74688">
        <ele>90</ele>
        <time>2016-05-10T23:42:15Z</time>
      </trkpt>
      <trkpt lat="47.27706" lon="0.74699">
        <ele>90</ele>
        <time>2016-05-10T23:44:15Z</time>
      </trkpt>
      <trkpt lat="47.27702" lon="0.74706">
        <ele>90</ele>
        <time>2016-05-10T23:46:15Z</time>
      </trkpt>
      <trkpt lat="47.27699" lon="0.74709">
        <ele>90</ele>
        <time>2016-05-10T23:48:15Z</time>
      </trkpt>
      <trkpt lat="47.2768" lon="0.74731">
        <ele>90</ele>
        <time>2016-05-10T23:50:15Z</time>
      </trkpt>
      <trkpt lat="47.2761" lon="0.74799">
        <ele>89</ele>
        <time>2016-05-10T23:52:15Z</time>
      </trkpt>
      <trkpt lat="47.27543" lon="0.74864">
        <ele>89</ele>
        <time>2016-05-10T23:54:15Z</time>
      </trkpt>
      <trkpt lat="47.27526" lon="0.74882">
        <ele>88</ele>
        <time>2016-05-10T23:56:15Z</time>
      </trkpt>
      <trkpt lat="47.27515" lon="0.74894">
        <ele>88</ele>
        <time>2016-05-10T23:58:15Z</time>
      </trkpt>
      <trkpt lat="47.27511" lon="0.749">
        <ele>88</ele>
        <time>2016-05-11T00:00:15Z</time>
      </trkpt>
      <trkpt lat="47.27506" lon="0.74907">
        <ele>88</ele>
        <time>2016-05-11T00:02:15Z</time>
      </trkpt>
      <trkpt lat="47.27463" lon="0.74988">
        <ele>89</ele>
        <time>2016-05-11T00:04:15Z</time>
      </trkpt>
      <trkpt lat="47.27443" lon="0.75033">
        <ele>89</ele>
        <time>2016-05-11T00:06:15Z</time>
      </trkpt>
      <trkpt lat="47.27391" lon="0.75176">
        <ele>89</ele>
        <time>2016-05-11T00:08:15Z</time>
      </trkpt>
      <trkpt lat="47.27367" lon="0.75244">
        <ele>88</ele>
        <time>2016-05-11T00:10:15Z</time>
      </trkpt>
      <trkpt lat="47.27356" lon="0.75267">
        <ele>87</ele>
        <time>2016-05-11T00:12:15Z</time>
      </trkpt>
      <trkpt lat="47.27338" lon="0.7529">
        <ele>87</ele>
        <time>2016-05-11T00:14:15Z</time>
      </trkpt>
      <trkpt lat="47.27335" lon="0.75294">
        <ele>86</ele>
        <time>2016-05-11T00:16:15Z</time>
      </trkpt>
      <trkpt lat="47.2726" lon="0.75366">
        <ele>86</ele>
        <time>2016-05-11T00:18:15Z</time>
      </trkpt>
      <trkpt lat="47.27241" lon="0.75385">
        <ele>86</ele>
        <time>2016-05-11T00:20:15Z</time>
      </trkpt>
      <trkpt lat="47.27209" lon="0.75417">
        <ele>85</ele>
        <time>2016-05-11T00:22:15Z</time>
      </trkpt>
      <trkpt lat="47.27128" lon="0.75496">
        <ele>84</ele>
        <time>2016-05-11T00:24:15Z</time>
      </trkpt>
      <trkpt lat="47.27096" lon="0.75528">
        <ele>84</ele>
        <time>2016-05-11T00:26:15Z</time>
      </trkpt>
      <trkpt lat="47.27078" lon="0.75542">
        <ele>84</ele>
        <time>2016-05-11T00:28:15Z</time>
      </trkpt>
      <trkpt lat="47.27073" lon="0.75546">
        <ele>85</ele>
        <time>2016-05-11T00:30:15Z</time>
      </trkpt>
      <trkpt lat="47.27067" lon="0.75549">
        <ele>85</ele>
        <time>2016-05-11T00:32:15Z</time>
      </trkpt>
      <trkpt lat="47.27059" lon="0.75553">
        <ele>85</ele>
        <time>2016-05-11T00:34:15Z</time>
      </trkpt>
      <trkpt lat="47.27023" lon="0.75564">
        <ele>88</ele>
        <time>2016-05-11T00:36:15Z</time>
      </trkpt>
      <trkpt lat="47.26972" lon="0.75576">
        <ele>89</ele>
        <time>2016-05-11T00:38:15Z</time>
      </trkpt>
      <trkpt lat="47.26954" lon="0.7558">
        <ele>89</ele>
        <time>2016-05-11T00:40:15Z</time>
      </trkpt>
      <trkpt lat="47.26932" lon="0.75586">
        <ele>89</ele>
        <time>2016-05-11T00:42:15Z</time>
      </trkpt>
      <trkpt lat="47.269" lon="0.75602">
        <ele>87</ele>
        <time>2016-05-11T00:44:15Z</time>
      </trkpt>
      <trkpt lat="47.26868" lon="0.75619">
        <ele>85</ele>
        <time>2016-05-11T00:46:15Z</time>
      </trkpt>
      <trkpt lat="47.26837" lon="0.75642">
        <ele>83</ele>
        <time>2016-05-11T00:48:15Z</time>
      </trkpt>
      <trkpt lat="47.26822" lon="0.75655">
        <ele>82</ele>
        <time>2016-05-11T00:50:15Z</time>
      </trkpt>
      <trkpt lat="47.26813" lon="0.75665">
        <ele>82</ele>
        <time>2016-05-11T00:52:15Z</time>
      </trkpt>
      <trkpt lat="47.26753" lon="0.7574">
        <ele>78</ele>
        <time>2016-05-11T00:54:15Z</time>
      </trkpt>
      <trkpt lat="47.26739" lon="0.75759">
        <ele>76</ele>
        <time>2016-05-11T00:56:15Z</time>
      </trkpt>
      <trkpt lat="47.26736" lon="0.75764">
        <ele>76</ele>
        <time>2016-05-11T00:58:15Z</time>
      </trkpt>
      <trkpt lat="47.26719" lon="0.7579">
        <ele>75</ele>
        <time>2016-05-11T01:00:15Z</time>
      </trkpt>
      <trkpt lat="47.26693" lon="0.75823">
        <ele>75</ele>
        <time>2016-05-11T01:02:15Z</time>
      </trkpt>
      <trkpt lat="47.26682" lon="0.75839">
        <ele>75</ele>
        <time>2016-05-11T01:04:15Z</time>
      </trkpt>
      <trkpt lat="47.2668" lon="0.7584">
        <ele>75</ele>
        <time>2016-05-11T01:06:15Z</time>
      </trkpt>
      <trkpt lat="47.26676" lon="0.75846">
        <ele>75</ele>
        <time>2016-05-11T01:08:15Z</time>
      </trkpt>
      <trkpt lat="47.26672" lon="0.75851">
        <ele>76</ele>
        <time>2016-05-11T01:10:15Z</time>
      </trkpt>
      <trkpt lat="47.2667" lon="0.75854">
        <ele>76</ele>
        <time>2016-05-11T01:12:15Z</time>
      </trkpt>
      <trkpt lat="47.26661" lon="0.75869">
        <ele>77</ele>
        <time>2016-05-11T01:14:15Z</time>
      </trkpt>
      <trkpt lat="47.26653" lon="0.75886">
        <ele>79</ele>
        <time>2016-05-11T01:16:15Z</time>
      </trkpt>
      <trkpt lat="47.26646" lon="0.75903">
        <ele>80</ele>
        <time>2016-05-11T01:18:15Z</time>
      </trkpt>
      <trkpt lat="47.2664" lon="0.75924">
        <ele>82</ele>
        <time>2016-05-11T01:20:15Z</time>
      </trkpt>
      <trkpt lat="47.26638" lon="0.75941">
        <ele>82</ele>
        <time>2016-05-11T01:22:15Z</time>
      </trkpt>
      <trkpt lat="47.26639" lon="0.75953">
        <ele>82</ele>
        <time>2016-05-11T01:24:15Z</time>
      </trkpt>
      <trkpt lat="47.26639" lon="0.75962">
        <ele>81</ele>
        <time>2016-05-11T01:26:15Z</time>
      </trkpt>
      <trkpt lat="47.2664" lon="0.75966">
        <ele>81</ele>
        <time>2016-05-11T01:28:15Z</time>
      </trkpt>
      <trkpt lat="47.26644" lon="0.75982">
        <ele>81</ele>
        <time>2016-05-11T01:30:15Z</time>
      </trkpt>
      <trkpt lat="47.26646" lon="0.7599">
        <ele>81</ele>
        <time>2016-05-11T01:32:15Z</time>
      </trkpt>
      <trkpt lat="47.26654" lon="0.7601">
        <ele>80</ele>
        <time>2016-05-11T01:34:15Z</time>
      </trkpt>
      <trkpt lat="47.26664" lon="0.7603">
        <ele>79</ele>
        <time>2016-05-11T01:36:15Z</time>
      </trkpt>
      <trkpt lat="47.26669" lon="0.76042">
        <ele>79</ele>
        <time>2016-05-11T01:38:15Z</time>
      </trkpt>
      <trkpt lat="47.26676" lon="0.76056">
        <ele>79</ele>
        <time>2016-05-11T01:40:15Z</time>
      </trkpt>
      <trkpt lat="47.26679" lon="0.76063">
        <ele>79</ele>
        <time>2016-05-11T01:42:15Z</time>
      </trkpt>
      <trkpt lat="47.26683" lon="0.76071">
        <ele>80</ele>
        <time>2016-05-11T01:44:15Z</time>
      </trkpt>
      <trkpt lat="47.26687" lon="0.7608">
        <ele>81</ele>
        <time>2016-05-11T01:46:15Z</time>
      </trkpt>
      <trkpt lat="47.26689" lon="0.76088">
        <ele>81</ele>
        <time>2016-05-11T01:48:15Z</time>
      </trkpt>
      <trkpt lat="47.26691" lon="0.76094">
        <ele>82</ele>
        <time>2016-05-11T01:50:15Z</time>
      </trkpt>
      <trkpt lat="47.26692" lon="0.761">
        <ele>83</ele>
        <time>2016-05-11T01:52:15Z</time>
      </trkpt>
      <trkpt lat="47.26692" lon="0.76104">
        <ele>83</ele>
        <time>2016-05-11T01:54:15Z</time>
      </trkpt>
      <trkpt lat="47.26693" lon="0.76109">
        <ele>84</ele>
        <time>2016-05-11T01:56:15Z</time>
      </trkpt>
      <trkpt lat="47.26692" lon="0.76115">
        <ele>84</ele>
        <time>2016-05-11T01:58:15Z</time>
      </trkpt>
      <trkpt lat="47.26691" lon="0.76122">
        <ele>84</ele>
        <time>2016-05-11T02:00:15Z</time>
      </trkpt>
      <trkpt lat="47.26689" lon="0.76128">
        <ele>85</ele>
        <time>2016-05-11T02:02:15Z</time>
      </trkpt>
      <trkpt lat="47.26687" lon="0.76134">
        <ele>85</ele>
        <time>2016-05-11T02:04:15Z</time>
      </trkpt>
      <trkpt lat="47.26685" lon="0.7614">
        <ele>85</ele>
        <time>2016-05-11T02:06:15Z</time>
      </trkpt>
      <trkpt lat="47.26683" lon="0.76146">
        <ele>85</ele>
        <time>2016-05-11T02:08:15Z</time>
      </trkpt>
      <trkpt lat="47.26681" lon="0.76153">
        <ele>86</ele>
        <time>2016-05-11T02:10:15Z</time>
      </trkpt>
      <trkpt lat="47.2668" lon="0.7616">
        <ele>86</ele>
        <time>2016-05-11T02:12:15Z</time>
      </trkpt>
      <trkpt lat="47.26679" lon="0.76166">
        <ele>86</ele>
        <time>2016-05-11T02:14:15Z</time>
      </trkpt>
      <trkpt lat="47.26679" lon="0.76173">
        <ele>87</ele>
        <time>2016-05-11T02:16:15Z</time>
      </trkpt>
      <trkpt lat="47.2668" lon="0.7618">
        <ele>87</ele>
        <time>2016-05-11T02:18:15Z</time>
      </trkpt>
      <trkpt lat="47.2668" lon="0.76183">
        <ele>87</ele>
        <time>2016-05-11T02:20:15Z</time>
      </trkpt>
      <trkpt lat="47.26681" lon="0.76186">
        <ele>88</ele>
        <time>2016-05-11T02:22:15Z</time>
      </trkpt>
      <trkpt lat="47.26681" lon="0.7619">
        <ele>88</ele>
        <time>2016-05-11T02:24:15Z</time>
      </trkpt>
      <trkpt lat="47.26682" lon="0.76193">
        <ele>88</ele>
        <time>2016-05-11T02:26:15Z</time>
      </trkpt>
      <trkpt lat="47.26683" lon="0.76195">
        <ele>88</ele>
        <time>2016-05-11T02:28:15Z</time>
      </trkpt>
      <trkpt lat="47.26684" lon="0.762">
        <ele>88</ele>
        <time>2016-05-11T02:30:15Z</time>
      </trkpt>
      <trkpt lat="47.26686" lon="0.76204">
        <ele>89</ele>
        <time>2016-05-11T02:32:15Z</time>
      </trkpt>
      <trkpt lat="47.26689" lon="0.7621">
        <ele>89</ele>
        <time>2016-05-11T02:34:15Z</time>
      </trkpt>
      <trkpt lat="47.26691" lon="0.76215">
        <ele>90</ele>
        <time>2016-05-11T02:36:15Z</time>
      </trkpt>
      <trkpt lat="47.26692" lon="0.76221">
        <ele>90</ele>
        <time>2016-05-11T02:38:15Z</time>
      </trkpt>
      <trkpt lat="47.26693" lon="0.76224">
        <ele>90</ele>
        <time>2016-05-11T02:40:15Z</time>
      </trkpt>
      <trkpt lat="47.26693" lon="0.76227">
        <ele>90</ele>
        <time>2016-05-11T02:42:15Z</time>
      </trkpt>
      <trkpt lat="47.26693" lon="0.7623">
        <ele>90</ele>
        <time>2016-05-11T02:44:15Z</time>
      </trkpt>
      <trkpt lat="47.26692" lon="0.76234">
        <ele>90</ele>
        <time>2016-05-11T02:46:15Z</time>
      </trkpt>
      <trkpt lat="47.26692" lon="0.76237">
        <ele>90</ele>
        <time>2016-05-11T02:48:15Z</time>
      </trkpt>
      <trkpt lat="47.26693" lon="0.76242">
        <ele>91</ele>
        <time>2016-05-11T02:50:15Z</time>
      </trkpt>
      <trkpt lat="47.26679" lon="0.76253">
        <ele>90</ele>
        <time>2016-05-11T02:52:15Z</time>
      </trkpt>
      <trkpt lat="47.26661" lon="0.76265">
        <ele>89</ele>
        <time>2016-05-11T02:54:15Z</time>
      </trkpt>
      <trkpt lat="47.26647" lon="0.76276">
        <ele>87</ele>
        <time>2016-05-11T02:56:15Z</time>
      </trkpt>
      <trkpt lat="47.26624" lon="0.76295">
        <ele>85</ele>
        <time>2016-05-11T02:58:15Z</time>
      </trkpt>
      <trkpt lat="47.26544" lon="0.76352">
        <ele>87</ele>
        <time>2016-05-11T03:00:15Z</time>
      </trkpt>
      <trkpt lat="47.26524" lon="0.76367">
        <ele>88</ele>
        <time>2016-05-11T03:02:15Z</time>
      </trkpt>
      <trkpt lat="47.26504" lon="0.76385">
        <ele>89</ele>
        <time>2016-05-11T03:04:15Z</time>
      </trkpt>
      <trkpt lat="47.26456" lon="0.76442">
        <ele>89</ele>
        <time>2016-05-11T03:06:15Z</time>
      </trkpt>
      <trkpt lat="47.2644" lon="0.76467">
        <ele>89</ele>
        <time>2016-05-11T03:08:15Z</time>
      </trkpt>
      <trkpt lat="47.26433" lon="0.76475">
        <ele>89</ele>
        <time>2016-05-11T03:10:15Z</time>
      </trkpt>
      <trkpt lat="47.26405" lon="0.76511">
        <ele>87</ele>
        <time>2016-05-11T03:12:15Z</time>
      </trkpt>
      <trkpt lat="47.26387" lon="0.76538">
        <ele>87</ele>
        <time>2016-05-11T03:14:15Z</time>
      </trkpt>
      <trkpt lat="47.26347" lon="0.7659">
        <ele>87</ele>
        <time>2016-05-11T03:16:15Z</time>
      </trkpt>
      <trkpt lat="47.26294" lon="0.7666">
        <ele>88</ele>
        <time>2016-05-11T03:18:15Z</time>
      </trkpt>
      <trkpt lat="47.26239" lon="0.76737">
        <ele>86</ele>
        <time>2016-05-11T03:20:15Z</time>
      </trkpt>
      <trkpt lat="47.26212" lon="0.76771">
        <ele>87</ele>
        <time>2016-05-11T03:22:15Z</time>
      </trkpt>
      <trkpt lat="47.26188" lon="0.76808">
        <ele>89</ele>
        <time>2016-05-11T03:24:15Z</time>
      </trkpt>
      <trkpt lat="47.26174" lon="0.76829">
        <ele>91</ele>
        <time>2016-05-11T03:26:15Z</time>
      </trkpt>
      <trkpt lat="47.26154" lon="0.76864">
        <ele>93</ele>
        <time>2016-05-11T03:28:15Z</time>
      </trkpt>
      <trkpt lat="47.2615" lon="0.76871">
        <ele>94</ele>
        <time>2016-05-11T03:30:15Z</time>
      </trkpt>
      <trkpt lat="47.26142" lon="0.76888">
        <ele>95</ele>
        <time>2016-05-11T03:32:15Z</time>
      </trkpt>
      <trkpt lat="47.26128" lon="0.76918">
        <ele>97</ele>
        <time>2016-05-11T03:34:15Z</time>
      </trkpt>
      <trkpt lat="47.26119" lon="0.76937">
        <ele>96</ele>
        <time>2016-05-11T03:36:15Z</time>
      </trkpt>
      <trkpt lat="47.26105" lon="0.76969">
        <ele>95</ele>
        <time>2016-05-11T03:38:15Z</time>
      </trkpt>
      <trkpt lat="47.26084" lon="0.77015">
        <ele>92</ele>
        <time>2016-05-11T03:40:15Z</time>
      </trkpt>
      <trkpt lat="47.26076" lon="0.77033">
        <ele>91</ele>
        <time>2016-05-11T03:42:15Z</time>
      </trkpt>
      <trkpt lat="47.26056" lon="0.7708">
        <ele>88</ele>
        <time>2016-05-11T03:44:15Z</time>
      </trkpt>
      <trkpt lat="47.26042" lon="0.77108">
        <ele>88</ele>
        <time>2016-05-11T03:46:15Z</time>
      </trkpt>
      <trkpt lat="47.26029" lon="0.77134">
        <ele>88</ele>
        <time>2016-05-11T03:48:15Z</time>
      </trkpt>
      <trkpt lat="47.26017" lon="0.77151">
        <ele>88</ele>
        <time>2016-05-11T03:50:15Z</time>
      </trkpt>
      <trkpt lat="47.26004" lon="0.77169">
        <ele>88</ele>
        <time>2016-05-11T03:52:15Z</time>
      </trkpt>
      <trkpt lat="47.25989" lon="0.77145">
        <ele>88</ele>
        <time>2016-05-11T03:54:15Z</time>
      </trkpt>
      <trkpt lat="47.2564" lon="0.78003">
        <ele>91</ele>
        <time>2016-05-11T03:56:15Z</time>
      </trkpt>
      <trkpt lat="47.25034" lon="0.79411">
        <ele>86</ele>
        <time>2016-05-11T03:58:15Z</time>
      </trkpt>
      <trkpt lat="47.24265" lon="0.80921">
        <ele>91</ele>
        <time>2016-05-11T04:00:15Z</time>
      </trkpt>
      <trkpt lat="47.23449" lon="0.82398">
        <ele>89</ele>
        <time>2016-05-11T04:02:15Z</time>
      </trkpt>
      <trkpt lat="47.23453" lon="0.82393">
        <ele>89</ele>
        <time>2016-05-11T04:04:15Z</time>
      </trkpt>
      <trkpt lat="47.23459" lon="0.82403">
        <ele>89</ele>
        <time>2016-05-11T04:06:15Z</time>
      </trkpt>
      <trkpt lat="47.23459" lon="0.82403">
        <ele>89</ele>
        <time>2016-05-11T04:08:15Z</time>
      </trkpt>
      <trkpt lat="47.23444" lon="0.82423">
        <ele>88</ele>
        <time>2016-05-11T04:10:15Z</time>
      </trkpt>
      <trkpt lat="47.23425" lon="0.82448">
        <ele>87</ele>
        <time>2016-05-11T04:12:15Z</time>
      </trkpt>
      <trkpt lat="47.23405" lon="0.82472">
        <ele>87</ele>
        <time>2016-05-11T04:14:15Z</time>
      </trkpt>
      <trkpt lat="47.23388" lon="0.82494">
        <ele>87</ele>
        <time>2016-05-11T04:16:15Z</time>
      </trkpt>
      <trkpt lat="47.23353" lon="0.82536">
        <ele>88</ele>
        <time>2016-05-11T04:18:15Z</time>
      </trkpt>
      <trkpt lat="47.23344" lon="0.82546">
        <ele>89</ele>
        <time>2016-05-11T04:20:15Z</time>
      </trkpt>
      <trkpt lat="47.23335" lon="0.82555">
        <ele>89</ele>
        <time>2016-05-11T04:22:15Z</time>
      </trkpt>
      <trkpt lat="47.23304" lon="0.8258">
        <ele>89</ele>
        <time>2016-05-11T04:24:15Z</time>
      </trkpt>
      <trkpt lat="47.23275" lon="0.82603">
        <ele>90</ele>
        <time>2016-05-11T04:26:15Z</time>
      </trkpt>
      <trkpt lat="47.23268" lon="0.82609">
        <ele>90</ele>
        <time>2016-05-11T04:28:15Z</time>
      </trkpt>
      <trkpt lat="47.23241" lon="0.8263">
        <ele>91</ele>
        <time>2016-05-11T04:30:15Z</time>
      </trkpt>
      <trkpt lat="47.23214" lon="0.82651">
        <ele>91</ele>
        <time>2016-05-11T04:32:15Z</time>
      </trkpt>
      <trkpt lat="47.23188" lon="0.82671">
        <ele>90</ele>
        <time>2016-05-11T04:34:15Z</time>
      </trkpt>
      <trkpt lat="47.23161" lon="0.82693">
        <ele>89</ele>
        <time>2016-05-11T04:36:15Z</time>
      </trkpt>
      <trkpt lat="47.23133" lon="0.82714">
        <ele>89</ele>
        <time>2016-05-11T04:38:15Z</time>
      </trkpt>
      <trkpt lat="47.23119" lon="0.82725">
        <ele>88</ele>
        <time>2016-05-11T04:40:15Z</time>
      </trkpt>
      <trkpt lat="47.23108" lon="0.82734">
        <ele>88</ele>
        <time>2016-05-11T04:42:15Z</time>
      </trkpt>
      <trkpt lat="47.23091" lon="0.82746">
        <ele>88</ele>
        <time>2016-05-11T04:44:15Z</time>
      </trkpt>
      <trkpt lat="47.23081" lon="0.82752">
        <ele>88</ele>
        <time>2016-05-11T04:46:15Z</time>
      </trkpt>
      <trkpt lat="47.23067" lon="0.8276">
        <ele>87</ele>
        <time>2016-05-11T04:48:15Z</time>
      </trkpt>
      <trkpt lat="47.23056" lon="0.82765">
        <ele>87</ele>
        <time>2016-05-11T04:50:15Z</time>
      </trkpt>
      <trkpt lat="47.23045" lon="0.8277">
        <ele>87</ele>
        <time>2016-05-11T04:52:15Z</time>
      </trkpt>
      <trkpt lat="47.23025" lon="0.82776">
        <ele>86</ele>
        <time>2016-05-11T04:54:15Z</time>
      </trkpt>
      <trkpt lat="47.23005" lon="0.82782">
        <ele>86</ele>
        <time>2016-05-11T04:56:15Z</time>
      </trkpt>
      <trkpt lat="47.2298" lon="0.82789">
        <ele>85</ele>
        <time>2016-05-11T04:58:15Z</time>
      </trkpt>
      <trkpt lat="47.2295" lon="0.82797">
        <ele>83</ele>
        <time>2016-05-11T05:00:15Z</time>
      </trkpt>
      <trkpt lat="47.22936" lon="0.828">
        <ele>83</ele>
        <time>2016-05-11T05:02:15Z</time>
      </trkpt>
      <trkpt lat="47.22897" lon="0.82811">
        <ele>82</ele>
        <time>2016-05-11T05:04:15Z</time>
      </trkpt>
      <trkpt lat="47.22881" lon="0.82815">
        <ele>81</ele>
        <time>2016-05-11T05:06:15Z</time>
      </trkpt>
      <trkpt lat="47.22865" lon="0.82818">
        <ele>81</ele>
        <time>2016-05-11T05:08:15Z</time>
      </trkpt>
      <trkpt lat="47.22857" lon="0.82819">
        <ele>81</ele>
        <time>2016-05-11T05:10:15Z</time>
      </trkpt>
      <trkpt lat="47.22849" lon="0.82819">
        <ele>81</ele>
        <time>2016-05-11T05:12:15Z</time>
      </trkpt>
      <trkpt lat="47.22837" lon="0.82818">
        <ele>81</ele>
        <time>2016-05-11T05:14:15Z</time>
      </trkpt>
      <trkpt lat="47.22826" lon="0.82815">
        <ele>80</ele>
        <time>2016-05-11T05:16:15Z</time>
      </trkpt>
      <trkpt lat="47.22817" lon="0.8281">
        <ele>80</ele>
        <time>2016-05-11T05:18:15Z</time>
      </trkpt>
      <trkpt lat="47.22809" lon="0.82806">
        <ele>80</ele>
        <time>2016-05-11T05:20:15Z</time>
      </trkpt>
      <trkpt lat="47.22801" lon="0.828">
        <ele>79</ele>
        <time>2016-05-11T05:22:15Z</time>
      </trkpt>
      <trkpt lat="47.22797" lon="0.82797">
        <ele>79</ele>
        <time>2016-05-11T05:24:15Z</time>
      </trkpt>
      <trkpt lat="47.22792" lon="0.82792">
        <ele>79</ele>
        <time>2016-05-11T05:26:15Z</time>
      </trkpt>
      <trkpt lat="47.22786" lon="0.82786">
        <ele>80</ele>
        <time>2016-05-11T05:28:15Z</time>
      </trkpt>
      <trkpt lat="47.22778" lon="0.82777">
        <ele>80</ele>
        <time>2016-05-11T05:30:15Z</time>
      </trkpt>
      <trkpt lat="47.22769" lon="0.82766">
        <ele>80</ele>
        <time>2016-05-11T05:32:15Z</time>
      </trkpt>
      <trkpt lat="47.22761" lon="0.82757">
        <ele>80</ele>
        <time>2016-05-11T05:34:15Z</time>
      </trkpt>
      <trkpt lat="47.22747" lon="0.82738">
        <ele>81</ele>
        <time>2016-05-11T05:36:15Z</time>
      </trkpt>
      <trkpt lat="47.22736" lon="0.82725">
        <ele>81</ele>
        <time>2016-05-11T05:38:15Z</time>
      </trkpt>
      <trkpt lat="47.22724" lon="0.8271">
        <ele>82</ele>
        <time>2016-05-11T05:40:15Z</time>
      </trkpt>
      <trkpt lat="47.22715" lon="0.82696">
        <ele>82</ele>
        <time>2016-05-11T05:42:15Z</time>
      </trkpt>
      <trkpt lat="47.22686" lon="0.82661">
        <ele>82</ele>
        <time>2016-05-11T05:44:15Z</time>
      </trkpt>
      <trkpt lat="47.22675" lon="0.82649">
        <ele>82</ele>
        <time>2016-05-11T05:46:15Z</time>
      </trkpt>
      <trkpt lat="47.22659" lon="0.82635">
        <ele>82</ele>
        <time>2016-05-11T05:48:15Z</time>
      </trkpt>
      <trkpt lat="47.22646" lon="0.82626">
        <ele>82</ele>
        <time>2016-05-11T05:50:15Z</time>
      </trkpt>
      <trkpt lat="47.22622" lon="0.82612">
        <ele>82</ele>
        <time>2016-05-11T05:52:15Z</time>
      </trkpt>
      <trkpt lat="47.22597" lon="0.82603">
        <ele>82</ele>
        <time>2016-05-11T05:54:15Z</time>
      </trkpt>
      <trkpt lat="47.22583" lon="0.82598">
        <ele>82</ele>
        <time>2016-05-11T05:56:15Z</time>
      </trkpt>
      <trkpt lat="47.22559" lon="0.82592">
        <ele>83</ele>
        <time>2016-05-11T05:58:15Z</time>
      </trkpt>
      <trkpt lat="47.22541" lon="0.82591">
        <ele>83</ele>
        <time>2016-05-11T06:00:15Z</time>
      </trkpt>
      <trkpt lat="47.22518" lon="0.82593">
        <ele>83</ele>
        <time>2016-05-11T06:02:15Z</time>
      </trkpt>
      <trkpt lat="47.22502" lon="0.82597">
        <ele>82</ele>
        <time>2016-05-11T06:04:15Z</time>
      </trkpt>
      <trkpt lat="47.22482" lon="0.82604">
        <ele>81</ele>
        <time>2016-05-11T06:06:15Z</time>
      </trkpt>
      <trkpt lat="47.22467" lon="0.82612">
        <ele>80</ele>
        <time>2016-05-11T06:08:15Z</time>
      </trkpt>
      <trkpt lat="47.22449" lon="0.82623">
        <ele>79</ele>
        <time>2016-05-11T06:10:15Z</time>
      </trkpt>
      <trkpt lat="47.22437" lon="0.82634">
        <ele>78</ele>
        <time>2016-05-11T06:12:15Z</time>
      </trkpt>
      <trkpt lat="47.22434" lon="0.82637">
        <ele>78</ele>
        <time>2016-05-11T06:14:15Z</time>
      </trkpt>
      <trkpt lat="47.22434" lon="0.82637">
        <ele>78</ele>
        <time>2016-05-11T06:16:15Z</time>
      </trkpt>
      <trkpt lat="47.22443" lon="0.82673">
        <ele>75</ele>
        <time>2016-05-11T06:18:15Z</time>
      </trkpt>
      <trkpt lat="47.22445" lon="0.82678">
        <ele>75</ele>
        <time>2016-05-11T06:20:15Z</time>
      </trkpt>
      <trkpt lat="47.22448" lon="0.82682">
        <ele>74</ele>
        <time>2016-05-11T06:22:15Z</time>
      </trkpt>
      <trkpt lat="47.22452" lon="0.82683">
        <ele>74</ele>
        <time>2016-05-11T06:24:15Z</time>
      </trkpt>
      <trkpt lat="47.22457" lon="0.82683">
        <ele>74</ele>
        <time>2016-05-11T06:26:15Z</time>
      </trkpt>
      <trkpt lat="47.22464" lon="0.82681">
        <ele>74</ele>
        <time>2016-05-11T06:28:15Z</time>
      </trkpt>
      <trkpt lat="47.22474" lon="0.82677">
        <ele>74</ele>
        <time>2016-05-11T06:30:15Z</time>
      </trkpt>
      <trkpt lat="47.22487" lon="0.8267">
        <ele>74</ele>
        <time>2016-05-11T06:32:15Z</time>
      </trkpt>
      <trkpt lat="47.22492" lon="0.82668">
        <ele>74</ele>
        <time>2016-05-11T06:34:15Z</time>
      </trkpt>
      <trkpt lat="47.22496" lon="0.82668">
        <ele>74</ele>
        <time>2016-05-11T06:36:15Z</time>
      </trkpt>
      <trkpt lat="47.22512" lon="0.82671">
        <ele>74</ele>
        <time>2016-05-11T06:38:15Z</time>
      </trkpt>
      <trkpt lat="47.22525" lon="0.82673">
        <ele>73</ele>
        <time>2016-05-11T06:40:15Z</time>
      </trkpt>
      <trkpt lat="47.22535" lon="0.8267">
        <ele>73</ele>
        <time>2016-05-11T06:42:15Z</time>
      </trkpt>
      <trkpt lat="47.22545" lon="0.82663">
        <ele>74</ele>
        <time>2016-05-11T06:44:15Z</time>
      </trkpt>
      <trkpt lat="47.22556" lon="0.82659">
        <ele>74</ele>
        <time>2016-05-11T06:46:15Z</time>
      </trkpt>
      <trkpt lat="47.22569" lon="0.82659">
        <ele>74</ele>
        <time>2016-05-11T06:48:15Z</time>
      </trkpt>
      <trkpt lat="47.22594" lon="0.82661">
        <ele>75</ele>
        <time>2016-05-11T06:50:15Z</time>
      </trkpt>
      <trkpt lat="47.22594" lon="0.82661">
        <ele>75</ele>
        <time>2016-05-11T06:52:15Z</time>
      </trkpt>
      <trkpt lat="47.22569" lon="0.82659">
        <ele>74</ele>
        <time>2016-05-11T06:54:15Z</time>
      </trkpt>
      <trkpt lat="47.22556" lon="0.82659">
        <ele>74</ele>
        <time>2016-05-11T06:56:15Z</time>
      </trkpt>
      <trkpt lat="47.22545" lon="0.82663">
        <ele>74</ele>
        <time>2016-05-11T06:58:15Z</time>
      </trkpt>
      <trkpt lat="47.22535" lon="0.8267">
        <ele>73</ele>
        <time>2016-05-11T07:00:15Z</time>
      </trkpt>
      <trkpt lat="47.22525" lon="0.82673">
        <ele>73</ele>
        <time>2016-05-11T07:02:15Z</time>
      </trkpt>
      <trkpt lat="47.22512" lon="0.82671">
        <ele>74</ele>
        <time>2016-05-11T07:04:15Z</time>
      </trkpt>
      <trkpt lat="47.22496" lon="0.82668">
        <ele>74</ele>
        <time>2016-05-11T07:06:15Z</time>
      </trkpt>
      <trkpt lat="47.22492" lon="0.82668">
        <ele>74</ele>
        <time>2016-05-11T07:08:15Z</time>
      </trkpt>
      <trkpt lat="47.22487" lon="0.8267">
        <ele>74</ele>
        <time>2016-05-11T07:10:15Z</time>
      </trkpt>
      <trkpt lat="47.22474" lon="0.82677">
        <ele>74</ele>
        <time>2016-05-11T07:12:15Z</time>
      </trkpt>
      <trkpt lat="47.22464" lon="0.82681">
        <ele>74</ele>
        <time>2016-05-11T07:14:15Z</time>
      </trkpt>
      <trkpt lat="47.22457" lon="0.82683">
        <ele>74</ele>
        <time>2016-05-11T07:16:15Z</time>
      </trkpt>
      <trkpt lat="47.22452" lon="0.82683">
        <ele>74</ele>
        <time>2016-05-11T07:18:15Z</time>
      </trkpt>
      <trkpt lat="47.22448" lon="0.82682">
        <ele>74</ele>
        <time>2016-05-11T07:20:15Z</time>
      </trkpt>
      <trkpt lat="47.22445" lon="0.82678">
        <ele>75</ele>
        <time>2016-05-11T07:22:15Z</time>
      </trkpt>
      <trkpt lat="47.22443" lon="0.82673">
        <ele>75</ele>
        <time>2016-05-11T07:24:15Z</time>
      </trkpt>
      <trkpt lat="47.22434" lon="0.82637">
        <ele>78</ele>
        <time>2016-05-11T07:26:15Z</time>
      </trkpt>
      <trkpt lat="47.22434" lon="0.82637">
        <ele>78</ele>
        <time>2016-05-11T07:28:15Z</time>
      </trkpt>
      <trkpt lat="47.22419" lon="0.82652">
        <ele>77</ele>
        <time>2016-05-11T07:30:15Z</time>
      </trkpt>
      <trkpt lat="47.22408" lon="0.82666">
        <ele>76</ele>
        <time>2016-05-11T07:32:15Z</time>
      </trkpt>
      <trkpt lat="47.224" lon="0.82676">
        <ele>75</ele>
        <time>2016-05-11T07:34:15Z</time>
      </trkpt>
      <trkpt lat="47.2239" lon="0.82691">
        <ele>74</ele>
        <time>2016-05-11T07:36:15Z</time>
      </trkpt>
      <trkpt lat="47.2238" lon="0.82709">
        <ele>73</ele>
        <time>2016-05-11T07:38:15Z</time>
      </trkpt>
      <trkpt lat="47.22371" lon="0.82725">
        <ele>72</ele>
        <time>2016-05-11T07:40:15Z</time>
      </trkpt>
      <trkpt lat="47.22364" lon="0.82739">
        <ele>72</ele>
        <time>2016-05-11T07:42:15Z</time>
      </trkpt>
      <trkpt lat="47.22338" lon="0.82793">
        <ele>70</ele>
        <time>2016-05-11T07:44:15Z</time>
      </trkpt>
      <trkpt lat="47.22332" lon="0.82805">
        <ele>70</ele>
        <time>2016-05-11T07:46:15Z</time>
      </trkpt>
      <trkpt lat="47.22329" lon="0.82813">
        <ele>70</ele>
        <time>2016-05-11T07:48:15Z</time>
      </trkpt>
      <trkpt lat="47.22326" lon="0.82818">
        <ele>69</ele>
        <time>2016-05-11T07:50:15Z</time>
      </trkpt>
      <trkpt lat="47.22264" lon="0.82944">
        <ele>69</ele>
        <time>2016-05-11T07:52:15Z</time>
      </trkpt>
      <trkpt lat="47.2224" lon="0.82998">
        <ele>73</ele>
        <time>2016-05-11T07:54:15Z</time>
      </trkpt>
      <trkpt lat="47.22221" lon="0.83038">
        <ele>74</ele>
        <time>2016-05-11T07:56:15Z</time>
      </trkpt>
      <trkpt lat="47.22207" lon="0.83069">
        <ele>75</ele>
        <time>2016-05-11T07:58:15Z</time>
      </trkpt>
      <trkpt lat="47.22195" lon="0.83093">
        <ele>76</ele>
        <time>2016-05-11T08:00:15Z</time>
      </trkpt>
      <trkpt lat="47.22185" lon="0.8311">
        <ele>76</ele>
        <time>2016-05-11T08:02:15Z</time>
      </trkpt>
      <trkpt lat="47.2218" lon="0.83116">
        <ele>76</ele>
        <time>2016-05-11T08:04:15Z</time>
      </trkpt>
      <trkpt lat="47.22173" lon="0.83126">
        <ele>76</ele>
        <time>2016-05-11T08:06:15Z</time>
      </trkpt>
      <trkpt lat="47.22168" lon="0.8313">
        <ele>76</ele>
        <time>2016-05-11T08:08:15Z</time>
      </trkpt>
      <trkpt lat="47.22159" lon="0.83137">
        <ele>77</ele>
        <time>2016-05-11T08:10:15Z</time>
      </trkpt>
      <trkpt lat="47.22149" lon="0.83142">
        <ele>77</ele>
        <time>2016-05-11T08:12:15Z</time>
      </trkpt>
      <trkpt lat="47.22139" lon="0.83145">
        <ele>77</ele>
        <time>2016-05-11T08:14:15Z</time>
      </trkpt>
      <trkpt lat="47.22131" lon="0.83146">
        <ele>77</ele>
        <time>2016-05-11T08:16:15Z</time>
      </trkpt>
      <trkpt lat="47.2212" lon="0.83147">
        <ele>77</ele>
        <time>2016-05-11T08:18:15Z</time>
      </trkpt>
      <trkpt lat="47.22103" lon="0.83144">
        <ele>77</ele>
        <time>2016-05-11T08:20:15Z</time>
      </trkpt>
      <trkpt lat="47.22086" lon="0.83141">
        <ele>78</ele>
        <time>2016-05-11T08:22:15Z</time>
      </trkpt>
      <trkpt lat="47.22043" lon="0.83136">
        <ele>78</ele>
        <time>2016-05-11T08:24:15Z</time>
      </trkpt>
      <trkpt lat="47.22034" lon="0.83136">
        <ele>78</ele>
        <time>2016-05-11T08:26:15Z</time>
      </trkpt>
      <trkpt lat="47.22025" lon="0.83136">
        <ele>78</ele>
        <time>2016-05-11T08:28:15Z</time>
      </trkpt>
      <trkpt lat="47.22011" lon="0.83138">
        <ele>78</ele>
        <time>2016-05-11T08:30:15Z</time>
      </trkpt>
      <trkpt lat="47.22002" lon="0.83141">
        <ele>78</ele>
        <time>2016-05-11T08:32:15Z</time>
      </trkpt>
      <trkpt lat="47.21995" lon="0.83144">
        <ele>78</ele>
        <time>2016-05-11T08:34:15Z</time>
      </trkpt>
      <trkpt lat="47.21978" lon="0.83151">
        <ele>78</ele>
        <time>2016-05-11T08:36:15Z</time>
      </trkpt>
      <trkpt lat="47.21962" lon="0.83159">
        <ele>78</ele>
        <time>2016-05-11T08:38:15Z</time>
      </trkpt>
      <trkpt lat="47.21927" lon="0.83177">
        <ele>78</ele>
        <time>2016-05-11T08:40:15Z</time>
      </trkpt>
      <trkpt lat="47.2187" lon="0.83206">
        <ele>76</ele>
        <time>2016-05-11T08:42:15Z</time>
      </trkpt>
      <trkpt lat="47.21812" lon="0.83234">
        <ele>75</ele>
        <time>2016-05-11T08:44:15Z</time>
      </trkpt>
      <trkpt lat="47.21729" lon="0.83276">
        <ele>75</ele>
        <time>2016-05-11T08:46:15Z</time>
      </trkpt>
      <trkpt lat="47.2171" lon="0.83285">
        <ele>74</ele>
        <time>2016-05-11T08:48:15Z</time>
      </trkpt>
      <trkpt lat="47.21702" lon="0.8329">
        <ele>74</ele>
        <time>2016-05-11T08:50:15Z</time>
      </trkpt>
      <trkpt lat="47.21702" lon="0.8329">
        <ele>74</ele>
        <time>2016-05-11T08:52:15Z</time>
      </trkpt>
      <trkpt lat="47.21684" lon="0.83303">
        <ele>73</ele>
        <time>2016-05-11T08:54:15Z</time>
      </trkpt>
      <trkpt lat="47.21662" lon="0.8332">
        <ele>73</ele>
        <time>2016-05-11T08:56:15Z</time>
      </trkpt>
      <trkpt lat="47.21611" lon="0.83362">
        <ele>73</ele>
        <time>2016-05-11T08:58:15Z</time>
      </trkpt>
      <trkpt lat="47.21602" lon="0.8337">
        <ele>73</ele>
        <time>2016-05-11T09:00:15Z</time>
      </trkpt>
      <trkpt lat="47.21594" lon="0.83377">
        <ele>73</ele>
        <time>2016-05-11T09:02:15Z</time>
      </trkpt>
      <trkpt lat="47.21586" lon="0.83383">
        <ele>74</ele>
        <time>2016-05-11T09:04:15Z</time>
      </trkpt>
      <trkpt lat="47.21578" lon="0.8339">
        <ele>74</ele>
        <time>2016-05-11T09:06:15Z</time>
      </trkpt>
      <trkpt lat="47.21561" lon="0.83404">
        <ele>75</ele>
        <time>2016-05-11T09:08:15Z</time>
      </trkpt>
      <trkpt lat="47.21551" lon="0.83413">
        <ele>75</ele>
        <time>2016-05-11T09:10:15Z</time>
      </trkpt>
      <trkpt lat="47.21538" lon="0.83427">
        <ele>77</ele>
        <time>2016-05-11T09:12:15Z</time>
      </trkpt>
      <trkpt lat="47.21523" lon="0.83445">
        <ele>79</ele>
        <time>2016-05-11T09:14:15Z</time>
      </trkpt>
      <trkpt lat="47.21523" lon="0.83445">
        <ele>79</ele>
        <time>2016-05-11T09:16:15Z</time>
      </trkpt>
      <trkpt lat="47.21514" lon="0.83445">
        <ele>79</ele>
        <time>2016-05-11T09:18:15Z</time>
      </trkpt>
      <trkpt lat="47.21503" lon="0.83443">
        <ele>80</ele>
        <time>2016-05-11T09:20:15Z</time>
      </trkpt>
      <trkpt lat="47.21491" lon="0.8344">
        <ele>80</ele>
        <time>2016-05-11T09:22:15Z</time>
      </trkpt>
      <trkpt lat="47.2149" lon="0.8344">
        <ele>80</ele>
        <time>2016-05-11T09:24:15Z</time>
      </trkpt>
      <trkpt lat="47.21474" lon="0.83439">
        <ele>80</ele>
        <time>2016-05-11T09:26:15Z</time>
      </trkpt>
      <trkpt lat="47.21467" lon="0.83438">
        <ele>81</ele>
        <time>2016-05-11T09:28:15Z</time>
      </trkpt>
      <trkpt lat="47.21461" lon="0.83436">
        <ele>81</ele>
        <time>2016-05-11T09:30:15Z</time>
      </trkpt>
      <trkpt lat="47.21456" lon="0.83434">
        <ele>81</ele>
        <time>2016-05-11T09:32:15Z</time>
      </trkpt>
      <trkpt lat="47.21449" lon="0.83429">
        <ele>81</ele>
        <time>2016-05-11T09:34:15Z</time>
      </trkpt>
      <trkpt lat="47.21443" lon="0.83423">
        <ele>80</ele>
        <time>2016-05-11T09:36:15Z</time>
      </trkpt>
      <trkpt lat="47.2144" lon="0.83421">
        <ele>80</ele>
        <time>2016-05-11T09:38:15Z</time>
      </trkpt>
      <trkpt lat="47.21435" lon="0.83419">
        <ele>80</ele>
        <time>2016-05-11T09:40:15Z</time>
      </trkpt>
      <trkpt lat="47.21432" lon="0.83419">
        <ele>81</ele>
        <time>2016-05-11T09:42:15Z</time>
      </trkpt>
      <trkpt lat="47.21424" lon="0.83423">
        <ele>81</ele>
        <time>2016-05-11T09:44:15Z</time>
      </trkpt>
      <trkpt lat="47.21397" lon="0.83435">
        <ele>83</ele>
        <time>2016-05-11T09:46:15Z</time>
      </trkpt>
      <trkpt lat="47.21394" lon="0.83436">
        <ele>83</ele>
        <time>2016-05-11T09:48:15Z</time>
      </trkpt>
      <trkpt lat="47.21388" lon="0.83437">
        <ele>84</ele>
        <time>2016-05-11T09:50:15Z</time>
      </trkpt>
      <trkpt lat="47.21388" lon="0.83437">
        <ele>84</ele>
        <time>2016-05-11T09:52:15Z</time>
      </trkpt>
      <trkpt lat="47.21384" lon="0.83433">
        <ele>83</ele>
        <time>2016-05-11T09:54:15Z</time>
      </trkpt>
      <trkpt lat="47.21374" lon="0.83429">
        <ele>84</ele>
        <time>2016-05-11T09:56:15Z</time>
      </trkpt>
      <trkpt lat="47.21363" lon="0.83425">
        <ele>84</ele>
        <time>2016-05-11T09:58:15Z</time>
      </trkpt>
      <trkpt lat="47.21358" lon="0.83424">
        <ele>84</ele>
        <time>2016-05-11T10:00:15Z</time>
      </trkpt>
      <trkpt lat="47.2135" lon="0.83422">
        <ele>84</ele>
        <time>2016-05-11T10:02:15Z</time>
      </trkpt>
      <trkpt lat="47.21344" lon="0.83421">
        <ele>85</ele>
        <time>2016-05-11T10:04:15Z</time>
      </trkpt>
      <trkpt lat="47.21338" lon="0.8342">
        <ele>85</ele>
        <time>2016-05-11T10:06:15Z</time>
      </trkpt>
      <trkpt lat="47.21331" lon="0.8342">
        <ele>85</ele>
        <time>2016-05-11T10:08:15Z</time>
      </trkpt>
      <trkpt lat="47.21322" lon="0.83422">
        <ele>86</ele>
        <time>2016-05-11T10:10:15Z</time>
      </trkpt>
      <trkpt lat="47.2131" lon="0.83427">
        <ele>86</ele>
        <time>2016-05-11T10:12:15Z</time>
      </trkpt>
      <trkpt lat="47.21291" lon="0.83437">
        <ele>87</ele>
        <time>2016-05-11T10:14:15Z</time>
      </trkpt>
      <trkpt lat="47.21272" lon="0.83445">
        <ele>88</ele>
        <time>2016-05-11T10:16:15Z</time>
      </trkpt>
      <trkpt lat="47.21264" lon="0.83448">
        <ele>88</ele>
        <time>2016-05-11T10:18:15Z</time>
      </trkpt>
      <trkpt lat="47.21255" lon="0.83454">
        <ele>88</ele>
        <time>2016-05-11T10:20:15Z</time>
      </trkpt>
      <trkpt lat="47.21245" lon="0.83461">
        <ele>89</ele>
        <time>2016-05-11T10:22:15Z</time>
      </trkpt>
      <trkpt lat="47.2124" lon="0.83465">
        <ele>89</ele>
        <time>2016-05-11T10:24:15Z</time>
      </trkpt>
      <trkpt lat="47.21235" lon="0.83472">
        <ele>89</ele>
        <time>2016-05-11T10:26:15Z</time>
      </trkpt>
      <trkpt lat="47.21231" lon="0.83479">
        <ele>90</ele>
        <time>2016-05-11T10:28:15Z</time>
      </trkpt>
      <trkpt lat="47.21232" lon="0.83501">
        <ele>90</ele>
        <time>2016-05-11T10:30:15Z</time>
      </trkpt>
      <trkpt lat="47.21233" lon="0.8351">
        <ele>90</ele>
        <time>2016-05-11T10:32:15Z</time>
      </trkpt>
      <trkpt lat="47.21237" lon="0.83533">
        <ele>91</ele>
        <time>2016-05-11T10:34:15Z</time>
      </trkpt>
      <trkpt lat="47.21261" lon="0.83673">
        <ele>92</ele>
        <time>2016-05-11T10:36:15Z</time>
      </trkpt>
      <trkpt lat="47.21263" lon="0.83686">
        <ele>92</ele>
        <time>2016-05-11T10:38:15Z</time>
      </trkpt>
      <trkpt lat="47.21264" lon="0.83699">
        <ele>92</ele>
        <time>2016-05-11T10:40:15Z</time>
      </trkpt>
      <trkpt lat="47.21265" lon="0.83712">
        <ele>92</ele>
        <time>2016-05-11T10:42:15Z</time>
      </trkpt>
      <trkpt lat="47.21266" lon="0.83757">
        <ele>92</ele>
        <time>2016-05-11T10:44:15Z</time>
      </trkpt>
      <trkpt lat="47.21267" lon="0.83778">
        <ele>92</ele>
        <time>2016-05-11T10:46:15Z</time>
      </trkpt>
      <trkpt lat="47.21267" lon="0.83811">
        <ele>93</ele>
        <time>2016-05-11T10:48:15Z</time>
      </trkpt>
      <trkpt lat="47.21268" lon="0.83829">
        <ele>93</ele>
        <time>2016-05-11T10:50:15Z</time>
      </trkpt>
      <trkpt lat="47.21268" lon="0.83857">
        <ele>93</ele>
        <time>2016-05-11T10:52:15Z</time>
      </trkpt>
      <trkpt lat="47.21269" lon="0.83887">
        <ele>93</ele>
        <time>2016-05-11T10:54:15Z</time>
      </trkpt>
      <trkpt lat="47.2127" lon="0.83959">
        <ele>93</ele>
        <time>2016-05-11T10:56:15Z</time>
      </trkpt>
      <trkpt lat="47.21272" lon="0.84011">
        <ele>93</ele>
        <time>2016-05-11T10:58:15Z</time>
      </trkpt>
      <trkpt lat="47.21273" lon="0.84063">
        <ele>93</ele>
        <time>2016-05-11T11:00:15Z</time>
      </trkpt>
      <trkpt lat="47.21273" lon="0.84092">
        <ele>93</ele>
        <time>2016-05-11T11:02:15Z</time>
      </trkpt>
      <trkpt lat="47.21272" lon="0.84144">
        <ele>93</ele>
        <time>2016-05-11T11:04:15Z</time>
      </trkpt>
      <trkpt lat="47.21271" lon="0.84167">
        <ele>93</ele>
        <time>2016-05-11T11:06:15Z</time>
      </trkpt>
      <trkpt lat="47.21267" lon="0.84231">
        <ele>93</ele>
        <time>2016-05-11T11:08:15Z</time>
      </trkpt>
      <trkpt lat="47.21265" lon="0.84261">
        <ele>93</ele>
        <time>2016-05-11T11:10:15Z</time>
      </trkpt>
      <trkpt lat="47.21264" lon="0.84296">
        <ele>93</ele>
        <time>2016-05-11T11:12:15Z</time>
      </trkpt>
      <trkpt lat="47.21264" lon="0.8432">
        <ele>93</ele>
        <time>2016-05-11T11:14:15Z</time>
      </trkpt>
      <trkpt lat="47.21265" lon="0.84341">
        <ele>93</ele>
        <time>2016-05-11T11:16:15Z</time>
      </trkpt>
      <trkpt lat="47.21266" lon="0.84377">
        <ele>93</ele>
        <time>2016-05-11T11:18:15Z</time>
      </trkpt>
      <trkpt lat="47.21267" lon="0.84401">
        <ele>93</ele>
        <time>2016-05-11T11:20:15Z</time>
      </trkpt>
      <trkpt lat="47.21268" lon="0.84416">
        <ele>93</ele>
        <time>2016-05-11T11:22:15Z</time>
      </trkpt>
      <trkpt lat="47.21271" lon="0.84467">
        <ele>93</ele>
        <time>2016-05-11T11:24:15Z</time>
      </trkpt>
      <trkpt lat="47.21273" lon="0.84498">
        <ele>93</ele>
        <time>2016-05-11T11:26:15Z</time>
      </trkpt>
      <trkpt lat="47.21274" lon="0.84528">
        <ele>93</ele>
        <time>2016-05-11T11:28:15Z</time>
      </trkpt>
      <trkpt lat="47.21276" lon="0.84558">
        <ele>93</ele>
        <time>2016-05-11T11:30:15Z</time>
      </trkpt>
      <trkpt lat="47.2128" lon="0.84636">
        <ele>93</ele>
        <time>2016-05-11T11:32:15Z</time>
      </trkpt>
      <trkpt lat="47.21285" lon="0.84713">
        <ele>92</ele>
        <time>2016-05-11T11:34:15Z</time>
      </trkpt>
      <trkpt lat="47.21291" lon="0.84815">
        <ele>92</ele>
        <time>2016-05-11T11:36:15Z</time>
      </trkpt>
      <trkpt lat="47.21295" lon="0.84888">
        <ele>92</ele>
        <time>2016-05-11T11:38:15Z</time>
      </trkpt>
      <trkpt lat="47.21296" lon="0.84917">
        <ele>93</ele>
        <time>2016-05-11T11:40:15Z</time>
      </trkpt>
      <trkpt lat="47.21296" lon="0.84935">
        <ele>93</ele>
        <time>2016-05-11T11:42:15Z</time>
      </trkpt>
      <trkpt lat="47.21296" lon="0.8495">
        <ele>93</ele>
        <time>2016-05-11T11:44:15Z</time>
      </trkpt>
      <trkpt lat="47.21295" lon="0.84967">
        <ele>93</ele>
        <time>2016-05-11T11:46:15Z</time>
      </trkpt>
      <trkpt lat="47.21294" lon="0.84981">
        <ele>93</ele>
        <time>2016-05-11T11:48:15Z</time>
      </trkpt>
      <trkpt lat="47.21292" lon="0.85005">
        <ele>92</ele>
        <time>2016-05-11T11:50:15Z</time>
      </trkpt>
      <trkpt lat="47.21284" lon="0.85063">
        <ele>92</ele>
        <time>2016-05-11T11:52:15Z</time>
      </trkpt>
      <trkpt lat="47.2128" lon="0.85084">
        <ele>91</ele>
        <time>2016-05-11T11:54:15Z</time>
      </trkpt>
      <trkpt lat="47.21251" lon="0.8525">
        <ele>91</ele>
        <time>2016-05-11T11:56:15Z</time>
      </trkpt>
      <trkpt lat="47.21243" lon="0.85291">
        <ele>91</ele>
        <time>2016-05-11T11:58:15Z</time>
      </trkpt>
      <trkpt lat="47.21238" lon="0.85314">
        <ele>91</ele>
        <time>2016-05-11T12:00:15Z</time>
      </trkpt>
      <trkpt lat="47.21236" lon="0.85318">
        <ele>91</ele>
        <time>2016-05-11T12:02:15Z</time>
      </trkpt>
      <trkpt lat="47.21234" lon="0.85324">
        <ele>91</ele>
        <time>2016-05-11T12:04:15Z</time>
      </trkpt>
      <trkpt lat="47.21232" lon="0.85332">
        <ele>91</ele>
        <time>2016-05-11T12:06:15Z</time>
      </trkpt>
      <trkpt lat="47.21213" lon="0.85379">
        <ele>91</ele>
        <time>2016-05-11T12:08:15Z</time>
      </trkpt>
      <trkpt lat="47.21207" lon="0.85392">
        <ele>90</ele>
        <time>2016-05-11T12:10:15Z</time>
      </trkpt>
      <trkpt lat="47.21199" lon="0.85409">
        <ele>90</ele>
        <time>2016-05-11T12:12:15Z</time>
      </trkpt>
      <trkpt lat="47.21189" lon="0.8543">
        <ele>91</ele>
        <time>2016-05-11T12:14:15Z</time>
      </trkpt>
      <trkpt lat="47.21184" lon="0.8544">
        <ele>91</ele>
        <time>2016-05-11T12:16:15Z</time>
      </trkpt>
      <trkpt lat="47.21181" lon="0.85449">
        <ele>91</ele>
        <time>2016-05-11T12:18:15Z</time>
      </trkpt>
      <trkpt lat="47.21173" lon="0.85471">
        <ele>91</ele>
        <time>2016-05-11T12:20:15Z</time>
      </trkpt>
      <trkpt lat="47.21169" lon="0.85484">
        <ele>92</ele>
        <time>2016-05-11T12:22:15Z</time>
      </trkpt>
      <trkpt lat="47.21166" lon="0.855">
        <ele>92</ele>
        <time>2016-05-11T12:24:15Z</time>
      </trkpt>
      <trkpt lat="47.21166" lon="0.85511">
        <ele>92</ele>
        <time>2016-05-11T12:26:15Z</time>
      </trkpt>
      <trkpt lat="47.21168" lon="0.85533">
        <ele>92</ele>
        <time>2016-05-11T12:28:15Z</time>
      </trkpt>
      <trkpt lat="47.21179" lon="0.85623">
        <ele>93</ele>
        <time>2016-05-11T12:30:15Z</time>
      </trkpt>
      <trkpt lat="47.21182" lon="0.85655">
        <ele>94</ele>
        <time>2016-05-11T12:32:15Z</time>
      </trkpt>
      <trkpt lat="47.21184" lon="0.8568">
        <ele>94</ele>
        <time>2016-05-11T12:34:15Z</time>
      </trkpt>
      <trkpt lat="47.21184" lon="0.85707">
        <ele>94</ele>
        <time>2016-05-11T12:36:15Z</time>
      </trkpt>
      <trkpt lat="47.21183" lon="0.85739">
        <ele>95</ele>
        <time>2016-05-11T12:38:15Z</time>
      </trkpt>
      <trkpt lat="47.2118" lon="0.85789">
        <ele>95</ele>
        <time>2016-05-11T12:40:15Z</time>
      </trkpt>
      <trkpt lat="47.21178" lon="0.85829">
        <ele>95</ele>
        <time>2016-05-11T12:42:15Z</time>
      </trkpt>
      <trkpt lat="47.21173" lon="0.85859">
        <ele>95</ele>
        <time>2016-05-11T12:44:15Z</time>
      </trkpt>
      <trkpt lat="47.21165" lon="0.85893">
        <ele>95</ele>
        <time>2016-05-11T12:46:15Z</time>
      </trkpt>
      <trkpt lat="47.21164" lon="0.85906">
        <ele>95</ele>
        <time>2016-05-11T12:48:15Z</time>
      </trkpt>
      <trkpt lat="47.21164" lon="0.85925">
        <ele>95</ele>
        <time>2016-05-11T12:50:15Z</time>
      </trkpt>
      <trkpt lat="47.21165" lon="0.85938">
        <ele>95</ele>
        <time>2016-05-11T12:52:15Z</time>
      </trkpt>
      <trkpt lat="47.21167" lon="0.85948">
        <ele>95</ele>
        <time>2016-05-11T12:54:15Z</time>
      </trkpt>
      <trkpt lat="47.2117" lon="0.85957">
        <ele>95</ele>
        <time>2016-05-11T12:56:15Z</time>
      </trkpt>
      <trkpt lat="47.21177" lon="0.85983">
        <ele>94</ele>
        <time>2016-05-11T12:58:15Z</time>
      </trkpt>
      <trkpt lat="47.21188" lon="0.86014">
        <ele>94</ele>
        <time>2016-05-11T13:00:15Z</time>
      </trkpt>
      <trkpt lat="47.21226" lon="0.86122">
        <ele>93</ele>
        <time>2016-05-11T13:02:15Z</time>
      </trkpt>
      <trkpt lat="47.2124" lon="0.86162">
        <ele>94</ele>
        <time>2016-05-11T13:04:15Z</time>
      </trkpt>
      <trkpt lat="47.21245" lon="0.86185">
        <ele>94</ele>
        <time>2016-05-11T13:06:15Z</time>
      </trkpt>
      <trkpt lat="47.21248" lon="0.86205">
        <ele>94</ele>
        <time>2016-05-11T13:08:15Z</time>
      </trkpt>
      <trkpt lat="47.21251" lon="0.86228">
        <ele>94</ele>
        <time>2016-05-11T13:10:15Z</time>
      </trkpt>
      <trkpt lat="47.21252" lon="0.86246">
        <ele>94</ele>
        <time>2016-05-11T13:12:15Z</time>
      </trkpt>
      <trkpt lat="47.21252" lon="0.86263">
        <ele>94</ele>
        <time>2016-05-11T13:14:15Z</time>
      </trkpt>
      <trkpt lat="47.21251" lon="0.86277">
        <ele>94</ele>
        <time>2016-05-11T13:16:15Z</time>
      </trkpt>
      <trkpt lat="47.2125" lon="0.86292">
        <ele>95</ele>
        <time>2016-05-11T13:18:15Z</time>
      </trkpt>
      <trkpt lat="47.21243" lon="0.86329">
        <ele>95</ele>
        <time>2016-05-11T13:20:15Z</time>
      </trkpt>
      <trkpt lat="47.21237" lon="0.86353">
        <ele>95</ele>
        <time>2016-05-11T13:22:15Z</time>
      </trkpt>
      <trkpt lat="47.21159" lon="0.86546">
        <ele>96</ele>
        <time>2016-05-11T13:24:15Z</time>
      </trkpt>
      <trkpt lat="47.211" lon="0.86694">
        <ele>97</ele>
        <time>2016-05-11T13:26:15Z</time>
      </trkpt>
      <trkpt lat="47.21096" lon="0.86706">
        <ele>97</ele>
        <time>2016-05-11T13:28:15Z</time>
      </trkpt>
      <trkpt lat="47.21087" lon="0.86743">
        <ele>98</ele>
        <time>2016-05-11T13:30:15Z</time>
      </trkpt>
      <trkpt lat="47.21086" lon="0.86748">
        <ele>98</ele>
        <time>2016-05-11T13:32:15Z</time>
      </trkpt>
      <trkpt lat="47.21082" lon="0.86778">
        <ele>98</ele>
        <time>2016-05-11T13:34:15Z</time>
      </trkpt>
      <trkpt lat="47.21071" lon="0.86872">
        <ele>96</ele>
        <time>2016-05-11T13:36:15Z</time>
      </trkpt>
      <trkpt lat="47.21064" lon="0.86917">
        <ele>95</ele>
        <time>2016-05-11T13:38:15Z</time>
      </trkpt>
      <trkpt lat="47.21062" lon="0.8693">
        <ele>95</ele>
        <time>2016-05-11T13:40:15Z</time>
      </trkpt>
      <trkpt lat="47.21059" lon="0.86943">
        <ele>95</ele>
        <time>2016-05-11T13:42:15Z</time>
      </trkpt>
      <trkpt lat="47.21054" lon="0.86963">
        <ele>94</ele>
        <time>2016-05-11T13:44:15Z</time>
      </trkpt>
      <trkpt lat="47.2105" lon="0.86979">
        <ele>94</ele>
        <time>2016-05-11T13:46:15Z</time>
      </trkpt>
      <trkpt lat="47.21042" lon="0.87006">
        <ele>94</ele>
        <time>2016-05-11T13:48:15Z</time>
      </trkpt>
      <trkpt lat="47.21037" lon="0.87019">
        <ele>94</ele>
        <time>2016-05-11T13:50:15Z</time>
      </trkpt>
      <trkpt lat="47.21033" lon="0.8703">
        <ele>94</ele>
        <time>2016-05-11T13:52:15Z</time>
      </trkpt>
      <trkpt lat="47.21029" lon="0.87038">
        <ele>94</ele>
        <time>2016-05-11T13:54:15Z</time>
      </trkpt>
      <trkpt lat="47.21024" lon="0.8705">
        <ele>95</ele>
        <time>2016-05-11T13:56:15Z</time>
      </trkpt>
      <trkpt lat="47.21014" lon="0.87072">
        <ele>95</ele>
        <time>2016-05-11T13:58:15Z</time>
      </trkpt>
      <trkpt lat="47.2101" lon="0.87081">
        <ele>95</ele>
        <time>2016-05-11T14:00:15Z</time>
      </trkpt>
      <trkpt lat="47.21008" lon="0.87086">
        <ele>95</ele>
        <time>2016-05-11T14:02:15Z</time>
      </trkpt>
      <trkpt lat="47.21006" lon="0.87093">
        <ele>95</ele>
        <time>2016-05-11T14:04:15Z</time>
      </trkpt>
      <trkpt lat="47.20997" lon="0.87121">
        <ele>95</ele>
        <time>2016-05-11T14:06:15Z</time>
      </trkpt>
      <trkpt lat="47.20993" lon="0.87143">
        <ele>94</ele>
        <time>2016-05-11T14:08:15Z</time>
      </trkpt>
      <trkpt lat="47.20987" lon="0.87174">
        <ele>94</ele>
        <time>2016-05-11T14:10:15Z</time>
      </trkpt>
      <trkpt lat="47.20985" lon="0.87201">
        <ele>94</ele>
        <time>2016-05-11T14:12:15Z</time>
      </trkpt>
      <trkpt lat="47.20985" lon="0.87236">
        <ele>93</ele>
        <time>2016-05-11T14:14:15Z</time>
      </trkpt>
      <trkpt lat="47.2099" lon="0.87293">
        <ele>93</ele>
        <time>2016-05-11T14:16:15Z</time>
      </trkpt>
      <trkpt lat="47.2099" lon="0.87309">
        <ele>93</ele>
        <time>2016-05-11T14:18:15Z</time>
      </trkpt>
      <trkpt lat="47.20988" lon="0.87328">
        <ele>93</ele>
        <time>2016-05-11T14:20:15Z</time>
      </trkpt>
      <trkpt lat="47.20964" lon="0.87433">
        <ele>93</ele>
        <time>2016-05-11T14:22:15Z</time>
      </trkpt>
      <trkpt lat="47.20944" lon="0.87524">
        <ele>93</ele>
        <time>2016-05-11T14:24:15Z</time>
      </trkpt>
      <trkpt lat="47.2093" lon="0.87584">
        <ele>93</ele>
        <time>2016-05-11T14:26:15Z</time>
      </trkpt>
      <trkpt lat="47.20921" lon="0.87616">
        <ele>93</ele>
        <time>2016-05-11T14:28:15Z</time>
      </trkpt>
      <trkpt lat="47.20857" lon="0.87893">
        <ele>93</ele>
        <time>2016-05-11T14:30:15Z</time>
      </trkpt>
      <trkpt lat="47.20843" lon="0.87948">
        <ele>93</ele>
        <time>2016-05-11T14:32:15Z</time>
      </trkpt>
      <trkpt lat="47.20785" lon="0.88193">
        <ele>93</ele>
        <time>2016-05-11T14:34:15Z</time>
      </trkpt>
      <trkpt lat="47.20781" lon="0.88216">
        <ele>93</ele>
        <time>2016-05-11T14:36:15Z</time>
      </trkpt>
      <trkpt lat="47.20777" lon="0.88252">
        <ele>93</ele>
        <time>2016-05-11T14:38:15Z</time>
      </trkpt>
      <trkpt lat="47.20776" lon="0.88289">
        <ele>94</ele>
        <time>2016-05-11T14:40:15Z</time>
      </trkpt>
      <trkpt lat="47.20778" lon="0.88307">
        <ele>94</ele>
        <time>2016-05-11T14:42:15Z</time>
      </trkpt>
      <trkpt lat="47.20783" lon="0.88335">
        <ele>94</ele>
        <time>2016-05-11T14:44:15Z</time>
      </trkpt>
      <trkpt lat="47.20796" lon="0.88379">
        <ele>93</ele>
        <time>2016-05-11T14:46:15Z</time>
      </trkpt>
      <trkpt lat="47.20805" lon="0.88421">
        <ele>92</ele>
        <time>2016-05-11T14:48:15Z</time>
      </trkpt>
      <trkpt lat="47.20813" lon="0.88448">
        <ele>93</ele>
        <time>2016-05-11T14:50:15Z</time>
      </trkpt>
      <trkpt lat="47.20819" lon="0.88471">
        <ele>93</ele>
        <time>2016-05-11T14:52:15Z</time>
      </trkpt>
      <trkpt lat="47.20825" lon="0.88492">
        <ele>93</ele>
        <time>2016-05-11T14:54:15Z</time>
      </trkpt>
      <trkpt lat="47.20831" lon="0.88508">
        <ele>93</ele>
        <time>2016-05-11T14:56:15Z</time>
      </trkpt>
      <trkpt lat="47.20838" lon="0.88524">
        <ele>93</ele>
        <time>2016-05-11T14:58:15Z</time>
      </trkpt>
      <trkpt lat="47.20845" lon="0.88542">
        <ele>93</ele>
        <time>2016-05-11T15:00:15Z</time>
      </trkpt>
      <trkpt lat="47.20851" lon="0.88554">
        <ele>93</ele>
        <time>2016-05-11T15:02:15Z</time>
      </trkpt>
      <trkpt lat="47.20903" lon="0.88646">
        <ele>92</ele>
        <time>2016-05-11T15:04:15Z</time>
      </trkpt>
      <trkpt lat="47.20911" lon="0.88662">
        <ele>92</ele>
        <time>2016-05-11T15:06:15Z</time>
      </trkpt>
      <trkpt lat="47.20912" lon="0.88666">
        <ele>92</ele>
        <time>2016-05-11T15:08:15Z</time>
      </trkpt>
      <trkpt lat="47.20915" lon="0.88674">
        <ele>92</ele>
        <time>2016-05-11T15:10:15Z</time>
      </trkpt>
      <trkpt lat="47.2092" lon="0.88689">
        <ele>92</ele>
        <time>2016-05-11T15:12:15Z</time>
      </trkpt>
      <trkpt lat="47.20922" lon="0.88701">
        <ele>92</ele>
        <time>2016-05-11T15:14:15Z</time>
      </trkpt>
      <trkpt lat="47.20924" lon="0.88715">
        <ele>92</ele>
        <time>2016-05-11T15:16:15Z</time>
      </trkpt>
      <trkpt lat="47.20925" lon="0.88726">
        <ele>92</ele>
        <time>2016-05-11T15:18:15Z</time>
      </trkpt>
      <trkpt lat="47.20926" lon="0.88741">
        <ele>92</ele>
        <time>2016-05-11T15:20:15Z</time>
      </trkpt>
      <trkpt lat="47.20926" lon="0.88749">
        <ele>92</ele>
        <time>2016-05-11T15:22:15Z</time>
      </trkpt>
      <trkpt lat="47.20924" lon="0.88761">
        <ele>92</ele>
        <time>2016-05-11T15:24:15Z</time>
      </trkpt>
      <trkpt lat="47.20921" lon="0.8878">
        <ele>92</ele>
        <time>2016-05-11T15:26:15Z</time>
      </trkpt>
      <trkpt lat="47.2092" lon="0.88787">
        <ele>92</ele>
        <time>2016-05-11T15:28:15Z</time>
      </trkpt>
      <trkpt lat="47.20918" lon="0.88795">
        <ele>93</ele>
        <time>2016-05-11T15:30:15Z</time>
      </trkpt>
      <trkpt lat="47.20916" lon="0.88799">
        <ele>93</ele>
        <time>2016-05-11T15:32:15Z</time>
      </trkpt>
      <trkpt lat="47.20914" lon="0.88806">
        <ele>93</ele>
        <time>2016-05-11T15:34:15Z</time>
      </trkpt>
      <trkpt lat="47.20909" lon="0.88815">
        <ele>93</ele>
        <time>2016-05-11T15:36:15Z</time>
      </trkpt>
      <trkpt lat="47.20904" lon="0.88821">
        <ele>93</ele>
        <time>2016-05-11T15:38:15Z</time>
      </trkpt>
      <trkpt lat="47.20895" lon="0.88832">
        <ele>93</ele>
        <time>2016-05-11T15:40:15Z</time>
      </trkpt>
      <trkpt lat="47.2089" lon="0.88836">
        <ele>93</ele>
        <time>2016-05-11T15:42:15Z</time>
      </trkpt>
      <trkpt lat="47.20879" lon="0.88848">
        <ele>93</ele>
        <time>2016-05-11T15:44:15Z</time>
      </trkpt>
      <trkpt lat="47.20873" lon="0.88855">
        <ele>93</ele>
        <time>2016-05-11T15:46:15Z</time>
      </trkpt>
      <trkpt lat="47.2087" lon="0.88859">
        <ele>93</ele>
        <time>2016-05-11T15:48:15Z</time>
      </trkpt>
      <trkpt lat="47.20869" lon="0.88861">
        <ele>93</ele>
        <time>2016-05-11T15:50:15Z</time>
      </trkpt>
      <trkpt lat="47.20867" lon="0.88865">
        <ele>93</ele>
        <time>2016-05-11T15:52:15Z</time>
      </trkpt>
      <trkpt lat="47.20866" lon="0.88869">
        <ele>93</ele>
        <time>2016-05-11T15:54:15Z</time>
      </trkpt>
      <trkpt lat="47.20862" lon="0.88885">
        <ele>93</ele>
        <time>2016-05-11T15:56:15Z</time>
      </trkpt>
      <trkpt lat="47.20856" lon="0.88906">
        <ele>94</ele>
        <time>2016-05-11T15:58:15Z</time>
      </trkpt>
      <trkpt lat="47.20846" lon="0.8893">
        <ele>94</ele>
        <time>2016-05-11T16:00:15Z</time>
      </trkpt>
      <trkpt lat="47.20839" lon="0.88947">
        <ele>94</ele>
        <time>2016-05-11T16:02:15Z</time>
      </trkpt>
      <trkpt lat="47.20822" lon="0.88993">
        <ele>93</ele>
        <time>2016-05-11T16:04:15Z</time>
      </trkpt>
      <trkpt lat="47.20807" lon="0.89033">
        <ele>93</ele>
        <time>2016-05-11T16:06:15Z</time>
      </trkpt>
      <trkpt lat="47.20803" lon="0.89048">
        <ele>93</ele>
        <time>2016-05-11T16:08:15Z</time>
      </trkpt>
      <trkpt lat="47.20801" lon="0.89052">
        <ele>93</ele>
        <time>2016-05-11T16:10:15Z</time>
      </trkpt>
      <trkpt lat="47.20791" lon="0.89099">
        <ele>93</ele>
        <time>2016-05-11T16:12:15Z</time>
      </trkpt>
      <trkpt lat="47.20768" lon="0.89218">
        <ele>92</ele>
        <time>2016-05-11T16:14:15Z</time>
      </trkpt>
      <trkpt lat="47.20763" lon="0.89245">
        <ele>92</ele>
        <time>2016-05-11T16:16:15Z</time>
      </trkpt>
      <trkpt lat="47.20763" lon="0.89245">
        <ele>92</ele>
        <time>2016-05-11T16:18:15Z</time>
      </trkpt>
      <trkpt lat="47.20661" lon="0.89135">
        <ele>93</ele>
        <time>2016-05-11T16:20:15Z</time>
      </trkpt>
      <trkpt lat="47.20655" lon="0.89129">
        <ele>93</ele>
        <time>2016-05-11T16:22:15Z</time>
      </trkpt>
      <trkpt lat="47.20499" lon="0.88965">
        <ele>93</ele>
        <time>2016-05-11T16:24:15Z</time>
      </trkpt>
      <trkpt lat="47.20454" lon="0.88918">
        <ele>94</ele>
        <time>2016-05-11T16:26:15Z</time>
      </trkpt>
      <trkpt lat="47.20374" lon="0.88836">
        <ele>93</ele>
        <time>2016-05-11T16:28:15Z</time>
      </trkpt>
      <trkpt lat="47.20206" lon="0.88665">
        <ele>92</ele>
        <time>2016-05-11T16:30:15Z</time>
      </trkpt>
      <trkpt lat="47.20206" lon="0.88665">
        <ele>92</ele>
        <time>2016-05-11T16:32:15Z</time>
      </trkpt>
      <trkpt lat="47.20195" lon="0.88672">
        <ele>92</ele>
        <time>2016-05-11T16:34:15Z</time>
      </trkpt>
      <trkpt lat="47.20159" lon="0.88692">
        <ele>92</ele>
        <time>2016-05-11T16:36:15Z</time>
      </trkpt>
      <trkpt lat="47.20111" lon="0.88718">
        <ele>92</ele>
        <time>2016-05-11T16:38:15Z</time>
      </trkpt>
      <trkpt lat="47.20028" lon="0.88764">
        <ele>91</ele>
        <time>2016-05-11T16:40:15Z</time>
      </trkpt>
      <trkpt lat="47.19968" lon="0.88798">
        <ele>91</ele>
        <time>2016-05-11T16:42:15Z</time>
      </trkpt>
      <trkpt lat="47.19944" lon="0.88819">
        <ele>91</ele>
        <time>2016-05-11T16:44:15Z</time>
      </trkpt>
      <trkpt lat="47.19927" lon="0.88835">
        <ele>91</ele>
        <time>2016-05-11T16:46:15Z</time>
      </trkpt>
      <trkpt lat="47.19885" lon="0.88885">
        <ele>90</ele>
        <time>2016-05-11T16:48:15Z</time>
      </trkpt>
      <trkpt lat="47.19875" lon="0.88898">
        <ele>90</ele>
        <time>2016-05-11T16:50:15Z</time>
      </trkpt>
      <trkpt lat="47.19872" lon="0.88901">
        <ele>90</ele>
        <time>2016-05-11T16:52:15Z</time>
      </trkpt>
      <trkpt lat="47.19871" lon="0.88902">
        <ele>90</ele>
        <time>2016-05-11T16:54:15Z</time>
      </trkpt>
      <trkpt lat="47.19869" lon="0.88904">
        <ele>90</ele>
        <time>2016-05-11T16:56:15Z</time>
      </trkpt>
      <trkpt lat="47.19833" lon="0.88948">
        <ele>90</ele>
        <time>2016-05-11T16:58:15Z</time>
      </trkpt>
      <trkpt lat="47.19746" lon="0.89054">
        <ele>91</ele>
        <time>2016-05-11T17:00:15Z</time>
      </trkpt>
      <trkpt lat="47.19704" lon="0.89092">
        <ele>92</ele>
        <time>2016-05-11T17:02:15Z</time>
      </trkpt>
      <trkpt lat="47.1967" lon="0.89124">
        <ele>92</ele>
        <time>2016-05-11T17:04:15Z</time>
      </trkpt>
      <trkpt lat="47.19647" lon="0.89144">
        <ele>93</ele>
        <time>2016-05-11T17:06:15Z</time>
      </trkpt>
      <trkpt lat="47.19628" lon="0.89157">
        <ele>94</ele>
        <time>2016-05-11T17:08:15Z</time>
      </trkpt>
      <trkpt lat="47.19617" lon="0.89163">
        <ele>94</ele>
        <time>2016-05-11T17:10:15Z</time>
      </trkpt>
      <trkpt lat="47.19597" lon="0.89172">
        <ele>95</ele>
        <time>2016-05-11T17:12:15Z</time>
      </trkpt>
      <trkpt lat="47.19594" lon="0.89173">
        <ele>95</ele>
        <time>2016-05-11T17:14:15Z</time>
      </trkpt>
      <trkpt lat="47.19535" lon="0.8919">
        <ele>95</ele>
        <time>2016-05-11T17:16:15Z</time>
      </trkpt>
      <trkpt lat="47.19418" lon="0.89223">
        <ele>95</ele>
        <time>2016-05-11T17:18:15Z</time>
      </trkpt>
      <trkpt lat="47.19317" lon="0.89251">
        <ele>94</ele>
        <time>2016-05-11T17:20:15Z</time>
      </trkpt>
      <trkpt lat="47.19064" lon="0.89322">
        <ele>94</ele>
        <time>2016-05-11T17:22:15Z</time>
      </trkpt>
      <trkpt lat="47.1889" lon="0.89372">
        <ele>94</ele>
        <time>2016-05-11T17:24:15Z</time>
      </trkpt>
      <trkpt lat="47.18737" lon="0.89416">
        <ele>97</ele>
        <time>2016-05-11T17:26:15Z</time>
      </trkpt>
      <trkpt lat="47.18722" lon="0.8942">
        <ele>97</ele>
        <time>2016-05-11T17:28:15Z</time>
      </trkpt>
      <trkpt lat="47.18296" lon="0.89541">
        <ele>99</ele>
        <time>2016-05-11T17:30:15Z</time>
      </trkpt>
      <trkpt lat="47.17992" lon="0.89628">
        <ele>98</ele>
        <time>2016-05-11T17:32:15Z</time>
      </trkpt>
      <trkpt lat="47.17825" lon="0.89674">
        <ele>100</ele>
        <time>2016-05-11T17:34:15Z</time>
      </trkpt>
      <trkpt lat="47.17799" lon="0.89679">
        <ele>100</ele>
        <time>2016-05-11T17:36:15Z</time>
      </trkpt>
      <trkpt lat="47.1779" lon="0.89679">
        <ele>100</ele>
        <time>2016-05-11T17:38:15Z</time>
      </trkpt>
      <trkpt lat="47.17777" lon="0.8968">
        <ele>100</ele>
        <time>2016-05-11T17:40:15Z</time>
      </trkpt>
      <trkpt lat="47.17744" lon="0.89675">
        <ele>100</ele>
        <time>2016-05-11T17:42:15Z</time>
      </trkpt>
      <trkpt lat="47.17699" lon="0.89665">
        <ele>101</ele>
        <time>2016-05-11T17:44:15Z</time>
      </trkpt>
      <trkpt lat="47.17593" lon="0.89641">
        <ele>103</ele>
        <time>2016-05-11T17:46:15Z</time>
      </trkpt>
      <trkpt lat="47.17409" lon="0.89598">
        <ele>105</ele>
        <time>2016-05-11T17:48:15Z</time>
      </trkpt>
      <trkpt lat="47.17355" lon="0.89583">
        <ele>105</ele>
        <time>2016-05-11T17:50:15Z</time>
      </trkpt>
      <trkpt lat="47.17334" lon="0.89578">
        <ele>105</ele>
        <time>2016-05-11T17:52:15Z</time>
      </trkpt>
      <trkpt lat="47.17176" lon="0.89543">
        <ele>106</ele>
        <time>2016-05-11T17:54:15Z</time>
      </trkpt>
      <trkpt lat="47.1717" lon="0.89542">
        <ele>106</ele>
        <time>2016-05-11T17:56:15Z</time>
      </trkpt>
      <trkpt lat="47.16979" lon="0.89497">
        <ele>107</ele>
        <time>2016-05-11T17:58:15Z</time>
      </trkpt>
      <trkpt lat="47.16937" lon="0.89486">
        <ele>107</ele>
        <time>2016-05-11T18:00:15Z</time>
      </trkpt>
      <trkpt lat="47.16907" lon="0.89478">
        <ele>108</ele>
        <time>2016-05-11T18:02:15Z</time>
      </trkpt>
      <trkpt lat="47.1682" lon="0.89457">
        <ele>109</ele>
        <time>2016-05-11T18:04:15Z</time>
      </trkpt>
      <trkpt lat="47.16811" lon="0.89456">
        <ele>109</ele>
        <time>2016-05-11T18:06:15Z</time>
      </trkpt>
      <trkpt lat="47.16783" lon="0.89454">
        <ele>109</ele>
        <time>2016-05-11T18:08:15Z</time>
      </trkpt>
      <trkpt lat="47.1675" lon="0.89456">
        <ele>108</ele>
        <time>2016-05-11T18:10:15Z</time>
      </trkpt>
      <trkpt lat="47.16735" lon="0.89457">
        <ele>109</ele>
        <time>2016-05-11T18:12:15Z</time>
      </trkpt>
      <trkpt lat="47.16709" lon="0.8946">
        <ele>110</ele>
        <time>2016-05-11T18:14:15Z</time>
      </trkpt>
      <trkpt lat="47.16659" lon="0.89466">
        <ele>112</ele>
        <time>2016-05-11T18:16:15Z</time>
      </trkpt>
      <trkpt lat="47.16655" lon="0.89467">
        <ele>112</ele>
        <time>2016-05-11T18:18:15Z</time>
      </trkpt>
      <trkpt lat="47.16652" lon="0.89467">
        <ele>112</ele>
        <time>2016-05-11T18:20:15Z</time>
      </trkpt>
      <trkpt lat="47.16558" lon="0.8948">
        <ele>109</ele>
        <time>2016-05-11T18:22:15Z</time>
      </trkpt>
      <trkpt lat="47.16553" lon="0.8948">
        <ele>109</ele>
        <time>2016-05-11T18:24:15Z</time>
      </trkpt>
      <trkpt lat="47.16511" lon="0.89485">
        <ele>109</ele>
        <time>2016-05-11T18:26:15Z</time>
      </trkpt>
      <trkpt lat="47.16476" lon="0.8949">
        <ele>109</ele>
        <time>2016-05-11T18:28:15Z</time>
      </trkpt>
      <trkpt lat="47.16476" lon="0.8949">
        <ele>109</ele>
        <time>2016-05-11T18:30:15Z</time>
      </trkpt>
      <trkpt lat="47.16478" lon="0.8953">
        <ele>109</ele>
        <time>2016-05-11T18:32:15Z</time>
      </trkpt>
      <trkpt lat="47.16478" lon="0.89556">
        <ele>109</ele>
        <time>2016-05-11T18:34:15Z</time>
      </trkpt>
      <trkpt lat="47.1648" lon="0.89582">
        <ele>109</ele>
        <time>2016-05-11T18:36:15Z</time>
      </trkpt>
      <trkpt lat="47.16484" lon="0.89607">
        <ele>109</ele>
        <time>2016-05-11T18:38:15Z</time>
      </trkpt>
      <trkpt lat="47.16508" lon="0.89725">
        <ele>111</ele>
        <time>2016-05-11T18:40:15Z</time>
      </trkpt>
      <trkpt lat="47.16535" lon="0.89874">
        <ele>111</ele>
        <time>2016-05-11T18:42:15Z</time>
      </trkpt>
      <trkpt lat="47.16558" lon="0.90057">
        <ele>112</ele>
        <time>2016-05-11T18:44:15Z</time>
      </trkpt>
      <trkpt lat="47.16558" lon="0.90057">
        <ele>112</ele>
        <time>2016-05-11T18:46:15Z</time>
      </trkpt>
      <trkpt lat="47.16553" lon="0.90063">
        <ele>112</ele>
        <time>2016-05-11T18:48:15Z</time>
      </trkpt>
      <trkpt lat="47.16538" lon="0.90073">
        <ele>112</ele>
        <time>2016-05-11T18:50:15Z</time>
      </trkpt>
      <trkpt lat="47.16522" lon="0.90081">
        <ele>112</ele>
        <time>2016-05-11T18:52:15Z</time>
      </trkpt>
      <trkpt lat="47.16515" lon="0.90087">
        <ele>112</ele>
        <time>2016-05-11T18:54:15Z</time>
      </trkpt>
      <trkpt lat="47.16361" lon="0.90126">
        <ele>111</ele>
        <time>2016-05-11T18:56:15Z</time>
      </trkpt>
      <trkpt lat="47.16269" lon="0.90149">
        <ele>113</ele>
        <time>2016-05-11T18:58:15Z</time>
      </trkpt>
      <trkpt lat="47.16153" lon="0.90177">
        <ele>116</ele>
        <time>2016-05-11T19:00:15Z</time>
      </trkpt>
      <trkpt lat="47.16122" lon="0.90184">
        <ele>115</ele>
        <time>2016-05-11T19:02:15Z</time>
      </trkpt>
      <trkpt lat="47.1603" lon="0.90198">
        <ele>116</ele>
        <time>2016-05-11T19:04:15Z</time>
      </trkpt>
      <trkpt lat="47.16017" lon="0.90203">
        <ele>116</ele>
        <time>2016-05-11T19:06:15Z</time>
      </trkpt>
      <trkpt lat="47.16009" lon="0.90208">
        <ele>117</ele>
        <time>2016-05-11T19:08:15Z</time>
      </trkpt>
      <trkpt lat="47.16002" lon="0.90213">
        <ele>117</ele>
        <time>2016-05-11T19:10:15Z</time>
      </trkpt>
      <trkpt lat="47.15994" lon="0.90223">
        <ele>117</ele>
        <time>2016-05-11T19:12:15Z</time>
      </trkpt>
      <trkpt lat="47.15954" lon="0.90277">
        <ele>118</ele>
        <time>2016-05-11T19:14:15Z</time>
      </trkpt>
      <trkpt lat="47.15899" lon="0.90356">
        <ele>118</ele>
        <time>2016-05-11T19:16:15Z</time>
      </trkpt>
      <trkpt lat="47.15857" lon="0.90416">
        <ele>117</ele>
        <time>2016-05-11T19:18:15Z</time>
      </trkpt>
      <trkpt lat="47.15848" lon="0.9043">
        <ele>117</ele>
        <time>2016-05-11T19:20:15Z</time>
      </trkpt>
      <trkpt lat="47.15842" lon="0.90441">
        <ele>117</ele>
        <time>2016-05-11T19:22:15Z</time>
      </trkpt>
      <trkpt lat="47.15839" lon="0.9045">
        <ele>117</ele>
        <time>2016-05-11T19:24:15Z</time>
      </trkpt>
      <trkpt lat="47.15836" lon="0.90459">
        <ele>117</ele>
        <time>2016-05-11T19:26:15Z</time>
      </trkpt>
      <trkpt lat="47.15834" lon="0.90475">
        <ele>117</ele>
        <time>2016-05-11T19:28:15Z</time>
      </trkpt>
      <trkpt lat="47.15833" lon="0.90503">
        <ele>117</ele>
        <time>2016-05-11T19:30:15Z</time>
      </trkpt>
      <trkpt lat="47.1583" lon="0.90544">
        <ele>118</ele>
        <time>2016-05-11T19:32:15Z</time>
      </trkpt>
      <trkpt lat="47.15826" lon="0.90625">
        <ele>118</ele>
        <time>2016-05-11T19:34:15Z</time>
      </trkpt>
      <trkpt lat="47.15824" lon="0.90664">
        <ele>118</ele>
        <time>2016-05-11T19:36:15Z</time>
      </trkpt>
      <trkpt lat="47.15823" lon="0.90695">
        <ele>118</ele>
        <time>2016-05-11T19:38:15Z</time>
      </trkpt>
      <trkpt lat="47.15819" lon="0.90756">
        <ele>118</ele>
        <time>2016-05-11T19:40:15Z</time>
      </trkpt>
      <trkpt lat="47.15813" lon="0.90867">
        <ele>118</ele>
        <time>2016-05-11T19:42:15Z</time>
      </trkpt>
      <trkpt lat="47.15809" lon="0.90928">
        <ele>119</ele>
        <time>2016-05-11T19:44:15Z</time>
      </trkpt>
      <trkpt lat="47.15806" lon="0.90986">
        <ele>118</ele>
        <time>2016-05-11T19:46:15Z</time>
      </trkpt>
      <trkpt lat="47.15802" lon="0.91062">
        <ele>119</ele>
        <time>2016-05-11T19:48:15Z</time>
      </trkpt>
      <trkpt lat="47.15801" lon="0.91086">
        <ele>119</ele>
        <time>2016-05-11T19:50:15Z</time>
      </trkpt>
      <trkpt lat="47.158" lon="0.91105">
        <ele>119</ele>
        <time>2016-05-11T19:52:15Z</time>
      </trkpt>
      <trkpt lat="47.15801" lon="0.9113">
        <ele>119</ele>
        <time>2016-05-11T19:54:15Z</time>
      </trkpt>
      <trkpt lat="47.15802" lon="0.91167">
        <ele>119</ele>
        <time>2016-05-11T19:56:15Z</time>
      </trkpt>
      <trkpt lat="47.15803" lon="0.91187">
        <ele>119</ele>
        <time>2016-05-11T19:58:15Z</time>
      </trkpt>
      <trkpt lat="47.15803" lon="0.91201">
        <ele>118</ele>
        <time>2016-05-11T20:00:15Z</time>
      </trkpt>
      <trkpt lat="47.15802" lon="0.91216">
        <ele>118</ele>
        <time>2016-05-11T20:02:15Z</time>
      </trkpt>
      <trkpt lat="47.158" lon="0.9123">
        <ele>118</ele>
        <time>2016-05-11T20:04:15Z</time>
      </trkpt>
      <trkpt lat="47.15798" lon="0.91246">
        <ele>118</ele>
        <time>2016-05-11T20:06:15Z</time>
      </trkpt>
      <trkpt lat="47.15791" lon="0.91271">
        <ele>118</ele>
        <time>2016-05-11T20:08:15Z</time>
      </trkpt>
      <trkpt lat="47.15759" lon="0.91364">
        <ele>118</ele>
        <time>2016-05-11T20:10:15Z</time>
      </trkpt>
      <trkpt lat="47.15745" lon="0.91406">
        <ele>118</ele>
        <time>2016-05-11T20:12:15Z</time>
      </trkpt>
      <trkpt lat="47.15733" lon="0.91448">
        <ele>119</ele>
        <time>2016-05-11T20:14:15Z</time>
      </trkpt>
      <trkpt lat="47.15718" lon="0.91504">
        <ele>119</ele>
        <time>2016-05-11T20:16:15Z</time>
      </trkpt>
      <trkpt lat="47.15697" lon="0.91585">
        <ele>119</ele>
        <time>2016-05-11T20:18:15Z</time>
      </trkpt>
      <trkpt lat="47.15671" lon="0.91691">
        <ele>117</ele>
        <time>2016-05-11T20:20:15Z</time>
      </trkpt>
      <trkpt lat="47.15663" lon="0.91719">
        <ele>118</ele>
        <time>2016-05-11T20:22:15Z</time>
      </trkpt>
      <trkpt lat="47.15657" lon="0.91738">
        <ele>118</ele>
        <time>2016-05-11T20:24:15Z</time>
      </trkpt>
      <trkpt lat="47.15653" lon="0.9175">
        <ele>118</ele>
        <time>2016-05-11T20:26:15Z</time>
      </trkpt>
      <trkpt lat="47.15651" lon="0.91756">
        <ele>118</ele>
        <time>2016-05-11T20:28:15Z</time>
      </trkpt>
      <trkpt lat="47.15644" lon="0.91772">
        <ele>118</ele>
        <time>2016-05-11T20:30:15Z</time>
      </trkpt>
      <trkpt lat="47.15637" lon="0.91787">
        <ele>118</ele>
        <time>2016-05-11T20:32:15Z</time>
      </trkpt>
      <trkpt lat="47.1563" lon="0.91802">
        <ele>118</ele>
        <time>2016-05-11T20:34:15Z</time>
      </trkpt>
      <trkpt lat="47.15619" lon="0.91819">
        <ele>118</ele>
        <time>2016-05-11T20:36:15Z</time>
      </trkpt>
      <trkpt lat="47.15611" lon="0.91832">
        <ele>117</ele>
        <time>2016-05-11T20:38:15Z</time>
      </trkpt>
      <trkpt lat="47.15609" lon="0.91836">
        <ele>117</ele>
        <time>2016-05-11T20:40:15Z</time>
      </trkpt>
      <trkpt lat="47.1558" lon="0.9187">
        <ele>116</ele>
        <time>2016-05-11T20:42:15Z</time>
      </trkpt>
      <trkpt lat="47.15525" lon="0.9193">
        <ele>115</ele>
        <time>2016-05-11T20:44:15Z</time>
      </trkpt>
      <trkpt lat="47.1548" lon="0.91978">
        <ele>115</ele>
        <time>2016-05-11T20:46:15Z</time>
      </trkpt>
      <trkpt lat="47.15461" lon="0.92002">
        <ele>115</ele>
        <time>2016-05-11T20:48:15Z</time>
      </trkpt>
      <trkpt lat="47.1544" lon="0.92028">
        <ele>115</ele>
        <time>2016-05-11T20:50:15Z</time>
      </trkpt>
      <trkpt lat="47.15423" lon="0.9205">
        <ele>115</ele>
        <time>2016-05-11T20:52:15Z</time>
      </trkpt>
      <trkpt lat="47.15407" lon="0.92072">
        <ele>115</ele>
        <time>2016-05-11T20:54:15Z</time>
      </trkpt>
      <trkpt lat="47.1537" lon="0.92118">
        <ele>115</ele>
        <time>2016-05-11T20:56:15Z</time>
      </trkpt>
      <trkpt lat="47.15334" lon="0.92166">
        <ele>115</ele>
        <time>2016-05-11T20:58:15Z</time>
      </trkpt>
      <trkpt lat="47.15308" lon="0.922">
        <ele>116</ele>
        <time>2016-05-11T21:00:15Z</time>
      </trkpt>
      <trkpt lat="47.15293" lon="0.92222">
        <ele>116</ele>
        <time>2016-05-11T21:02:15Z</time>
      </trkpt>
      <trkpt lat="47.15279" lon="0.92245">
        <ele>117</ele>
        <time>2016-05-11T21:04:15Z</time>
      </trkpt>
      <trkpt lat="47.15265" lon="0.92267">
        <ele>117</ele>
        <time>2016-05-11T21:06:15Z</time>
      </trkpt>
      <trkpt lat="47.15248" lon="0.92294">
        <ele>117</ele>
        <time>2016-05-11T21:08:15Z</time>
      </trkpt>
      <trkpt lat="47.15226" lon="0.92333">
        <ele>117</ele>
        <time>2016-05-11T21:10:15Z</time>
      </trkpt>
      <trkpt lat="47.15201" lon="0.92376">
        <ele>118</ele>
        <time>2016-05-11T21:12:15Z</time>
      </trkpt>
      <trkpt lat="47.15184" lon="0.92406">
        <ele>118</ele>
        <time>2016-05-11T21:14:15Z</time>
      </trkpt>
      <trkpt lat="47.15172" lon="0.92425">
        <ele>118</ele>
        <time>2016-05-11T21:16:15Z</time>
      </trkpt>
      <trkpt lat="47.15164" lon="0.92439">
        <ele>118</ele>
        <time>2016-05-11T21:18:15Z</time>
      </trkpt>
      <trkpt lat="47.15155" lon="0.92451">
        <ele>118</ele>
        <time>2016-05-11T21:20:15Z</time>
      </trkpt>
      <trkpt lat="47.15145" lon="0.92464">
        <ele>118</ele>
        <time>2016-05-11T21:22:15Z</time>
      </trkpt>
      <trkpt lat="47.15132" lon="0.92478">
        <ele>117</ele>
        <time>2016-05-11T21:24:15Z</time>
      </trkpt>
      <trkpt lat="47.15115" lon="0.92498">
        <ele>117</ele>
        <time>2016-05-11T21:26:15Z</time>
      </trkpt>
      <trkpt lat="47.15097" lon="0.92518">
        <ele>117</ele>
        <time>2016-05-11T21:28:15Z</time>
      </trkpt>
      <trkpt lat="47.15082" lon="0.92535">
        <ele>117</ele>
        <time>2016-05-11T21:30:15Z</time>
      </trkpt>
      <trkpt lat="47.15071" lon="0.92548">
        <ele>117</ele>
        <time>2016-05-11T21:32:15Z</time>
      </trkpt>
      <trkpt lat="47.15064" lon="0.9256">
        <ele>117</ele>
        <time>2016-05-11T21:34:15Z</time>
      </trkpt>
      <trkpt lat="47.15055" lon="0.92574">
        <ele>117</ele>
        <time>2016-05-11T21:36:15Z</time>
      </trkpt>
      <trkpt lat="47.15047" lon="0.9259">
        <ele>117</ele>
        <time>2016-05-11T21:38:15Z</time>
      </trkpt>
      <trkpt lat="47.15035" lon="0.92616">
        <ele>117</ele>
        <time>2016-05-11T21:40:15Z</time>
      </trkpt>
      <trkpt lat="47.15021" lon="0.92645">
        <ele>117</ele>
        <time>2016-05-11T21:42:15Z</time>
      </trkpt>
      <trkpt lat="47.15008" lon="0.92674">
        <ele>117</ele>
        <time>2016-05-11T21:44:15Z</time>
      </trkpt>
      <trkpt lat="47.14997" lon="0.92703">
        <ele>117</ele>
        <time>2016-05-11T21:46:15Z</time>
      </trkpt>
      <trkpt lat="47.14986" lon="0.92729">
        <ele>118</ele>
        <time>2016-05-11T21:48:15Z</time>
      </trkpt>
      <trkpt lat="47.14977" lon="0.92758">
        <ele>118</ele>
        <time>2016-05-11T21:50:15Z</time>
      </trkpt>
      <trkpt lat="47.14968" lon="0.92787">
        <ele>117</ele>
        <time>2016-05-11T21:52:15Z</time>
      </trkpt>
      <trkpt lat="47.14956" lon="0.92836">
        <ele>116</ele>
        <time>2016-05-11T21:54:15Z</time>
      </trkpt>
      <trkpt lat="47.14946" lon="0.92872">
        <ele>115</ele>
        <time>2016-05-11T21:56:15Z</time>
      </trkpt>
      <trkpt lat="47.14936" lon="0.92914">
        <ele>114</ele>
        <time>2016-05-11T21:58:15Z</time>
      </trkpt>
      <trkpt lat="47.14926" lon="0.9295">
        <ele>113</ele>
        <time>2016-05-11T22:00:15Z</time>
      </trkpt>
      <trkpt lat="47.14918" lon="0.92979">
        <ele>112</ele>
        <time>2016-05-11T22:02:15Z</time>
      </trkpt>
      <trkpt lat="47.14912" lon="0.92999">
        <ele>111</ele>
        <time>2016-05-11T22:04:15Z</time>
      </trkpt>
      <trkpt lat="47.14903" lon="0.93027">
        <ele>111</ele>
        <time>2016-05-11T22:06:15Z</time>
      </trkpt>
      <trkpt lat="47.14879" lon="0.93096">
        <ele>110</ele>
        <time>2016-05-11T22:08:15Z</time>
      </trkpt>
      <trkpt lat="47.14876" lon="0.93102">
        <ele>110</ele>
        <time>2016-05-11T22:10:15Z</time>
      </trkpt>
      <trkpt lat="47.14857" lon="0.93154">
        <ele>108</ele>
        <time>2016-05-11T22:12:15Z</time>
      </trkpt>
      <trkpt lat="47.14839" lon="0.93202">
        <ele>108</ele>
        <time>2016-05-11T22:14:15Z</time>
      </trkpt>
      <trkpt lat="47.14828" lon="0.93229">
        <ele>108</ele>
        <time>2016-05-11T22:16:15Z</time>
      </trkpt>
      <trkpt lat="47.14815" lon="0.93257">
        <ele>109</ele>
        <time>2016-05-11T22:18:15Z</time>
      </trkpt>
      <trkpt lat="47.14808" lon="0.93272">
        <ele>109</ele>
        <time>2016-05-11T22:20:15Z</time>
      </trkpt>
      <trkpt lat="47.14807" lon="0.93273">
        <ele>109</ele>
        <time>2016-05-11T22:22:15Z</time>
      </trkpt>
      <trkpt lat="47.14805" lon="0.93276">
        <ele>109</ele>
        <time>2016-05-11T22:24:15Z</time>
      </trkpt>
      <trkpt lat="47.14794" lon="0.933">
        <ele>109</ele>
        <time>2016-05-11T22:26:15Z</time>
      </trkpt>
      <trkpt lat="47.14784" lon="0.9332">
        <ele>109</ele>
        <time>2016-05-11T22:28:15Z</time>
      </trkpt>
      <trkpt lat="47.14778" lon="0.93337">
        <ele>110</ele>
        <time>2016-05-11T22:30:15Z</time>
      </trkpt>
      <trkpt lat="47.14774" lon="0.93353">
        <ele>110</ele>
        <time>2016-05-11T22:32:15Z</time>
      </trkpt>
      <trkpt lat="47.1477" lon="0.93377">
        <ele>110</ele>
        <time>2016-05-11T22:34:15Z</time>
      </trkpt>
      <trkpt lat="47.14765" lon="0.93413">
        <ele>110</ele>
        <time>2016-05-11T22:36:15Z</time>
      </trkpt>
      <trkpt lat="47.14758" lon="0.93451">
        <ele>110</ele>
        <time>2016-05-11T22:38:15Z</time>
      </trkpt>
      <trkpt lat="47.14751" lon="0.93494">
        <ele>110</ele>
        <time>2016-05-11T22:40:15Z</time>
      </trkpt>
      <trkpt lat="47.14748" lon="0.93508">
        <ele>110</ele>
        <time>2016-05-11T22:42:15Z</time>
      </trkpt>
      <trkpt lat="47.14746" lon="0.93519">
        <ele>110</ele>
        <time>2016-05-11T22:44:15Z</time>
      </trkpt>
      <trkpt lat="47.14746" lon="0.93524">
        <ele>110</ele>
        <time>2016-05-11T22:46:15Z</time>
      </trkpt>
      <trkpt lat="47.14744" lon="0.93537">
        <ele>109</ele>
        <time>2016-05-11T22:48:15Z</time>
      </trkpt>
      <trkpt lat="47.14744" lon="0.93568">
        <ele>109</ele>
        <time>2016-05-11T22:50:15Z</time>
      </trkpt>
      <trkpt lat="47.14744" lon="0.93603">
        <ele>107</ele>
        <time>2016-05-11T22:52:15Z</time>
      </trkpt>
      <trkpt lat="47.14744" lon="0.93642">
        <ele>104</ele>
        <time>2016-05-11T22:54:15Z</time>
      </trkpt>
      <trkpt lat="47.14744" lon="0.93676">
        <ele>102</ele>
        <time>2016-05-11T22:56:15Z</time>
      </trkpt>
      <trkpt lat="47.14741" lon="0.93706">
        <ele>99</ele>
        <time>2016-05-11T22:58:15Z</time>
      </trkpt>
      <trkpt lat="47.14738" lon="0.93727">
        <ele>98</ele>
        <time>2016-05-11T23:00:15Z</time>
      </trkpt>
      <trkpt lat="47.14735" lon="0.93746">
        <ele>96</ele>
        <time>2016-05-11T23:02:15Z</time>
      </trkpt>
      <trkpt lat="47.1473" lon="0.93758">
        <ele>95</ele>
        <time>2016-05-11T23:04:15Z</time>
      </trkpt>
      <trkpt lat="47.14725" lon="0.93771">
        <ele>95</ele>
        <time>2016-05-11T23:06:15Z</time>
      </trkpt>
      <trkpt lat="47.14719" lon="0.93785">
        <ele>95</ele>
        <time>2016-05-11T23:08:15Z</time>
      </trkpt>
      <trkpt lat="47.14711" lon="0.93796">
        <ele>95</ele>
        <time>2016-05-11T23:10:15Z</time>
      </trkpt>
      <trkpt lat="47.14703" lon="0.93805">
        <ele>94</ele>
        <time>2016-05-11T23:12:15Z</time>
      </trkpt>
      <trkpt lat="47.14693" lon="0.93813">
        <ele>94</ele>
        <time>2016-05-11T23:14:15Z</time>
      </trkpt>
      <trkpt lat="47.14691" lon="0.93815">
        <ele>94</ele>
        <time>2016-05-11T23:16:15Z</time>
      </trkpt>
      <trkpt lat="47.14661" lon="0.93843">
        <ele>93</ele>
        <time>2016-05-11T23:18:15Z</time>
      </trkpt>
      <trkpt lat="47.14631" lon="0.93863">
        <ele>95</ele>
        <time>2016-05-11T23:20:15Z</time>
      </trkpt>
      <trkpt lat="47.14608" lon="0.93881">
        <ele>96</ele>
        <time>2016-05-11T23:22:15Z</time>
      </trkpt>
      <trkpt lat="47.14603" lon="0.93886">
        <ele>97</ele>
        <time>2016-05-11T23:24:15Z</time>
      </trkpt>
      <trkpt lat="47.14597" lon="0.93892">
        <ele>97</ele>
        <time>2016-05-11T23:26:15Z</time>
      </trkpt>
      <trkpt lat="47.14593" lon="0.93897">
        <ele>97</ele>
        <time>2016-05-11T23:28:15Z</time>
      </trkpt>
      <trkpt lat="47.14584" lon="0.9391">
        <ele>98</ele>
        <time>2016-05-11T23:30:15Z</time>
      </trkpt>
      <trkpt lat="47.14583" lon="0.93918">
        <ele>98</ele>
        <time>2016-05-11T23:32:15Z</time>
      </trkpt>
      <trkpt lat="47.14581" lon="0.93931">
        <ele>98</ele>
        <time>2016-05-11T23:34:15Z</time>
      </trkpt>
      <trkpt lat="47.14581" lon="0.93947">
        <ele>97</ele>
        <time>2016-05-11T23:36:15Z</time>
      </trkpt>
      <trkpt lat="47.14582" lon="0.93965">
        <ele>97</ele>
        <time>2016-05-11T23:38:15Z</time>
      </trkpt>
      <trkpt lat="47.14582" lon="0.93979">
        <ele>97</ele>
        <time>2016-05-11T23:40:15Z</time>
      </trkpt>
      <trkpt lat="47.14581" lon="0.9399">
        <ele>96</ele>
        <time>2016-05-11T23:42:15Z</time>
      </trkpt>
      <trkpt lat="47.14579" lon="0.93999">
        <ele>96</ele>
        <time>2016-05-11T23:44:15Z</time>
      </trkpt>
      <trkpt lat="47.14572" lon="0.94024">
        <ele>97</ele>
        <time>2016-05-11T23:46:15Z</time>
      </trkpt>
      <trkpt lat="47.14559" lon="0.9406">
        <ele>99</ele>
        <time>2016-05-11T23:48:15Z</time>
      </trkpt>
      <trkpt lat="47.14549" lon="0.94082">
        <ele>101</ele>
        <time>2016-05-11T23:50:15Z</time>
      </trkpt>
      <trkpt lat="47.1454" lon="0.94103">
        <ele>102</ele>
        <time>2016-05-11T23:52:15Z</time>
      </trkpt>
      <trkpt lat="47.14526" lon="0.9413">
        <ele>104</ele>
        <time>2016-05-11T23:54:15Z</time>
      </trkpt>
      <trkpt lat="47.14516" lon="0.9415">
        <ele>105</ele>
        <time>2016-05-11T23:56:15Z</time>
      </trkpt>
      <trkpt lat="47.1451" lon="0.94165">
        <ele>106</ele>
        <time>2016-05-11T23:58:15Z</time>
      </trkpt>
      <trkpt lat="47.14505" lon="0.94178">
        <ele>106</ele>
        <time>2016-05-12T00:00:15Z</time>
      </trkpt>
      <trkpt lat="47.14501" lon="0.94193">
        <ele>107</ele>
        <time>2016-05-12T00:02:15Z</time>
      </trkpt>
      <trkpt lat="47.14499" lon="0.94208">
        <ele>107</ele>
        <time>2016-05-12T00:04:15Z</time>
      </trkpt>
      <trkpt lat="47.14498" lon="0.94228">
        <ele>108</ele>
        <time>2016-05-12T00:06:15Z</time>
      </trkpt>
      <trkpt lat="47.14496" lon="0.94245">
        <ele>109</ele>
        <time>2016-05-12T00:08:15Z</time>
      </trkpt>
      <trkpt lat="47.14494" lon="0.94267">
        <ele>110</ele>
        <time>2016-05-12T00:10:15Z</time>
      </trkpt>
      <trkpt lat="47.1449" lon="0.94294">
        <ele>111</ele>
        <time>2016-05-12T00:12:15Z</time>
      </trkpt>
      <trkpt lat="47.14486" lon="0.94322">
        <ele>113</ele>
        <time>2016-05-12T00:14:15Z</time>
      </trkpt>
      <trkpt lat="47.14479" lon="0.94359">
        <ele>113</ele>
        <time>2016-05-12T00:16:15Z</time>
      </trkpt>
      <trkpt lat="47.14473" lon="0.94387">
        <ele>113</ele>
        <time>2016-05-12T00:18:15Z</time>
      </trkpt>
      <trkpt lat="47.14467" lon="0.94413">
        <ele>113</ele>
        <time>2016-05-12T00:20:15Z</time>
      </trkpt>
      <trkpt lat="47.14461" lon="0.94436">
        <ele>114</ele>
        <time>2016-05-12T00:22:15Z</time>
      </trkpt>
      <trkpt lat="47.14453" lon="0.94462">
        <ele>114</ele>
        <time>2016-05-12T00:24:15Z</time>
      </trkpt>
      <trkpt lat="47.1444" lon="0.94501">
        <ele>115</ele>
        <time>2016-05-12T00:26:15Z</time>
      </trkpt>
      <trkpt lat="47.14425" lon="0.94542">
        <ele>116</ele>
        <time>2016-05-12T00:28:15Z</time>
      </trkpt>
      <trkpt lat="47.14421" lon="0.94556">
        <ele>116</ele>
        <time>2016-05-12T00:30:15Z</time>
      </trkpt>
      <trkpt lat="47.14396" lon="0.94623">
        <ele>116</ele>
        <time>2016-05-12T00:32:15Z</time>
      </trkpt>
      <trkpt lat="47.14382" lon="0.9466">
        <ele>118</ele>
        <time>2016-05-12T00:34:15Z</time>
      </trkpt>
      <trkpt lat="47.14369" lon="0.94699">
        <ele>119</ele>
        <time>2016-05-12T00:36:15Z</time>
      </trkpt>
      <trkpt lat="47.14353" lon="0.94747">
        <ele>121</ele>
        <time>2016-05-12T00:38:15Z</time>
      </trkpt>
      <trkpt lat="47.14338" lon="0.94787">
        <ele>120</ele>
        <time>2016-05-12T00:40:15Z</time>
      </trkpt>
      <trkpt lat="47.14327" lon="0.94823">
        <ele>120</ele>
        <time>2016-05-12T00:42:15Z</time>
      </trkpt>
      <trkpt lat="47.14316" lon="0.94865">
        <ele>121</ele>
        <time>2016-05-12T00:44:15Z</time>
      </trkpt>
      <trkpt lat="47.14308" lon="0.94891">
        <ele>121</ele>
        <time>2016-05-12T00:46:15Z</time>
      </trkpt>
      <trkpt lat="47.14305" lon="0.94904">
        <ele>121</ele>
        <time>2016-05-12T00:48:15Z</time>
      </trkpt>
      <trkpt lat="47.14304" lon="0.94918">
        <ele>121</ele>
        <time>2016-05-12T00:50:15Z</time>
      </trkpt>
      <trkpt lat="47.14302" lon="0.94941">
        <ele>121</ele>
        <time>2016-05-12T00:52:15Z</time>
      </trkpt>
      <trkpt lat="47.143" lon="0.94984">
        <ele>121</ele>
        <time>2016-05-12T00:54:15Z</time>
      </trkpt>
      <trkpt lat="47.143" lon="0.95021">
        <ele>122</ele>
        <time>2016-05-12T00:56:15Z</time>
      </trkpt>
      <trkpt lat="47.14299" lon="0.95051">
        <ele>123</ele>
        <time>2016-05-12T00:58:15Z</time>
      </trkpt>
      <trkpt lat="47.14299" lon="0.95062">
        <ele>124</ele>
        <time>2016-05-12T01:00:15Z</time>
      </trkpt>
      <trkpt lat="47.14297" lon="0.95099">
        <ele>125</ele>
        <time>2016-05-12T01:02:15Z</time>
      </trkpt>
      <trkpt lat="47.14295" lon="0.95136">
        <ele>126</ele>
        <time>2016-05-12T01:04:15Z</time>
      </trkpt>
      <trkpt lat="47.1429" lon="0.95173">
        <ele>127</ele>
        <time>2016-05-12T01:06:15Z</time>
      </trkpt>
      <trkpt lat="47.14285" lon="0.95216">
        <ele>127</ele>
        <time>2016-05-12T01:08:15Z</time>
      </trkpt>
      <trkpt lat="47.14271" lon="0.95298">
        <ele>125</ele>
        <time>2016-05-12T01:10:15Z</time>
      </trkpt>
      <trkpt lat="47.14259" lon="0.95358">
        <ele>123</ele>
        <time>2016-05-12T01:12:15Z</time>
      </trkpt>
      <trkpt lat="47.14253" lon="0.95394">
        <ele>122</ele>
        <time>2016-05-12T01:14:15Z</time>
      </trkpt>
      <trkpt lat="47.14246" lon="0.95437">
        <ele>121</ele>
        <time>2016-05-12T01:16:15Z</time>
      </trkpt>
      <trkpt lat="47.14234" lon="0.95515">
        <ele>119</ele>
        <time>2016-05-12T01:18:15Z</time>
      </trkpt>
      <trkpt lat="47.14226" lon="0.95576">
        <ele>118</ele>
        <time>2016-05-12T01:20:15Z</time>
      </trkpt>
      <trkpt lat="47.14216" lon="0.95635">
        <ele>117</ele>
        <time>2016-05-12T01:22:15Z</time>
      </trkpt>
      <trkpt lat="47.14212" lon="0.9566">
        <ele>117</ele>
        <time>2016-05-12T01:24:15Z</time>
      </trkpt>
      <trkpt lat="47.14206" lon="0.95683">
        <ele>117</ele>
        <time>2016-05-12T01:26:15Z</time>
      </trkpt>
      <trkpt lat="47.14199" lon="0.95705">
        <ele>117</ele>
        <time>2016-05-12T01:28:15Z</time>
      </trkpt>
      <trkpt lat="47.14193" lon="0.95725">
        <ele>117</ele>
        <time>2016-05-12T01:30:15Z</time>
      </trkpt>
      <trkpt lat="47.14187" lon="0.95747">
        <ele>117</ele>
        <time>2016-05-12T01:32:15Z</time>
      </trkpt>
      <trkpt lat="47.14178" lon="0.95773">
        <ele>117</ele>
        <time>2016-05-12T01:34:15Z</time>
      </trkpt>
      <trkpt lat="47.14169" lon="0.95799">
        <ele>118</ele>
        <time>2016-05-12T01:36:15Z</time>
      </trkpt>
      <trkpt lat="47.14157" lon="0.9583">
        <ele>119</ele>
        <time>2016-05-12T01:38:15Z</time>
      </trkpt>
      <trkpt lat="47.14144" lon="0.95865">
        <ele>118</ele>
        <time>2016-05-12T01:40:15Z</time>
      </trkpt>
      <trkpt lat="47.14133" lon="0.95892">
        <ele>118</ele>
        <time>2016-05-12T01:42:15Z</time>
      </trkpt>
      <trkpt lat="47.14119" lon="0.95924">
        <ele>118</ele>
        <time>2016-05-12T01:44:15Z</time>
      </trkpt>
      <trkpt lat="47.14092" lon="0.95981">
        <ele>118</ele>
        <time>2016-05-12T01:46:15Z</time>
      </trkpt>
      <trkpt lat="47.1407" lon="0.96027">
        <ele>118</ele>
        <time>2016-05-12T01:48:15Z</time>
      </trkpt>
      <trkpt lat="47.14057" lon="0.96058">
        <ele>118</ele>
        <time>2016-05-12T01:50:15Z</time>
      </trkpt>
      <trkpt lat="47.14045" lon="0.96085">
        <ele>117</ele>
        <time>2016-05-12T01:52:15Z</time>
      </trkpt>
      <trkpt lat="47.14028" lon="0.96125">
        <ele>117</ele>
        <time>2016-05-12T01:54:15Z</time>
      </trkpt>
      <trkpt lat="47.14008" lon="0.96175">
        <ele>117</ele>
        <time>2016-05-12T01:56:15Z</time>
      </trkpt>
      <trkpt lat="47.13989" lon="0.96227">
        <ele>118</ele>
        <time>2016-05-12T01:58:15Z</time>
      </trkpt>
      <trkpt lat="47.13968" lon="0.96282">
        <ele>119</ele>
        <time>2016-05-12T02:00:15Z</time>
      </trkpt>
      <trkpt lat="47.13943" lon="0.96343">
        <ele>118</ele>
        <time>2016-05-12T02:02:15Z</time>
      </trkpt>
      <trkpt lat="47.13916" lon="0.96416">
        <ele>118</ele>
        <time>2016-05-12T02:04:15Z</time>
      </trkpt>
      <trkpt lat="47.13896" lon="0.96467">
        <ele>118</ele>
        <time>2016-05-12T02:06:15Z</time>
      </trkpt>
      <trkpt lat="47.13878" lon="0.96513">
        <ele>118</ele>
        <time>2016-05-12T02:08:15Z</time>
      </trkpt>
      <trkpt lat="47.1386" lon="0.96564">
        <ele>118</ele>
        <time>2016-05-12T02:10:15Z</time>
      </trkpt>
      <trkpt lat="47.13835" lon="0.96626">
        <ele>118</ele>
        <time>2016-05-12T02:12:15Z</time>
      </trkpt>
      <trkpt lat="47.13825" lon="0.96653">
        <ele>118</ele>
        <time>2016-05-12T02:14:15Z</time>
      </trkpt>
      <trkpt lat="47.13818" lon="0.96676">
        <ele>118</ele>
        <time>2016-05-12T02:16:15Z</time>
      </trkpt>
      <trkpt lat="47.13812" lon="0.96694">
        <ele>119</ele>
        <time>2016-05-12T02:18:15Z</time>
      </trkpt>
      <trkpt lat="47.13783" lon="0.96806">
        <ele>120</ele>
        <time>2016-05-12T02:20:15Z</time>
      </trkpt>
      <trkpt lat="47.13779" lon="0.96822">
        <ele>121</ele>
        <time>2016-05-12T02:22:15Z</time>
      </trkpt>
      <trkpt lat="47.1376" lon="0.96892">
        <ele>122</ele>
        <time>2016-05-12T02:24:15Z</time>
      </trkpt>
      <trkpt lat="47.13743" lon="0.96956">
        <ele>122</ele>
        <time>2016-05-12T02:26:15Z</time>
      </trkpt>
      <trkpt lat="47.13739" lon="0.96978">
        <ele>121</ele>
        <time>2016-05-12T02:28:15Z</time>
      </trkpt>
      <trkpt lat="47.13735" lon="0.97">
        <ele>120</ele>
        <time>2016-05-12T02:30:15Z</time>
      </trkpt>
      <trkpt lat="47.13732" lon="0.97026">
        <ele>119</ele>
        <time>2016-05-12T02:32:15Z</time>
      </trkpt>
      <trkpt lat="47.13729" lon="0.97063">
        <ele>118</ele>
        <time>2016-05-12T02:34:15Z</time>
      </trkpt>
      <trkpt lat="47.13724" lon="0.97108">
        <ele>117</ele>
        <time>2016-05-12T02:36:15Z</time>
      </trkpt>
      <trkpt lat="47.13718" lon="0.97162">
        <ele>114</ele>
        <time>2016-05-12T02:38:15Z</time>
      </trkpt>
      <trkpt lat="47.13718" lon="0.97193">
        <ele>114</ele>
        <time>2016-05-12T02:40:15Z</time>
      </trkpt>
      <trkpt lat="47.13718" lon="0.97203">
        <ele>113</ele>
        <time>2016-05-12T02:42:15Z</time>
      </trkpt>
      <trkpt lat="47.13719" lon="0.97216">
        <ele>113</ele>
        <time>2016-05-12T02:44:15Z</time>
      </trkpt>
      <trkpt lat="47.13722" lon="0.9723">
        <ele>113</ele>
        <time>2016-05-12T02:46:15Z</time>
      </trkpt>
      <trkpt lat="47.13726" lon="0.97246">
        <ele>113</ele>
        <time>2016-05-12T02:48:15Z</time>
      </trkpt>
      <trkpt lat="47.13732" lon="0.97268">
        <ele>112</ele>
        <time>2016-05-12T02:50:15Z</time>
      </trkpt>
      <trkpt lat="47.13751" lon="0.97324">
        <ele>110</ele>
        <time>2016-05-12T02:52:15Z</time>
      </trkpt>
      <trkpt lat="47.13776" lon="0.97392">
        <ele>109</ele>
        <time>2016-05-12T02:54:15Z</time>
      </trkpt>
      <trkpt lat="47.13777" lon="0.97396">
        <ele>109</ele>
        <time>2016-05-12T02:56:15Z</time>
      </trkpt>
      <trkpt lat="47.13779" lon="0.97404">
        <ele>109</ele>
        <time>2016-05-12T02:58:15Z</time>
      </trkpt>
      <trkpt lat="47.13781" lon="0.97412">
        <ele>109</ele>
        <time>2016-05-12T03:00:15Z</time>
      </trkpt>
      <trkpt lat="47.13782" lon="0.9742">
        <ele>109</ele>
        <time>2016-05-12T03:02:15Z</time>
      </trkpt>
      <trkpt lat="47.13782" lon="0.97427">
        <ele>108</ele>
        <time>2016-05-12T03:04:15Z</time>
      </trkpt>
      <trkpt lat="47.13782" lon="0.97435">
        <ele>107</ele>
        <time>2016-05-12T03:06:15Z</time>
      </trkpt>
      <trkpt lat="47.13781" lon="0.97441">
        <ele>107</ele>
        <time>2016-05-12T03:08:15Z</time>
      </trkpt>
      <trkpt lat="47.13779" lon="0.97448">
        <ele>106</ele>
        <time>2016-05-12T03:10:15Z</time>
      </trkpt>
      <trkpt lat="47.13776" lon="0.97454">
        <ele>106</ele>
        <time>2016-05-12T03:12:15Z</time>
      </trkpt>
      <trkpt lat="47.13773" lon="0.97459">
        <ele>105</ele>
        <time>2016-05-12T03:14:15Z</time>
      </trkpt>
      <trkpt lat="47.13769" lon="0.97463">
        <ele>104</ele>
        <time>2016-05-12T03:16:15Z</time>
      </trkpt>
      <trkpt lat="47.13765" lon="0.97465">
        <ele>104</ele>
        <time>2016-05-12T03:18:15Z</time>
      </trkpt>
      <trkpt lat="47.1376" lon="0.97467">
        <ele>103</ele>
        <time>2016-05-12T03:20:15Z</time>
      </trkpt>
      <trkpt lat="47.13757" lon="0.97468">
        <ele>103</ele>
        <time>2016-05-12T03:22:15Z</time>
      </trkpt>
      <trkpt lat="47.13752" lon="0.97468">
        <ele>102</ele>
        <time>2016-05-12T03:24:15Z</time>
      </trkpt>
      <trkpt lat="47.13746" lon="0.97468">
        <ele>102</ele>
        <time>2016-05-12T03:26:15Z</time>
      </trkpt>
      <trkpt lat="47.13742" lon="0.97467">
        <ele>101</ele>
        <time>2016-05-12T03:28:15Z</time>
      </trkpt>
      <trkpt lat="47.13738" lon="0.97466">
        <ele>101</ele>
        <time>2016-05-12T03:30:15Z</time>
      </trkpt>
      <trkpt lat="47.13732" lon="0.97463">
        <ele>100</ele>
        <time>2016-05-12T03:32:15Z</time>
      </trkpt>
      <trkpt lat="47.13722" lon="0.97456">
        <ele>100</ele>
        <time>2016-05-12T03:34:15Z</time>
      </trkpt>
      <trkpt lat="47.13691" lon="0.97429">
        <ele>98</ele>
        <time>2016-05-12T03:36:15Z</time>
      </trkpt>
      <trkpt lat="47.13645" lon="0.97385">
        <ele>97</ele>
        <time>2016-05-12T03:38:15Z</time>
      </trkpt>
      <trkpt lat="47.13642" lon="0.97384">
        <ele>97</ele>
        <time>2016-05-12T03:40:15Z</time>
      </trkpt>
      <trkpt lat="47.13636" lon="0.97381">
        <ele>97</ele>
        <time>2016-05-12T03:42:15Z</time>
      </trkpt>
      <trkpt lat="47.13632" lon="0.97379">
        <ele>97</ele>
        <time>2016-05-12T03:44:15Z</time>
      </trkpt>
      <trkpt lat="47.13628" lon="0.97378">
        <ele>97</ele>
        <time>2016-05-12T03:46:15Z</time>
      </trkpt>
      <trkpt lat="47.13623" lon="0.97377">
        <ele>96</ele>
        <time>2016-05-12T03:48:15Z</time>
      </trkpt>
      <trkpt lat="47.13617" lon="0.97377">
        <ele>96</ele>
        <time>2016-05-12T03:50:15Z</time>
      </trkpt>
      <trkpt lat="47.13613" lon="0.97378">
        <ele>95</ele>
        <time>2016-05-12T03:52:15Z</time>
      </trkpt>
      <trkpt lat="47.13612" lon="0.97378">
        <ele>95</ele>
        <time>2016-05-12T03:54:15Z</time>
      </trkpt>
      <trkpt lat="47.13606" lon="0.97381">
        <ele>95</ele>
        <time>2016-05-12T03:56:15Z</time>
      </trkpt>
      <trkpt lat="47.13605" lon="0.97382">
        <ele>94</ele>
        <time>2016-05-12T03:58:15Z</time>
      </trkpt>
      <trkpt lat="47.13598" lon="0.97385">
        <ele>94</ele>
        <time>2016-05-12T04:00:15Z</time>
      </trkpt>
      <trkpt lat="47.13597" lon="0.97386">
        <ele>94</ele>
        <time>2016-05-12T04:02:15Z</time>
      </trkpt>
      <trkpt lat="47.13591" lon="0.9739">
        <ele>93</ele>
        <time>2016-05-12T04:04:15Z</time>
      </trkpt>
      <trkpt lat="47.13583" lon="0.97398">
        <ele>92</ele>
        <time>2016-05-12T04:06:15Z</time>
      </trkpt>
      <trkpt lat="47.13575" lon="0.97408">
        <ele>91</ele>
        <time>2016-05-12T04:08:15Z</time>
      </trkpt>
      <trkpt lat="47.13565" lon="0.97421">
        <ele>90</ele>
        <time>2016-05-12T04:10:15Z</time>
      </trkpt>
      <trkpt lat="47.13556" lon="0.97436">
        <ele>90</ele>
        <time>2016-05-12T04:12:15Z</time>
      </trkpt>
      <trkpt lat="47.13549" lon="0.97451">
        <ele>90</ele>
        <time>2016-05-12T04:14:15Z</time>
      </trkpt>
      <trkpt lat="47.13527" lon="0.97485">
        <ele>91</ele>
        <time>2016-05-12T04:16:15Z</time>
      </trkpt>
      <trkpt lat="47.13517" lon="0.975">
        <ele>92</ele>
        <time>2016-05-12T04:18:15Z</time>
      </trkpt>
      <trkpt lat="47.13509" lon="0.97509">
        <ele>94</ele>
        <time>2016-05-12T04:20:15Z</time>
      </trkpt>
      <trkpt lat="47.13504" lon="0.97514">
        <ele>95</ele>
        <time>2016-05-12T04:22:15Z</time>
      </trkpt>
      <trkpt lat="47.13499" lon="0.97517">
        <ele>95</ele>
        <time>2016-05-12T04:24:15Z</time>
      </trkpt>
      <trkpt lat="47.1349" lon="0.97521">
        <ele>97</ele>
        <time>2016-05-12T04:26:15Z</time>
      </trkpt>
      <trkpt lat="47.1348" lon="0.97524">
        <ele>99</ele>
        <time>2016-05-12T04:28:15Z</time>
      </trkpt>
      <trkpt lat="47.13475" lon="0.97525">
        <ele>100</ele>
        <time>2016-05-12T04:30:15Z</time>
      </trkpt>
      <trkpt lat="47.13468" lon="0.97524">
        <ele>100</ele>
        <time>2016-05-12T04:32:15Z</time>
      </trkpt>
      <trkpt lat="47.13458" lon="0.97521">
        <ele>101</ele>
        <time>2016-05-12T04:34:15Z</time>
      </trkpt>
      <trkpt lat="47.13449" lon="0.97517">
        <ele>102</ele>
        <time>2016-05-12T04:36:15Z</time>
      </trkpt>
      <trkpt lat="47.1341" lon="0.97483">
        <ele>103</ele>
        <time>2016-05-12T04:38:15Z</time>
      </trkpt>
      <trkpt lat="47.13379" lon="0.97449">
        <ele>103</ele>
        <time>2016-05-12T04:40:15Z</time>
      </trkpt>
      <trkpt lat="47.13337" lon="0.97399">
        <ele>106</ele>
        <time>2016-05-12T04:42:15Z</time>
      </trkpt>
      <trkpt lat="47.13311" lon="0.9737">
        <ele>104</ele>
        <time>2016-05-12T04:44:15Z</time>
      </trkpt>
      <trkpt lat="47.13302" lon="0.97362">
        <ele>104</ele>
        <time>2016-05-12T04:46:15Z</time>
      </trkpt>
      <trkpt lat="47.13298" lon="0.97358">
        <ele>103</ele>
        <time>2016-05-12T04:48:15Z</time>
      </trkpt>
      <trkpt lat="47.13289" lon="0.97352">
        <ele>103</ele>
        <time>2016-05-12T04:50:15Z</time>
      </trkpt>
      <trkpt lat="47.13279" lon="0.97348">
        <ele>103</ele>
        <time>2016-05-12T04:52:15Z</time>
      </trkpt>
      <trkpt lat="47.13269" lon="0.97345">
        <ele>103</ele>
        <time>2016-05-12T04:54:15Z</time>
      </trkpt>
      <trkpt lat="47.13259" lon="0.97344">
        <ele>103</ele>
        <time>2016-05-12T04:56:15Z</time>
      </trkpt>
      <trkpt lat="47.1325" lon="0.97346">
        <ele>103</ele>
        <time>2016-05-12T04:58:15Z</time>
      </trkpt>
      <trkpt lat="47.13241" lon="0.97348">
        <ele>103</ele>
        <time>2016-05-12T05:00:15Z</time>
      </trkpt>
      <trkpt lat="47.13231" lon="0.97354">
        <ele>103</ele>
        <time>2016-05-12T05:02:15Z</time>
      </trkpt>
      <trkpt lat="47.13222" lon="0.97363">
        <ele>103</ele>
        <time>2016-05-12T05:04:15Z</time>
      </trkpt>
      <trkpt lat="47.1321" lon="0.97378">
        <ele>105</ele>
        <time>2016-05-12T05:06:15Z</time>
      </trkpt>
      <trkpt lat="47.13195" lon="0.97402">
        <ele>107</ele>
        <time>2016-05-12T05:08:15Z</time>
      </trkpt>
      <trkpt lat="47.13181" lon="0.97436">
        <ele>110</ele>
        <time>2016-05-12T05:10:15Z</time>
      </trkpt>
      <trkpt lat="47.13164" lon="0.97478">
        <ele>112</ele>
        <time>2016-05-12T05:12:15Z</time>
      </trkpt>
      <trkpt lat="47.13146" lon="0.97523">
        <ele>115</ele>
        <time>2016-05-12T05:14:15Z</time>
      </trkpt>
      <trkpt lat="47.13136" lon="0.97547">
        <ele>116</ele>
        <time>2016-05-12T05:16:15Z</time>
      </trkpt>
      <trkpt lat="47.1313" lon="0.97561">
        <ele>116</ele>
        <time>2016-05-12T05:18:15Z</time>
      </trkpt>
      <trkpt lat="47.13125" lon="0.97574">
        <ele>116</ele>
        <time>2016-05-12T05:20:15Z</time>
      </trkpt>
      <trkpt lat="47.13099" lon="0.97639">
        <ele>116</ele>
        <time>2016-05-12T05:22:15Z</time>
      </trkpt>
      <trkpt lat="47.13078" lon="0.97693">
        <ele>115</ele>
        <time>2016-05-12T05:24:15Z</time>
      </trkpt>
      <trkpt lat="47.13058" lon="0.97742">
        <ele>114</ele>
        <time>2016-05-12T05:26:15Z</time>
      </trkpt>
      <trkpt lat="47.13039" lon="0.9779">
        <ele>113</ele>
        <time>2016-05-12T05:28:15Z</time>
      </trkpt>
      <trkpt lat="47.13034" lon="0.97805">
        <ele>113</ele>
        <time>2016-05-12T05:30:15Z</time>
      </trkpt>
      <trkpt lat="47.13034" lon="0.97805">
        <ele>113</ele>
        <time>2016-05-12T05:32:15Z</time>
      </trkpt>
      <trkpt lat="47.13095" lon="0.97891">
        <ele>116</ele>
        <time>2016-05-12T05:34:15Z</time>
      </trkpt>
      <trkpt lat="47.13128" lon="0.97937">
        <ele>117</ele>
        <time>2016-05-12T05:36:15Z</time>
      </trkpt>
      <trkpt lat="47.13151" lon="0.97968">
        <ele>118</ele>
        <time>2016-05-12T05:38:15Z</time>
      </trkpt>
      <trkpt lat="47.13198" lon="0.98032">
        <ele>119</ele>
        <time>2016-05-12T05:40:15Z</time>
      </trkpt>
      <trkpt lat="47.13216" lon="0.98055">
        <ele>120</ele>
        <time>2016-05-12T05:42:15Z</time>
      </trkpt>
      <trkpt lat="47.13249" lon="0.98098">
        <ele>120</ele>
        <time>2016-05-12T05:44:15Z</time>
      </trkpt>
      <trkpt lat="47.13265" lon="0.98117">
        <ele>120</ele>
        <time>2016-05-12T05:46:15Z</time>
      </trkpt>
      <trkpt lat="47.13277" lon="0.98132">
        <ele>120</ele>
        <time>2016-05-12T05:48:15Z</time>
      </trkpt>
      <trkpt lat="47.13291" lon="0.98147">
        <ele>120</ele>
        <time>2016-05-12T05:50:15Z</time>
      </trkpt>
      <trkpt lat="47.13307" lon="0.98161">
        <ele>119</ele>
        <time>2016-05-12T05:52:15Z</time>
      </trkpt>
      <trkpt lat="47.13307" lon="0.98161">
        <ele>119</ele>
        <time>2016-05-12T05:54:15Z</time>
      </trkpt>
      <trkpt lat="47.13305" lon="0.98166">
        <ele>119</ele>
        <time>2016-05-12T05:56:15Z</time>
      </trkpt>
      <trkpt lat="47.13305" lon="0.98168">
        <ele>119</ele>
        <time>2016-05-12T05:58:15Z</time>
      </trkpt>
      <trkpt lat="47.13304" lon="0.9817">
        <ele>119</ele>
        <time>2016-05-12T06:00:15Z</time>
      </trkpt>
      <trkpt lat="47.13305" lon="0.98174">
        <ele>119</ele>
        <time>2016-05-12T06:02:15Z</time>
      </trkpt>
      <trkpt lat="47.13305" lon="0.98176">
        <ele>119</ele>
        <time>2016-05-12T06:04:15Z</time>
      </trkpt>
      <trkpt lat="47.13307" lon="0.98179">
        <ele>119</ele>
        <time>2016-05-12T06:06:15Z</time>
      </trkpt>
      <trkpt lat="47.13309" lon="0.98182">
        <ele>119</ele>
        <time>2016-05-12T06:08:15Z</time>
      </trkpt>
      <trkpt lat="47.13284" lon="0.98246">
        <ele>118</ele>
        <time>2016-05-12T06:10:15Z</time>
      </trkpt>
      <trkpt lat="47.13275" lon="0.98262">
        <ele>118</ele>
        <time>2016-05-12T06:12:15Z</time>
      </trkpt>
      <trkpt lat="47.13272" lon="0.98268">
        <ele>118</ele>
        <time>2016-05-12T06:14:15Z</time>
      </trkpt>
      <trkpt lat="47.13268" lon="0.98274">
        <ele>118</ele>
        <time>2016-05-12T06:16:15Z</time>
      </trkpt>
      <trkpt lat="47.13265" lon="0.98278">
        <ele>118</ele>
        <time>2016-05-12T06:18:15Z</time>
      </trkpt>
      <trkpt lat="47.13253" lon="0.9829">
        <ele>118</ele>
        <time>2016-05-12T06:20:15Z</time>
      </trkpt>
      <trkpt lat="47.13245" lon="0.98296">
        <ele>117</ele>
        <time>2016-05-12T06:22:15Z</time>
      </trkpt>
      <trkpt lat="47.13239" lon="0.983">
        <ele>117</ele>
        <time>2016-05-12T06:24:15Z</time>
      </trkpt>
      <trkpt lat="47.13235" lon="0.98301">
        <ele>117</ele>
        <time>2016-05-12T06:26:15Z</time>
      </trkpt>
      <trkpt lat="47.13226" lon="0.98302">
        <ele>117</ele>
        <time>2016-05-12T06:28:15Z</time>
      </trkpt>
      <trkpt lat="47.13226" lon="0.98302">
        <ele>117</ele>
        <time>2016-05-12T06:30:15Z</time>
      </trkpt>
      <trkpt lat="47.13223" lon="0.983">
        <ele>117</ele>
        <time>2016-05-12T06:32:15Z</time>
      </trkpt>
      <trkpt lat="47.13221" lon="0.98298">
        <ele>117</ele>
        <time>2016-05-12T06:34:15Z</time>
      </trkpt>
      <trkpt lat="47.13218" lon="0.98297">
        <ele>117</ele>
        <time>2016-05-12T06:36:15Z</time>
      </trkpt>
      <trkpt lat="47.13216" lon="0.98296">
        <ele>117</ele>
        <time>2016-05-12T06:38:15Z</time>
      </trkpt>
      <trkpt lat="47.13213" lon="0.98295">
        <ele>117</ele>
        <time>2016-05-12T06:40:15Z</time>
      </trkpt>
      <trkpt lat="47.1321" lon="0.98295">
        <ele>117</ele>
        <time>2016-05-12T06:42:15Z</time>
      </trkpt>
      <trkpt lat="47.13208" lon="0.98295">
        <ele>117</ele>
        <time>2016-05-12T06:44:15Z</time>
      </trkpt>
      <trkpt lat="47.13205" lon="0.98296">
        <ele>117</ele>
        <time>2016-05-12T06:46:15Z</time>
      </trkpt>
      <trkpt lat="47.13201" lon="0.98297">
        <ele>117</ele>
        <time>2016-05-12T06:48:15Z</time>
      </trkpt>
      <trkpt lat="47.13198" lon="0.98299">
        <ele>117</ele>
        <time>2016-05-12T06:50:15Z</time>
      </trkpt>
      <trkpt lat="47.13195" lon="0.98301">
        <ele>117</ele>
        <time>2016-05-12T06:52:15Z</time>
      </trkpt>
      <trkpt lat="47.13191" lon="0.98304">
        <ele>117</ele>
        <time>2016-05-12T06:54:15Z</time>
      </trkpt>
      <trkpt lat="47.13189" lon="0.98307">
        <ele>117</ele>
        <time>2016-05-12T06:56:15Z</time>
      </trkpt>
      <trkpt lat="47.13186" lon="0.98311">
        <ele>117</ele>
        <time>2016-05-12T06:58:15Z</time>
      </trkpt>
      <trkpt lat="47.13184" lon="0.98315">
        <ele>116</ele>
        <time>2016-05-12T07:00:15Z</time>
      </trkpt>
      <trkpt lat="47.13182" lon="0.9832">
        <ele>116</ele>
        <time>2016-05-12T07:02:15Z</time>
      </trkpt>
      <trkpt lat="47.13181" lon="0.98322">
        <ele>116</ele>
        <time>2016-05-12T07:04:15Z</time>
      </trkpt>
      <trkpt lat="47.13181" lon="0.98325">
        <ele>116</ele>
        <time>2016-05-12T07:06:15Z</time>
      </trkpt>
      <trkpt lat="47.1318" lon="0.98327">
        <ele>116</ele>
        <time>2016-05-12T07:08:15Z</time>
      </trkpt>
      <trkpt lat="47.1318" lon="0.98329">
        <ele>116</ele>
        <time>2016-05-12T07:10:15Z</time>
      </trkpt>
      <trkpt lat="47.13179" lon="0.98332">
        <ele>116</ele>
        <time>2016-05-12T07:12:15Z</time>
      </trkpt>
      <trkpt lat="47.13179" lon="0.98334">
        <ele>116</ele>
        <time>2016-05-12T07:14:15Z</time>
      </trkpt>
      <trkpt lat="47.13179" lon="0.98336">
        <ele>116</ele>
        <time>2016-05-12T07:16:15Z</time>
      </trkpt>
      <trkpt lat="47.13179" lon="0.98339">
        <ele>116</ele>
        <time>2016-05-12T07:18:15Z</time>
      </trkpt>
      <trkpt lat="47.13179" lon="0.98343">
        <ele>116</ele>
        <time>2016-05-12T07:20:15Z</time>
      </trkpt>
      <trkpt lat="47.13179" lon="0.98347">
        <ele>116</ele>
        <time>2016-05-12T07:22:15Z</time>
      </trkpt>
      <trkpt lat="47.1318" lon="0.9835">
        <ele>116</ele>
        <time>2016-05-12T07:24:15Z</time>
      </trkpt>
      <trkpt lat="47.13181" lon="0.98354">
        <ele>116</ele>
        <time>2016-05-12T07:26:15Z</time>
      </trkpt>
      <trkpt lat="47.13182" lon="0.98358">
        <ele>116</ele>
        <time>2016-05-12T07:28:15Z</time>
      </trkpt>
      <trkpt lat="47.13183" lon="0.98361">
        <ele>116</ele>
        <time>2016-05-12T07:30:15Z</time>
      </trkpt>
      <trkpt lat="47.13184" lon="0.98365">
        <ele>116</ele>
        <time>2016-05-12T07:32:15Z</time>
      </trkpt>
      <trkpt lat="47.13186" lon="0.98368">
        <ele>116</ele>
        <time>2016-05-12T07:34:15Z</time>
      </trkpt>
      <trkpt lat="47.13187" lon="0.98369">
        <ele>116</ele>
        <time>2016-05-12T07:36:15Z</time>
      </trkpt>
      <trkpt lat="47.13187" lon="0.9837">
        <ele>116</ele>
        <time>2016-05-12T07:38:15Z</time>
      </trkpt>
      <trkpt lat="47.13188" lon="0.98371">
        <ele>116</ele>
        <time>2016-05-12T07:40:15Z</time>
      </trkpt>
      <trkpt lat="47.13189" lon="0.98372">
        <ele>116</ele>
        <time>2016-05-12T07:42:15Z</time>
      </trkpt>
      <trkpt lat="47.13189" lon="0.98373">
        <ele>116</ele>
        <time>2016-05-12T07:44:15Z</time>
      </trkpt>
      <trkpt lat="47.1319" lon="0.98374">
        <ele>116</ele>
        <time>2016-05-12T07:46:15Z</time>
      </trkpt>
      <trkpt lat="47.13191" lon="0.98374">
        <ele>116</ele>
        <time>2016-05-12T07:48:15Z</time>
      </trkpt>
      <trkpt lat="47.13192" lon="0.98375">
        <ele>117</ele>
        <time>2016-05-12T07:50:15Z</time>
      </trkpt>
      <trkpt lat="47.13194" lon="0.98377">
        <ele>117</ele>
        <time>2016-05-12T07:52:15Z</time>
      </trkpt>
      <trkpt lat="47.13195" lon="0.98378">
        <ele>117</ele>
        <time>2016-05-12T07:54:15Z</time>
      </trkpt>
      <trkpt lat="47.13197" lon="0.98379">
        <ele>117</ele>
        <time>2016-05-12T07:56:15Z</time>
      </trkpt>
      <trkpt lat="47.13199" lon="0.98381">
        <ele>117</ele>
        <time>2016-05-12T07:58:15Z</time>
      </trkpt>
      <trkpt lat="47.13201" lon="0.98381">
        <ele>117</ele>
        <time>2016-05-12T08:00:15Z</time>
      </trkpt>
      <trkpt lat="47.13203" lon="0.98382">
        <ele>117</ele>
        <time>2016-05-12T08:02:15Z</time>
      </trkpt>
      <trkpt lat="47.13205" lon="0.98383">
        <ele>117</ele>
        <time>2016-05-12T08:04:15Z</time>
      </trkpt>
      <trkpt lat="47.13207" lon="0.98383">
        <ele>117</ele>
        <time>2016-05-12T08:06:15Z</time>
      </trkpt>
      <trkpt lat="47.13209" lon="0.98383">
        <ele>116</ele>
        <time>2016-05-12T08:08:15Z</time>
      </trkpt>
      <trkpt lat="47.1321" lon="0.98383">
        <ele>116</ele>
        <time>2016-05-12T08:10:15Z</time>
      </trkpt>
      <trkpt lat="47.13211" lon="0.98383">
        <ele>116</ele>
        <time>2016-05-12T08:12:15Z</time>
      </trkpt>
      <trkpt lat="47.13212" lon="0.98383">
        <ele>116</ele>
        <time>2016-05-12T08:14:15Z</time>
      </trkpt>
      <trkpt lat="47.13213" lon="0.98383">
        <ele>116</ele>
        <time>2016-05-12T08:16:15Z</time>
      </trkpt>
      <trkpt lat="47.13214" lon="0.98383">
        <ele>116</ele>
        <time>2016-05-12T08:18:15Z</time>
      </trkpt>
      <trkpt lat="47.13215" lon="0.98383">
        <ele>116</ele>
        <time>2016-05-12T08:20:15Z</time>
      </trkpt>
      <trkpt lat="47.13216" lon="0.98382">
        <ele>116</ele>
        <time>2016-05-12T08:22:15Z</time>
      </trkpt>
      <trkpt lat="47.13229" lon="0.98391">
        <ele>116</ele>
        <time>2016-05-12T08:24:15Z</time>
      </trkpt>
      <trkpt lat="47.13239" lon="0.98398">
        <ele>116</ele>
        <time>2016-05-12T08:26:15Z</time>
      </trkpt>
      <trkpt lat="47.13248" lon="0.98406">
        <ele>116</ele>
        <time>2016-05-12T08:28:15Z</time>
      </trkpt>
      <trkpt lat="47.13256" lon="0.98414">
        <ele>116</ele>
        <time>2016-05-12T08:30:15Z</time>
      </trkpt>
      <trkpt lat="47.13271" lon="0.98431">
        <ele>116</ele>
        <time>2016-05-12T08:32:15Z</time>
      </trkpt>
      <trkpt lat="47.1328" lon="0.98439">
        <ele>116</ele>
        <time>2016-05-12T08:34:15Z</time>
      </trkpt>
      <trkpt lat="47.13287" lon="0.9845">
        <ele>116</ele>
        <time>2016-05-12T08:36:15Z</time>
      </trkpt>
      <trkpt lat="47.13292" lon="0.98458">
        <ele>116</ele>
        <time>2016-05-12T08:38:15Z</time>
      </trkpt>
      <trkpt lat="47.13294" lon="0.98462">
        <ele>115</ele>
        <time>2016-05-12T08:40:15Z</time>
      </trkpt>
      <trkpt lat="47.13298" lon="0.98468">
        <ele>115</ele>
        <time>2016-05-12T08:42:15Z</time>
      </trkpt>
      <trkpt lat="47.13301" lon="0.98474">
        <ele>115</ele>
        <time>2016-05-12T08:44:15Z</time>
      </trkpt>
      <trkpt lat="47.13305" lon="0.98484">
        <ele>115</ele>
        <time>2016-05-12T08:46:15Z</time>
      </trkpt>
      <trkpt lat="47.13308" lon="0.9849">
        <ele>115</ele>
        <time>2016-05-12T08:48:15Z</time>
      </trkpt>
      <trkpt lat="47.13313" lon="0.98501">
        <ele>116</ele>
        <time>2016-05-12T08:50:15Z</time>
      </trkpt>
      <trkpt lat="47.1333" lon="0.98545">
        <ele>115</ele>
        <time>2016-05-12T08:52:15Z</time>
      </trkpt>
      <trkpt lat="47.13344" lon="0.98579">
        <ele>115</ele>
        <time>2016-05-12T08:54:15Z</time>
      </trkpt>
      <trkpt lat="47.13352" lon="0.98597">
        <ele>114</ele>
        <time>2016-05-12T08:56:15Z</time>
      </trkpt>
      <trkpt lat="47.1336" lon="0.98613">
        <ele>114</ele>
        <time>2016-05-12T08:58:15Z</time>
      </trkpt>
      <trkpt lat="47.13367" lon="0.98626">
        <ele>113</ele>
        <time>2016-05-12T09:00:15Z</time>
      </trkpt>
      <trkpt lat="47.13374" lon="0.98641">
        <ele>112</ele>
        <time>2016-05-12T09:02:15Z</time>
      </trkpt>
      <trkpt lat="47.13388" lon="0.98665">
        <ele>111</ele>
        <time>2016-05-12T09:04:15Z</time>
      </trkpt>
      <trkpt lat="47.1341" lon="0.987">
        <ele>109</ele>
        <time>2016-05-12T09:06:15Z</time>
      </trkpt>
      <trkpt lat="47.13432" lon="0.98737">
        <ele>107</ele>
        <time>2016-05-12T09:08:15Z</time>
      </trkpt>
      <trkpt lat="47.13458" lon="0.98781">
        <ele>107</ele>
        <time>2016-05-12T09:10:15Z</time>
      </trkpt>
      <trkpt lat="47.13479" lon="0.98814">
        <ele>107</ele>
        <time>2016-05-12T09:12:15Z</time>
      </trkpt>
      <trkpt lat="47.13509" lon="0.98864">
        <ele>105</ele>
        <time>2016-05-12T09:14:15Z</time>
      </trkpt>
      <trkpt lat="47.13537" lon="0.9891">
        <ele>104</ele>
        <time>2016-05-12T09:16:15Z</time>
      </trkpt>
      <trkpt lat="47.13568" lon="0.98962">
        <ele>103</ele>
        <time>2016-05-12T09:18:15Z</time>
      </trkpt>
      <trkpt lat="47.13602" lon="0.99017">
        <ele>101</ele>
        <time>2016-05-12T09:20:15Z</time>
      </trkpt>
      <trkpt lat="47.13633" lon="0.99067">
        <ele>100</ele>
        <time>2016-05-12T09:22:15Z</time>
      </trkpt>
      <trkpt lat="47.13667" lon="0.99125">
        <ele>99</ele>
        <time>2016-05-12T09:24:15Z</time>
      </trkpt>
      <trkpt lat="47.13702" lon="0.99182">
        <ele>98</ele>
        <time>2016-05-12T09:26:15Z</time>
      </trkpt>
      <trkpt lat="47.13731" lon="0.99231">
        <ele>97</ele>
        <time>2016-05-12T09:28:15Z</time>
      </trkpt>
      <trkpt lat="47.13747" lon="0.99258">
        <ele>97</ele>
        <time>2016-05-12T09:30:15Z</time>
      </trkpt>
      <trkpt lat="47.13765" lon="0.99291">
        <ele>95</ele>
        <time>2016-05-12T09:32:15Z</time>
      </trkpt>
      <trkpt lat="47.13779" lon="0.99316">
        <ele>94</ele>
        <time>2016-05-12T09:34:15Z</time>
      </trkpt>
      <trkpt lat="47.13792" lon="0.99343">
        <ele>93</ele>
        <time>2016-05-12T09:36:15Z</time>
      </trkpt>
      <trkpt lat="47.13813" lon="0.99388">
        <ele>93</ele>
        <time>2016-05-12T09:38:15Z</time>
      </trkpt>
      <trkpt lat="47.13834" lon="0.99434">
        <ele>91</ele>
        <time>2016-05-12T09:40:15Z</time>
      </trkpt>
      <trkpt lat="47.13847" lon="0.99463">
        <ele>91</ele>
        <time>2016-05-12T09:42:15Z</time>
      </trkpt>
      <trkpt lat="47.13863" lon="0.995">
        <ele>90</ele>
        <time>2016-05-12T09:44:15Z</time>
      </trkpt>
      <trkpt lat="47.13883" lon="0.99544">
        <ele>89</ele>
        <time>2016-05-12T09:46:15Z</time>
      </trkpt>
      <trkpt lat="47.13896" lon="0.99573">
        <ele>89</ele>
        <time>2016-05-12T09:48:15Z</time>
      </trkpt>
      <trkpt lat="47.13911" lon="0.99608">
        <ele>88</ele>
        <time>2016-05-12T09:50:15Z</time>
      </trkpt>
      <trkpt lat="47.1393" lon="0.99651">
        <ele>88</ele>
        <time>2016-05-12T09:52:15Z</time>
      </trkpt>
      <trkpt lat="47.13944" lon="0.99683">
        <ele>89</ele>
        <time>2016-05-12T09:54:15Z</time>
      </trkpt>
      <trkpt lat="47.13959" lon="0.99717">
        <ele>88</ele>
        <time>2016-05-12T09:56:15Z</time>
      </trkpt>
      <trkpt lat="47.1398" lon="0.99764">
        <ele>86</ele>
        <time>2016-05-12T09:58:15Z</time>
      </trkpt>
      <trkpt lat="47.13996" lon="0.99802">
        <ele>84</ele>
        <time>2016-05-12T10:00:15Z</time>
      </trkpt>
      <trkpt lat="47.14017" lon="0.99848">
        <ele>83</ele>
        <time>2016-05-12T10:02:15Z</time>
      </trkpt>
      <trkpt lat="47.14019" lon="0.99858">
        <ele>83</ele>
        <time>2016-05-12T10:04:15Z</time>
      </trkpt>
      <trkpt lat="47.14033" lon="0.99895">
        <ele>82</ele>
        <time>2016-05-12T10:06:15Z</time>
      </trkpt>
      <trkpt lat="47.14041" lon="0.99915">
        <ele>81</ele>
        <time>2016-05-12T10:08:15Z</time>
      </trkpt>
      <trkpt lat="47.14049" lon="0.99941">
        <ele>80</ele>
        <time>2016-05-12T10:10:15Z</time>
      </trkpt>
      <trkpt lat="47.14053" lon="0.99954">
        <ele>79</ele>
        <time>2016-05-12T10:12:15Z</time>
      </trkpt>
      <trkpt lat="47.14058" lon="0.99975">
        <ele>78</ele>
        <time>2016-05-12T10:14:15Z</time>
      </trkpt>
      <trkpt lat="47.14061" lon="0.99985">
        <ele>77</ele>
        <time>2016-05-12T10:16:15Z</time>
      </trkpt>
      <trkpt lat="47.14062" lon="0.9999">
        <ele>77</ele>
        <time>2016-05-12T10:18:15Z</time>
      </trkpt>
      <trkpt lat="47.14062" lon="0.99997">
        <ele>76</ele>
        <time>2016-05-12T10:20:15Z</time>
      </trkpt>
      <trkpt lat="47.14062" lon="1">
        <ele>76</ele>
        <time>2016-05-12T10:22:15Z</time>
      </trkpt>
      <trkpt lat="47.14062" lon="1.00003">
        <ele>76</ele>
        <time>2016-05-12T10:24:15Z</time>
      </trkpt>
      <trkpt lat="47.14061" lon="1.00008">
        <ele>76</ele>
        <time>2016-05-12T10:26:15Z</time>
      </trkpt>
      <trkpt lat="47.14059" lon="1.00015">
        <ele>76</ele>
        <time>2016-05-12T10:28:15Z</time>
      </trkpt>
      <trkpt lat="47.14056" lon="1.00026">
        <ele>75</ele>
        <time>2016-05-12T10:30:15Z</time>
      </trkpt>
      <trkpt lat="47.14056" lon="1.00026">
        <ele>75</ele>
        <time>2016-05-12T10:32:15Z</time>
      </trkpt>
      <trkpt lat="47.14053" lon="1.00027">
        <ele>75</ele>
        <time>2016-05-12T10:34:15Z</time>
      </trkpt>
      <trkpt lat="47.14051" lon="1.00028">
        <ele>75</ele>
        <time>2016-05-12T10:36:15Z</time>
      </trkpt>
      <trkpt lat="47.1405" lon="1.00029">
        <ele>75</ele>
        <time>2016-05-12T10:38:15Z</time>
      </trkpt>
      <trkpt lat="47.14048" lon="1.0003">
        <ele>75</ele>
        <time>2016-05-12T10:40:15Z</time>
      </trkpt>
      <trkpt lat="47.14046" lon="1.00032">
        <ele>75</ele>
        <time>2016-05-12T10:42:15Z</time>
      </trkpt>
      <trkpt lat="47.14044" lon="1.00034">
        <ele>75</ele>
        <time>2016-05-12T10:44:15Z</time>
      </trkpt>
      <trkpt lat="47.14042" lon="1.00036">
        <ele>75</ele>
        <time>2016-05-12T10:46:15Z</time>
      </trkpt>
      <trkpt lat="47.14041" lon="1.00038">
        <ele>75</ele>
        <time>2016-05-12T10:48:15Z</time>
      </trkpt>
      <trkpt lat="47.14039" lon="1.00041">
        <ele>75</ele>
        <time>2016-05-12T10:50:15Z</time>
      </trkpt>
      <trkpt lat="47.14038" lon="1.00044">
        <ele>75</ele>
        <time>2016-05-12T10:52:15Z</time>
      </trkpt>
      <trkpt lat="47.14037" lon="1.00047">
        <ele>75</ele>
        <time>2016-05-12T10:54:15Z</time>
      </trkpt>
      <trkpt lat="47.14035" lon="1.0005">
        <ele>74</ele>
        <time>2016-05-12T10:56:15Z</time>
      </trkpt>
      <trkpt lat="47.14035" lon="1.00053">
        <ele>74</ele>
        <time>2016-05-12T10:58:15Z</time>
      </trkpt>
      <trkpt lat="47.14034" lon="1.00057">
        <ele>74</ele>
        <time>2016-05-12T11:00:15Z</time>
      </trkpt>
      <trkpt lat="47.14034" lon="1.00061">
        <ele>74</ele>
        <time>2016-05-12T11:02:15Z</time>
      </trkpt>
      <trkpt lat="47.14033" lon="1.00064">
        <ele>74</ele>
        <time>2016-05-12T11:04:15Z</time>
      </trkpt>
      <trkpt lat="47.14033" lon="1.00066">
        <ele>74</ele>
        <time>2016-05-12T11:06:15Z</time>
      </trkpt>
      <trkpt lat="47.14033" lon="1.00067">
        <ele>74</ele>
        <time>2016-05-12T11:08:15Z</time>
      </trkpt>
      <trkpt lat="47.14034" lon="1.00069">
        <ele>74</ele>
        <time>2016-05-12T11:10:15Z</time>
      </trkpt>
      <trkpt lat="47.14034" lon="1.00071">
        <ele>74</ele>
        <time>2016-05-12T11:12:15Z</time>
      </trkpt>
      <trkpt lat="47.14034" lon="1.00072">
        <ele>73</ele>
        <time>2016-05-12T11:14:15Z</time>
      </trkpt>
      <trkpt lat="47.14034" lon="1.00074">
        <ele>73</ele>
        <time>2016-05-12T11:16:15Z</time>
      </trkpt>
      <trkpt lat="47.14034" lon="1.00075">
        <ele>73</ele>
        <time>2016-05-12T11:18:15Z</time>
      </trkpt>
      <trkpt lat="47.14035" lon="1.00078">
        <ele>73</ele>
        <time>2016-05-12T11:20:15Z</time>
      </trkpt>
      <trkpt lat="47.14034" lon="1.00086">
        <ele>73</ele>
        <time>2016-05-12T11:22:15Z</time>
      </trkpt>
      <trkpt lat="47.14031" lon="1.00095">
        <ele>73</ele>
        <time>2016-05-12T11:24:15Z</time>
      </trkpt>
      <trkpt lat="47.14028" lon="1.00102">
        <ele>73</ele>
        <time>2016-05-12T11:26:15Z</time>
      </trkpt>
      <trkpt lat="47.14025" lon="1.00107">
        <ele>72</ele>
        <time>2016-05-12T11:28:15Z</time>
      </trkpt>
      <trkpt lat="47.14021" lon="1.00115">
        <ele>72</ele>
        <time>2016-05-12T11:30:15Z</time>
      </trkpt>
      <trkpt lat="47.14017" lon="1.00119">
        <ele>72</ele>
        <time>2016-05-12T11:32:15Z</time>
      </trkpt>
      <trkpt lat="47.14014" lon="1.00123">
        <ele>72</ele>
        <time>2016-05-12T11:34:15Z</time>
      </trkpt>
      <trkpt lat="47.1401" lon="1.00127">
        <ele>72</ele>
        <time>2016-05-12T11:36:15Z</time>
      </trkpt>
      <trkpt lat="47.14008" lon="1.00131">
        <ele>72</ele>
        <time>2016-05-12T11:38:15Z</time>
      </trkpt>
      <trkpt lat="47.14006" lon="1.00138">
        <ele>72</ele>
        <time>2016-05-12T11:40:15Z</time>
      </trkpt>
      <trkpt lat="47.14003" lon="1.00154">
        <ele>71</ele>
        <time>2016-05-12T11:42:15Z</time>
      </trkpt>
      <trkpt lat="47.14" lon="1.00168">
        <ele>71</ele>
        <time>2016-05-12T11:44:15Z</time>
      </trkpt>
      <trkpt lat="47.13987" lon="1.00231">
        <ele>70</ele>
        <time>2016-05-12T11:46:15Z</time>
      </trkpt>
      <trkpt lat="47.13954" lon="1.00395">
        <ele>68</ele>
        <time>2016-05-12T11:48:15Z</time>
      </trkpt>
      <trkpt lat="47.13952" lon="1.00407">
        <ele>68</ele>
        <time>2016-05-12T11:50:15Z</time>
      </trkpt>
      <trkpt lat="47.13951" lon="1.00422">
        <ele>68</ele>
        <time>2016-05-12T11:52:15Z</time>
      </trkpt>
      <trkpt lat="47.1395" lon="1.00432">
        <ele>68</ele>
        <time>2016-05-12T11:54:15Z</time>
      </trkpt>
      <trkpt lat="47.1395" lon="1.00444">
        <ele>69</ele>
        <time>2016-05-12T11:56:15Z</time>
      </trkpt>
      <trkpt lat="47.13951" lon="1.00488">
        <ele>69</ele>
        <time>2016-05-12T11:58:15Z</time>
      </trkpt>
      <trkpt lat="47.13952" lon="1.00549">
        <ele>70</ele>
        <time>2016-05-12T12:00:15Z</time>
      </trkpt>
      <trkpt lat="47.13953" lon="1.006">
        <ele>70</ele>
        <time>2016-05-12T12:02:15Z</time>
      </trkpt>
      <trkpt lat="47.13955" lon="1.00644">
        <ele>70</ele>
        <time>2016-05-12T12:04:15Z</time>
      </trkpt>
      <trkpt lat="47.13956" lon="1.00669">
        <ele>71</ele>
        <time>2016-05-12T12:06:15Z</time>
      </trkpt>
      <trkpt lat="47.13957" lon="1.00683">
        <ele>71</ele>
        <time>2016-05-12T12:08:15Z</time>
      </trkpt>
      <trkpt lat="47.13958" lon="1.00698">
        <ele>71</ele>
        <time>2016-05-12T12:10:15Z</time>
      </trkpt>
      <trkpt lat="47.13961" lon="1.00712">
        <ele>71</ele>
        <time>2016-05-12T12:12:15Z</time>
      </trkpt>
      <trkpt lat="47.13964" lon="1.00726">
        <ele>71</ele>
        <time>2016-05-12T12:14:15Z</time>
      </trkpt>
      <trkpt lat="47.13967" lon="1.00739">
        <ele>71</ele>
        <time>2016-05-12T12:16:15Z</time>
      </trkpt>
      <trkpt lat="47.13971" lon="1.0075">
        <ele>72</ele>
        <time>2016-05-12T12:18:15Z</time>
      </trkpt>
      <trkpt lat="47.13974" lon="1.00758">
        <ele>72</ele>
        <time>2016-05-12T12:20:15Z</time>
      </trkpt>
      <trkpt lat="47.13982" lon="1.00777">
        <ele>72</ele>
        <time>2016-05-12T12:22:15Z</time>
      </trkpt>
      <trkpt lat="47.13985" lon="1.00785">
        <ele>72</ele>
        <time>2016-05-12T12:24:15Z</time>
      </trkpt>
      <trkpt lat="47.14026" lon="1.00851">
        <ele>73</ele>
        <time>2016-05-12T12:26:15Z</time>
      </trkpt>
      <trkpt lat="47.14026" lon="1.00851">
        <ele>73</ele>
        <time>2016-05-12T12:28:15Z</time>
      </trkpt>
      <trkpt lat="47.14026" lon="1.00852">
        <ele>73</ele>
        <time>2016-05-12T12:30:15Z</time>
      </trkpt>
      <trkpt lat="47.14025" lon="1.00854">
        <ele>73</ele>
        <time>2016-05-12T12:32:15Z</time>
      </trkpt>
      <trkpt lat="47.14025" lon="1.00855">
        <ele>73</ele>
        <time>2016-05-12T12:34:15Z</time>
      </trkpt>
      <trkpt lat="47.14025" lon="1.00856">
        <ele>73</ele>
        <time>2016-05-12T12:36:15Z</time>
      </trkpt>
      <trkpt lat="47.14025" lon="1.00858">
        <ele>73</ele>
        <time>2016-05-12T12:38:15Z</time>
      </trkpt>
      <trkpt lat="47.14025" lon="1.00859">
        <ele>73</ele>
        <time>2016-05-12T12:40:15Z</time>
      </trkpt>
      <trkpt lat="47.14025" lon="1.0086">
        <ele>73</ele>
        <time>2016-05-12T12:42:15Z</time>
      </trkpt>
      <trkpt lat="47.14025" lon="1.00861">
        <ele>73</ele>
        <time>2016-05-12T12:44:15Z</time>
      </trkpt>
      <trkpt lat="47.14026" lon="1.00864">
        <ele>74</ele>
        <time>2016-05-12T12:46:15Z</time>
      </trkpt>
      <trkpt lat="47.14006" lon="1.00891">
        <ele>74</ele>
        <time>2016-05-12T12:48:15Z</time>
      </trkpt>
      <trkpt lat="47.13998" lon="1.00902">
        <ele>74</ele>
        <time>2016-05-12T12:50:15Z</time>
      </trkpt>
      <trkpt lat="47.13997" lon="1.00903">
        <ele>74</ele>
        <time>2016-05-12T12:52:15Z</time>
      </trkpt>
      <trkpt lat="47.13978" lon="1.00923">
        <ele>73</ele>
        <time>2016-05-12T12:54:15Z</time>
      </trkpt>
      <trkpt lat="47.13967" lon="1.00934">
        <ele>73</ele>
        <time>2016-05-12T12:56:15Z</time>
      </trkpt>
      <trkpt lat="47.13961" lon="1.0094">
        <ele>72</ele>
        <time>2016-05-12T12:58:15Z</time>
      </trkpt>
      <trkpt lat="47.13953" lon="1.00946">
        <ele>72</ele>
        <time>2016-05-12T13:00:15Z</time>
      </trkpt>
      <trkpt lat="47.13945" lon="1.00951">
        <ele>72</ele>
        <time>2016-05-12T13:02:15Z</time>
      </trkpt>
      <trkpt lat="47.13941" lon="1.00953">
        <ele>72</ele>
        <time>2016-05-12T13:04:15Z</time>
      </trkpt>
      <trkpt lat="47.13924" lon="1.00961">
        <ele>71</ele>
        <time>2016-05-12T13:06:15Z</time>
      </trkpt>
      <trkpt lat="47.13905" lon="1.0097">
        <ele>71</ele>
        <time>2016-05-12T13:08:15Z</time>
      </trkpt>
      <trkpt lat="47.13899" lon="1.00973">
        <ele>71</ele>
        <time>2016-05-12T13:10:15Z</time>
      </trkpt>
      <trkpt lat="47.13885" lon="1.00979">
        <ele>71</ele>
        <time>2016-05-12T13:12:15Z</time>
      </trkpt>
      <trkpt lat="47.13879" lon="1.00982">
        <ele>71</ele>
        <time>2016-05-12T13:14:15Z</time>
      </trkpt>
      <trkpt lat="47.13877" lon="1.00983">
        <ele>71</ele>
        <time>2016-05-12T13:16:15Z</time>
      </trkpt>
      <trkpt lat="47.13855" lon="1.00996">
        <ele>72</ele>
        <time>2016-05-12T13:18:15Z</time>
      </trkpt>
      <trkpt lat="47.13848" lon="1.01">
        <ele>72</ele>
        <time>2016-05-12T13:20:15Z</time>
      </trkpt>
      <trkpt lat="47.13832" lon="1.01007">
        <ele>72</ele>
        <time>2016-05-12T13:22:15Z</time>
      </trkpt>
      <trkpt lat="47.13824" lon="1.01011">
        <ele>72</ele>
        <time>2016-05-12T13:24:15Z</time>
      </trkpt>
      <trkpt lat="47.13813" lon="1.01012">
        <ele>72</ele>
        <time>2016-05-12T13:26:15Z</time>
      </trkpt>
      <trkpt lat="47.13806" lon="1.01013">
        <ele>73</ele>
        <time>2016-05-12T13:28:15Z</time>
      </trkpt>
      <trkpt lat="47.13802" lon="1.01013">
        <ele>73</ele>
        <time>2016-05-12T13:30:15Z</time>
      </trkpt>
      <trkpt lat="47.13798" lon="1.01013">
        <ele>73</ele>
        <time>2016-05-12T13:32:15Z</time>
      </trkpt>
      <trkpt lat="47.13782" lon="1.01011">
        <ele>73</ele>
        <time>2016-05-12T13:34:15Z</time>
      </trkpt>
      <trkpt lat="47.13768" lon="1.01009">
        <ele>73</ele>
        <time>2016-05-12T13:36:15Z</time>
      </trkpt>
      <trkpt lat="47.13759" lon="1.01007">
        <ele>73</ele>
        <time>2016-05-12T13:38:15Z</time>
      </trkpt>
      <trkpt lat="47.13729" lon="1.01">
        <ele>73</ele>
        <time>2016-05-12T13:40:15Z</time>
      </trkpt>
      <trkpt lat="47.13722" lon="1.00999">
        <ele>73</ele>
        <time>2016-05-12T13:42:15Z</time>
      </trkpt>
      <trkpt lat="47.13716" lon="1.00997">
        <ele>73</ele>
        <time>2016-05-12T13:44:15Z</time>
      </trkpt>
      <trkpt lat="47.13704" lon="1.00994">
        <ele>72</ele>
        <time>2016-05-12T13:46:15Z</time>
      </trkpt>
      <trkpt lat="47.13691" lon="1.00992">
        <ele>72</ele>
        <time>2016-05-12T13:48:15Z</time>
      </trkpt>
      <trkpt lat="47.13671" lon="1.0099">
        <ele>72</ele>
        <time>2016-05-12T13:50:15Z</time>
      </trkpt>
      <trkpt lat="47.13649" lon="1.00989">
        <ele>72</ele>
        <time>2016-05-12T13:52:15Z</time>
      </trkpt>
      <trkpt lat="47.1364" lon="1.00989">
        <ele>72</ele>
        <time>2016-05-12T13:54:15Z</time>
      </trkpt>
      <trkpt lat="47.1363" lon="1.00989">
        <ele>72</ele>
        <time>2016-05-12T13:56:15Z</time>
      </trkpt>
      <trkpt lat="47.13621" lon="1.0099">
        <ele>72</ele>
        <time>2016-05-12T13:58:15Z</time>
      </trkpt>
      <trkpt lat="47.13615" lon="1.00991">
        <ele>72</ele>
        <time>2016-05-12T14:00:15Z</time>
      </trkpt>
      <trkpt lat="47.13605" lon="1.00992">
        <ele>72</ele>
        <time>2016-05-12T14:02:15Z</time>
      </trkpt>
      <trkpt lat="47.13598" lon="1.00993">
        <ele>72</ele>
        <time>2016-05-12T14:04:15Z</time>
      </trkpt>
      <trkpt lat="47.13576" lon="1.00996">
        <ele>72</ele>
        <time>2016-05-12T14:06:15Z</time>
      </trkpt>
      <trkpt lat="47.13566" lon="1.00997">
        <ele>72</ele>
        <time>2016-05-12T14:08:15Z</time>
      </trkpt>
      <trkpt lat="47.13551" lon="1.01">
        <ele>72</ele>
        <time>2016-05-12T14:10:15Z</time>
      </trkpt>
      <trkpt lat="47.13533" lon="1.01002">
        <ele>72</ele>
        <time>2016-05-12T14:12:15Z</time>
      </trkpt>
      <trkpt lat="47.13525" lon="1.01002">
        <ele>72</ele>
        <time>2016-05-12T14:14:15Z</time>
      </trkpt>
      <trkpt lat="47.13507" lon="1.01003">
        <ele>72</ele>
        <time>2016-05-12T14:16:15Z</time>
      </trkpt>
      <trkpt lat="47.13496" lon="1.01003">
        <ele>72</ele>
        <time>2016-05-12T14:18:15Z</time>
      </trkpt>
      <trkpt lat="47.13476" lon="1.01006">
        <ele>72</ele>
        <time>2016-05-12T14:20:15Z</time>
      </trkpt>
      <trkpt lat="47.13444" lon="1.01015">
        <ele>72</ele>
        <time>2016-05-12T14:22:15Z</time>
      </trkpt>
      <trkpt lat="47.13441" lon="1.01016">
        <ele>72</ele>
        <time>2016-05-12T14:24:15Z</time>
      </trkpt>
      <trkpt lat="47.13427" lon="1.0102">
        <ele>73</ele>
        <time>2016-05-12T14:26:15Z</time>
      </trkpt>
      <trkpt lat="47.13411" lon="1.01026">
        <ele>73</ele>
        <time>2016-05-12T14:28:15Z</time>
      </trkpt>
      <trkpt lat="47.13394" lon="1.01031">
        <ele>72</ele>
        <time>2016-05-12T14:30:15Z</time>
      </trkpt>
      <trkpt lat="47.13387" lon="1.01035">
        <ele>72</ele>
        <time>2016-05-12T14:32:15Z</time>
      </trkpt>
      <trkpt lat="47.13359" lon="1.01046">
        <ele>72</ele>
        <time>2016-05-12T14:34:15Z</time>
      </trkpt>
      <trkpt lat="47.1334" lon="1.01054">
        <ele>72</ele>
        <time>2016-05-12T14:36:15Z</time>
      </trkpt>
      <trkpt lat="47.13337" lon="1.01056">
        <ele>72</ele>
        <time>2016-05-12T14:38:15Z</time>
      </trkpt>
      <trkpt lat="47.13328" lon="1.01061">
        <ele>72</ele>
        <time>2016-05-12T14:40:15Z</time>
      </trkpt>
      <trkpt lat="47.13321" lon="1.01064">
        <ele>72</ele>
        <time>2016-05-12T14:42:15Z</time>
      </trkpt>
      <trkpt lat="47.13315" lon="1.01069">
        <ele>72</ele>
        <time>2016-05-12T14:44:15Z</time>
      </trkpt>
      <trkpt lat="47.13311" lon="1.01073">
        <ele>72</ele>
        <time>2016-05-12T14:46:15Z</time>
      </trkpt>
      <trkpt lat="47.13307" lon="1.01077">
        <ele>72</ele>
        <time>2016-05-12T14:48:15Z</time>
      </trkpt>
      <trkpt lat="47.13302" lon="1.01081">
        <ele>72</ele>
        <time>2016-05-12T14:50:15Z</time>
      </trkpt>
      <trkpt lat="47.13285" lon="1.01095">
        <ele>72</ele>
        <time>2016-05-12T14:52:15Z</time>
      </trkpt>
      <trkpt lat="47.13273" lon="1.01104">
        <ele>72</ele>
        <time>2016-05-12T14:54:15Z</time>
      </trkpt>
      <trkpt lat="47.13255" lon="1.01114">
        <ele>72</ele>
        <time>2016-05-12T14:56:15Z</time>
      </trkpt>
      <trkpt lat="47.13243" lon="1.01121">
        <ele>72</ele>
        <time>2016-05-12T14:58:15Z</time>
      </trkpt>
      <trkpt lat="47.13239" lon="1.01123">
        <ele>72</ele>
        <time>2016-05-12T15:00:15Z</time>
      </trkpt>
      <trkpt lat="47.13236" lon="1.01123">
        <ele>72</ele>
        <time>2016-05-12T15:02:15Z</time>
      </trkpt>
      <trkpt lat="47.13233" lon="1.01124">
        <ele>72</ele>
        <time>2016-05-12T15:04:15Z</time>
      </trkpt>
      <trkpt lat="47.1323" lon="1.01124">
        <ele>72</ele>
        <time>2016-05-12T15:06:15Z</time>
      </trkpt>
      <trkpt lat="47.13228" lon="1.01125">
        <ele>72</ele>
        <time>2016-05-12T15:08:15Z</time>
      </trkpt>
      <trkpt lat="47.13217" lon="1.01124">
        <ele>72</ele>
        <time>2016-05-12T15:10:15Z</time>
      </trkpt>
      <trkpt lat="47.13212" lon="1.01123">
        <ele>72</ele>
        <time>2016-05-12T15:12:15Z</time>
      </trkpt>
      <trkpt lat="47.13205" lon="1.01123">
        <ele>73</ele>
        <time>2016-05-12T15:14:15Z</time>
      </trkpt>
      <trkpt lat="47.13195" lon="1.01123">
        <ele>73</ele>
        <time>2016-05-12T15:16:15Z</time>
      </trkpt>
      <trkpt lat="47.13188" lon="1.01124">
        <ele>73</ele>
        <time>2016-05-12T15:18:15Z</time>
      </trkpt>
      <trkpt lat="47.13182" lon="1.01123">
        <ele>73</ele>
        <time>2016-05-12T15:20:15Z</time>
      </trkpt>
      <trkpt lat="47.13171" lon="1.0112">
        <ele>73</ele>
        <time>2016-05-12T15:22:15Z</time>
      </trkpt>
      <trkpt lat="47.13166" lon="1.01117">
        <ele>73</ele>
        <time>2016-05-12T15:24:15Z</time>
      </trkpt>
      <trkpt lat="47.13152" lon="1.01109">
        <ele>73</ele>
        <time>2016-05-12T15:26:15Z</time>
      </trkpt>
      <trkpt lat="47.13143" lon="1.01105">
        <ele>73</ele>
        <time>2016-05-12T15:28:15Z</time>
      </trkpt>
      <trkpt lat="47.13135" lon="1.01101">
        <ele>73</ele>
        <time>2016-05-12T15:30:15Z</time>
      </trkpt>
      <trkpt lat="47.1313" lon="1.01098">
        <ele>73</ele>
        <time>2016-05-12T15:32:15Z</time>
      </trkpt>
      <trkpt lat="47.13126" lon="1.01096">
        <ele>73</ele>
        <time>2016-05-12T15:34:15Z</time>
      </trkpt>
      <trkpt lat="47.13122" lon="1.01095">
        <ele>73</ele>
        <time>2016-05-12T15:36:15Z</time>
      </trkpt>
      <trkpt lat="47.13117" lon="1.01094">
        <ele>72</ele>
        <time>2016-05-12T15:38:15Z</time>
      </trkpt>
      <trkpt lat="47.13112" lon="1.01094">
        <ele>72</ele>
        <time>2016-05-12T15:40:15Z</time>
      </trkpt>
      <trkpt lat="47.13082" lon="1.01105">
        <ele>72</ele>
        <time>2016-05-12T15:42:15Z</time>
      </trkpt>
      <trkpt lat="47.13074" lon="1.01107">
        <ele>72</ele>
        <time>2016-05-12T15:44:15Z</time>
      </trkpt>
      <trkpt lat="47.13026" lon="1.01123">
        <ele>73</ele>
        <time>2016-05-12T15:46:15Z</time>
      </trkpt>
      <trkpt lat="47.12989" lon="1.01137">
        <ele>74</ele>
        <time>2016-05-12T15:48:15Z</time>
      </trkpt>
      <trkpt lat="47.1297" lon="1.01144">
        <ele>74</ele>
        <time>2016-05-12T15:50:15Z</time>
      </trkpt>
      <trkpt lat="47.12958" lon="1.01147">
        <ele>74</ele>
        <time>2016-05-12T15:52:15Z</time>
      </trkpt>
      <trkpt lat="47.12952" lon="1.01148">
        <ele>74</ele>
        <time>2016-05-12T15:54:15Z</time>
      </trkpt>
      <trkpt lat="47.12948" lon="1.01149">
        <ele>74</ele>
        <time>2016-05-12T15:56:15Z</time>
      </trkpt>
      <trkpt lat="47.12947" lon="1.01149">
        <ele>74</ele>
        <time>2016-05-12T15:58:15Z</time>
      </trkpt>
      <trkpt lat="47.1294" lon="1.01148">
        <ele>74</ele>
        <time>2016-05-12T16:00:15Z</time>
      </trkpt>
      <trkpt lat="47.1294" lon="1.01148">
        <ele>74</ele>
        <time>2016-05-12T16:02:15Z</time>
      </trkpt>
      <trkpt lat="47.12935" lon="1.01152">
        <ele>75</ele>
        <time>2016-05-12T16:04:15Z</time>
      </trkpt>
      <trkpt lat="47.12933" lon="1.01153">
        <ele>75</ele>
        <time>2016-05-12T16:06:15Z</time>
      </trkpt>
      <trkpt lat="47.1292" lon="1.01158">
        <ele>75</ele>
        <time>2016-05-12T16:08:15Z</time>
      </trkpt>
      <trkpt lat="47.12899" lon="1.01163">
        <ele>75</ele>
        <time>2016-05-12T16:10:15Z</time>
      </trkpt>
      <trkpt lat="47.12866" lon="1.01173">
        <ele>74</ele>
        <time>2016-05-12T16:12:15Z</time>
      </trkpt>
      <trkpt lat="47.12845" lon="1.01179">
        <ele>74</ele>
        <time>2016-05-12T16:14:15Z</time>
      </trkpt>
      <trkpt lat="47.12827" lon="1.01184">
        <ele>73</ele>
        <time>2016-05-12T16:16:15Z</time>
      </trkpt>
      <trkpt lat="47.12812" lon="1.01188">
        <ele>73</ele>
        <time>2016-05-12T16:18:15Z</time>
      </trkpt>
      <trkpt lat="47.12801" lon="1.01191">
        <ele>73</ele>
        <time>2016-05-12T16:20:15Z</time>
      </trkpt>
      <trkpt lat="47.12775" lon="1.01197">
        <ele>73</ele>
        <time>2016-05-12T16:22:15Z</time>
      </trkpt>
      <trkpt lat="47.12763" lon="1.01201">
        <ele>73</ele>
        <time>2016-05-12T16:24:15Z</time>
      </trkpt>
      <trkpt lat="47.1276" lon="1.01204">
        <ele>73</ele>
        <time>2016-05-12T16:26:15Z</time>
      </trkpt>
      <trkpt lat="47.12759" lon="1.01207">
        <ele>73</ele>
        <time>2016-05-12T16:28:15Z</time>
      </trkpt>
      <trkpt lat="47.12759" lon="1.01209">
        <ele>73</ele>
        <time>2016-05-12T16:30:15Z</time>
      </trkpt>
      <trkpt lat="47.12759" lon="1.01211">
        <ele>73</ele>
        <time>2016-05-12T16:32:15Z</time>
      </trkpt>
      <trkpt lat="47.12768" lon="1.01277">
        <ele>73</ele>
        <time>2016-05-12T16:34:15Z</time>
      </trkpt>
      <trkpt lat="47.12769" lon="1.01283">
        <ele>73</ele>
        <time>2016-05-12T16:36:15Z</time>
      </trkpt>
      <trkpt lat="47.12771" lon="1.01287">
        <ele>74</ele>
        <time>2016-05-12T16:38:15Z</time>
      </trkpt>
      <trkpt lat="47.12771" lon="1.01287">
        <ele>74</ele>
        <time>2016-05-12T16:40:15Z</time>
      </trkpt>
      <trkpt lat="47.12745" lon="1.01297">
        <ele>73</ele>
        <time>2016-05-12T16:42:15Z</time>
      </trkpt>
      <trkpt lat="47.12739" lon="1.01298">
        <ele>73</ele>
        <time>2016-05-12T16:44:15Z</time>
      </trkpt>
      <trkpt lat="47.12733" lon="1.013">
        <ele>73</ele>
        <time>2016-05-12T16:46:15Z</time>
      </trkpt>
      <trkpt lat="47.12726" lon="1.01302">
        <ele>73</ele>
        <time>2016-05-12T16:48:15Z</time>
      </trkpt>
      <trkpt lat="47.12707" lon="1.01307">
        <ele>73</ele>
        <time>2016-05-12T16:50:15Z</time>
      </trkpt>
      <trkpt lat="47.12662" lon="1.0132">
        <ele>74</ele>
        <time>2016-05-12T16:52:15Z</time>
      </trkpt>
      <trkpt lat="47.12657" lon="1.01322">
        <ele>74</ele>
        <time>2016-05-12T16:54:15Z</time>
      </trkpt>
      <trkpt lat="47.12642" lon="1.01331">
        <ele>74</ele>
        <time>2016-05-12T16:56:15Z</time>
      </trkpt>
      <trkpt lat="47.12621" lon="1.01346">
        <ele>73</ele>
        <time>2016-05-12T16:58:15Z</time>
      </trkpt>
      <trkpt lat="47.12618" lon="1.01348">
        <ele>73</ele>
        <time>2016-05-12T17:00:15Z</time>
      </trkpt>
      <trkpt lat="47.12586" lon="1.01369">
        <ele>73</ele>
        <time>2016-05-12T17:02:15Z</time>
      </trkpt>
      <trkpt lat="47.12577" lon="1.01375">
        <ele>73</ele>
        <time>2016-05-12T17:04:15Z</time>
      </trkpt>
      <trkpt lat="47.12564" lon="1.01382">
        <ele>73</ele>
        <time>2016-05-12T17:06:15Z</time>
      </trkpt>
      <trkpt lat="47.12539" lon="1.01394">
        <ele>72</ele>
        <time>2016-05-12T17:08:15Z</time>
      </trkpt>
      <trkpt lat="47.12521" lon="1.01404">
        <ele>72</ele>
        <time>2016-05-12T17:10:15Z</time>
      </trkpt>
      <trkpt lat="47.12503" lon="1.01412">
        <ele>72</ele>
        <time>2016-05-12T17:12:15Z</time>
      </trkpt>
      <trkpt lat="47.12468" lon="1.01429">
        <ele>73</ele>
        <time>2016-05-12T17:14:15Z</time>
      </trkpt>
      <trkpt lat="47.12447" lon="1.01439">
        <ele>73</ele>
        <time>2016-05-12T17:16:15Z</time>
      </trkpt>
      <trkpt lat="47.12436" lon="1.01444">
        <ele>73</ele>
        <time>2016-05-12T17:18:15Z</time>
      </trkpt>
      <trkpt lat="47.12429" lon="1.01449">
        <ele>73</ele>
        <time>2016-05-12T17:20:15Z</time>
      </trkpt>
      <trkpt lat="47.12428" lon="1.01451">
        <ele>73</ele>
        <time>2016-05-12T17:22:15Z</time>
      </trkpt>
      <trkpt lat="47.12425" lon="1.01455">
        <ele>73</ele>
        <time>2016-05-12T17:24:15Z</time>
      </trkpt>
      <trkpt lat="47.12424" lon="1.01462">
        <ele>73</ele>
        <time>2016-05-12T17:26:15Z</time>
      </trkpt>
      <trkpt lat="47.12424" lon="1.01464">
        <ele>73</ele>
        <time>2016-05-12T17:28:15Z</time>
      </trkpt>
      <trkpt lat="47.12423" lon="1.01469">
        <ele>73</ele>
        <time>2016-05-12T17:30:15Z</time>
      </trkpt>
      <trkpt lat="47.12424" lon="1.01476">
        <ele>73</ele>
        <time>2016-05-12T17:32:15Z</time>
      </trkpt>
      <trkpt lat="47.12431" lon="1.01512">
        <ele>73</ele>
        <time>2016-05-12T17:34:15Z</time>
      </trkpt>
      <trkpt lat="47.12454" lon="1.01613">
        <ele>75</ele>
        <time>2016-05-12T17:36:15Z</time>
      </trkpt>
      <trkpt lat="47.12455" lon="1.01625">
        <ele>75</ele>
        <time>2016-05-12T17:38:15Z</time>
      </trkpt>
      <trkpt lat="47.12455" lon="1.01636">
        <ele>76</ele>
        <time>2016-05-12T17:40:15Z</time>
      </trkpt>
      <trkpt lat="47.12455" lon="1.01646">
        <ele>76</ele>
        <time>2016-05-12T17:42:15Z</time>
      </trkpt>
      <trkpt lat="47.12454" lon="1.0165">
        <ele>76</ele>
        <time>2016-05-12T17:44:15Z</time>
      </trkpt>
      <trkpt lat="47.12452" lon="1.01657">
        <ele>76</ele>
        <time>2016-05-12T17:46:15Z</time>
      </trkpt>
      <trkpt lat="47.12448" lon="1.01665">
        <ele>76</ele>
        <time>2016-05-12T17:48:15Z</time>
      </trkpt>
      <trkpt lat="47.12447" lon="1.01667">
        <ele>76</ele>
        <time>2016-05-12T17:50:15Z</time>
      </trkpt>
      <trkpt lat="47.1244" lon="1.01677">
        <ele>76</ele>
        <time>2016-05-12T17:52:15Z</time>
      </trkpt>
      <trkpt lat="47.12433" lon="1.01684">
        <ele>76</ele>
        <time>2016-05-12T17:54:15Z</time>
      </trkpt>
      <trkpt lat="47.12428" lon="1.01688">
        <ele>76</ele>
        <time>2016-05-12T17:56:15Z</time>
      </trkpt>
      <trkpt lat="47.12426" lon="1.01689">
        <ele>76</ele>
        <time>2016-05-12T17:58:15Z</time>
      </trkpt>
      <trkpt lat="47.12417" lon="1.01693">
        <ele>76</ele>
        <time>2016-05-12T18:00:15Z</time>
      </trkpt>
      <trkpt lat="47.12396" lon="1.01697">
        <ele>76</ele>
        <time>2016-05-12T18:02:15Z</time>
      </trkpt>
      <trkpt lat="47.12347" lon="1.01706">
        <ele>75</ele>
        <time>2016-05-12T18:04:15Z</time>
      </trkpt>
      <trkpt lat="47.12305" lon="1.01717">
        <ele>75</ele>
        <time>2016-05-12T18:06:15Z</time>
      </trkpt>
      <trkpt lat="47.12297" lon="1.01719">
        <ele>75</ele>
        <time>2016-05-12T18:08:15Z</time>
      </trkpt>
      <trkpt lat="47.12264" lon="1.01727">
        <ele>76</ele>
        <time>2016-05-12T18:10:15Z</time>
      </trkpt>
      <trkpt lat="47.1225" lon="1.01728">
        <ele>76</ele>
        <time>2016-05-12T18:12:15Z</time>
      </trkpt>
      <trkpt lat="47.12192" lon="1.01731">
        <ele>76</ele>
        <time>2016-05-12T18:14:15Z</time>
      </trkpt>
      <trkpt lat="47.12134" lon="1.01734">
        <ele>76</ele>
        <time>2016-05-12T18:16:15Z</time>
      </trkpt>
      <trkpt lat="47.12131" lon="1.01734">
        <ele>76</ele>
        <time>2016-05-12T18:18:15Z</time>
      </trkpt>
      <trkpt lat="47.12092" lon="1.01732">
        <ele>75</ele>
        <time>2016-05-12T18:20:15Z</time>
      </trkpt>
      <trkpt lat="47.12088" lon="1.01731">
        <ele>75</ele>
        <time>2016-05-12T18:22:15Z</time>
      </trkpt>
      <trkpt lat="47.12057" lon="1.01728">
        <ele>75</ele>
        <time>2016-05-12T18:24:15Z</time>
      </trkpt>
      <trkpt lat="47.12038" lon="1.01728">
        <ele>75</ele>
        <time>2016-05-12T18:26:15Z</time>
      </trkpt>
      <trkpt lat="47.12007" lon="1.0173">
        <ele>75</ele>
        <time>2016-05-12T18:28:15Z</time>
      </trkpt>
      <trkpt lat="47.12004" lon="1.0173">
        <ele>75</ele>
        <time>2016-05-12T18:30:15Z</time>
      </trkpt>
      <trkpt lat="47.11979" lon="1.0173">
        <ele>76</ele>
        <time>2016-05-12T18:32:15Z</time>
      </trkpt>
      <trkpt lat="47.11953" lon="1.0173">
        <ele>76</ele>
        <time>2016-05-12T18:34:15Z</time>
      </trkpt>
      <trkpt lat="47.1195" lon="1.0173">
        <ele>76</ele>
        <time>2016-05-12T18:36:15Z</time>
      </trkpt>
      <trkpt lat="47.11924" lon="1.01728">
        <ele>77</ele>
        <time>2016-05-12T18:38:15Z</time>
      </trkpt>
      <trkpt lat="47.11881" lon="1.01727">
        <ele>77</ele>
        <time>2016-05-12T18:40:15Z</time>
      </trkpt>
      <trkpt lat="47.1187" lon="1.01727">
        <ele>78</ele>
        <time>2016-05-12T18:42:15Z</time>
      </trkpt>
      <trkpt lat="47.11858" lon="1.01728">
        <ele>78</ele>
        <time>2016-05-12T18:44:15Z</time>
      </trkpt>
      <trkpt lat="47.11849" lon="1.0173">
        <ele>78</ele>
        <time>2016-05-12T18:46:15Z</time>
      </trkpt>
      <trkpt lat="47.11837" lon="1.01734">
        <ele>79</ele>
        <time>2016-05-12T18:48:15Z</time>
      </trkpt>
      <trkpt lat="47.11826" lon="1.01741">
        <ele>79</ele>
        <time>2016-05-12T18:50:15Z</time>
      </trkpt>
      <trkpt lat="47.11816" lon="1.01748">
        <ele>79</ele>
        <time>2016-05-12T18:52:15Z</time>
      </trkpt>
      <trkpt lat="47.1181" lon="1.01755">
        <ele>79</ele>
        <time>2016-05-12T18:54:15Z</time>
      </trkpt>
      <trkpt lat="47.11807" lon="1.01758">
        <ele>79</ele>
        <time>2016-05-12T18:56:15Z</time>
      </trkpt>
      <trkpt lat="47.11799" lon="1.0177">
        <ele>78</ele>
        <time>2016-05-12T18:58:15Z</time>
      </trkpt>
      <trkpt lat="47.1179" lon="1.01787">
        <ele>78</ele>
        <time>2016-05-12T19:00:15Z</time>
      </trkpt>
      <trkpt lat="47.11781" lon="1.01812">
        <ele>78</ele>
        <time>2016-05-12T19:02:15Z</time>
      </trkpt>
      <trkpt lat="47.11757" lon="1.01891">
        <ele>76</ele>
        <time>2016-05-12T19:04:15Z</time>
      </trkpt>
      <trkpt lat="47.1175" lon="1.01911">
        <ele>75</ele>
        <time>2016-05-12T19:06:15Z</time>
      </trkpt>
      <trkpt lat="47.11744" lon="1.01928">
        <ele>75</ele>
        <time>2016-05-12T19:08:15Z</time>
      </trkpt>
      <trkpt lat="47.11739" lon="1.0194">
        <ele>75</ele>
        <time>2016-05-12T19:10:15Z</time>
      </trkpt>
      <trkpt lat="47.11736" lon="1.0195">
        <ele>75</ele>
        <time>2016-05-12T19:12:15Z</time>
      </trkpt>
      <trkpt lat="47.1171" lon="1.02019">
        <ele>74</ele>
        <time>2016-05-12T19:14:15Z</time>
      </trkpt>
      <trkpt lat="47.11707" lon="1.02027">
        <ele>74</ele>
        <time>2016-05-12T19:16:15Z</time>
      </trkpt>
      <trkpt lat="47.11691" lon="1.02068">
        <ele>74</ele>
        <time>2016-05-12T19:18:15Z</time>
      </trkpt>
      <trkpt lat="47.1167" lon="1.02116">
        <ele>74</ele>
        <time>2016-05-12T19:20:15Z</time>
      </trkpt>
      <trkpt lat="47.11651" lon="1.02156">
        <ele>75</ele>
        <time>2016-05-12T19:22:15Z</time>
      </trkpt>
      <trkpt lat="47.11623" lon="1.0221">
        <ele>76</ele>
        <time>2016-05-12T19:24:15Z</time>
      </trkpt>
      <trkpt lat="47.11602" lon="1.02251">
        <ele>77</ele>
        <time>2016-05-12T19:26:15Z</time>
      </trkpt>
      <trkpt lat="47.11602" lon="1.02251">
        <ele>77</ele>
        <time>2016-05-12T19:28:15Z</time>
      </trkpt>
      <trkpt lat="47.11602" lon="1.02264">
        <ele>77</ele>
        <time>2016-05-12T19:30:15Z</time>
      </trkpt>
      <trkpt lat="47.11602" lon="1.02275">
        <ele>77</ele>
        <time>2016-05-12T19:32:15Z</time>
      </trkpt>
      <trkpt lat="47.11605" lon="1.02289">
        <ele>77</ele>
        <time>2016-05-12T19:34:15Z</time>
      </trkpt>
      <trkpt lat="47.1162" lon="1.0235">
        <ele>78</ele>
        <time>2016-05-12T19:36:15Z</time>
      </trkpt>
      <trkpt lat="47.11647" lon="1.02458">
        <ele>79</ele>
        <time>2016-05-12T19:38:15Z</time>
      </trkpt>
      <trkpt lat="47.11661" lon="1.02514">
        <ele>80</ele>
        <time>2016-05-12T19:40:15Z</time>
      </trkpt>
      <trkpt lat="47.11663" lon="1.02526">
        <ele>80</ele>
        <time>2016-05-12T19:42:15Z</time>
      </trkpt>
      <trkpt lat="47.11663" lon="1.02526">
        <ele>80</ele>
        <time>2016-05-12T19:44:15Z</time>
      </trkpt>
      <trkpt lat="47.11666" lon="1.02527">
        <ele>79</ele>
        <time>2016-05-12T19:46:15Z</time>
      </trkpt>
      <trkpt lat="47.11669" lon="1.02527">
        <ele>79</ele>
        <time>2016-05-12T19:48:15Z</time>
      </trkpt>
      <trkpt lat="47.11671" lon="1.02526">
        <ele>79</ele>
        <time>2016-05-12T19:50:15Z</time>
      </trkpt>
      <trkpt lat="47.11673" lon="1.02525">
        <ele>79</ele>
        <time>2016-05-12T19:52:15Z</time>
      </trkpt>
      <trkpt lat="47.11708" lon="1.02507">
        <ele>78</ele>
        <time>2016-05-12T19:54:15Z</time>
      </trkpt>
      <trkpt lat="47.11723" lon="1.02499">
        <ele>78</ele>
        <time>2016-05-12T19:56:15Z</time>
      </trkpt>
      <trkpt lat="47.1173" lon="1.02498">
        <ele>77</ele>
        <time>2016-05-12T19:58:15Z</time>
      </trkpt>
      <trkpt lat="47.11737" lon="1.02498">
        <ele>77</ele>
        <time>2016-05-12T20:00:15Z</time>
      </trkpt>
      <trkpt lat="47.11747" lon="1.02501">
        <ele>77</ele>
        <time>2016-05-12T20:02:15Z</time>
      </trkpt>
      <trkpt lat="47.11757" lon="1.02504">
        <ele>77</ele>
        <time>2016-05-12T20:04:15Z</time>
      </trkpt>
      <trkpt lat="47.11779" lon="1.02506">
        <ele>78</ele>
        <time>2016-05-12T20:06:15Z</time>
      </trkpt>
      <trkpt lat="47.11789" lon="1.02506">
        <ele>79</ele>
        <time>2016-05-12T20:08:15Z</time>
      </trkpt>
      <trkpt lat="47.11807" lon="1.025">
        <ele>80</ele>
        <time>2016-05-12T20:10:15Z</time>
      </trkpt>
      <trkpt lat="47.11807" lon="1.025">
        <ele>80</ele>
        <time>2016-05-12T20:12:15Z</time>
      </trkpt>
      <trkpt lat="47.11789" lon="1.02506">
        <ele>79</ele>
        <time>2016-05-12T20:14:15Z</time>
      </trkpt>
      <trkpt lat="47.11779" lon="1.02506">
        <ele>78</ele>
        <time>2016-05-12T20:16:15Z</time>
      </trkpt>
      <trkpt lat="47.11757" lon="1.02504">
        <ele>77</ele>
        <time>2016-05-12T20:18:15Z</time>
      </trkpt>
      <trkpt lat="47.11747" lon="1.02501">
        <ele>77</ele>
        <time>2016-05-12T20:20:15Z</time>
      </trkpt>
      <trkpt lat="47.11737" lon="1.02498">
        <ele>77</ele>
        <time>2016-05-12T20:22:15Z</time>
      </trkpt>
      <trkpt lat="47.1173" lon="1.02498">
        <ele>77</ele>
        <time>2016-05-12T20:24:15Z</time>
      </trkpt>
      <trkpt lat="47.11723" lon="1.02499">
        <ele>78</ele>
        <time>2016-05-12T20:26:15Z</time>
      </trkpt>
      <trkpt lat="47.11708" lon="1.02507">
        <ele>78</ele>
        <time>2016-05-12T20:28:15Z</time>
      </trkpt>
      <trkpt lat="47.11673" lon="1.02525">
        <ele>79</ele>
        <time>2016-05-12T20:30:15Z</time>
      </trkpt>
      <trkpt lat="47.11671" lon="1.02526">
        <ele>79</ele>
        <time>2016-05-12T20:32:15Z</time>
      </trkpt>
      <trkpt lat="47.11669" lon="1.02527">
        <ele>79</ele>
        <time>2016-05-12T20:34:15Z</time>
      </trkpt>
      <trkpt lat="47.11666" lon="1.02527">
        <ele>79</ele>
        <time>2016-05-12T20:36:15Z</time>
      </trkpt>
      <trkpt lat="47.11663" lon="1.02526">
        <ele>80</ele>
        <time>2016-05-12T20:38:15Z</time>
      </trkpt>
      <trkpt lat="47.11663" lon="1.02526">
        <ele>80</ele>
        <time>2016-05-12T20:40:15Z</time>
      </trkpt>
      <trkpt lat="47.11661" lon="1.02514">
        <ele>80</ele>
        <time>2016-05-12T20:42:15Z</time>
      </trkpt>
      <trkpt lat="47.11647" lon="1.02458">
        <ele>79</ele>
        <time>2016-05-12T20:44:15Z</time>
      </trkpt>
      <trkpt lat="47.1162" lon="1.0235">
        <ele>78</ele>
        <time>2016-05-12T20:46:15Z</time>
      </trkpt>
      <trkpt lat="47.11605" lon="1.02289">
        <ele>77</ele>
        <time>2016-05-12T20:48:15Z</time>
      </trkpt>
      <trkpt lat="47.11602" lon="1.02275">
        <ele>77</ele>
        <time>2016-05-12T20:50:15Z</time>
      </trkpt>
      <trkpt lat="47.11602" lon="1.02264">
        <ele>77</ele>
        <time>2016-05-12T20:52:15Z</time>
      </trkpt>
      <trkpt lat="47.11602" lon="1.02251">
        <ele>77</ele>
        <time>2016-05-12T20:54:15Z</time>
      </trkpt>
      <trkpt lat="47.11602" lon="1.02251">
        <ele>77</ele>
        <time>2016-05-12T20:56:15Z</time>
      </trkpt>
      <trkpt lat="47.11587" lon="1.02278">
        <ele>77</ele>
        <time>2016-05-12T20:58:15Z</time>
      </trkpt>
      <trkpt lat="47.11536" lon="1.02379">
        <ele>83</ele>
        <time>2016-05-12T21:00:15Z</time>
      </trkpt>
      <trkpt lat="47.11493" lon="1.0246">
        <ele>88</ele>
        <time>2016-05-12T21:02:15Z</time>
      </trkpt>
      <trkpt lat="47.11473" lon="1.02491">
        <ele>91</ele>
        <time>2016-05-12T21:04:15Z</time>
      </trkpt>
      <trkpt lat="47.11456" lon="1.02519">
        <ele>92</ele>
        <time>2016-05-12T21:06:15Z</time>
      </trkpt>
      <trkpt lat="47.11438" lon="1.02545">
        <ele>93</ele>
        <time>2016-05-12T21:08:15Z</time>
      </trkpt>
      <trkpt lat="47.11423" lon="1.02564">
        <ele>93</ele>
        <time>2016-05-12T21:10:15Z</time>
      </trkpt>
      <trkpt lat="47.11409" lon="1.0258">
        <ele>95</ele>
        <time>2016-05-12T21:12:15Z</time>
      </trkpt>
      <trkpt lat="47.11397" lon="1.02592">
        <ele>95</ele>
        <time>2016-05-12T21:14:15Z</time>
      </trkpt>
      <trkpt lat="47.11384" lon="1.02604">
        <ele>96</ele>
        <time>2016-05-12T21:16:15Z</time>
      </trkpt>
      <trkpt lat="47.11366" lon="1.02619">
        <ele>98</ele>
        <time>2016-05-12T21:18:15Z</time>
      </trkpt>
      <trkpt lat="47.11347" lon="1.02634">
        <ele>99</ele>
        <time>2016-05-12T21:20:15Z</time>
      </trkpt>
      <trkpt lat="47.11325" lon="1.02652">
        <ele>99</ele>
        <time>2016-05-12T21:22:15Z</time>
      </trkpt>
      <trkpt lat="47.11277" lon="1.0269">
        <ele>99</ele>
        <time>2016-05-12T21:24:15Z</time>
      </trkpt>
      <trkpt lat="47.11226" lon="1.02733">
        <ele>99</ele>
        <time>2016-05-12T21:26:15Z</time>
      </trkpt>
      <trkpt lat="47.11143" lon="1.02803">
        <ele>102</ele>
        <time>2016-05-12T21:28:15Z</time>
      </trkpt>
      <trkpt lat="47.11112" lon="1.02829">
        <ele>103</ele>
        <time>2016-05-12T21:30:15Z</time>
      </trkpt>
      <trkpt lat="47.11081" lon="1.02854">
        <ele>105</ele>
        <time>2016-05-12T21:32:15Z</time>
      </trkpt>
      <trkpt lat="47.1103" lon="1.02894">
        <ele>108</ele>
        <time>2016-05-12T21:34:15Z</time>
      </trkpt>
      <trkpt lat="47.11021" lon="1.02903">
        <ele>109</ele>
        <time>2016-05-12T21:36:15Z</time>
      </trkpt>
      <trkpt lat="47.11008" lon="1.02913">
        <ele>109</ele>
        <time>2016-05-12T21:38:15Z</time>
      </trkpt>
      <trkpt lat="47.10999" lon="1.02919">
        <ele>110</ele>
        <time>2016-05-12T21:40:15Z</time>
      </trkpt>
      <trkpt lat="47.10998" lon="1.0292">
        <ele>110</ele>
        <time>2016-05-12T21:42:15Z</time>
      </trkpt>
      <trkpt lat="47.10977" lon="1.02937">
        <ele>111</ele>
        <time>2016-05-12T21:44:15Z</time>
      </trkpt>
      <trkpt lat="47.1093" lon="1.02973">
        <ele>112</ele>
        <time>2016-05-12T21:46:15Z</time>
      </trkpt>
      <trkpt lat="47.10888" lon="1.03005">
        <ele>113</ele>
        <time>2016-05-12T21:48:15Z</time>
      </trkpt>
      <trkpt lat="47.10836" lon="1.03045">
        <ele>114</ele>
        <time>2016-05-12T21:50:15Z</time>
      </trkpt>
      <trkpt lat="47.10766" lon="1.03099">
        <ele>117</ele>
        <time>2016-05-12T21:52:15Z</time>
      </trkpt>
      <trkpt lat="47.10727" lon="1.03128">
        <ele>118</ele>
        <time>2016-05-12T21:54:15Z</time>
      </trkpt>
      <trkpt lat="47.10709" lon="1.0314">
        <ele>118</ele>
        <time>2016-05-12T21:56:15Z</time>
      </trkpt>
      <trkpt lat="47.10691" lon="1.03152">
        <ele>119</ele>
        <time>2016-05-12T21:58:15Z</time>
      </trkpt>
      <trkpt lat="47.10672" lon="1.03164">
        <ele>120</ele>
        <time>2016-05-12T22:00:15Z</time>
      </trkpt>
      <trkpt lat="47.10652" lon="1.03174">
        <ele>120</ele>
        <time>2016-05-12T22:02:15Z</time>
      </trkpt>
      <trkpt lat="47.10629" lon="1.03184">
        <ele>121</ele>
        <time>2016-05-12T22:04:15Z</time>
      </trkpt>
      <trkpt lat="47.10605" lon="1.03193">
        <ele>122</ele>
        <time>2016-05-12T22:06:15Z</time>
      </trkpt>
      <trkpt lat="47.10578" lon="1.032">
        <ele>123</ele>
        <time>2016-05-12T22:08:15Z</time>
      </trkpt>
      <trkpt lat="47.10546" lon="1.03207">
        <ele>124</ele>
        <time>2016-05-12T22:10:15Z</time>
      </trkpt>
      <trkpt lat="47.10517" lon="1.03212">
        <ele>124</ele>
        <time>2016-05-12T22:12:15Z</time>
      </trkpt>
      <trkpt lat="47.10494" lon="1.03217">
        <ele>125</ele>
        <time>2016-05-12T22:14:15Z</time>
      </trkpt>
      <trkpt lat="47.10473" lon="1.03223">
        <ele>124</ele>
        <time>2016-05-12T22:16:15Z</time>
      </trkpt>
      <trkpt lat="47.10465" lon="1.03225">
        <ele>124</ele>
        <time>2016-05-12T22:18:15Z</time>
      </trkpt>
      <trkpt lat="47.10418" lon="1.03238">
        <ele>123</ele>
        <time>2016-05-12T22:20:15Z</time>
      </trkpt>
      <trkpt lat="47.10373" lon="1.03251">
        <ele>119</ele>
        <time>2016-05-12T22:22:15Z</time>
      </trkpt>
      <trkpt lat="47.10322" lon="1.03267">
        <ele>115</ele>
        <time>2016-05-12T22:24:15Z</time>
      </trkpt>
      <trkpt lat="47.1027" lon="1.03283">
        <ele>110</ele>
        <time>2016-05-12T22:26:15Z</time>
      </trkpt>
      <trkpt lat="47.10212" lon="1.03301">
        <ele>105</ele>
        <time>2016-05-12T22:28:15Z</time>
      </trkpt>
      <trkpt lat="47.10157" lon="1.03317">
        <ele>101</ele>
        <time>2016-05-12T22:30:15Z</time>
      </trkpt>
      <trkpt lat="47.10125" lon="1.03328">
        <ele>98</ele>
        <time>2016-05-12T22:32:15Z</time>
      </trkpt>
      <trkpt lat="47.10108" lon="1.03336">
        <ele>97</ele>
        <time>2016-05-12T22:34:15Z</time>
      </trkpt>
      <trkpt lat="47.10073" lon="1.03354">
        <ele>95</ele>
        <time>2016-05-12T22:36:15Z</time>
      </trkpt>
      <trkpt lat="47.10021" lon="1.03383">
        <ele>92</ele>
        <time>2016-05-12T22:38:15Z</time>
      </trkpt>
      <trkpt lat="47.09987" lon="1.03404">
        <ele>90</ele>
        <time>2016-05-12T22:40:15Z</time>
      </trkpt>
      <trkpt lat="47.09952" lon="1.03424">
        <ele>89</ele>
        <time>2016-05-12T22:42:15Z</time>
      </trkpt>
      <trkpt lat="47.09932" lon="1.03436">
        <ele>89</ele>
        <time>2016-05-12T22:44:15Z</time>
      </trkpt>
      <trkpt lat="47.09929" lon="1.03438">
        <ele>89</ele>
        <time>2016-05-12T22:46:15Z</time>
      </trkpt>
      <trkpt lat="47.09926" lon="1.03439">
        <ele>89</ele>
        <time>2016-05-12T22:48:15Z</time>
      </trkpt>
      <trkpt lat="47.09915" lon="1.03446">
        <ele>89</ele>
        <time>2016-05-12T22:50:15Z</time>
      </trkpt>
      <trkpt lat="47.09863" lon="1.03476">
        <ele>91</ele>
        <time>2016-05-12T22:52:15Z</time>
      </trkpt>
      <trkpt lat="47.09845" lon="1.03486">
        <ele>91</ele>
        <time>2016-05-12T22:54:15Z</time>
      </trkpt>
      <trkpt lat="47.09832" lon="1.03496">
        <ele>92</ele>
        <time>2016-05-12T22:56:15Z</time>
      </trkpt>
      <trkpt lat="47.09819" lon="1.03506">
        <ele>91</ele>
        <time>2016-05-12T22:58:15Z</time>
      </trkpt>
      <trkpt lat="47.09787" lon="1.03536">
        <ele>90</ele>
        <time>2016-05-12T23:00:15Z</time>
      </trkpt>
      <trkpt lat="47.09759" lon="1.03562">
        <ele>88</ele>
        <time>2016-05-12T23:02:15Z</time>
      </trkpt>
      <trkpt lat="47.09743" lon="1.03575">
        <ele>88</ele>
        <time>2016-05-12T23:04:15Z</time>
      </trkpt>
      <trkpt lat="47.09732" lon="1.03584">
        <ele>88</ele>
        <time>2016-05-12T23:06:15Z</time>
      </trkpt>
      <trkpt lat="47.0973" lon="1.03586">
        <ele>88</ele>
        <time>2016-05-12T23:08:15Z</time>
      </trkpt>
      <trkpt lat="47.09724" lon="1.0359">
        <ele>88</ele>
        <time>2016-05-12T23:10:15Z</time>
      </trkpt>
      <trkpt lat="47.09696" lon="1.03608">
        <ele>88</ele>
        <time>2016-05-12T23:12:15Z</time>
      </trkpt>
      <trkpt lat="47.0965" lon="1.03637">
        <ele>90</ele>
        <time>2016-05-12T23:14:15Z</time>
      </trkpt>
      <trkpt lat="47.09592" lon="1.03671">
        <ele>95</ele>
        <time>2016-05-12T23:16:15Z</time>
      </trkpt>
      <trkpt lat="47.09541" lon="1.03703">
        <ele>98</ele>
        <time>2016-05-12T23:18:15Z</time>
      </trkpt>
      <trkpt lat="47.0949" lon="1.03733">
        <ele>101</ele>
        <time>2016-05-12T23:20:15Z</time>
      </trkpt>
      <trkpt lat="47.09479" lon="1.0374">
        <ele>101</ele>
        <time>2016-05-12T23:22:15Z</time>
      </trkpt>
      <trkpt lat="47.09442" lon="1.03763">
        <ele>102</ele>
        <time>2016-05-12T23:24:15Z</time>
      </trkpt>
      <trkpt lat="47.09433" lon="1.03769">
        <ele>102</ele>
        <time>2016-05-12T23:26:15Z</time>
      </trkpt>
      <trkpt lat="47.09414" lon="1.03783">
        <ele>102</ele>
        <time>2016-05-12T23:28:15Z</time>
      </trkpt>
      <trkpt lat="47.0939" lon="1.03803">
        <ele>103</ele>
        <time>2016-05-12T23:30:15Z</time>
      </trkpt>
      <trkpt lat="47.09374" lon="1.0382">
        <ele>103</ele>
        <time>2016-05-12T23:32:15Z</time>
      </trkpt>
      <trkpt lat="47.09366" lon="1.03828">
        <ele>104</ele>
        <time>2016-05-12T23:34:15Z</time>
      </trkpt>
      <trkpt lat="47.09346" lon="1.03853">
        <ele>104</ele>
        <time>2016-05-12T23:36:15Z</time>
      </trkpt>
      <trkpt lat="47.09322" lon="1.03888">
        <ele>104</ele>
        <time>2016-05-12T23:38:15Z</time>
      </trkpt>
      <trkpt lat="47.0931" lon="1.03909">
        <ele>104</ele>
        <time>2016-05-12T23:40:15Z</time>
      </trkpt>
      <trkpt lat="47.09274" lon="1.03961">
        <ele>103</ele>
        <time>2016-05-12T23:42:15Z</time>
      </trkpt>
      <trkpt lat="47.09254" lon="1.03992">
        <ele>102</ele>
        <time>2016-05-12T23:44:15Z</time>
      </trkpt>
      <trkpt lat="47.09248" lon="1.04">
        <ele>102</ele>
        <time>2016-05-12T23:46:15Z</time>
      </trkpt>
      <trkpt lat="47.09229" lon="1.04029">
        <ele>101</ele>
        <time>2016-05-12T23:48:15Z</time>
      </trkpt>
      <trkpt lat="47.09215" lon="1.04049">
        <ele>101</ele>
        <time>2016-05-12T23:50:15Z</time>
      </trkpt>
      <trkpt lat="47.09198" lon="1.04071">
        <ele>101</ele>
        <time>2016-05-12T23:52:15Z</time>
      </trkpt>
      <trkpt lat="47.09182" lon="1.04089">
        <ele>100</ele>
        <time>2016-05-12T23:54:15Z</time>
      </trkpt>
      <trkpt lat="47.09177" lon="1.04093">
        <ele>100</ele>
        <time>2016-05-12T23:56:15Z</time>
      </trkpt>
      <trkpt lat="47.09159" lon="1.04114">
        <ele>100</ele>
        <time>2016-05-12T23:58:15Z</time>
      </trkpt>
      <trkpt lat="47.0913" lon="1.04144">
        <ele>100</ele>
        <time>2016-05-13T00:00:15Z</time>
      </trkpt>
      <trkpt lat="47.09112" lon="1.04163">
        <ele>100</ele>
        <time>2016-05-13T00:02:15Z</time>
      </trkpt>
      <trkpt lat="47.09094" lon="1.04186">
        <ele>100</ele>
        <time>2016-05-13T00:04:15Z</time>
      </trkpt>
      <trkpt lat="47.09077" lon="1.04212">
        <ele>99</ele>
        <time>2016-05-13T00:06:15Z</time>
      </trkpt>
      <trkpt lat="47.09058" lon="1.04242">
        <ele>97</ele>
        <time>2016-05-13T00:08:15Z</time>
      </trkpt>
      <trkpt lat="47.09046" lon="1.04258">
        <ele>96</ele>
        <time>2016-05-13T00:10:15Z</time>
      </trkpt>
      <trkpt lat="47.09032" lon="1.04273">
        <ele>95</ele>
        <time>2016-05-13T00:12:15Z</time>
      </trkpt>
      <trkpt lat="47.0901" lon="1.04294">
        <ele>93</ele>
        <time>2016-05-13T00:14:15Z</time>
      </trkpt>
      <trkpt lat="47.08983" lon="1.04322">
        <ele>89</ele>
        <time>2016-05-13T00:16:15Z</time>
      </trkpt>
      <trkpt lat="47.08952" lon="1.04358">
        <ele>85</ele>
        <time>2016-05-13T00:18:15Z</time>
      </trkpt>
      <trkpt lat="47.08924" lon="1.04391">
        <ele>82</ele>
        <time>2016-05-13T00:20:15Z</time>
      </trkpt>
      <trkpt lat="47.08918" lon="1.04399">
        <ele>81</ele>
        <time>2016-05-13T00:22:15Z</time>
      </trkpt>
      <trkpt lat="47.08908" lon="1.04411">
        <ele>81</ele>
        <time>2016-05-13T00:24:15Z</time>
      </trkpt>
      <trkpt lat="47.08899" lon="1.04422">
        <ele>81</ele>
        <time>2016-05-13T00:26:15Z</time>
      </trkpt>
      <trkpt lat="47.08894" lon="1.04429">
        <ele>81</ele>
        <time>2016-05-13T00:28:15Z</time>
      </trkpt>
      <trkpt lat="47.08886" lon="1.04437">
        <ele>81</ele>
        <time>2016-05-13T00:30:15Z</time>
      </trkpt>
      <trkpt lat="47.08878" lon="1.04447">
        <ele>81</ele>
        <time>2016-05-13T00:32:15Z</time>
      </trkpt>
      <trkpt lat="47.08844" lon="1.04488">
        <ele>82</ele>
        <time>2016-05-13T00:34:15Z</time>
      </trkpt>
      <trkpt lat="47.08818" lon="1.04522">
        <ele>84</ele>
        <time>2016-05-13T00:36:15Z</time>
      </trkpt>
      <trkpt lat="47.08797" lon="1.0455">
        <ele>84</ele>
        <time>2016-05-13T00:38:15Z</time>
      </trkpt>
      <trkpt lat="47.08778" lon="1.04579">
        <ele>84</ele>
        <time>2016-05-13T00:40:15Z</time>
      </trkpt>
      <trkpt lat="47.0876" lon="1.04611">
        <ele>83</ele>
        <time>2016-05-13T00:42:15Z</time>
      </trkpt>
      <trkpt lat="47.08739" lon="1.04651">
        <ele>83</ele>
        <time>2016-05-13T00:44:15Z</time>
      </trkpt>
      <trkpt lat="47.08723" lon="1.04686">
        <ele>83</ele>
        <time>2016-05-13T00:46:15Z</time>
      </trkpt>
      <trkpt lat="47.08702" lon="1.04746">
        <ele>83</ele>
        <time>2016-05-13T00:48:15Z</time>
      </trkpt>
      <trkpt lat="47.08681" lon="1.04805">
        <ele>80</ele>
        <time>2016-05-13T00:50:15Z</time>
      </trkpt>
      <trkpt lat="47.0865" lon="1.04886">
        <ele>79</ele>
        <time>2016-05-13T00:52:15Z</time>
      </trkpt>
      <trkpt lat="47.08626" lon="1.04936">
        <ele>79</ele>
        <time>2016-05-13T00:54:15Z</time>
      </trkpt>
      <trkpt lat="47.08614" lon="1.04963">
        <ele>80</ele>
        <time>2016-05-13T00:56:15Z</time>
      </trkpt>
      <trkpt lat="47.08596" lon="1.05013">
        <ele>80</ele>
        <time>2016-05-13T00:58:15Z</time>
      </trkpt>
      <trkpt lat="47.08572" lon="1.0508">
        <ele>81</ele>
        <time>2016-05-13T01:00:15Z</time>
      </trkpt>
      <trkpt lat="47.0855" lon="1.05139">
        <ele>81</ele>
        <time>2016-05-13T01:02:15Z</time>
      </trkpt>
      <trkpt lat="47.0854" lon="1.0517">
        <ele>81</ele>
        <time>2016-05-13T01:04:15Z</time>
      </trkpt>
      <trkpt lat="47.08536" lon="1.05192">
        <ele>81</ele>
        <time>2016-05-13T01:06:15Z</time>
      </trkpt>
      <trkpt lat="47.08535" lon="1.052">
        <ele>81</ele>
        <time>2016-05-13T01:08:15Z</time>
      </trkpt>
      <trkpt lat="47.08533" lon="1.05212">
        <ele>81</ele>
        <time>2016-05-13T01:10:15Z</time>
      </trkpt>
      <trkpt lat="47.08532" lon="1.05234">
        <ele>81</ele>
        <time>2016-05-13T01:12:15Z</time>
      </trkpt>
      <trkpt lat="47.08533" lon="1.05259">
        <ele>81</ele>
        <time>2016-05-13T01:14:15Z</time>
      </trkpt>
      <trkpt lat="47.08534" lon="1.05294">
        <ele>82</ele>
        <time>2016-05-13T01:16:15Z</time>
      </trkpt>
      <trkpt lat="47.08538" lon="1.05327">
        <ele>83</ele>
        <time>2016-05-13T01:18:15Z</time>
      </trkpt>
      <trkpt lat="47.08544" lon="1.05358">
        <ele>83</ele>
        <time>2016-05-13T01:20:15Z</time>
      </trkpt>
      <trkpt lat="47.08549" lon="1.05383">
        <ele>84</ele>
        <time>2016-05-13T01:22:15Z</time>
      </trkpt>
      <trkpt lat="47.0855" lon="1.05388">
        <ele>84</ele>
        <time>2016-05-13T01:24:15Z</time>
      </trkpt>
      <trkpt lat="47.08552" lon="1.05406">
        <ele>84</ele>
        <time>2016-05-13T01:26:15Z</time>
      </trkpt>
      <trkpt lat="47.08552" lon="1.05425">
        <ele>84</ele>
        <time>2016-05-13T01:28:15Z</time>
      </trkpt>
      <trkpt lat="47.0855" lon="1.05455">
        <ele>84</ele>
        <time>2016-05-13T01:30:15Z</time>
      </trkpt>
      <trkpt lat="47.08546" lon="1.0548">
        <ele>84</ele>
        <time>2016-05-13T01:32:15Z</time>
      </trkpt>
      <trkpt lat="47.0854" lon="1.05512">
        <ele>85</ele>
        <time>2016-05-13T01:34:15Z</time>
      </trkpt>
      <trkpt lat="47.08534" lon="1.05538">
        <ele>85</ele>
        <time>2016-05-13T01:36:15Z</time>
      </trkpt>
      <trkpt lat="47.08528" lon="1.05569">
        <ele>85</ele>
        <time>2016-05-13T01:38:15Z</time>
      </trkpt>
      <trkpt lat="47.08524" lon="1.05608">
        <ele>85</ele>
        <time>2016-05-13T01:40:15Z</time>
      </trkpt>
      <trkpt lat="47.08523" lon="1.05622">
        <ele>85</ele>
        <time>2016-05-13T01:42:15Z</time>
      </trkpt>
      <trkpt lat="47.08519" lon="1.05669">
        <ele>86</ele>
        <time>2016-05-13T01:44:15Z</time>
      </trkpt>
      <trkpt lat="47.08515" lon="1.05703">
        <ele>86</ele>
        <time>2016-05-13T01:46:15Z</time>
      </trkpt>
      <trkpt lat="47.08508" lon="1.05739">
        <ele>86</ele>
        <time>2016-05-13T01:48:15Z</time>
      </trkpt>
      <trkpt lat="47.08496" lon="1.05796">
        <ele>86</ele>
        <time>2016-05-13T01:50:15Z</time>
      </trkpt>
      <trkpt lat="47.0848" lon="1.05858">
        <ele>86</ele>
        <time>2016-05-13T01:52:15Z</time>
      </trkpt>
      <trkpt lat="47.08473" lon="1.05888">
        <ele>85</ele>
        <time>2016-05-13T01:54:15Z</time>
      </trkpt>
      <trkpt lat="47.0847" lon="1.05907">
        <ele>85</ele>
        <time>2016-05-13T01:56:15Z</time>
      </trkpt>
      <trkpt lat="47.08467" lon="1.05935">
        <ele>86</ele>
        <time>2016-05-13T01:58:15Z</time>
      </trkpt>
      <trkpt lat="47.08464" lon="1.05971">
        <ele>86</ele>
        <time>2016-05-13T02:00:15Z</time>
      </trkpt>
      <trkpt lat="47.08457" lon="1.06019">
        <ele>86</ele>
        <time>2016-05-13T02:02:15Z</time>
      </trkpt>
      <trkpt lat="47.08446" lon="1.06077">
        <ele>86</ele>
        <time>2016-05-13T02:04:15Z</time>
      </trkpt>
      <trkpt lat="47.08435" lon="1.06129">
        <ele>86</ele>
        <time>2016-05-13T02:06:15Z</time>
      </trkpt>
      <trkpt lat="47.0842" lon="1.06195">
        <ele>86</ele>
        <time>2016-05-13T02:08:15Z</time>
      </trkpt>
      <trkpt lat="47.08412" lon="1.06229">
        <ele>85</ele>
        <time>2016-05-13T02:10:15Z</time>
      </trkpt>
      <trkpt lat="47.08401" lon="1.0627">
        <ele>85</ele>
        <time>2016-05-13T02:12:15Z</time>
      </trkpt>
      <trkpt lat="47.08387" lon="1.06317">
        <ele>84</ele>
        <time>2016-05-13T02:14:15Z</time>
      </trkpt>
      <trkpt lat="47.08378" lon="1.06348">
        <ele>85</ele>
        <time>2016-05-13T02:16:15Z</time>
      </trkpt>
      <trkpt lat="47.08375" lon="1.06358">
        <ele>85</ele>
        <time>2016-05-13T02:18:15Z</time>
      </trkpt>
      <trkpt lat="47.08373" lon="1.06369">
        <ele>86</ele>
        <time>2016-05-13T02:20:15Z</time>
      </trkpt>
      <trkpt lat="47.0837" lon="1.06387">
        <ele>86</ele>
        <time>2016-05-13T02:22:15Z</time>
      </trkpt>
      <trkpt lat="47.08368" lon="1.06413">
        <ele>88</ele>
        <time>2016-05-13T02:24:15Z</time>
      </trkpt>
      <trkpt lat="47.08365" lon="1.06452">
        <ele>88</ele>
        <time>2016-05-13T02:26:15Z</time>
      </trkpt>
      <trkpt lat="47.08361" lon="1.06569">
        <ele>87</ele>
        <time>2016-05-13T02:28:15Z</time>
      </trkpt>
      <trkpt lat="47.08359" lon="1.06595">
        <ele>88</ele>
        <time>2016-05-13T02:30:15Z</time>
      </trkpt>
      <trkpt lat="47.08356" lon="1.06613">
        <ele>88</ele>
        <time>2016-05-13T02:32:15Z</time>
      </trkpt>
      <trkpt lat="47.08353" lon="1.06629">
        <ele>88</ele>
        <time>2016-05-13T02:34:15Z</time>
      </trkpt>
      <trkpt lat="47.08347" lon="1.06648">
        <ele>88</ele>
        <time>2016-05-13T02:36:15Z</time>
      </trkpt>
      <trkpt lat="47.08339" lon="1.06671">
        <ele>89</ele>
        <time>2016-05-13T02:38:15Z</time>
      </trkpt>
      <trkpt lat="47.08329" lon="1.06697">
        <ele>90</ele>
        <time>2016-05-13T02:40:15Z</time>
      </trkpt>
      <trkpt lat="47.08307" lon="1.06761">
        <ele>91</ele>
        <time>2016-05-13T02:42:15Z</time>
      </trkpt>
      <trkpt lat="47.08304" lon="1.06771">
        <ele>91</ele>
        <time>2016-05-13T02:44:15Z</time>
      </trkpt>
      <trkpt lat="47.08296" lon="1.06799">
        <ele>90</ele>
        <time>2016-05-13T02:46:15Z</time>
      </trkpt>
      <trkpt lat="47.08292" lon="1.06821">
        <ele>90</ele>
        <time>2016-05-13T02:48:15Z</time>
      </trkpt>
      <trkpt lat="47.08287" lon="1.06849">
        <ele>89</ele>
        <time>2016-05-13T02:50:15Z</time>
      </trkpt>
      <trkpt lat="47.08283" lon="1.06867">
        <ele>88</ele>
        <time>2016-05-13T02:52:15Z</time>
      </trkpt>
      <trkpt lat="47.08278" lon="1.06879">
        <ele>88</ele>
        <time>2016-05-13T02:54:15Z</time>
      </trkpt>
      <trkpt lat="47.08276" lon="1.06884">
        <ele>87</ele>
        <time>2016-05-13T02:56:15Z</time>
      </trkpt>
      <trkpt lat="47.08274" lon="1.06887">
        <ele>87</ele>
        <time>2016-05-13T02:58:15Z</time>
      </trkpt>
      <trkpt lat="47.08269" lon="1.06892">
        <ele>87</ele>
        <time>2016-05-13T03:00:15Z</time>
      </trkpt>
      <trkpt lat="47.08256" lon="1.06898">
        <ele>85</ele>
        <time>2016-05-13T03:02:15Z</time>
      </trkpt>
      <trkpt lat="47.08231" lon="1.06909">
        <ele>83</ele>
        <time>2016-05-13T03:04:15Z</time>
      </trkpt>
      <trkpt lat="47.08214" lon="1.06918">
        <ele>82</ele>
        <time>2016-05-13T03:06:15Z</time>
      </trkpt>
      <trkpt lat="47.08214" lon="1.06918">
        <ele>82</ele>
        <time>2016-05-13T03:08:15Z</time>
      </trkpt>
      <trkpt lat="47.08223" lon="1.06949">
        <ele>82</ele>
        <time>2016-05-13T03:10:15Z</time>
      </trkpt>
      <trkpt lat="47.0823" lon="1.06968">
        <ele>82</ele>
        <time>2016-05-13T03:12:15Z</time>
      </trkpt>
      <trkpt lat="47.08241" lon="1.06987">
        <ele>82</ele>
        <time>2016-05-13T03:14:15Z</time>
      </trkpt>
      <trkpt lat="47.08246" lon="1.06999">
        <ele>82</ele>
        <time>2016-05-13T03:16:15Z</time>
      </trkpt>
      <trkpt lat="47.08246" lon="1.07003">
        <ele>82</ele>
        <time>2016-05-13T03:18:15Z</time>
      </trkpt>
      <trkpt lat="47.08246" lon="1.07003">
        <ele>82</ele>
        <time>2016-05-13T03:20:15Z</time>
      </trkpt>
      <trkpt lat="47.08247" lon="1.07009">
        <ele>82</ele>
        <time>2016-05-13T03:22:15Z</time>
      </trkpt>
      <trkpt lat="47.08247" lon="1.07018">
        <ele>81</ele>
        <time>2016-05-13T03:24:15Z</time>
      </trkpt>
      <trkpt lat="47.08245" lon="1.07027">
        <ele>81</ele>
        <time>2016-05-13T03:26:15Z</time>
      </trkpt>
      <trkpt lat="47.08237" lon="1.07047">
        <ele>81</ele>
        <time>2016-05-13T03:28:15Z</time>
      </trkpt>
      <trkpt lat="47.08228" lon="1.0707">
        <ele>80</ele>
        <time>2016-05-13T03:30:15Z</time>
      </trkpt>
      <trkpt lat="47.08222" lon="1.0708">
        <ele>80</ele>
        <time>2016-05-13T03:32:15Z</time>
      </trkpt>
      <trkpt lat="47.0822" lon="1.07084">
        <ele>80</ele>
        <time>2016-05-13T03:34:15Z</time>
      </trkpt>
      <trkpt lat="47.08214" lon="1.07094">
        <ele>80</ele>
        <time>2016-05-13T03:36:15Z</time>
      </trkpt>
      <trkpt lat="47.08208" lon="1.071">
        <ele>80</ele>
        <time>2016-05-13T03:38:15Z</time>
      </trkpt>
      <trkpt lat="47.08203" lon="1.07107">
        <ele>80</ele>
        <time>2016-05-13T03:40:15Z</time>
      </trkpt>
      <trkpt lat="47.08177" lon="1.07137">
        <ele>80</ele>
        <time>2016-05-13T03:42:15Z</time>
      </trkpt>
      <trkpt lat="47.08155" lon="1.07164">
        <ele>80</ele>
        <time>2016-05-13T03:44:15Z</time>
      </trkpt>
      <trkpt lat="47.08151" lon="1.0717">
        <ele>80</ele>
        <time>2016-05-13T03:46:15Z</time>
      </trkpt>
      <trkpt lat="47.08145" lon="1.07177">
        <ele>80</ele>
        <time>2016-05-13T03:48:15Z</time>
      </trkpt>
      <trkpt lat="47.08107" lon="1.07224">
        <ele>82</ele>
        <time>2016-05-13T03:50:15Z</time>
      </trkpt>
      <trkpt lat="47.08091" lon="1.07243">
        <ele>82</ele>
        <time>2016-05-13T03:52:15Z</time>
      </trkpt>
      <trkpt lat="47.08081" lon="1.07258">
        <ele>82</ele>
        <time>2016-05-13T03:54:15Z</time>
      </trkpt>
      <trkpt lat="47.08059" lon="1.07298">
        <ele>81</ele>
        <time>2016-05-13T03:56:15Z</time>
      </trkpt>
      <trkpt lat="47.08042" lon="1.07329">
        <ele>81</ele>
        <time>2016-05-13T03:58:15Z</time>
      </trkpt>
      <trkpt lat="47.08029" lon="1.07349">
        <ele>81</ele>
        <time>2016-05-13T04:00:15Z</time>
      </trkpt>
      <trkpt lat="47.08017" lon="1.07367">
        <ele>81</ele>
        <time>2016-05-13T04:02:15Z</time>
      </trkpt>
      <trkpt lat="47.08008" lon="1.07386">
        <ele>80</ele>
        <time>2016-05-13T04:04:15Z</time>
      </trkpt>
      <trkpt lat="47.07994" lon="1.07418">
        <ele>80</ele>
        <time>2016-05-13T04:06:15Z</time>
      </trkpt>
      <trkpt lat="47.07975" lon="1.07462">
        <ele>80</ele>
        <time>2016-05-13T04:08:15Z</time>
      </trkpt>
      <trkpt lat="47.07964" lon="1.07479">
        <ele>80</ele>
        <time>2016-05-13T04:10:15Z</time>
      </trkpt>
      <trkpt lat="47.07943" lon="1.07517">
        <ele>79</ele>
        <time>2016-05-13T04:12:15Z</time>
      </trkpt>
      <trkpt lat="47.07918" lon="1.07561">
        <ele>80</ele>
        <time>2016-05-13T04:14:15Z</time>
      </trkpt>
      <trkpt lat="47.07902" lon="1.07583">
        <ele>79</ele>
        <time>2016-05-13T04:16:15Z</time>
      </trkpt>
      <trkpt lat="47.07874" lon="1.07619">
        <ele>79</ele>
        <time>2016-05-13T04:18:15Z</time>
      </trkpt>
      <trkpt lat="47.07854" lon="1.07648">
        <ele>78</ele>
        <time>2016-05-13T04:20:15Z</time>
      </trkpt>
      <trkpt lat="47.07848" lon="1.07658">
        <ele>78</ele>
        <time>2016-05-13T04:22:15Z</time>
      </trkpt>
      <trkpt lat="47.07839" lon="1.07673">
        <ele>77</ele>
        <time>2016-05-13T04:24:15Z</time>
      </trkpt>
      <trkpt lat="47.07824" lon="1.07703">
        <ele>77</ele>
        <time>2016-05-13T04:26:15Z</time>
      </trkpt>
      <trkpt lat="47.07804" lon="1.07746">
        <ele>77</ele>
        <time>2016-05-13T04:28:15Z</time>
      </trkpt>
      <trkpt lat="47.07796" lon="1.07763">
        <ele>77</ele>
        <time>2016-05-13T04:30:15Z</time>
      </trkpt>
      <trkpt lat="47.07789" lon="1.07782">
        <ele>77</ele>
        <time>2016-05-13T04:32:15Z</time>
      </trkpt>
      <trkpt lat="47.07783" lon="1.07802">
        <ele>76</ele>
        <time>2016-05-13T04:34:15Z</time>
      </trkpt>
      <trkpt lat="47.07777" lon="1.07824">
        <ele>76</ele>
        <time>2016-05-13T04:36:15Z</time>
      </trkpt>
      <trkpt lat="47.07772" lon="1.07842">
        <ele>75</ele>
        <time>2016-05-13T04:38:15Z</time>
      </trkpt>
      <trkpt lat="47.07758" lon="1.07901">
        <ele>75</ele>
        <time>2016-05-13T04:40:15Z</time>
      </trkpt>
      <trkpt lat="47.07733" lon="1.07995">
        <ele>75</ele>
        <time>2016-05-13T04:42:15Z</time>
      </trkpt>
      <trkpt lat="47.0773" lon="1.08002">
        <ele>75</ele>
        <time>2016-05-13T04:44:15Z</time>
      </trkpt>
      <trkpt lat="47.07726" lon="1.08016">
        <ele>76</ele>
        <time>2016-05-13T04:46:15Z</time>
      </trkpt>
      <trkpt lat="47.07712" lon="1.08049">
        <ele>76</ele>
        <time>2016-05-13T04:48:15Z</time>
      </trkpt>
      <trkpt lat="47.0769" lon="1.08095">
        <ele>77</ele>
        <time>2016-05-13T04:50:15Z</time>
      </trkpt>
      <trkpt lat="47.07646" lon="1.0819">
        <ele>77</ele>
        <time>2016-05-13T04:52:15Z</time>
      </trkpt>
      <trkpt lat="47.07625" lon="1.08234">
        <ele>78</ele>
        <time>2016-05-13T04:54:15Z</time>
      </trkpt>
      <trkpt lat="47.07604" lon="1.08272">
        <ele>78</ele>
        <time>2016-05-13T04:56:15Z</time>
      </trkpt>
      <trkpt lat="47.07578" lon="1.08317">
        <ele>78</ele>
        <time>2016-05-13T04:58:15Z</time>
      </trkpt>
      <trkpt lat="47.07547" lon="1.08367">
        <ele>78</ele>
        <time>2016-05-13T05:00:15Z</time>
      </trkpt>
      <trkpt lat="47.07543" lon="1.08373">
        <ele>78</ele>
        <time>2016-05-13T05:02:15Z</time>
      </trkpt>
      <trkpt lat="47.0751" lon="1.08423">
        <ele>77</ele>
        <time>2016-05-13T05:04:15Z</time>
      </trkpt>
      <trkpt lat="47.0746" lon="1.08498">
        <ele>78</ele>
        <time>2016-05-13T05:06:15Z</time>
      </trkpt>
      <trkpt lat="47.07431" lon="1.08538">
        <ele>78</ele>
        <time>2016-05-13T05:08:15Z</time>
      </trkpt>
      <trkpt lat="47.07421" lon="1.08552">
        <ele>78</ele>
        <time>2016-05-13T05:10:15Z</time>
      </trkpt>
      <trkpt lat="47.07411" lon="1.08565">
        <ele>78</ele>
        <time>2016-05-13T05:12:15Z</time>
      </trkpt>
      <trkpt lat="47.07352" lon="1.0864">
        <ele>78</ele>
        <time>2016-05-13T05:14:15Z</time>
      </trkpt>
      <trkpt lat="47.07325" lon="1.08674">
        <ele>78</ele>
        <time>2016-05-13T05:16:15Z</time>
      </trkpt>
      <trkpt lat="47.07323" lon="1.08676">
        <ele>78</ele>
        <time>2016-05-13T05:18:15Z</time>
      </trkpt>
      <trkpt lat="47.07319" lon="1.08681">
        <ele>78</ele>
        <time>2016-05-13T05:20:15Z</time>
      </trkpt>
      <trkpt lat="47.07314" lon="1.08688">
        <ele>79</ele>
        <time>2016-05-13T05:22:15Z</time>
      </trkpt>
      <trkpt lat="47.07302" lon="1.08697">
        <ele>79</ele>
        <time>2016-05-13T05:24:15Z</time>
      </trkpt>
      <trkpt lat="47.07251" lon="1.08731">
        <ele>80</ele>
        <time>2016-05-13T05:26:15Z</time>
      </trkpt>
      <trkpt lat="47.07174" lon="1.08782">
        <ele>79</ele>
        <time>2016-05-13T05:28:15Z</time>
      </trkpt>
      <trkpt lat="47.07115" lon="1.08821">
        <ele>79</ele>
        <time>2016-05-13T05:30:15Z</time>
      </trkpt>
      <trkpt lat="47.07098" lon="1.08835">
        <ele>79</ele>
        <time>2016-05-13T05:32:15Z</time>
      </trkpt>
      <trkpt lat="47.07088" lon="1.08843">
        <ele>79</ele>
        <time>2016-05-13T05:34:15Z</time>
      </trkpt>
      <trkpt lat="47.07083" lon="1.08847">
        <ele>79</ele>
        <time>2016-05-13T05:36:15Z</time>
      </trkpt>
      <trkpt lat="47.07079" lon="1.08851">
        <ele>79</ele>
        <time>2016-05-13T05:38:15Z</time>
      </trkpt>
      <trkpt lat="47.07038" lon="1.08886">
        <ele>79</ele>
        <time>2016-05-13T05:40:15Z</time>
      </trkpt>
      <trkpt lat="47.0699" lon="1.08931">
        <ele>79</ele>
        <time>2016-05-13T05:42:15Z</time>
      </trkpt>
      <trkpt lat="47.06947" lon="1.08978">
        <ele>77</ele>
        <time>2016-05-13T05:44:15Z</time>
      </trkpt>
      <trkpt lat="47.06915" lon="1.0901">
        <ele>76</ele>
        <time>2016-05-13T05:46:15Z</time>
      </trkpt>
      <trkpt lat="47.06893" lon="1.0903">
        <ele>77</ele>
        <time>2016-05-13T05:48:15Z</time>
      </trkpt>
      <trkpt lat="47.06888" lon="1.09034">
        <ele>78</ele>
        <time>2016-05-13T05:50:15Z</time>
      </trkpt>
      <trkpt lat="47.06876" lon="1.09042">
        <ele>78</ele>
        <time>2016-05-13T05:52:15Z</time>
      </trkpt>
      <trkpt lat="47.06852" lon="1.09058">
        <ele>79</ele>
        <time>2016-05-13T05:54:15Z</time>
      </trkpt>
      <trkpt lat="47.06831" lon="1.09076">
        <ele>80</ele>
        <time>2016-05-13T05:56:15Z</time>
      </trkpt>
      <trkpt lat="47.06819" lon="1.09087">
        <ele>80</ele>
        <time>2016-05-13T05:58:15Z</time>
      </trkpt>
      <trkpt lat="47.06783" lon="1.0913">
        <ele>80</ele>
        <time>2016-05-13T06:00:15Z</time>
      </trkpt>
      <trkpt lat="47.06708" lon="1.09223">
        <ele>81</ele>
        <time>2016-05-13T06:02:15Z</time>
      </trkpt>
      <trkpt lat="47.06625" lon="1.09327">
        <ele>82</ele>
        <time>2016-05-13T06:04:15Z</time>
      </trkpt>
      <trkpt lat="47.06559" lon="1.0941">
        <ele>86</ele>
        <time>2016-05-13T06:06:15Z</time>
      </trkpt>
      <trkpt lat="47.06537" lon="1.09438">
        <ele>87</ele>
        <time>2016-05-13T06:08:15Z</time>
      </trkpt>
      <trkpt lat="47.0649" lon="1.09495">
        <ele>88</ele>
        <time>2016-05-13T06:10:15Z</time>
      </trkpt>
      <trkpt lat="47.06464" lon="1.09526">
        <ele>89</ele>
        <time>2016-05-13T06:12:15Z</time>
      </trkpt>
      <trkpt lat="47.06415" lon="1.09587">
        <ele>90</ele>
        <time>2016-05-13T06:14:15Z</time>
      </trkpt>
      <trkpt lat="47.06394" lon="1.09616">
        <ele>89</ele>
        <time>2016-05-13T06:16:15Z</time>
      </trkpt>
      <trkpt lat="47.06387" lon="1.09628">
        <ele>89</ele>
        <time>2016-05-13T06:18:15Z</time>
      </trkpt>
      <trkpt lat="47.06379" lon="1.09642">
        <ele>89</ele>
        <time>2016-05-13T06:20:15Z</time>
      </trkpt>
      <trkpt lat="47.06363" lon="1.09684">
        <ele>88</ele>
        <time>2016-05-13T06:22:15Z</time>
      </trkpt>
      <trkpt lat="47.06352" lon="1.0971">
        <ele>88</ele>
        <time>2016-05-13T06:24:15Z</time>
      </trkpt>
      <trkpt lat="47.06346" lon="1.09722">
        <ele>87</ele>
        <time>2016-05-13T06:26:15Z</time>
      </trkpt>
      <trkpt lat="47.06337" lon="1.09737">
        <ele>87</ele>
        <time>2016-05-13T06:28:15Z</time>
      </trkpt>
      <trkpt lat="47.06328" lon="1.09749">
        <ele>87</ele>
        <time>2016-05-13T06:30:15Z</time>
      </trkpt>
      <trkpt lat="47.06321" lon="1.09756">
        <ele>86</ele>
        <time>2016-05-13T06:32:15Z</time>
      </trkpt>
      <trkpt lat="47.06297" lon="1.09776">
        <ele>85</ele>
        <time>2016-05-13T06:34:15Z</time>
      </trkpt>
      <trkpt lat="47.06269" lon="1.098">
        <ele>84</ele>
        <time>2016-05-13T06:36:15Z</time>
      </trkpt>
      <trkpt lat="47.06257" lon="1.09806">
        <ele>83</ele>
        <time>2016-05-13T06:38:15Z</time>
      </trkpt>
      <trkpt lat="47.06254" lon="1.09808">
        <ele>83</ele>
        <time>2016-05-13T06:40:15Z</time>
      </trkpt>
      <trkpt lat="47.0625" lon="1.0981">
        <ele>83</ele>
        <time>2016-05-13T06:42:15Z</time>
      </trkpt>
      <trkpt lat="47.06237" lon="1.09818">
        <ele>84</ele>
        <time>2016-05-13T06:44:15Z</time>
      </trkpt>
      <trkpt lat="47.06204" lon="1.09841">
        <ele>86</ele>
        <time>2016-05-13T06:46:15Z</time>
      </trkpt>
      <trkpt lat="47.06177" lon="1.09857">
        <ele>88</ele>
        <time>2016-05-13T06:48:15Z</time>
      </trkpt>
      <trkpt lat="47.06154" lon="1.09871">
        <ele>89</ele>
        <time>2016-05-13T06:50:15Z</time>
      </trkpt>
      <trkpt lat="47.06149" lon="1.09874">
        <ele>89</ele>
        <time>2016-05-13T06:52:15Z</time>
      </trkpt>
      <trkpt lat="47.06132" lon="1.09882">
        <ele>90</ele>
        <time>2016-05-13T06:54:15Z</time>
      </trkpt>
      <trkpt lat="47.06101" lon="1.09896">
        <ele>91</ele>
        <time>2016-05-13T06:56:15Z</time>
      </trkpt>
      <trkpt lat="47.06079" lon="1.09906">
        <ele>92</ele>
        <time>2016-05-13T06:58:15Z</time>
      </trkpt>
      <trkpt lat="47.06059" lon="1.09914">
        <ele>92</ele>
        <time>2016-05-13T07:00:15Z</time>
      </trkpt>
      <trkpt lat="47.06058" lon="1.09914">
        <ele>92</ele>
        <time>2016-05-13T07:02:15Z</time>
      </trkpt>
      <trkpt lat="47.06022" lon="1.09928">
        <ele>93</ele>
        <time>2016-05-13T07:04:15Z</time>
      </trkpt>
      <trkpt lat="47.05997" lon="1.09936">
        <ele>93</ele>
        <time>2016-05-13T07:06:15Z</time>
      </trkpt>
      <trkpt lat="47.05985" lon="1.0994">
        <ele>93</ele>
        <time>2016-05-13T07:08:15Z</time>
      </trkpt>
      <trkpt lat="47.05975" lon="1.09944">
        <ele>93</ele>
        <time>2016-05-13T07:10:15Z</time>
      </trkpt>
      <trkpt lat="47.05961" lon="1.09951">
        <ele>93</ele>
        <time>2016-05-13T07:12:15Z</time>
      </trkpt>
      <trkpt lat="47.0594" lon="1.09967">
        <ele>94</ele>
        <time>2016-05-13T07:14:15Z</time>
      </trkpt>
      <trkpt lat="47.05938" lon="1.09969">
        <ele>94</ele>
        <time>2016-05-13T07:16:15Z</time>
      </trkpt>
      <trkpt lat="47.05914" lon="1.09987">
        <ele>94</ele>
        <time>2016-05-13T07:18:15Z</time>
      </trkpt>
      <trkpt lat="47.05892" lon="1.10004">
        <ele>95</ele>
        <time>2016-05-13T07:20:15Z</time>
      </trkpt>
      <trkpt lat="47.05876" lon="1.10011">
        <ele>95</ele>
        <time>2016-05-13T07:22:15Z</time>
      </trkpt>
      <trkpt lat="47.05851" lon="1.1002">
        <ele>95</ele>
        <time>2016-05-13T07:24:15Z</time>
      </trkpt>
      <trkpt lat="47.05847" lon="1.10019">
        <ele>95</ele>
        <time>2016-05-13T07:26:15Z</time>
      </trkpt>
      <trkpt lat="47.05835" lon="1.10027">
        <ele>95</ele>
        <time>2016-05-13T07:28:15Z</time>
      </trkpt>
      <trkpt lat="47.0583" lon="1.10032">
        <ele>95</ele>
        <time>2016-05-13T07:30:15Z</time>
      </trkpt>
      <trkpt lat="47.05825" lon="1.1004">
        <ele>95</ele>
        <time>2016-05-13T07:32:15Z</time>
      </trkpt>
      <trkpt lat="47.05807" lon="1.10067">
        <ele>94</ele>
        <time>2016-05-13T07:34:15Z</time>
      </trkpt>
      <trkpt lat="47.0579" lon="1.10094">
        <ele>94</ele>
        <time>2016-05-13T07:36:15Z</time>
      </trkpt>
      <trkpt lat="47.05765" lon="1.10128">
        <ele>94</ele>
        <time>2016-05-13T07:38:15Z</time>
      </trkpt>
      <trkpt lat="47.05749" lon="1.10156">
        <ele>94</ele>
        <time>2016-05-13T07:40:15Z</time>
      </trkpt>
      <trkpt lat="47.05734" lon="1.10178">
        <ele>94</ele>
        <time>2016-05-13T07:42:15Z</time>
      </trkpt>
      <trkpt lat="47.05719" lon="1.10191">
        <ele>94</ele>
        <time>2016-05-13T07:44:15Z</time>
      </trkpt>
      <trkpt lat="47.05699" lon="1.10202">
        <ele>94</ele>
        <time>2016-05-13T07:46:15Z</time>
      </trkpt>
      <trkpt lat="47.05649" lon="1.10227">
        <ele>94</ele>
        <time>2016-05-13T07:48:15Z</time>
      </trkpt>
      <trkpt lat="47.05602" lon="1.10251">
        <ele>93</ele>
        <time>2016-05-13T07:50:15Z</time>
      </trkpt>
      <trkpt lat="47.05548" lon="1.10283">
        <ele>91</ele>
        <time>2016-05-13T07:52:15Z</time>
      </trkpt>
      <trkpt lat="47.05485" lon="1.10321">
        <ele>88</ele>
        <time>2016-05-13T07:54:15Z</time>
      </trkpt>
      <trkpt lat="47.05468" lon="1.10331">
        <ele>87</ele>
        <time>2016-05-13T07:56:15Z</time>
      </trkpt>
      <trkpt lat="47.05434" lon="1.10351">
        <ele>86</ele>
        <time>2016-05-13T07:58:15Z</time>
      </trkpt>
      <trkpt lat="47.05409" lon="1.10367">
        <ele>85</ele>
        <time>2016-05-13T08:00:15Z</time>
      </trkpt>
      <trkpt lat="47.05405" lon="1.10369">
        <ele>86</ele>
        <time>2016-05-13T08:02:15Z</time>
      </trkpt>
      <trkpt lat="47.05403" lon="1.1037">
        <ele>86</ele>
        <time>2016-05-13T08:04:15Z</time>
      </trkpt>
      <trkpt lat="47.05391" lon="1.10378">
        <ele>86</ele>
        <time>2016-05-13T08:06:15Z</time>
      </trkpt>
      <trkpt lat="47.05353" lon="1.10397">
        <ele>87</ele>
        <time>2016-05-13T08:08:15Z</time>
      </trkpt>
      <trkpt lat="47.05308" lon="1.1042">
        <ele>88</ele>
        <time>2016-05-13T08:10:15Z</time>
      </trkpt>
      <trkpt lat="47.05298" lon="1.10424">
        <ele>89</ele>
        <time>2016-05-13T08:12:15Z</time>
      </trkpt>
      <trkpt lat="47.05263" lon="1.1044">
        <ele>90</ele>
        <time>2016-05-13T08:14:15Z</time>
      </trkpt>
      <trkpt lat="47.05238" lon="1.10454">
        <ele>91</ele>
        <time>2016-05-13T08:16:15Z</time>
      </trkpt>
      <trkpt lat="47.05214" lon="1.10469">
        <ele>92</ele>
        <time>2016-05-13T08:18:15Z</time>
      </trkpt>
      <trkpt lat="47.05189" lon="1.10489">
        <ele>92</ele>
        <time>2016-05-13T08:20:15Z</time>
      </trkpt>
      <trkpt lat="47.05159" lon="1.10514">
        <ele>92</ele>
        <time>2016-05-13T08:22:15Z</time>
      </trkpt>
      <trkpt lat="47.05146" lon="1.10526">
        <ele>92</ele>
        <time>2016-05-13T08:24:15Z</time>
      </trkpt>
      <trkpt lat="47.05127" lon="1.10544">
        <ele>93</ele>
        <time>2016-05-13T08:26:15Z</time>
      </trkpt>
      <trkpt lat="47.05103" lon="1.10558">
        <ele>93</ele>
        <time>2016-05-13T08:28:15Z</time>
      </trkpt>
      <trkpt lat="47.05062" lon="1.10577">
        <ele>93</ele>
        <time>2016-05-13T08:30:15Z</time>
      </trkpt>
      <trkpt lat="47.0501" lon="1.10601">
        <ele>96</ele>
        <time>2016-05-13T08:32:15Z</time>
      </trkpt>
      <trkpt lat="47.04964" lon="1.10625">
        <ele>97</ele>
        <time>2016-05-13T08:34:15Z</time>
      </trkpt>
      <trkpt lat="47.04947" lon="1.10635">
        <ele>98</ele>
        <time>2016-05-13T08:36:15Z</time>
      </trkpt>
      <trkpt lat="47.0494" lon="1.1064">
        <ele>98</ele>
        <time>2016-05-13T08:38:15Z</time>
      </trkpt>
      <trkpt lat="47.0492" lon="1.10655">
        <ele>99</ele>
        <time>2016-05-13T08:40:15Z</time>
      </trkpt>
      <trkpt lat="47.04897" lon="1.1067">
        <ele>99</ele>
        <time>2016-05-13T08:42:15Z</time>
      </trkpt>
      <trkpt lat="47.04873" lon="1.10684">
        <ele>99</ele>
        <time>2016-05-13T08:44:15Z</time>
      </trkpt>
      <trkpt lat="47.04851" lon="1.10699">
        <ele>100</ele>
        <time>2016-05-13T08:46:15Z</time>
      </trkpt>
      <trkpt lat="47.04823" lon="1.10728">
        <ele>100</ele>
        <time>2016-05-13T08:48:15Z</time>
      </trkpt>
      <trkpt lat="47.04779" lon="1.1077">
        <ele>102</ele>
        <time>2016-05-13T08:50:15Z</time>
      </trkpt>
      <trkpt lat="47.04738" lon="1.10804">
        <ele>102</ele>
        <time>2016-05-13T08:52:15Z</time>
      </trkpt>
      <trkpt lat="47.04714" lon="1.10825">
        <ele>102</ele>
        <time>2016-05-13T08:54:15Z</time>
      </trkpt>
      <trkpt lat="47.04693" lon="1.10849">
        <ele>102</ele>
        <time>2016-05-13T08:56:15Z</time>
      </trkpt>
      <trkpt lat="47.04657" lon="1.10896">
        <ele>102</ele>
        <time>2016-05-13T08:58:15Z</time>
      </trkpt>
      <trkpt lat="47.04615" lon="1.10941">
        <ele>100</ele>
        <time>2016-05-13T09:00:15Z</time>
      </trkpt>
      <trkpt lat="47.04557" lon="1.11003">
        <ele>94</ele>
        <time>2016-05-13T09:02:15Z</time>
      </trkpt>
      <trkpt lat="47.04499" lon="1.11065">
        <ele>88</ele>
        <time>2016-05-13T09:04:15Z</time>
      </trkpt>
      <trkpt lat="47.04481" lon="1.11084">
        <ele>87</ele>
        <time>2016-05-13T09:06:15Z</time>
      </trkpt>
      <trkpt lat="47.04465" lon="1.11101">
        <ele>86</ele>
        <time>2016-05-13T09:08:15Z</time>
      </trkpt>
      <trkpt lat="47.04455" lon="1.11112">
        <ele>85</ele>
        <time>2016-05-13T09:10:15Z</time>
      </trkpt>
      <trkpt lat="47.04448" lon="1.11117">
        <ele>85</ele>
        <time>2016-05-13T09:12:15Z</time>
      </trkpt>
      <trkpt lat="47.04426" lon="1.1113">
        <ele>83</ele>
        <time>2016-05-13T09:14:15Z</time>
      </trkpt>
      <trkpt lat="47.04404" lon="1.11134">
        <ele>83</ele>
        <time>2016-05-13T09:16:15Z</time>
      </trkpt>
      <trkpt lat="47.04382" lon="1.11134">
        <ele>83</ele>
        <time>2016-05-13T09:18:15Z</time>
      </trkpt>
      <trkpt lat="47.0437" lon="1.11133">
        <ele>83</ele>
        <time>2016-05-13T09:20:15Z</time>
      </trkpt>
      <trkpt lat="47.0435" lon="1.11131">
        <ele>83</ele>
        <time>2016-05-13T09:22:15Z</time>
      </trkpt>
      <trkpt lat="47.04345" lon="1.1113">
        <ele>83</ele>
        <time>2016-05-13T09:24:15Z</time>
      </trkpt>
      <trkpt lat="47.04285" lon="1.11123">
        <ele>85</ele>
        <time>2016-05-13T09:26:15Z</time>
      </trkpt>
      <trkpt lat="47.0426" lon="1.11121">
        <ele>87</ele>
        <time>2016-05-13T09:28:15Z</time>
      </trkpt>
      <trkpt lat="47.04201" lon="1.11114">
        <ele>90</ele>
        <time>2016-05-13T09:30:15Z</time>
      </trkpt>
      <trkpt lat="47.0415" lon="1.11109">
        <ele>93</ele>
        <time>2016-05-13T09:32:15Z</time>
      </trkpt>
      <trkpt lat="47.04101" lon="1.11103">
        <ele>93</ele>
        <time>2016-05-13T09:34:15Z</time>
      </trkpt>
      <trkpt lat="47.04081" lon="1.11101">
        <ele>93</ele>
        <time>2016-05-13T09:36:15Z</time>
      </trkpt>
      <trkpt lat="47.04013" lon="1.11094">
        <ele>92</ele>
        <time>2016-05-13T09:38:15Z</time>
      </trkpt>
      <trkpt lat="47.03868" lon="1.11079">
        <ele>85</ele>
        <time>2016-05-13T09:40:15Z</time>
      </trkpt>
      <trkpt lat="47.03782" lon="1.1107">
        <ele>83</ele>
        <time>2016-05-13T09:42:15Z</time>
      </trkpt>
      <trkpt lat="47.03756" lon="1.11068">
        <ele>82</ele>
        <time>2016-05-13T09:44:15Z</time>
      </trkpt>
      <trkpt lat="47.03737" lon="1.1107">
        <ele>82</ele>
        <time>2016-05-13T09:46:15Z</time>
      </trkpt>
      <trkpt lat="47.03721" lon="1.11073">
        <ele>82</ele>
        <time>2016-05-13T09:48:15Z</time>
      </trkpt>
      <trkpt lat="47.03711" lon="1.11076">
        <ele>82</ele>
        <time>2016-05-13T09:50:15Z</time>
      </trkpt>
      <trkpt lat="47.03697" lon="1.11081">
        <ele>82</ele>
        <time>2016-05-13T09:52:15Z</time>
      </trkpt>
      <trkpt lat="47.0365" lon="1.111">
        <ele>83</ele>
        <time>2016-05-13T09:54:15Z</time>
      </trkpt>
      <trkpt lat="47.03524" lon="1.11154">
        <ele>86</ele>
        <time>2016-05-13T09:56:15Z</time>
      </trkpt>
      <trkpt lat="47.03446" lon="1.11188">
        <ele>86</ele>
        <time>2016-05-13T09:58:15Z</time>
      </trkpt>
      <trkpt lat="47.0338" lon="1.11217">
        <ele>84</ele>
        <time>2016-05-13T10:00:15Z</time>
      </trkpt>
      <trkpt lat="47.03327" lon="1.11239">
        <ele>83</ele>
        <time>2016-05-13T10:02:15Z</time>
      </trkpt>
      <trkpt lat="47.03302" lon="1.1125">
        <ele>84</ele>
        <time>2016-05-13T10:04:15Z</time>
      </trkpt>
      <trkpt lat="47.03302" lon="1.1125">
        <ele>84</ele>
        <time>2016-05-13T10:06:15Z</time>
      </trkpt>
      <trkpt lat="47.03312" lon="1.1129">
        <ele>84</ele>
        <time>2016-05-13T10:08:15Z</time>
      </trkpt>
      <trkpt lat="47.03329" lon="1.11359">
        <ele>85</ele>
        <time>2016-05-13T10:10:15Z</time>
      </trkpt>
      <trkpt lat="47.03359" lon="1.11477">
        <ele>87</ele>
        <time>2016-05-13T10:12:15Z</time>
      </trkpt>
      <trkpt lat="47.03387" lon="1.1159">
        <ele>90</ele>
        <time>2016-05-13T10:14:15Z</time>
      </trkpt>
      <trkpt lat="47.0341" lon="1.11683">
        <ele>92</ele>
        <time>2016-05-13T10:16:15Z</time>
      </trkpt>
      <trkpt lat="47.03421" lon="1.11726">
        <ele>92</ele>
        <time>2016-05-13T10:18:15Z</time>
      </trkpt>
      <trkpt lat="47.03421" lon="1.11726">
        <ele>92</ele>
        <time>2016-05-13T10:20:15Z</time>
      </trkpt>
      <trkpt lat="47.03335" lon="1.11773">
        <ele>96</ele>
        <time>2016-05-13T10:22:15Z</time>
      </trkpt>
      <trkpt lat="47.03229" lon="1.11831">
        <ele>99</ele>
        <time>2016-05-13T10:24:15Z</time>
      </trkpt>
      <trkpt lat="47.03143" lon="1.11877">
        <ele>103</ele>
        <time>2016-05-13T10:26:15Z</time>
      </trkpt>
      <trkpt lat="47.03065" lon="1.11917">
        <ele>105</ele>
        <time>2016-05-13T10:28:15Z</time>
      </trkpt>
      <trkpt lat="47.03013" lon="1.11945">
        <ele>106</ele>
        <time>2016-05-13T10:30:15Z</time>
      </trkpt>
      <trkpt lat="47.02982" lon="1.11965">
        <ele>106</ele>
        <time>2016-05-13T10:32:15Z</time>
      </trkpt>
      <trkpt lat="47.02936" lon="1.12">
        <ele>106</ele>
        <time>2016-05-13T10:34:15Z</time>
      </trkpt>
      <trkpt lat="47.0286" lon="1.12063">
        <ele>104</ele>
        <time>2016-05-13T10:36:15Z</time>
      </trkpt>
      <trkpt lat="47.0281" lon="1.12101">
        <ele>102</ele>
        <time>2016-05-13T10:38:15Z</time>
      </trkpt>
      <trkpt lat="47.0281" lon="1.12101">
        <ele>102</ele>
        <time>2016-05-13T10:40:15Z</time>
      </trkpt>
      <trkpt lat="47.02802" lon="1.12074">
        <ele>100</ele>
        <time>2016-05-13T10:42:15Z</time>
      </trkpt>
      <trkpt lat="47.02779" lon="1.11992">
        <ele>97</ele>
        <time>2016-05-13T10:44:15Z</time>
      </trkpt>
      <trkpt lat="47.0275" lon="1.11894">
        <ele>95</ele>
        <time>2016-05-13T10:46:15Z</time>
      </trkpt>
      <trkpt lat="47.02725" lon="1.11804">
        <ele>94</ele>
        <time>2016-05-13T10:48:15Z</time>
      </trkpt>
      <trkpt lat="47.02702" lon="1.11726">
        <ele>93</ele>
        <time>2016-05-13T10:50:15Z</time>
      </trkpt>
      <trkpt lat="47.02686" lon="1.11671">
        <ele>92</ele>
        <time>2016-05-13T10:52:15Z</time>
      </trkpt>
      <trkpt lat="47.02676" lon="1.11637">
        <ele>91</ele>
        <time>2016-05-13T10:54:15Z</time>
      </trkpt>
      <trkpt lat="47.02668" lon="1.11622">
        <ele>91</ele>
        <time>2016-05-13T10:56:15Z</time>
      </trkpt>
      <trkpt lat="47.02668" lon="1.11622">
        <ele>91</ele>
        <time>2016-05-13T10:58:15Z</time>
      </trkpt>
      <trkpt lat="47.02662" lon="1.1163">
        <ele>90</ele>
        <time>2016-05-13T11:00:15Z</time>
      </trkpt>
      <trkpt lat="47.02633" lon="1.11668">
        <ele>89</ele>
        <time>2016-05-13T11:02:15Z</time>
      </trkpt>
      <trkpt lat="47.02609" lon="1.11695">
        <ele>89</ele>
        <time>2016-05-13T11:04:15Z</time>
      </trkpt>
      <trkpt lat="47.02588" lon="1.11719">
        <ele>89</ele>
        <time>2016-05-13T11:06:15Z</time>
      </trkpt>
      <trkpt lat="47.02565" lon="1.11741">
        <ele>89</ele>
        <time>2016-05-13T11:08:15Z</time>
      </trkpt>
      <trkpt lat="47.02549" lon="1.11755">
        <ele>89</ele>
        <time>2016-05-13T11:10:15Z</time>
      </trkpt>
      <trkpt lat="47.02549" lon="1.11755">
        <ele>89</ele>
        <time>2016-05-13T11:12:15Z</time>
      </trkpt>
      <trkpt lat="47.02541" lon="1.1176">
        <ele>89</ele>
        <time>2016-05-13T11:14:15Z</time>
      </trkpt>
      <trkpt lat="47.02502" lon="1.1179">
        <ele>90</ele>
        <time>2016-05-13T11:16:15Z</time>
      </trkpt>
      <trkpt lat="47.02448" lon="1.1183">
        <ele>90</ele>
        <time>2016-05-13T11:18:15Z</time>
      </trkpt>
      <trkpt lat="47.02407" lon="1.1186">
        <ele>88</ele>
        <time>2016-05-13T11:20:15Z</time>
      </trkpt>
      <trkpt lat="47.02394" lon="1.11871">
        <ele>88</ele>
        <time>2016-05-13T11:22:15Z</time>
      </trkpt>
      <trkpt lat="47.02382" lon="1.11882">
        <ele>87</ele>
        <time>2016-05-13T11:24:15Z</time>
      </trkpt>
      <trkpt lat="47.02372" lon="1.11893">
        <ele>87</ele>
        <time>2016-05-13T11:26:15Z</time>
      </trkpt>
      <trkpt lat="47.02351" lon="1.11918">
        <ele>87</ele>
        <time>2016-05-13T11:28:15Z</time>
      </trkpt>
      <trkpt lat="47.02343" lon="1.11927">
        <ele>87</ele>
        <time>2016-05-13T11:30:15Z</time>
      </trkpt>
      <trkpt lat="47.02339" lon="1.11932">
        <ele>87</ele>
        <time>2016-05-13T11:32:15Z</time>
      </trkpt>
      <trkpt lat="47.02326" lon="1.11945">
        <ele>86</ele>
        <time>2016-05-13T11:34:15Z</time>
      </trkpt>
      <trkpt lat="47.02318" lon="1.11951">
        <ele>86</ele>
        <time>2016-05-13T11:36:15Z</time>
      </trkpt>
      <trkpt lat="47.02313" lon="1.11955">
        <ele>86</ele>
        <time>2016-05-13T11:38:15Z</time>
      </trkpt>
      <trkpt lat="47.02284" lon="1.11978">
        <ele>85</ele>
        <time>2016-05-13T11:40:15Z</time>
      </trkpt>
      <trkpt lat="47.02279" lon="1.11982">
        <ele>85</ele>
        <time>2016-05-13T11:42:15Z</time>
      </trkpt>
      <trkpt lat="47.02269" lon="1.1199">
        <ele>85</ele>
        <time>2016-05-13T11:44:15Z</time>
      </trkpt>
      <trkpt lat="47.02258" lon="1.12001">
        <ele>84</ele>
        <time>2016-05-13T11:46:15Z</time>
      </trkpt>
      <trkpt lat="47.0225" lon="1.12012">
        <ele>84</ele>
        <time>2016-05-13T11:48:15Z</time>
      </trkpt>
      <trkpt lat="47.02246" lon="1.12017">
        <ele>84</ele>
        <time>2016-05-13T11:50:15Z</time>
      </trkpt>
      <trkpt lat="47.02237" lon="1.12031">
        <ele>84</ele>
        <time>2016-05-13T11:52:15Z</time>
      </trkpt>
      <trkpt lat="47.02093" lon="1.1224">
        <ele>84</ele>
        <time>2016-05-13T11:54:15Z</time>
      </trkpt>
      <trkpt lat="47.02037" lon="1.12323">
        <ele>84</ele>
        <time>2016-05-13T11:56:15Z</time>
      </trkpt>
      <trkpt lat="47.02027" lon="1.12339">
        <ele>84</ele>
        <time>2016-05-13T11:58:15Z</time>
      </trkpt>
      <trkpt lat="47.0202" lon="1.12352">
        <ele>84</ele>
        <time>2016-05-13T12:00:15Z</time>
      </trkpt>
      <trkpt lat="47.02011" lon="1.12372">
        <ele>84</ele>
        <time>2016-05-13T12:02:15Z</time>
      </trkpt>
      <trkpt lat="47.0198" lon="1.1245">
        <ele>84</ele>
        <time>2016-05-13T12:04:15Z</time>
      </trkpt>
      <trkpt lat="47.01975" lon="1.12467">
        <ele>84</ele>
        <time>2016-05-13T12:06:15Z</time>
      </trkpt>
      <trkpt lat="47.01969" lon="1.12485">
        <ele>85</ele>
        <time>2016-05-13T12:08:15Z</time>
      </trkpt>
      <trkpt lat="47.01964" lon="1.12508">
        <ele>85</ele>
        <time>2016-05-13T12:10:15Z</time>
      </trkpt>
      <trkpt lat="47.01947" lon="1.12586">
        <ele>85</ele>
        <time>2016-05-13T12:12:15Z</time>
      </trkpt>
      <trkpt lat="47.0194" lon="1.12617">
        <ele>86</ele>
        <time>2016-05-13T12:14:15Z</time>
      </trkpt>
      <trkpt lat="47.01931" lon="1.12647">
        <ele>86</ele>
        <time>2016-05-13T12:16:15Z</time>
      </trkpt>
      <trkpt lat="47.01919" lon="1.12686">
        <ele>87</ele>
        <time>2016-05-13T12:18:15Z</time>
      </trkpt>
      <trkpt lat="47.01899" lon="1.12749">
        <ele>88</ele>
        <time>2016-05-13T12:20:15Z</time>
      </trkpt>
      <trkpt lat="47.01877" lon="1.12819">
        <ele>87</ele>
        <time>2016-05-13T12:22:15Z</time>
      </trkpt>
      <trkpt lat="47.01868" lon="1.12845">
        <ele>88</ele>
        <time>2016-05-13T12:24:15Z</time>
      </trkpt>
      <trkpt lat="47.01858" lon="1.12879">
        <ele>88</ele>
        <time>2016-05-13T12:26:15Z</time>
      </trkpt>
      <trkpt lat="47.01851" lon="1.12905">
        <ele>89</ele>
        <time>2016-05-13T12:28:15Z</time>
      </trkpt>
      <trkpt lat="47.01845" lon="1.12932">
        <ele>90</ele>
        <time>2016-05-13T12:30:15Z</time>
      </trkpt>
      <trkpt lat="47.01838" lon="1.12962">
        <ele>90</ele>
        <time>2016-05-13T12:32:15Z</time>
      </trkpt>
      <trkpt lat="47.01824" lon="1.13032">
        <ele>91</ele>
        <time>2016-05-13T12:34:15Z</time>
      </trkpt>
      <trkpt lat="47.01809" lon="1.13111">
        <ele>92</ele>
        <time>2016-05-13T12:36:15Z</time>
      </trkpt>
      <trkpt lat="47.01786" lon="1.13229">
        <ele>91</ele>
        <time>2016-05-13T12:38:15Z</time>
      </trkpt>
      <trkpt lat="47.01784" lon="1.1324">
        <ele>91</ele>
        <time>2016-05-13T12:40:15Z</time>
      </trkpt>
      <trkpt lat="47.01782" lon="1.13244">
        <ele>91</ele>
        <time>2016-05-13T12:42:15Z</time>
      </trkpt>
      <trkpt lat="47.01779" lon="1.13249">
        <ele>91</ele>
        <time>2016-05-13T12:44:15Z</time>
      </trkpt>
      <trkpt lat="47.01773" lon="1.13253">
        <ele>91</ele>
        <time>2016-05-13T12:46:15Z</time>
      </trkpt>
      <trkpt lat="47.01773" lon="1.13263">
        <ele>91</ele>
        <time>2016-05-13T12:48:15Z</time>
      </trkpt>
      <trkpt lat="47.01773" lon="1.13276">
        <ele>91</ele>
        <time>2016-05-13T12:50:15Z</time>
      </trkpt>
      <trkpt lat="47.01772" lon="1.13288">
        <ele>90</ele>
        <time>2016-05-13T12:52:15Z</time>
      </trkpt>
      <trkpt lat="47.01772" lon="1.13296">
        <ele>90</ele>
        <time>2016-05-13T12:54:15Z</time>
      </trkpt>
      <trkpt lat="47.01771" lon="1.13304">
        <ele>90</ele>
        <time>2016-05-13T12:56:15Z</time>
      </trkpt>
      <trkpt lat="47.0177" lon="1.13305">
        <ele>90</ele>
        <time>2016-05-13T12:58:15Z</time>
      </trkpt>
      <trkpt lat="47.01769" lon="1.13318">
        <ele>90</ele>
        <time>2016-05-13T13:00:15Z</time>
      </trkpt>
      <trkpt lat="47.01767" lon="1.13331">
        <ele>90</ele>
        <time>2016-05-13T13:02:15Z</time>
      </trkpt>
      <trkpt lat="47.0175" lon="1.13416">
        <ele>91</ele>
        <time>2016-05-13T13:04:15Z</time>
      </trkpt>
      <trkpt lat="47.01747" lon="1.13439">
        <ele>91</ele>
        <time>2016-05-13T13:06:15Z</time>
      </trkpt>
      <trkpt lat="47.01745" lon="1.13452">
        <ele>91</ele>
        <time>2016-05-13T13:08:15Z</time>
      </trkpt>
      <trkpt lat="47.01745" lon="1.13459">
        <ele>91</ele>
        <time>2016-05-13T13:10:15Z</time>
      </trkpt>
      <trkpt lat="47.01744" lon="1.13476">
        <ele>91</ele>
        <time>2016-05-13T13:12:15Z</time>
      </trkpt>
      <trkpt lat="47.01744" lon="1.13494">
        <ele>91</ele>
        <time>2016-05-13T13:14:15Z</time>
      </trkpt>
      <trkpt lat="47.01744" lon="1.13507">
        <ele>91</ele>
        <time>2016-05-13T13:16:15Z</time>
      </trkpt>
      <trkpt lat="47.01744" lon="1.13526">
        <ele>91</ele>
        <time>2016-05-13T13:18:15Z</time>
      </trkpt>
      <trkpt lat="47.01745" lon="1.13577">
        <ele>91</ele>
        <time>2016-05-13T13:20:15Z</time>
      </trkpt>
      <trkpt lat="47.01745" lon="1.13594">
        <ele>91</ele>
        <time>2016-05-13T13:22:15Z</time>
      </trkpt>
      <trkpt lat="47.01745" lon="1.13607">
        <ele>91</ele>
        <time>2016-05-13T13:24:15Z</time>
      </trkpt>
      <trkpt lat="47.01744" lon="1.13618">
        <ele>91</ele>
        <time>2016-05-13T13:26:15Z</time>
      </trkpt>
      <trkpt lat="47.01743" lon="1.13626">
        <ele>91</ele>
        <time>2016-05-13T13:28:15Z</time>
      </trkpt>
      <trkpt lat="47.01742" lon="1.13635">
        <ele>91</ele>
        <time>2016-05-13T13:30:15Z</time>
      </trkpt>
      <trkpt lat="47.0174" lon="1.13643">
        <ele>91</ele>
        <time>2016-05-13T13:32:15Z</time>
      </trkpt>
      <trkpt lat="47.01739" lon="1.13649">
        <ele>91</ele>
        <time>2016-05-13T13:34:15Z</time>
      </trkpt>
      <trkpt lat="47.01736" lon="1.13656">
        <ele>91</ele>
        <time>2016-05-13T13:36:15Z</time>
      </trkpt>
      <trkpt lat="47.01734" lon="1.13663">
        <ele>91</ele>
        <time>2016-05-13T13:38:15Z</time>
      </trkpt>
      <trkpt lat="47.01733" lon="1.13667">
        <ele>91</ele>
        <time>2016-05-13T13:40:15Z</time>
      </trkpt>
      <trkpt lat="47.01733" lon="1.13669">
        <ele>91</ele>
        <time>2016-05-13T13:42:15Z</time>
      </trkpt>
      <trkpt lat="47.01731" lon="1.13675">
        <ele>90</ele>
        <time>2016-05-13T13:44:15Z</time>
      </trkpt>
      <trkpt lat="47.01696" lon="1.1377">
        <ele>90</ele>
        <time>2016-05-13T13:46:15Z</time>
      </trkpt>
      <trkpt lat="47.01692" lon="1.13783">
        <ele>90</ele>
        <time>2016-05-13T13:48:15Z</time>
      </trkpt>
      <trkpt lat="47.01691" lon="1.13791">
        <ele>90</ele>
        <time>2016-05-13T13:50:15Z</time>
      </trkpt>
      <trkpt lat="47.0169" lon="1.13792">
        <ele>90</ele>
        <time>2016-05-13T13:52:15Z</time>
      </trkpt>
      <trkpt lat="47.0169" lon="1.13799">
        <ele>90</ele>
        <time>2016-05-13T13:54:15Z</time>
      </trkpt>
      <trkpt lat="47.0169" lon="1.13805">
        <ele>90</ele>
        <time>2016-05-13T13:56:15Z</time>
      </trkpt>
      <trkpt lat="47.0169" lon="1.13812">
        <ele>90</ele>
        <time>2016-05-13T13:58:15Z</time>
      </trkpt>
      <trkpt lat="47.0169" lon="1.13819">
        <ele>90</ele>
        <time>2016-05-13T14:00:15Z</time>
      </trkpt>
      <trkpt lat="47.01691" lon="1.13826">
        <ele>90</ele>
        <time>2016-05-13T14:02:15Z</time>
      </trkpt>
      <trkpt lat="47.01693" lon="1.13831">
        <ele>91</ele>
        <time>2016-05-13T14:04:15Z</time>
      </trkpt>
      <trkpt lat="47.01693" lon="1.13833">
        <ele>91</ele>
        <time>2016-05-13T14:06:15Z</time>
      </trkpt>
      <trkpt lat="47.01696" lon="1.13839">
        <ele>91</ele>
        <time>2016-05-13T14:08:15Z</time>
      </trkpt>
      <trkpt lat="47.01698" lon="1.13846">
        <ele>91</ele>
        <time>2016-05-13T14:10:15Z</time>
      </trkpt>
      <trkpt lat="47.01701" lon="1.13851">
        <ele>91</ele>
        <time>2016-05-13T14:12:15Z</time>
      </trkpt>
      <trkpt lat="47.01704" lon="1.13856">
        <ele>92</ele>
        <time>2016-05-13T14:14:15Z</time>
      </trkpt>
      <trkpt lat="47.01716" lon="1.13869">
        <ele>93</ele>
        <time>2016-05-13T14:16:15Z</time>
      </trkpt>
      <trkpt lat="47.01718" lon="1.1387">
        <ele>93</ele>
        <time>2016-05-13T14:18:15Z</time>
      </trkpt>
      <trkpt lat="47.01723" lon="1.13877">
        <ele>93</ele>
        <time>2016-05-13T14:20:15Z</time>
      </trkpt>
      <trkpt lat="47.01724" lon="1.1388">
        <ele>93</ele>
        <time>2016-05-13T14:22:15Z</time>
      </trkpt>
      <trkpt lat="47.01726" lon="1.13882">
        <ele>93</ele>
        <time>2016-05-13T14:24:15Z</time>
      </trkpt>
      <trkpt lat="47.01729" lon="1.13888">
        <ele>94</ele>
        <time>2016-05-13T14:26:15Z</time>
      </trkpt>
      <trkpt lat="47.0173" lon="1.13892">
        <ele>94</ele>
        <time>2016-05-13T14:28:15Z</time>
      </trkpt>
      <trkpt lat="47.01732" lon="1.13897">
        <ele>94</ele>
        <time>2016-05-13T14:30:15Z</time>
      </trkpt>
      <trkpt lat="47.01733" lon="1.13903">
        <ele>95</ele>
        <time>2016-05-13T14:32:15Z</time>
      </trkpt>
      <trkpt lat="47.01735" lon="1.13909">
        <ele>95</ele>
        <time>2016-05-13T14:34:15Z</time>
      </trkpt>
      <trkpt lat="47.01736" lon="1.13915">
        <ele>95</ele>
        <time>2016-05-13T14:36:15Z</time>
      </trkpt>
      <trkpt lat="47.01742" lon="1.13952">
        <ele>99</ele>
        <time>2016-05-13T14:38:15Z</time>
      </trkpt>
      <trkpt lat="47.01744" lon="1.1397">
        <ele>101</ele>
        <time>2016-05-13T14:40:15Z</time>
      </trkpt>
      <trkpt lat="47.01745" lon="1.13978">
        <ele>102</ele>
        <time>2016-05-13T14:42:15Z</time>
      </trkpt>
      <trkpt lat="47.01745" lon="1.13985">
        <ele>103</ele>
        <time>2016-05-13T14:44:15Z</time>
      </trkpt>
      <trkpt lat="47.01745" lon="1.13992">
        <ele>104</ele>
        <time>2016-05-13T14:46:15Z</time>
      </trkpt>
      <trkpt lat="47.01744" lon="1.13999">
        <ele>104</ele>
        <time>2016-05-13T14:48:15Z</time>
      </trkpt>
      <trkpt lat="47.01744" lon="1.14006">
        <ele>105</ele>
        <time>2016-05-13T14:50:15Z</time>
      </trkpt>
      <trkpt lat="47.01742" lon="1.14013">
        <ele>105</ele>
        <time>2016-05-13T14:52:15Z</time>
      </trkpt>
      <trkpt lat="47.01741" lon="1.1402">
        <ele>105</ele>
        <time>2016-05-13T14:54:15Z</time>
      </trkpt>
      <trkpt lat="47.01725" lon="1.141">
        <ele>108</ele>
        <time>2016-05-13T14:56:15Z</time>
      </trkpt>
      <trkpt lat="47.01723" lon="1.14115">
        <ele>108</ele>
        <time>2016-05-13T14:58:15Z</time>
      </trkpt>
      <trkpt lat="47.01723" lon="1.14124">
        <ele>109</ele>
        <time>2016-05-13T15:00:15Z</time>
      </trkpt>
      <trkpt lat="47.01722" lon="1.14134">
        <ele>109</ele>
        <time>2016-05-13T15:02:15Z</time>
      </trkpt>
      <trkpt lat="47.01722" lon="1.14139">
        <ele>109</ele>
        <time>2016-05-13T15:04:15Z</time>
      </trkpt>
      <trkpt lat="47.01722" lon="1.14141">
        <ele>110</ele>
        <time>2016-05-13T15:06:15Z</time>
      </trkpt>
      <trkpt lat="47.01723" lon="1.1415">
        <ele>110</ele>
        <time>2016-05-13T15:08:15Z</time>
      </trkpt>
      <trkpt lat="47.01724" lon="1.14159">
        <ele>110</ele>
        <time>2016-05-13T15:10:15Z</time>
      </trkpt>
      <trkpt lat="47.01725" lon="1.14168">
        <ele>111</ele>
        <time>2016-05-13T15:12:15Z</time>
      </trkpt>
      <trkpt lat="47.01727" lon="1.14176">
        <ele>111</ele>
        <time>2016-05-13T15:14:15Z</time>
      </trkpt>
      <trkpt lat="47.01729" lon="1.14186">
        <ele>112</ele>
        <time>2016-05-13T15:16:15Z</time>
      </trkpt>
      <trkpt lat="47.01741" lon="1.14232">
        <ele>115</ele>
        <time>2016-05-13T15:18:15Z</time>
      </trkpt>
      <trkpt lat="47.01744" lon="1.14248">
        <ele>116</ele>
        <time>2016-05-13T15:20:15Z</time>
      </trkpt>
      <trkpt lat="47.01747" lon="1.14258">
        <ele>117</ele>
        <time>2016-05-13T15:22:15Z</time>
      </trkpt>
      <trkpt lat="47.01748" lon="1.14267">
        <ele>117</ele>
        <time>2016-05-13T15:24:15Z</time>
      </trkpt>
      <trkpt lat="47.01749" lon="1.14274">
        <ele>118</ele>
        <time>2016-05-13T15:26:15Z</time>
      </trkpt>
      <trkpt lat="47.0175" lon="1.14283">
        <ele>118</ele>
        <time>2016-05-13T15:28:15Z</time>
      </trkpt>
      <trkpt lat="47.01751" lon="1.14288">
        <ele>118</ele>
        <time>2016-05-13T15:30:15Z</time>
      </trkpt>
      <trkpt lat="47.01751" lon="1.14291">
        <ele>118</ele>
        <time>2016-05-13T15:32:15Z</time>
      </trkpt>
      <trkpt lat="47.01751" lon="1.143">
        <ele>118</ele>
        <time>2016-05-13T15:34:15Z</time>
      </trkpt>
      <trkpt lat="47.01751" lon="1.14302">
        <ele>118</ele>
        <time>2016-05-13T15:36:15Z</time>
      </trkpt>
      <trkpt lat="47.0175" lon="1.14312">
        <ele>118</ele>
        <time>2016-05-13T15:38:15Z</time>
      </trkpt>
      <trkpt lat="47.01749" lon="1.14363">
        <ele>118</ele>
        <time>2016-05-13T15:40:15Z</time>
      </trkpt>
      <trkpt lat="47.01749" lon="1.14378">
        <ele>118</ele>
        <time>2016-05-13T15:42:15Z</time>
      </trkpt>
      <trkpt lat="47.01748" lon="1.14389">
        <ele>118</ele>
        <time>2016-05-13T15:44:15Z</time>
      </trkpt>
      <trkpt lat="47.01748" lon="1.14397">
        <ele>117</ele>
        <time>2016-05-13T15:46:15Z</time>
      </trkpt>
      <trkpt lat="47.01747" lon="1.14406">
        <ele>117</ele>
        <time>2016-05-13T15:48:15Z</time>
      </trkpt>
      <trkpt lat="47.01745" lon="1.14415">
        <ele>117</ele>
        <time>2016-05-13T15:50:15Z</time>
      </trkpt>
      <trkpt lat="47.01744" lon="1.14424">
        <ele>117</ele>
        <time>2016-05-13T15:52:15Z</time>
      </trkpt>
      <trkpt lat="47.01742" lon="1.14433">
        <ele>116</ele>
        <time>2016-05-13T15:54:15Z</time>
      </trkpt>
      <trkpt lat="47.0174" lon="1.14447">
        <ele>116</ele>
        <time>2016-05-13T15:56:15Z</time>
      </trkpt>
      <trkpt lat="47.0171" lon="1.14577">
        <ele>111</ele>
        <time>2016-05-13T15:58:15Z</time>
      </trkpt>
      <trkpt lat="47.01707" lon="1.14592">
        <ele>111</ele>
        <time>2016-05-13T16:00:15Z</time>
      </trkpt>
      <trkpt lat="47.01705" lon="1.146">
        <ele>111</ele>
        <time>2016-05-13T16:02:15Z</time>
      </trkpt>
      <trkpt lat="47.01702" lon="1.14609">
        <ele>111</ele>
        <time>2016-05-13T16:04:15Z</time>
      </trkpt>
      <trkpt lat="47.017" lon="1.14617">
        <ele>111</ele>
        <time>2016-05-13T16:06:15Z</time>
      </trkpt>
      <trkpt lat="47.01698" lon="1.14623">
        <ele>111</ele>
        <time>2016-05-13T16:08:15Z</time>
      </trkpt>
      <trkpt lat="47.01695" lon="1.1463">
        <ele>111</ele>
        <time>2016-05-13T16:10:15Z</time>
      </trkpt>
      <trkpt lat="47.01692" lon="1.14636">
        <ele>110</ele>
        <time>2016-05-13T16:12:15Z</time>
      </trkpt>
      <trkpt lat="47.01689" lon="1.14642">
        <ele>110</ele>
        <time>2016-05-13T16:14:15Z</time>
      </trkpt>
      <trkpt lat="47.01686" lon="1.14648">
        <ele>110</ele>
        <time>2016-05-13T16:16:15Z</time>
      </trkpt>
      <trkpt lat="47.01682" lon="1.14654">
        <ele>110</ele>
        <time>2016-05-13T16:18:15Z</time>
      </trkpt>
      <trkpt lat="47.01671" lon="1.14669">
        <ele>109</ele>
        <time>2016-05-13T16:20:15Z</time>
      </trkpt>
      <trkpt lat="47.01665" lon="1.14678">
        <ele>109</ele>
        <time>2016-05-13T16:22:15Z</time>
      </trkpt>
      <trkpt lat="47.01661" lon="1.14685">
        <ele>109</ele>
        <time>2016-05-13T16:24:15Z</time>
      </trkpt>
      <trkpt lat="47.01657" lon="1.14692">
        <ele>109</ele>
        <time>2016-05-13T16:26:15Z</time>
      </trkpt>
      <trkpt lat="47.01654" lon="1.14698">
        <ele>109</ele>
        <time>2016-05-13T16:28:15Z</time>
      </trkpt>
      <trkpt lat="47.01652" lon="1.14703">
        <ele>109</ele>
        <time>2016-05-13T16:30:15Z</time>
      </trkpt>
      <trkpt lat="47.0165" lon="1.1471">
        <ele>109</ele>
        <time>2016-05-13T16:32:15Z</time>
      </trkpt>
      <trkpt lat="47.01647" lon="1.14717">
        <ele>109</ele>
        <time>2016-05-13T16:34:15Z</time>
      </trkpt>
      <trkpt lat="47.01646" lon="1.14723">
        <ele>109</ele>
        <time>2016-05-13T16:36:15Z</time>
      </trkpt>
      <trkpt lat="47.01644" lon="1.14731">
        <ele>109</ele>
        <time>2016-05-13T16:38:15Z</time>
      </trkpt>
      <trkpt lat="47.01642" lon="1.1474">
        <ele>110</ele>
        <time>2016-05-13T16:40:15Z</time>
      </trkpt>
      <trkpt lat="47.01634" lon="1.14781">
        <ele>110</ele>
        <time>2016-05-13T16:42:15Z</time>
      </trkpt>
      <trkpt lat="47.01631" lon="1.14791">
        <ele>110</ele>
        <time>2016-05-13T16:44:15Z</time>
      </trkpt>
      <trkpt lat="47.01629" lon="1.14803">
        <ele>110</ele>
        <time>2016-05-13T16:46:15Z</time>
      </trkpt>
      <trkpt lat="47.01627" lon="1.14814">
        <ele>111</ele>
        <time>2016-05-13T16:48:15Z</time>
      </trkpt>
      <trkpt lat="47.01623" lon="1.14827">
        <ele>111</ele>
        <time>2016-05-13T16:50:15Z</time>
      </trkpt>
      <trkpt lat="47.0161" lon="1.14873">
        <ele>112</ele>
        <time>2016-05-13T16:52:15Z</time>
      </trkpt>
      <trkpt lat="47.01605" lon="1.14892">
        <ele>113</ele>
        <time>2016-05-13T16:54:15Z</time>
      </trkpt>
      <trkpt lat="47.01594" lon="1.14932">
        <ele>115</ele>
        <time>2016-05-13T16:56:15Z</time>
      </trkpt>
      <trkpt lat="47.01582" lon="1.14972">
        <ele>116</ele>
        <time>2016-05-13T16:58:15Z</time>
      </trkpt>
      <trkpt lat="47.01578" lon="1.14983">
        <ele>117</ele>
        <time>2016-05-13T17:00:15Z</time>
      </trkpt>
      <trkpt lat="47.01574" lon="1.14994">
        <ele>117</ele>
        <time>2016-05-13T17:02:15Z</time>
      </trkpt>
      <trkpt lat="47.01571" lon="1.15003">
        <ele>117</ele>
        <time>2016-05-13T17:04:15Z</time>
      </trkpt>
      <trkpt lat="47.01567" lon="1.15013">
        <ele>118</ele>
        <time>2016-05-13T17:06:15Z</time>
      </trkpt>
      <trkpt lat="47.01564" lon="1.15021">
        <ele>118</ele>
        <time>2016-05-13T17:08:15Z</time>
      </trkpt>
      <trkpt lat="47.0156" lon="1.1503">
        <ele>118</ele>
        <time>2016-05-13T17:10:15Z</time>
      </trkpt>
      <trkpt lat="47.01556" lon="1.15039">
        <ele>118</ele>
        <time>2016-05-13T17:12:15Z</time>
      </trkpt>
      <trkpt lat="47.01553" lon="1.15046">
        <ele>118</ele>
        <time>2016-05-13T17:14:15Z</time>
      </trkpt>
      <trkpt lat="47.01532" lon="1.15088">
        <ele>119</ele>
        <time>2016-05-13T17:16:15Z</time>
      </trkpt>
      <trkpt lat="47.01522" lon="1.15108">
        <ele>118</ele>
        <time>2016-05-13T17:18:15Z</time>
      </trkpt>
      <trkpt lat="47.01516" lon="1.15122">
        <ele>118</ele>
        <time>2016-05-13T17:20:15Z</time>
      </trkpt>
      <trkpt lat="47.01511" lon="1.15133">
        <ele>118</ele>
        <time>2016-05-13T17:22:15Z</time>
      </trkpt>
      <trkpt lat="47.01505" lon="1.15146">
        <ele>117</ele>
        <time>2016-05-13T17:24:15Z</time>
      </trkpt>
      <trkpt lat="47.01501" lon="1.15159">
        <ele>117</ele>
        <time>2016-05-13T17:26:15Z</time>
      </trkpt>
      <trkpt lat="47.01496" lon="1.1517">
        <ele>117</ele>
        <time>2016-05-13T17:28:15Z</time>
      </trkpt>
      <trkpt lat="47.01471" lon="1.15236">
        <ele>116</ele>
        <time>2016-05-13T17:30:15Z</time>
      </trkpt>
      <trkpt lat="47.01463" lon="1.15256">
        <ele>116</ele>
        <time>2016-05-13T17:32:15Z</time>
      </trkpt>
      <trkpt lat="47.01449" lon="1.15287">
        <ele>115</ele>
        <time>2016-05-13T17:34:15Z</time>
      </trkpt>
      <trkpt lat="47.01388" lon="1.15417">
        <ele>112</ele>
        <time>2016-05-13T17:36:15Z</time>
      </trkpt>
      <trkpt lat="47.01387" lon="1.15419">
        <ele>112</ele>
        <time>2016-05-13T17:38:15Z</time>
      </trkpt>
      <trkpt lat="47.01383" lon="1.15427">
        <ele>111</ele>
        <time>2016-05-13T17:40:15Z</time>
      </trkpt>
      <trkpt lat="47.01364" lon="1.1547">
        <ele>109</ele>
        <time>2016-05-13T17:42:15Z</time>
      </trkpt>
      <trkpt lat="47.01346" lon="1.15506">
        <ele>107</ele>
        <time>2016-05-13T17:44:15Z</time>
      </trkpt>
      <trkpt lat="47.01331" lon="1.15535">
        <ele>106</ele>
        <time>2016-05-13T17:46:15Z</time>
      </trkpt>
      <trkpt lat="47.01315" lon="1.15564">
        <ele>104</ele>
        <time>2016-05-13T17:48:15Z</time>
      </trkpt>
      <trkpt lat="47.01293" lon="1.15601">
        <ele>102</ele>
        <time>2016-05-13T17:50:15Z</time>
      </trkpt>
      <trkpt lat="47.01275" lon="1.15629">
        <ele>101</ele>
        <time>2016-05-13T17:52:15Z</time>
      </trkpt>
      <trkpt lat="47.0123" lon="1.15687">
        <ele>97</ele>
        <time>2016-05-13T17:54:15Z</time>
      </trkpt>
      <trkpt lat="47.01214" lon="1.15712">
        <ele>97</ele>
        <time>2016-05-13T17:56:15Z</time>
      </trkpt>
      <trkpt lat="47.01195" lon="1.15745">
        <ele>95</ele>
        <time>2016-05-13T17:58:15Z</time>
      </trkpt>
      <trkpt lat="47.01183" lon="1.15769">
        <ele>94</ele>
        <time>2016-05-13T18:00:15Z</time>
      </trkpt>
      <trkpt lat="47.01174" lon="1.15791">
        <ele>94</ele>
        <time>2016-05-13T18:02:15Z</time>
      </trkpt>
      <trkpt lat="47.01169" lon="1.15804">
        <ele>93</ele>
        <time>2016-05-13T18:04:15Z</time>
      </trkpt>
      <trkpt lat="47.01166" lon="1.15814">
        <ele>93</ele>
        <time>2016-05-13T18:06:15Z</time>
      </trkpt>
      <trkpt lat="47.01153" lon="1.15859">
        <ele>93</ele>
        <time>2016-05-13T18:08:15Z</time>
      </trkpt>
      <trkpt lat="47.01147" lon="1.15877">
        <ele>93</ele>
        <time>2016-05-13T18:10:15Z</time>
      </trkpt>
      <trkpt lat="47.01143" lon="1.15891">
        <ele>93</ele>
        <time>2016-05-13T18:12:15Z</time>
      </trkpt>
      <trkpt lat="47.01139" lon="1.15904">
        <ele>93</ele>
        <time>2016-05-13T18:14:15Z</time>
      </trkpt>
      <trkpt lat="47.01136" lon="1.15913">
        <ele>93</ele>
        <time>2016-05-13T18:16:15Z</time>
      </trkpt>
      <trkpt lat="47.01132" lon="1.15922">
        <ele>93</ele>
        <time>2016-05-13T18:18:15Z</time>
      </trkpt>
      <trkpt lat="47.01129" lon="1.1593">
        <ele>94</ele>
        <time>2016-05-13T18:20:15Z</time>
      </trkpt>
      <trkpt lat="47.01125" lon="1.15938">
        <ele>94</ele>
        <time>2016-05-13T18:22:15Z</time>
      </trkpt>
      <trkpt lat="47.01121" lon="1.15945">
        <ele>94</ele>
        <time>2016-05-13T18:24:15Z</time>
      </trkpt>
      <trkpt lat="47.01117" lon="1.15951">
        <ele>94</ele>
        <time>2016-05-13T18:26:15Z</time>
      </trkpt>
      <trkpt lat="47.0111" lon="1.15962">
        <ele>94</ele>
        <time>2016-05-13T18:28:15Z</time>
      </trkpt>
      <trkpt lat="47.01103" lon="1.15974">
        <ele>95</ele>
        <time>2016-05-13T18:30:15Z</time>
      </trkpt>
      <trkpt lat="47.01067" lon="1.1602">
        <ele>95</ele>
        <time>2016-05-13T18:32:15Z</time>
      </trkpt>
      <trkpt lat="47.01038" lon="1.16061">
        <ele>97</ele>
        <time>2016-05-13T18:34:15Z</time>
      </trkpt>
      <trkpt lat="47.01033" lon="1.16068">
        <ele>98</ele>
        <time>2016-05-13T18:36:15Z</time>
      </trkpt>
      <trkpt lat="47.01029" lon="1.16075">
        <ele>98</ele>
        <time>2016-05-13T18:38:15Z</time>
      </trkpt>
      <trkpt lat="47.01025" lon="1.16083">
        <ele>98</ele>
        <time>2016-05-13T18:40:15Z</time>
      </trkpt>
      <trkpt lat="47.01022" lon="1.1609">
        <ele>99</ele>
        <time>2016-05-13T18:42:15Z</time>
      </trkpt>
      <trkpt lat="47.01019" lon="1.16097">
        <ele>99</ele>
        <time>2016-05-13T18:44:15Z</time>
      </trkpt>
      <trkpt lat="47.01016" lon="1.16105">
        <ele>99</ele>
        <time>2016-05-13T18:46:15Z</time>
      </trkpt>
      <trkpt lat="47.01013" lon="1.16113">
        <ele>99</ele>
        <time>2016-05-13T18:48:15Z</time>
      </trkpt>
      <trkpt lat="47.01011" lon="1.16122">
        <ele>99</ele>
        <time>2016-05-13T18:50:15Z</time>
      </trkpt>
      <trkpt lat="47.01007" lon="1.16135">
        <ele>100</ele>
        <time>2016-05-13T18:52:15Z</time>
      </trkpt>
      <trkpt lat="47.01001" lon="1.16159">
        <ele>100</ele>
        <time>2016-05-13T18:54:15Z</time>
      </trkpt>
      <trkpt lat="47.00996" lon="1.16177">
        <ele>100</ele>
        <time>2016-05-13T18:56:15Z</time>
      </trkpt>
      <trkpt lat="47.0099" lon="1.16198">
        <ele>100</ele>
        <time>2016-05-13T18:58:15Z</time>
      </trkpt>
      <trkpt lat="47.00976" lon="1.16249">
        <ele>100</ele>
        <time>2016-05-13T19:00:15Z</time>
      </trkpt>
      <trkpt lat="47.00958" lon="1.16317">
        <ele>99</ele>
        <time>2016-05-13T19:02:15Z</time>
      </trkpt>
      <trkpt lat="47.00929" lon="1.16419">
        <ele>97</ele>
        <time>2016-05-13T19:04:15Z</time>
      </trkpt>
      <trkpt lat="47.00908" lon="1.16495">
        <ele>99</ele>
        <time>2016-05-13T19:06:15Z</time>
      </trkpt>
      <trkpt lat="47.00905" lon="1.16506">
        <ele>99</ele>
        <time>2016-05-13T19:08:15Z</time>
      </trkpt>
      <trkpt lat="47.00903" lon="1.16515">
        <ele>99</ele>
        <time>2016-05-13T19:10:15Z</time>
      </trkpt>
      <trkpt lat="47.00899" lon="1.16525">
        <ele>99</ele>
        <time>2016-05-13T19:12:15Z</time>
      </trkpt>
      <trkpt lat="47.00894" lon="1.16535">
        <ele>99</ele>
        <time>2016-05-13T19:14:15Z</time>
      </trkpt>
      <trkpt lat="47.0089" lon="1.16544">
        <ele>99</ele>
        <time>2016-05-13T19:16:15Z</time>
      </trkpt>
      <trkpt lat="47.00882" lon="1.16558">
        <ele>98</ele>
        <time>2016-05-13T19:18:15Z</time>
      </trkpt>
      <trkpt lat="47.00833" lon="1.16642">
        <ele>100</ele>
        <time>2016-05-13T19:20:15Z</time>
      </trkpt>
      <trkpt lat="47.00819" lon="1.16665">
        <ele>101</ele>
        <time>2016-05-13T19:22:15Z</time>
      </trkpt>
      <trkpt lat="47.00739" lon="1.16798">
        <ele>107</ele>
        <time>2016-05-13T19:24:15Z</time>
      </trkpt>
      <trkpt lat="47.00727" lon="1.16821">
        <ele>108</ele>
        <time>2016-05-13T19:26:15Z</time>
      </trkpt>
      <trkpt lat="47.00717" lon="1.1684">
        <ele>108</ele>
        <time>2016-05-13T19:28:15Z</time>
      </trkpt>
      <trkpt lat="47.00707" lon="1.16864">
        <ele>109</ele>
        <time>2016-05-13T19:30:15Z</time>
      </trkpt>
      <trkpt lat="47.00697" lon="1.16888">
        <ele>110</ele>
        <time>2016-05-13T19:32:15Z</time>
      </trkpt>
      <trkpt lat="47.00686" lon="1.16921">
        <ele>110</ele>
        <time>2016-05-13T19:34:15Z</time>
      </trkpt>
      <trkpt lat="47.00677" lon="1.16956">
        <ele>111</ele>
        <time>2016-05-13T19:36:15Z</time>
      </trkpt>
      <trkpt lat="47.00672" lon="1.1697">
        <ele>111</ele>
        <time>2016-05-13T19:38:15Z</time>
      </trkpt>
      <trkpt lat="47.00666" lon="1.16997">
        <ele>112</ele>
        <time>2016-05-13T19:40:15Z</time>
      </trkpt>
      <trkpt lat="47.00659" lon="1.17026">
        <ele>111</ele>
        <time>2016-05-13T19:42:15Z</time>
      </trkpt>
      <trkpt lat="47.00656" lon="1.17038">
        <ele>110</ele>
        <time>2016-05-13T19:44:15Z</time>
      </trkpt>
      <trkpt lat="47.00653" lon="1.17047">
        <ele>110</ele>
        <time>2016-05-13T19:46:15Z</time>
      </trkpt>
      <trkpt lat="47.00649" lon="1.17057">
        <ele>109</ele>
        <time>2016-05-13T19:48:15Z</time>
      </trkpt>
      <trkpt lat="47.00643" lon="1.17069">
        <ele>109</ele>
        <time>2016-05-13T19:50:15Z</time>
      </trkpt>
      <trkpt lat="47.00639" lon="1.17076">
        <ele>108</ele>
        <time>2016-05-13T19:52:15Z</time>
      </trkpt>
      <trkpt lat="47.00555" lon="1.17219">
        <ele>98</ele>
        <time>2016-05-13T19:54:15Z</time>
      </trkpt>
      <trkpt lat="47.00527" lon="1.17269">
        <ele>96</ele>
        <time>2016-05-13T19:56:15Z</time>
      </trkpt>
      <trkpt lat="47.00485" lon="1.17343">
        <ele>94</ele>
        <time>2016-05-13T19:58:15Z</time>
      </trkpt>
      <trkpt lat="47.00474" lon="1.17366">
        <ele>94</ele>
        <time>2016-05-13T20:00:15Z</time>
      </trkpt>
      <trkpt lat="47.00466" lon="1.17383">
        <ele>94</ele>
        <time>2016-05-13T20:02:15Z</time>
      </trkpt>
      <trkpt lat="47.00458" lon="1.17403">
        <ele>93</ele>
        <time>2016-05-13T20:04:15Z</time>
      </trkpt>
      <trkpt lat="47.0045" lon="1.17429">
        <ele>94</ele>
        <time>2016-05-13T20:06:15Z</time>
      </trkpt>
      <trkpt lat="47.00423" lon="1.17514">
        <ele>94</ele>
        <time>2016-05-13T20:08:15Z</time>
      </trkpt>
      <trkpt lat="47.0042" lon="1.17522">
        <ele>94</ele>
        <time>2016-05-13T20:10:15Z</time>
      </trkpt>
      <trkpt lat="47.00418" lon="1.17529">
        <ele>94</ele>
        <time>2016-05-13T20:12:15Z</time>
      </trkpt>
      <trkpt lat="47.00418" lon="1.1753">
        <ele>94</ele>
        <time>2016-05-13T20:14:15Z</time>
      </trkpt>
      <trkpt lat="47.00415" lon="1.17537">
        <ele>94</ele>
        <time>2016-05-13T20:16:15Z</time>
      </trkpt>
      <trkpt lat="47.00414" lon="1.17538">
        <ele>94</ele>
        <time>2016-05-13T20:18:15Z</time>
      </trkpt>
      <trkpt lat="47.00409" lon="1.17548">
        <ele>94</ele>
        <time>2016-05-13T20:20:15Z</time>
      </trkpt>
      <trkpt lat="47.00404" lon="1.17559">
        <ele>94</ele>
        <time>2016-05-13T20:22:15Z</time>
      </trkpt>
      <trkpt lat="47.00392" lon="1.17578">
        <ele>93</ele>
        <time>2016-05-13T20:24:15Z</time>
      </trkpt>
      <trkpt lat="47.00386" lon="1.17588">
        <ele>93</ele>
        <time>2016-05-13T20:26:15Z</time>
      </trkpt>
      <trkpt lat="47.00381" lon="1.17597">
        <ele>93</ele>
        <time>2016-05-13T20:28:15Z</time>
      </trkpt>
      <trkpt lat="47.00377" lon="1.17602">
        <ele>93</ele>
        <time>2016-05-13T20:30:15Z</time>
      </trkpt>
      <trkpt lat="47.00373" lon="1.17607">
        <ele>93</ele>
        <time>2016-05-13T20:32:15Z</time>
      </trkpt>
      <trkpt lat="47.00368" lon="1.17613">
        <ele>93</ele>
        <time>2016-05-13T20:34:15Z</time>
      </trkpt>
      <trkpt lat="47.00363" lon="1.17617">
        <ele>93</ele>
        <time>2016-05-13T20:36:15Z</time>
      </trkpt>
      <trkpt lat="47.00359" lon="1.17621">
        <ele>93</ele>
        <time>2016-05-13T20:38:15Z</time>
      </trkpt>
      <trkpt lat="47.00354" lon="1.17624">
        <ele>93</ele>
        <time>2016-05-13T20:40:15Z</time>
      </trkpt>
      <trkpt lat="47.0035" lon="1.17626">
        <ele>93</ele>
        <time>2016-05-13T20:42:15Z</time>
      </trkpt>
      <trkpt lat="47.00347" lon="1.17627">
        <ele>93</ele>
        <time>2016-05-13T20:44:15Z</time>
      </trkpt>
      <trkpt lat="47.00345" lon="1.17628">
        <ele>93</ele>
        <time>2016-05-13T20:46:15Z</time>
      </trkpt>
      <trkpt lat="47.0034" lon="1.1763">
        <ele>93</ele>
        <time>2016-05-13T20:48:15Z</time>
      </trkpt>
      <trkpt lat="47.00336" lon="1.17631">
        <ele>93</ele>
        <time>2016-05-13T20:50:15Z</time>
      </trkpt>
      <trkpt lat="47.0033" lon="1.17632">
        <ele>93</ele>
        <time>2016-05-13T20:52:15Z</time>
      </trkpt>
      <trkpt lat="47.00325" lon="1.17632">
        <ele>93</ele>
        <time>2016-05-13T20:54:15Z</time>
      </trkpt>
      <trkpt lat="47.00321" lon="1.17632">
        <ele>93</ele>
        <time>2016-05-13T20:56:15Z</time>
      </trkpt>
      <trkpt lat="47.00316" lon="1.17632">
        <ele>93</ele>
        <time>2016-05-13T20:58:15Z</time>
      </trkpt>
      <trkpt lat="47.00309" lon="1.1763">
        <ele>93</ele>
        <time>2016-05-13T21:00:15Z</time>
      </trkpt>
      <trkpt lat="47.00303" lon="1.17628">
        <ele>93</ele>
        <time>2016-05-13T21:02:15Z</time>
      </trkpt>
      <trkpt lat="47.00295" lon="1.17626">
        <ele>93</ele>
        <time>2016-05-13T21:04:15Z</time>
      </trkpt>
      <trkpt lat="47.00285" lon="1.17619">
        <ele>93</ele>
        <time>2016-05-13T21:06:15Z</time>
      </trkpt>
      <trkpt lat="47.00193" lon="1.17559">
        <ele>92</ele>
        <time>2016-05-13T21:08:15Z</time>
      </trkpt>
      <trkpt lat="47.00146" lon="1.17528">
        <ele>93</ele>
        <time>2016-05-13T21:10:15Z</time>
      </trkpt>
      <trkpt lat="47.00127" lon="1.17516">
        <ele>93</ele>
        <time>2016-05-13T21:12:15Z</time>
      </trkpt>
      <trkpt lat="47.00114" lon="1.17509">
        <ele>94</ele>
        <time>2016-05-13T21:14:15Z</time>
      </trkpt>
      <trkpt lat="47.00101" lon="1.17501">
        <ele>94</ele>
        <time>2016-05-13T21:16:15Z</time>
      </trkpt>
      <trkpt lat="47.00094" lon="1.17498">
        <ele>95</ele>
        <time>2016-05-13T21:18:15Z</time>
      </trkpt>
      <trkpt lat="47.00086" lon="1.17493">
        <ele>95</ele>
        <time>2016-05-13T21:20:15Z</time>
      </trkpt>
      <trkpt lat="47.00078" lon="1.1749">
        <ele>95</ele>
        <time>2016-05-13T21:22:15Z</time>
      </trkpt>
      <trkpt lat="47.0007" lon="1.17487">
        <ele>94</ele>
        <time>2016-05-13T21:24:15Z</time>
      </trkpt>
      <trkpt lat="47.00063" lon="1.17484">
        <ele>94</ele>
        <time>2016-05-13T21:26:15Z</time>
      </trkpt>
      <trkpt lat="47.00055" lon="1.17481">
        <ele>94</ele>
        <time>2016-05-13T21:28:15Z</time>
      </trkpt>
      <trkpt lat="47.00048" lon="1.17479">
        <ele>94</ele>
        <time>2016-05-13T21:30:15Z</time>
      </trkpt>
      <trkpt lat="47.00041" lon="1.17476">
        <ele>94</ele>
        <time>2016-05-13T21:32:15Z</time>
      </trkpt>
      <trkpt lat="47.00034" lon="1.17474">
        <ele>93</ele>
        <time>2016-05-13T21:34:15Z</time>
      </trkpt>
      <trkpt lat="47.00026" lon="1.17472">
        <ele>93</ele>
        <time>2016-05-13T21:36:15Z</time>
      </trkpt>
      <trkpt lat="47.00018" lon="1.1747">
        <ele>93</ele>
        <time>2016-05-13T21:38:15Z</time>
      </trkpt>
      <trkpt lat="47.00009" lon="1.17469">
        <ele>93</ele>
        <time>2016-05-13T21:40:15Z</time>
      </trkpt>
      <trkpt lat="46.99998" lon="1.17467">
        <ele>93</ele>
        <time>2016-05-13T21:42:15Z</time>
      </trkpt>
      <trkpt lat="46.99989" lon="1.17466">
        <ele>92</ele>
        <time>2016-05-13T21:44:15Z</time>
      </trkpt>
      <trkpt lat="46.9998" lon="1.17465">
        <ele>92</ele>
        <time>2016-05-13T21:46:15Z</time>
      </trkpt>
      <trkpt lat="46.99972" lon="1.17465">
        <ele>92</ele>
        <time>2016-05-13T21:48:15Z</time>
      </trkpt>
      <trkpt lat="46.99963" lon="1.17465">
        <ele>92</ele>
        <time>2016-05-13T21:50:15Z</time>
      </trkpt>
      <trkpt lat="46.99956" lon="1.17465">
        <ele>92</ele>
        <time>2016-05-13T21:52:15Z</time>
      </trkpt>
      <trkpt lat="46.99946" lon="1.17465">
        <ele>91</ele>
        <time>2016-05-13T21:54:15Z</time>
      </trkpt>
      <trkpt lat="46.99937" lon="1.17467">
        <ele>91</ele>
        <time>2016-05-13T21:56:15Z</time>
      </trkpt>
      <trkpt lat="46.99927" lon="1.17469">
        <ele>91</ele>
        <time>2016-05-13T21:58:15Z</time>
      </trkpt>
      <trkpt lat="46.99914" lon="1.17474">
        <ele>91</ele>
        <time>2016-05-13T22:00:15Z</time>
      </trkpt>
      <trkpt lat="46.99837" lon="1.17507">
        <ele>90</ele>
        <time>2016-05-13T22:02:15Z</time>
      </trkpt>
      <trkpt lat="46.99828" lon="1.17512">
        <ele>90</ele>
        <time>2016-05-13T22:04:15Z</time>
      </trkpt>
      <trkpt lat="46.99822" lon="1.17516">
        <ele>90</ele>
        <time>2016-05-13T22:06:15Z</time>
      </trkpt>
      <trkpt lat="46.99813" lon="1.17521">
        <ele>90</ele>
        <time>2016-05-13T22:08:15Z</time>
      </trkpt>
      <trkpt lat="46.99806" lon="1.17527">
        <ele>90</ele>
        <time>2016-05-13T22:10:15Z</time>
      </trkpt>
      <trkpt lat="46.99798" lon="1.17534">
        <ele>90</ele>
        <time>2016-05-13T22:12:15Z</time>
      </trkpt>
      <trkpt lat="46.99789" lon="1.17543">
        <ele>90</ele>
        <time>2016-05-13T22:14:15Z</time>
      </trkpt>
      <trkpt lat="46.99778" lon="1.17557">
        <ele>91</ele>
        <time>2016-05-13T22:16:15Z</time>
      </trkpt>
      <trkpt lat="46.99771" lon="1.17565">
        <ele>91</ele>
        <time>2016-05-13T22:18:15Z</time>
      </trkpt>
      <trkpt lat="46.99766" lon="1.17572">
        <ele>91</ele>
        <time>2016-05-13T22:20:15Z</time>
      </trkpt>
      <trkpt lat="46.99764" lon="1.17574">
        <ele>91</ele>
        <time>2016-05-13T22:22:15Z</time>
      </trkpt>
      <trkpt lat="46.99755" lon="1.17585">
        <ele>91</ele>
        <time>2016-05-13T22:24:15Z</time>
      </trkpt>
      <trkpt lat="46.997" lon="1.17659">
        <ele>90</ele>
        <time>2016-05-13T22:26:15Z</time>
      </trkpt>
      <trkpt lat="46.99693" lon="1.17668">
        <ele>90</ele>
        <time>2016-05-13T22:28:15Z</time>
      </trkpt>
      <trkpt lat="46.99658" lon="1.17712">
        <ele>89</ele>
        <time>2016-05-13T22:30:15Z</time>
      </trkpt>
      <trkpt lat="46.9965" lon="1.17723">
        <ele>89</ele>
        <time>2016-05-13T22:32:15Z</time>
      </trkpt>
      <trkpt lat="46.99643" lon="1.17732">
        <ele>88</ele>
        <time>2016-05-13T22:34:15Z</time>
      </trkpt>
      <trkpt lat="46.99639" lon="1.17739">
        <ele>88</ele>
        <time>2016-05-13T22:36:15Z</time>
      </trkpt>
      <trkpt lat="46.99638" lon="1.17741">
        <ele>88</ele>
        <time>2016-05-13T22:38:15Z</time>
      </trkpt>
      <trkpt lat="46.99636" lon="1.17746">
        <ele>88</ele>
        <time>2016-05-13T22:40:15Z</time>
      </trkpt>
      <trkpt lat="46.99632" lon="1.17752">
        <ele>88</ele>
        <time>2016-05-13T22:42:15Z</time>
      </trkpt>
      <trkpt lat="46.99628" lon="1.17763">
        <ele>88</ele>
        <time>2016-05-13T22:44:15Z</time>
      </trkpt>
      <trkpt lat="46.99621" lon="1.17783">
        <ele>88</ele>
        <time>2016-05-13T22:46:15Z</time>
      </trkpt>
      <trkpt lat="46.99613" lon="1.17804">
        <ele>87</ele>
        <time>2016-05-13T22:48:15Z</time>
      </trkpt>
      <trkpt lat="46.99598" lon="1.17839">
        <ele>87</ele>
        <time>2016-05-13T22:50:15Z</time>
      </trkpt>
      <trkpt lat="46.99552" lon="1.1793">
        <ele>88</ele>
        <time>2016-05-13T22:52:15Z</time>
      </trkpt>
      <trkpt lat="46.99487" lon="1.18057">
        <ele>87</ele>
        <time>2016-05-13T22:54:15Z</time>
      </trkpt>
      <trkpt lat="46.99475" lon="1.18079">
        <ele>87</ele>
        <time>2016-05-13T22:56:15Z</time>
      </trkpt>
      <trkpt lat="46.99463" lon="1.18098">
        <ele>87</ele>
        <time>2016-05-13T22:58:15Z</time>
      </trkpt>
      <trkpt lat="46.99452" lon="1.18115">
        <ele>87</ele>
        <time>2016-05-13T23:00:15Z</time>
      </trkpt>
      <trkpt lat="46.99437" lon="1.1813">
        <ele>86</ele>
        <time>2016-05-13T23:02:15Z</time>
      </trkpt>
      <trkpt lat="46.99434" lon="1.18132">
        <ele>86</ele>
        <time>2016-05-13T23:04:15Z</time>
      </trkpt>
      <trkpt lat="46.99425" lon="1.1814">
        <ele>86</ele>
        <time>2016-05-13T23:06:15Z</time>
      </trkpt>
      <trkpt lat="46.99411" lon="1.18148">
        <ele>86</ele>
        <time>2016-05-13T23:08:15Z</time>
      </trkpt>
      <trkpt lat="46.99394" lon="1.18156">
        <ele>86</ele>
        <time>2016-05-13T23:10:15Z</time>
      </trkpt>
      <trkpt lat="46.99373" lon="1.18164">
        <ele>87</ele>
        <time>2016-05-13T23:12:15Z</time>
      </trkpt>
      <trkpt lat="46.99363" lon="1.18169">
        <ele>87</ele>
        <time>2016-05-13T23:14:15Z</time>
      </trkpt>
      <trkpt lat="46.99359" lon="1.18171">
        <ele>87</ele>
        <time>2016-05-13T23:16:15Z</time>
      </trkpt>
      <trkpt lat="46.99347" lon="1.18178">
        <ele>87</ele>
        <time>2016-05-13T23:18:15Z</time>
      </trkpt>
      <trkpt lat="46.99333" lon="1.18186">
        <ele>87</ele>
        <time>2016-05-13T23:20:15Z</time>
      </trkpt>
      <trkpt lat="46.99321" lon="1.18197">
        <ele>87</ele>
        <time>2016-05-13T23:22:15Z</time>
      </trkpt>
      <trkpt lat="46.99309" lon="1.18208">
        <ele>87</ele>
        <time>2016-05-13T23:24:15Z</time>
      </trkpt>
      <trkpt lat="46.99293" lon="1.18224">
        <ele>87</ele>
        <time>2016-05-13T23:26:15Z</time>
      </trkpt>
      <trkpt lat="46.99281" lon="1.1824">
        <ele>87</ele>
        <time>2016-05-13T23:28:15Z</time>
      </trkpt>
      <trkpt lat="46.99267" lon="1.18264">
        <ele>88</ele>
        <time>2016-05-13T23:30:15Z</time>
      </trkpt>
      <trkpt lat="46.99234" lon="1.18318">
        <ele>88</ele>
        <time>2016-05-13T23:32:15Z</time>
      </trkpt>
      <trkpt lat="46.99218" lon="1.18342">
        <ele>89</ele>
        <time>2016-05-13T23:34:15Z</time>
      </trkpt>
      <trkpt lat="46.99205" lon="1.18361">
        <ele>89</ele>
        <time>2016-05-13T23:36:15Z</time>
      </trkpt>
      <trkpt lat="46.99189" lon="1.18381">
        <ele>90</ele>
        <time>2016-05-13T23:38:15Z</time>
      </trkpt>
      <trkpt lat="46.99159" lon="1.18416">
        <ele>90</ele>
        <time>2016-05-13T23:40:15Z</time>
      </trkpt>
      <trkpt lat="46.99147" lon="1.18428">
        <ele>90</ele>
        <time>2016-05-13T23:42:15Z</time>
      </trkpt>
      <trkpt lat="46.99147" lon="1.18428">
        <ele>90</ele>
        <time>2016-05-13T23:44:15Z</time>
      </trkpt>
      <trkpt lat="46.99201" lon="1.18535">
        <ele>94</ele>
        <time>2016-05-13T23:46:15Z</time>
      </trkpt>
      <trkpt lat="46.99201" lon="1.18535">
        <ele>94</ele>
        <time>2016-05-13T23:48:15Z</time>
      </trkpt>
      <trkpt lat="46.9919" lon="1.18546">
        <ele>94</ele>
        <time>2016-05-13T23:50:15Z</time>
      </trkpt>
      <trkpt lat="46.99181" lon="1.18556">
        <ele>94</ele>
        <time>2016-05-13T23:52:15Z</time>
      </trkpt>
      <trkpt lat="46.99174" lon="1.18562">
        <ele>94</ele>
        <time>2016-05-13T23:54:15Z</time>
      </trkpt>
      <trkpt lat="46.99169" lon="1.18566">
        <ele>94</ele>
        <time>2016-05-13T23:56:15Z</time>
      </trkpt>
      <trkpt lat="46.99159" lon="1.18575">
        <ele>94</ele>
        <time>2016-05-13T23:58:15Z</time>
      </trkpt>
      <trkpt lat="46.99147" lon="1.18585">
        <ele>94</ele>
        <time>2016-05-14T00:00:15Z</time>
      </trkpt>
      <trkpt lat="46.99134" lon="1.18593">
        <ele>93</ele>
        <time>2016-05-14T00:02:15Z</time>
      </trkpt>
      <trkpt lat="46.99122" lon="1.18598">
        <ele>93</ele>
        <time>2016-05-14T00:04:15Z</time>
      </trkpt>
      <trkpt lat="46.99097" lon="1.1861">
        <ele>92</ele>
        <time>2016-05-14T00:06:15Z</time>
      </trkpt>
      <trkpt lat="46.99074" lon="1.18621">
        <ele>91</ele>
        <time>2016-05-14T00:08:15Z</time>
      </trkpt>
      <trkpt lat="46.99048" lon="1.18634">
        <ele>91</ele>
        <time>2016-05-14T00:10:15Z</time>
      </trkpt>
      <trkpt lat="46.99016" lon="1.1865">
        <ele>90</ele>
        <time>2016-05-14T00:12:15Z</time>
      </trkpt>
      <trkpt lat="46.98982" lon="1.18669">
        <ele>90</ele>
        <time>2016-05-14T00:14:15Z</time>
      </trkpt>
      <trkpt lat="46.98979" lon="1.1867">
        <ele>90</ele>
        <time>2016-05-14T00:16:15Z</time>
      </trkpt>
      <trkpt lat="46.98977" lon="1.18672">
        <ele>90</ele>
        <time>2016-05-14T00:18:15Z</time>
      </trkpt>
      <trkpt lat="46.98943" lon="1.18688">
        <ele>89</ele>
        <time>2016-05-14T00:20:15Z</time>
      </trkpt>
      <trkpt lat="46.98907" lon="1.18705">
        <ele>89</ele>
        <time>2016-05-14T00:22:15Z</time>
      </trkpt>
      <trkpt lat="46.98902" lon="1.18707">
        <ele>89</ele>
        <time>2016-05-14T00:24:15Z</time>
      </trkpt>
      <trkpt lat="46.98897" lon="1.18709">
        <ele>89</ele>
        <time>2016-05-14T00:26:15Z</time>
      </trkpt>
      <trkpt lat="46.98891" lon="1.18711">
        <ele>89</ele>
        <time>2016-05-14T00:28:15Z</time>
      </trkpt>
      <trkpt lat="46.98885" lon="1.18711">
        <ele>90</ele>
        <time>2016-05-14T00:30:15Z</time>
      </trkpt>
      <trkpt lat="46.9888" lon="1.18712">
        <ele>90</ele>
        <time>2016-05-14T00:32:15Z</time>
      </trkpt>
      <trkpt lat="46.98874" lon="1.18712">
        <ele>90</ele>
        <time>2016-05-14T00:34:15Z</time>
      </trkpt>
      <trkpt lat="46.98866" lon="1.1871">
        <ele>90</ele>
        <time>2016-05-14T00:36:15Z</time>
      </trkpt>
      <trkpt lat="46.98859" lon="1.18708">
        <ele>90</ele>
        <time>2016-05-14T00:38:15Z</time>
      </trkpt>
      <trkpt lat="46.98858" lon="1.18709">
        <ele>90</ele>
        <time>2016-05-14T00:40:15Z</time>
      </trkpt>
      <trkpt lat="46.9885" lon="1.18706">
        <ele>90</ele>
        <time>2016-05-14T00:42:15Z</time>
      </trkpt>
      <trkpt lat="46.98847" lon="1.18705">
        <ele>90</ele>
        <time>2016-05-14T00:44:15Z</time>
      </trkpt>
      <trkpt lat="46.98836" lon="1.18701">
        <ele>90</ele>
        <time>2016-05-14T00:46:15Z</time>
      </trkpt>
      <trkpt lat="46.98831" lon="1.18699">
        <ele>90</ele>
        <time>2016-05-14T00:48:15Z</time>
      </trkpt>
      <trkpt lat="46.98827" lon="1.18698">
        <ele>90</ele>
        <time>2016-05-14T00:50:15Z</time>
      </trkpt>
      <trkpt lat="46.98823" lon="1.18698">
        <ele>90</ele>
        <time>2016-05-14T00:52:15Z</time>
      </trkpt>
      <trkpt lat="46.98819" lon="1.18699">
        <ele>90</ele>
        <time>2016-05-14T00:54:15Z</time>
      </trkpt>
      <trkpt lat="46.98815" lon="1.187">
        <ele>90</ele>
        <time>2016-05-14T00:56:15Z</time>
      </trkpt>
      <trkpt lat="46.9881" lon="1.18702">
        <ele>90</ele>
        <time>2016-05-14T00:58:15Z</time>
      </trkpt>
      <trkpt lat="46.98806" lon="1.18705">
        <ele>90</ele>
        <time>2016-05-14T01:00:15Z</time>
      </trkpt>
      <trkpt lat="46.988" lon="1.1871">
        <ele>90</ele>
        <time>2016-05-14T01:02:15Z</time>
      </trkpt>
      <trkpt lat="46.98794" lon="1.18716">
        <ele>90</ele>
        <time>2016-05-14T01:04:15Z</time>
      </trkpt>
      <trkpt lat="46.98781" lon="1.18734">
        <ele>90</ele>
        <time>2016-05-14T01:06:15Z</time>
      </trkpt>
      <trkpt lat="46.98775" lon="1.18741">
        <ele>90</ele>
        <time>2016-05-14T01:08:15Z</time>
      </trkpt>
      <trkpt lat="46.98767" lon="1.18752">
        <ele>90</ele>
        <time>2016-05-14T01:10:15Z</time>
      </trkpt>
      <trkpt lat="46.98757" lon="1.18762">
        <ele>91</ele>
        <time>2016-05-14T01:12:15Z</time>
      </trkpt>
      <trkpt lat="46.98745" lon="1.18771">
        <ele>91</ele>
        <time>2016-05-14T01:14:15Z</time>
      </trkpt>
      <trkpt lat="46.98737" lon="1.18776">
        <ele>91</ele>
        <time>2016-05-14T01:16:15Z</time>
      </trkpt>
      <trkpt lat="46.98727" lon="1.18784">
        <ele>91</ele>
        <time>2016-05-14T01:18:15Z</time>
      </trkpt>
      <trkpt lat="46.98718" lon="1.18791">
        <ele>91</ele>
        <time>2016-05-14T01:20:15Z</time>
      </trkpt>
      <trkpt lat="46.98708" lon="1.18802">
        <ele>91</ele>
        <time>2016-05-14T01:22:15Z</time>
      </trkpt>
      <trkpt lat="46.98676" lon="1.18847">
        <ele>91</ele>
        <time>2016-05-14T01:24:15Z</time>
      </trkpt>
      <trkpt lat="46.98627" lon="1.18915">
        <ele>91</ele>
        <time>2016-05-14T01:26:15Z</time>
      </trkpt>
      <trkpt lat="46.98563" lon="1.19004">
        <ele>92</ele>
        <time>2016-05-14T01:28:15Z</time>
      </trkpt>
      <trkpt lat="46.98519" lon="1.19066">
        <ele>92</ele>
        <time>2016-05-14T01:30:15Z</time>
      </trkpt>
      <trkpt lat="46.9845" lon="1.19161">
        <ele>92</ele>
        <time>2016-05-14T01:32:15Z</time>
      </trkpt>
      <trkpt lat="46.98398" lon="1.19234">
        <ele>90</ele>
        <time>2016-05-14T01:34:15Z</time>
      </trkpt>
      <trkpt lat="46.98384" lon="1.1926">
        <ele>90</ele>
        <time>2016-05-14T01:36:15Z</time>
      </trkpt>
      <trkpt lat="46.98374" lon="1.19281">
        <ele>90</ele>
        <time>2016-05-14T01:38:15Z</time>
      </trkpt>
      <trkpt lat="46.98373" lon="1.19283">
        <ele>90</ele>
        <time>2016-05-14T01:40:15Z</time>
      </trkpt>
      <trkpt lat="46.98358" lon="1.1933">
        <ele>91</ele>
        <time>2016-05-14T01:42:15Z</time>
      </trkpt>
      <trkpt lat="46.98347" lon="1.19363">
        <ele>91</ele>
        <time>2016-05-14T01:44:15Z</time>
      </trkpt>
      <trkpt lat="46.98336" lon="1.1939">
        <ele>91</ele>
        <time>2016-05-14T01:46:15Z</time>
      </trkpt>
      <trkpt lat="46.9832" lon="1.19423">
        <ele>90</ele>
        <time>2016-05-14T01:48:15Z</time>
      </trkpt>
      <trkpt lat="46.98302" lon="1.19453">
        <ele>90</ele>
        <time>2016-05-14T01:50:15Z</time>
      </trkpt>
      <trkpt lat="46.98283" lon="1.19476">
        <ele>90</ele>
        <time>2016-05-14T01:52:15Z</time>
      </trkpt>
      <trkpt lat="46.98272" lon="1.19488">
        <ele>91</ele>
        <time>2016-05-14T01:54:15Z</time>
      </trkpt>
      <trkpt lat="46.98263" lon="1.19498">
        <ele>91</ele>
        <time>2016-05-14T01:56:15Z</time>
      </trkpt>
      <trkpt lat="46.98251" lon="1.1951">
        <ele>91</ele>
        <time>2016-05-14T01:58:15Z</time>
      </trkpt>
      <trkpt lat="46.9823" lon="1.19528">
        <ele>91</ele>
        <time>2016-05-14T02:00:15Z</time>
      </trkpt>
      <trkpt lat="46.98215" lon="1.19539">
        <ele>91</ele>
        <time>2016-05-14T02:02:15Z</time>
      </trkpt>
      <trkpt lat="46.98184" lon="1.19559">
        <ele>92</ele>
        <time>2016-05-14T02:04:15Z</time>
      </trkpt>
      <trkpt lat="46.98153" lon="1.19577">
        <ele>92</ele>
        <time>2016-05-14T02:06:15Z</time>
      </trkpt>
      <trkpt lat="46.98134" lon="1.19589">
        <ele>91</ele>
        <time>2016-05-14T02:08:15Z</time>
      </trkpt>
      <trkpt lat="46.98123" lon="1.19597">
        <ele>91</ele>
        <time>2016-05-14T02:10:15Z</time>
      </trkpt>
      <trkpt lat="46.98118" lon="1.19601">
        <ele>91</ele>
        <time>2016-05-14T02:12:15Z</time>
      </trkpt>
      <trkpt lat="46.98113" lon="1.19606">
        <ele>91</ele>
        <time>2016-05-14T02:14:15Z</time>
      </trkpt>
      <trkpt lat="46.98094" lon="1.19626">
        <ele>92</ele>
        <time>2016-05-14T02:16:15Z</time>
      </trkpt>
      <trkpt lat="46.98071" lon="1.19651">
        <ele>92</ele>
        <time>2016-05-14T02:18:15Z</time>
      </trkpt>
      <trkpt lat="46.98041" lon="1.1968">
        <ele>93</ele>
        <time>2016-05-14T02:20:15Z</time>
      </trkpt>
      <trkpt lat="46.98" lon="1.19715">
        <ele>94</ele>
        <time>2016-05-14T02:22:15Z</time>
      </trkpt>
      <trkpt lat="46.97958" lon="1.19744">
        <ele>94</ele>
        <time>2016-05-14T02:24:15Z</time>
      </trkpt>
      <trkpt lat="46.97942" lon="1.19755">
        <ele>94</ele>
        <time>2016-05-14T02:26:15Z</time>
      </trkpt>
      <trkpt lat="46.97922" lon="1.19771">
        <ele>93</ele>
        <time>2016-05-14T02:28:15Z</time>
      </trkpt>
      <trkpt lat="46.97897" lon="1.1979">
        <ele>93</ele>
        <time>2016-05-14T02:30:15Z</time>
      </trkpt>
      <trkpt lat="46.97872" lon="1.19813">
        <ele>93</ele>
        <time>2016-05-14T02:32:15Z</time>
      </trkpt>
      <trkpt lat="46.97851" lon="1.19835">
        <ele>92</ele>
        <time>2016-05-14T02:34:15Z</time>
      </trkpt>
      <trkpt lat="46.97825" lon="1.19864">
        <ele>92</ele>
        <time>2016-05-14T02:36:15Z</time>
      </trkpt>
      <trkpt lat="46.97813" lon="1.19877">
        <ele>92</ele>
        <time>2016-05-14T02:38:15Z</time>
      </trkpt>
      <trkpt lat="46.97785" lon="1.19907">
        <ele>92</ele>
        <time>2016-05-14T02:40:15Z</time>
      </trkpt>
      <trkpt lat="46.97743" lon="1.1995">
        <ele>91</ele>
        <time>2016-05-14T02:42:15Z</time>
      </trkpt>
      <trkpt lat="46.97689" lon="1.20008">
        <ele>92</ele>
        <time>2016-05-14T02:44:15Z</time>
      </trkpt>
      <trkpt lat="46.97668" lon="1.2003">
        <ele>92</ele>
        <time>2016-05-14T02:46:15Z</time>
      </trkpt>
      <trkpt lat="46.97637" lon="1.20068">
        <ele>93</ele>
        <time>2016-05-14T02:48:15Z</time>
      </trkpt>
      <trkpt lat="46.97611" lon="1.20099">
        <ele>93</ele>
        <time>2016-05-14T02:50:15Z</time>
      </trkpt>
      <trkpt lat="46.97583" lon="1.20132">
        <ele>93</ele>
        <time>2016-05-14T02:52:15Z</time>
      </trkpt>
      <trkpt lat="46.97553" lon="1.20168">
        <ele>92</ele>
        <time>2016-05-14T02:54:15Z</time>
      </trkpt>
      <trkpt lat="46.9753" lon="1.20195">
        <ele>91</ele>
        <time>2016-05-14T02:56:15Z</time>
      </trkpt>
      <trkpt lat="46.97518" lon="1.20209">
        <ele>91</ele>
        <time>2016-05-14T02:58:15Z</time>
      </trkpt>
      <trkpt lat="46.97513" lon="1.20215">
        <ele>91</ele>
        <time>2016-05-14T03:00:15Z</time>
      </trkpt>
      <trkpt lat="46.97496" lon="1.20233">
        <ele>91</ele>
        <time>2016-05-14T03:02:15Z</time>
      </trkpt>
      <trkpt lat="46.97474" lon="1.20257">
        <ele>91</ele>
        <time>2016-05-14T03:04:15Z</time>
      </trkpt>
      <trkpt lat="46.97451" lon="1.20281">
        <ele>92</ele>
        <time>2016-05-14T03:06:15Z</time>
      </trkpt>
      <trkpt lat="46.97442" lon="1.20289">
        <ele>92</ele>
        <time>2016-05-14T03:08:15Z</time>
      </trkpt>
      <trkpt lat="46.97422" lon="1.20315">
        <ele>93</ele>
        <time>2016-05-14T03:10:15Z</time>
      </trkpt>
      <trkpt lat="46.97398" lon="1.20345">
        <ele>93</ele>
        <time>2016-05-14T03:12:15Z</time>
      </trkpt>
      <trkpt lat="46.9738" lon="1.20368">
        <ele>93</ele>
        <time>2016-05-14T03:14:15Z</time>
      </trkpt>
      <trkpt lat="46.97355" lon="1.20401">
        <ele>93</ele>
        <time>2016-05-14T03:16:15Z</time>
      </trkpt>
      <trkpt lat="46.97319" lon="1.20446">
        <ele>93</ele>
        <time>2016-05-14T03:18:15Z</time>
      </trkpt>
      <trkpt lat="46.97278" lon="1.20499">
        <ele>94</ele>
        <time>2016-05-14T03:20:15Z</time>
      </trkpt>
      <trkpt lat="46.9722" lon="1.20571">
        <ele>97</ele>
        <time>2016-05-14T03:22:15Z</time>
      </trkpt>
      <trkpt lat="46.97146" lon="1.20662">
        <ele>102</ele>
        <time>2016-05-14T03:24:15Z</time>
      </trkpt>
      <trkpt lat="46.97098" lon="1.20724">
        <ele>103</ele>
        <time>2016-05-14T03:26:15Z</time>
      </trkpt>
      <trkpt lat="46.97072" lon="1.20759">
        <ele>104</ele>
        <time>2016-05-14T03:28:15Z</time>
      </trkpt>
      <trkpt lat="46.97058" lon="1.20781">
        <ele>105</ele>
        <time>2016-05-14T03:30:15Z</time>
      </trkpt>
      <trkpt lat="46.9704" lon="1.20816">
        <ele>107</ele>
        <time>2016-05-14T03:32:15Z</time>
      </trkpt>
      <trkpt lat="46.9702" lon="1.20862">
        <ele>108</ele>
        <time>2016-05-14T03:34:15Z</time>
      </trkpt>
      <trkpt lat="46.9701" lon="1.20881">
        <ele>108</ele>
        <time>2016-05-14T03:36:15Z</time>
      </trkpt>
      <trkpt lat="46.97002" lon="1.20892">
        <ele>108</ele>
        <time>2016-05-14T03:38:15Z</time>
      </trkpt>
      <trkpt lat="46.9699" lon="1.2091">
        <ele>108</ele>
        <time>2016-05-14T03:40:15Z</time>
      </trkpt>
      <trkpt lat="46.96959" lon="1.20946">
        <ele>109</ele>
        <time>2016-05-14T03:42:15Z</time>
      </trkpt>
      <trkpt lat="46.96951" lon="1.20955">
        <ele>109</ele>
        <time>2016-05-14T03:44:15Z</time>
      </trkpt>
      <trkpt lat="46.96936" lon="1.20971">
        <ele>110</ele>
        <time>2016-05-14T03:46:15Z</time>
      </trkpt>
      <trkpt lat="46.96923" lon="1.20985">
        <ele>110</ele>
        <time>2016-05-14T03:48:15Z</time>
      </trkpt>
      <trkpt lat="46.96911" lon="1.21001">
        <ele>111</ele>
        <time>2016-05-14T03:50:15Z</time>
      </trkpt>
      <trkpt lat="46.96902" lon="1.21013">
        <ele>111</ele>
        <time>2016-05-14T03:52:15Z</time>
      </trkpt>
      <trkpt lat="46.9689" lon="1.21034">
        <ele>111</ele>
        <time>2016-05-14T03:54:15Z</time>
      </trkpt>
      <trkpt lat="46.96871" lon="1.2107">
        <ele>111</ele>
        <time>2016-05-14T03:56:15Z</time>
      </trkpt>
      <trkpt lat="46.96842" lon="1.21125">
        <ele>110</ele>
        <time>2016-05-14T03:58:15Z</time>
      </trkpt>
      <trkpt lat="46.96823" lon="1.2116">
        <ele>109</ele>
        <time>2016-05-14T04:00:15Z</time>
      </trkpt>
      <trkpt lat="46.96808" lon="1.21187">
        <ele>107</ele>
        <time>2016-05-14T04:02:15Z</time>
      </trkpt>
      <trkpt lat="46.9679" lon="1.21223">
        <ele>105</ele>
        <time>2016-05-14T04:04:15Z</time>
      </trkpt>
      <trkpt lat="46.96757" lon="1.21284">
        <ele>101</ele>
        <time>2016-05-14T04:06:15Z</time>
      </trkpt>
      <trkpt lat="46.96735" lon="1.21324">
        <ele>99</ele>
        <time>2016-05-14T04:08:15Z</time>
      </trkpt>
      <trkpt lat="46.96718" lon="1.21354">
        <ele>97</ele>
        <time>2016-05-14T04:10:15Z</time>
      </trkpt>
      <trkpt lat="46.96703" lon="1.21383">
        <ele>96</ele>
        <time>2016-05-14T04:12:15Z</time>
      </trkpt>
      <trkpt lat="46.96687" lon="1.21413">
        <ele>94</ele>
        <time>2016-05-14T04:14:15Z</time>
      </trkpt>
      <trkpt lat="46.96671" lon="1.21444">
        <ele>93</ele>
        <time>2016-05-14T04:16:15Z</time>
      </trkpt>
      <trkpt lat="46.96667" lon="1.21451">
        <ele>93</ele>
        <time>2016-05-14T04:18:15Z</time>
      </trkpt>
      <trkpt lat="46.96662" lon="1.21459">
        <ele>92</ele>
        <time>2016-05-14T04:20:15Z</time>
      </trkpt>
      <trkpt lat="46.96645" lon="1.21492">
        <ele>92</ele>
        <time>2016-05-14T04:22:15Z</time>
      </trkpt>
      <trkpt lat="46.96625" lon="1.21526">
        <ele>93</ele>
        <time>2016-05-14T04:24:15Z</time>
      </trkpt>
      <trkpt lat="46.96605" lon="1.21565">
        <ele>95</ele>
        <time>2016-05-14T04:26:15Z</time>
      </trkpt>
      <trkpt lat="46.96589" lon="1.21595">
        <ele>96</ele>
        <time>2016-05-14T04:28:15Z</time>
      </trkpt>
      <trkpt lat="46.96572" lon="1.21623">
        <ele>97</ele>
        <time>2016-05-14T04:30:15Z</time>
      </trkpt>
      <trkpt lat="46.96568" lon="1.21632">
        <ele>97</ele>
        <time>2016-05-14T04:32:15Z</time>
      </trkpt>
      <trkpt lat="46.96563" lon="1.21642">
        <ele>97</ele>
        <time>2016-05-14T04:34:15Z</time>
      </trkpt>
      <trkpt lat="46.96556" lon="1.21658">
        <ele>97</ele>
        <time>2016-05-14T04:36:15Z</time>
      </trkpt>
      <trkpt lat="46.96548" lon="1.21679">
        <ele>97</ele>
        <time>2016-05-14T04:38:15Z</time>
      </trkpt>
      <trkpt lat="46.9654" lon="1.217">
        <ele>97</ele>
        <time>2016-05-14T04:40:15Z</time>
      </trkpt>
      <trkpt lat="46.9653" lon="1.21727">
        <ele>97</ele>
        <time>2016-05-14T04:42:15Z</time>
      </trkpt>
      <trkpt lat="46.9652" lon="1.21754">
        <ele>97</ele>
        <time>2016-05-14T04:44:15Z</time>
      </trkpt>
      <trkpt lat="46.96508" lon="1.21788">
        <ele>97</ele>
        <time>2016-05-14T04:46:15Z</time>
      </trkpt>
      <trkpt lat="46.96497" lon="1.21815">
        <ele>97</ele>
        <time>2016-05-14T04:48:15Z</time>
      </trkpt>
      <trkpt lat="46.9648" lon="1.21855">
        <ele>97</ele>
        <time>2016-05-14T04:50:15Z</time>
      </trkpt>
      <trkpt lat="46.96469" lon="1.21882">
        <ele>98</ele>
        <time>2016-05-14T04:52:15Z</time>
      </trkpt>
      <trkpt lat="46.96462" lon="1.219">
        <ele>98</ele>
        <time>2016-05-14T04:54:15Z</time>
      </trkpt>
      <trkpt lat="46.96451" lon="1.21932">
        <ele>98</ele>
        <time>2016-05-14T04:56:15Z</time>
      </trkpt>
      <trkpt lat="46.96439" lon="1.21971">
        <ele>99</ele>
        <time>2016-05-14T04:58:15Z</time>
      </trkpt>
      <trkpt lat="46.96419" lon="1.22044">
        <ele>100</ele>
        <time>2016-05-14T05:00:15Z</time>
      </trkpt>
      <trkpt lat="46.96407" lon="1.22086">
        <ele>100</ele>
        <time>2016-05-14T05:02:15Z</time>
      </trkpt>
      <trkpt lat="46.96396" lon="1.22124">
        <ele>99</ele>
        <time>2016-05-14T05:04:15Z</time>
      </trkpt>
      <trkpt lat="46.96385" lon="1.22156">
        <ele>99</ele>
        <time>2016-05-14T05:06:15Z</time>
      </trkpt>
      <trkpt lat="46.96379" lon="1.22177">
        <ele>99</ele>
        <time>2016-05-14T05:08:15Z</time>
      </trkpt>
      <trkpt lat="46.96376" lon="1.2219">
        <ele>98</ele>
        <time>2016-05-14T05:10:15Z</time>
      </trkpt>
      <trkpt lat="46.96373" lon="1.2221">
        <ele>98</ele>
        <time>2016-05-14T05:12:15Z</time>
      </trkpt>
      <trkpt lat="46.9637" lon="1.22227">
        <ele>98</ele>
        <time>2016-05-14T05:14:15Z</time>
      </trkpt>
      <trkpt lat="46.96368" lon="1.22244">
        <ele>97</ele>
        <time>2016-05-14T05:16:15Z</time>
      </trkpt>
      <trkpt lat="46.96366" lon="1.22261">
        <ele>97</ele>
        <time>2016-05-14T05:18:15Z</time>
      </trkpt>
      <trkpt lat="46.96362" lon="1.22275">
        <ele>97</ele>
        <time>2016-05-14T05:20:15Z</time>
      </trkpt>
      <trkpt lat="46.96357" lon="1.22291">
        <ele>96</ele>
        <time>2016-05-14T05:22:15Z</time>
      </trkpt>
      <trkpt lat="46.96352" lon="1.22301">
        <ele>96</ele>
        <time>2016-05-14T05:24:15Z</time>
      </trkpt>
      <trkpt lat="46.96348" lon="1.22307">
        <ele>96</ele>
        <time>2016-05-14T05:26:15Z</time>
      </trkpt>
      <trkpt lat="46.96345" lon="1.22312">
        <ele>96</ele>
        <time>2016-05-14T05:28:15Z</time>
      </trkpt>
      <trkpt lat="46.96342" lon="1.22318">
        <ele>96</ele>
        <time>2016-05-14T05:30:15Z</time>
      </trkpt>
      <trkpt lat="46.96312" lon="1.22357">
        <ele>95</ele>
        <time>2016-05-14T05:32:15Z</time>
      </trkpt>
      <trkpt lat="46.9631" lon="1.22359">
        <ele>95</ele>
        <time>2016-05-14T05:34:15Z</time>
      </trkpt>
      <trkpt lat="46.96305" lon="1.22366">
        <ele>95</ele>
        <time>2016-05-14T05:36:15Z</time>
      </trkpt>
      <trkpt lat="46.96292" lon="1.22382">
        <ele>96</ele>
        <time>2016-05-14T05:38:15Z</time>
      </trkpt>
      <trkpt lat="46.96261" lon="1.2242">
        <ele>97</ele>
        <time>2016-05-14T05:40:15Z</time>
      </trkpt>
      <trkpt lat="46.96242" lon="1.22443">
        <ele>98</ele>
        <time>2016-05-14T05:42:15Z</time>
      </trkpt>
      <trkpt lat="46.96219" lon="1.2247">
        <ele>98</ele>
        <time>2016-05-14T05:44:15Z</time>
      </trkpt>
      <trkpt lat="46.96202" lon="1.22489">
        <ele>98</ele>
        <time>2016-05-14T05:46:15Z</time>
      </trkpt>
      <trkpt lat="46.96187" lon="1.22504">
        <ele>98</ele>
        <time>2016-05-14T05:48:15Z</time>
      </trkpt>
      <trkpt lat="46.96162" lon="1.22527">
        <ele>98</ele>
        <time>2016-05-14T05:50:15Z</time>
      </trkpt>
      <trkpt lat="46.96149" lon="1.22542">
        <ele>98</ele>
        <time>2016-05-14T05:52:15Z</time>
      </trkpt>
      <trkpt lat="46.96131" lon="1.22564">
        <ele>98</ele>
        <time>2016-05-14T05:54:15Z</time>
      </trkpt>
      <trkpt lat="46.96107" lon="1.22597">
        <ele>97</ele>
        <time>2016-05-14T05:56:15Z</time>
      </trkpt>
      <trkpt lat="46.96098" lon="1.2261">
        <ele>97</ele>
        <time>2016-05-14T05:58:15Z</time>
      </trkpt>
      <trkpt lat="46.9608" lon="1.2264">
        <ele>97</ele>
        <time>2016-05-14T06:00:15Z</time>
      </trkpt>
      <trkpt lat="46.96068" lon="1.22662">
        <ele>97</ele>
        <time>2016-05-14T06:02:15Z</time>
      </trkpt>
      <trkpt lat="46.96049" lon="1.22695">
        <ele>97</ele>
        <time>2016-05-14T06:04:15Z</time>
      </trkpt>
      <trkpt lat="46.96035" lon="1.22723">
        <ele>97</ele>
        <time>2016-05-14T06:06:15Z</time>
      </trkpt>
      <trkpt lat="46.96004" lon="1.22784">
        <ele>96</ele>
        <time>2016-05-14T06:08:15Z</time>
      </trkpt>
      <trkpt lat="46.95972" lon="1.22848">
        <ele>98</ele>
        <time>2016-05-14T06:10:15Z</time>
      </trkpt>
      <trkpt lat="46.95966" lon="1.22863">
        <ele>99</ele>
        <time>2016-05-14T06:12:15Z</time>
      </trkpt>
      <trkpt lat="46.95957" lon="1.22889">
        <ele>99</ele>
        <time>2016-05-14T06:14:15Z</time>
      </trkpt>
      <trkpt lat="46.95951" lon="1.22908">
        <ele>99</ele>
        <time>2016-05-14T06:16:15Z</time>
      </trkpt>
      <trkpt lat="46.9594" lon="1.2295">
        <ele>99</ele>
        <time>2016-05-14T06:18:15Z</time>
      </trkpt>
      <trkpt lat="46.95928" lon="1.22996">
        <ele>98</ele>
        <time>2016-05-14T06:20:15Z</time>
      </trkpt>
      <trkpt lat="46.95914" lon="1.23051">
        <ele>96</ele>
        <time>2016-05-14T06:22:15Z</time>
      </trkpt>
      <trkpt lat="46.95904" lon="1.23087">
        <ele>95</ele>
        <time>2016-05-14T06:24:15Z</time>
      </trkpt>
      <trkpt lat="46.95887" lon="1.23167">
        <ele>95</ele>
        <time>2016-05-14T06:26:15Z</time>
      </trkpt>
      <trkpt lat="46.95873" lon="1.2324">
        <ele>94</ele>
        <time>2016-05-14T06:28:15Z</time>
      </trkpt>
      <trkpt lat="46.95866" lon="1.23279">
        <ele>94</ele>
        <time>2016-05-14T06:30:15Z</time>
      </trkpt>
      <trkpt lat="46.95858" lon="1.23314">
        <ele>94</ele>
        <time>2016-05-14T06:32:15Z</time>
      </trkpt>
      <trkpt lat="46.95852" lon="1.23345">
        <ele>93</ele>
        <time>2016-05-14T06:34:15Z</time>
      </trkpt>
      <trkpt lat="46.95842" lon="1.23383">
        <ele>92</ele>
        <time>2016-05-14T06:36:15Z</time>
      </trkpt>
      <trkpt lat="46.95832" lon="1.23418">
        <ele>92</ele>
        <time>2016-05-14T06:38:15Z</time>
      </trkpt>
      <trkpt lat="46.95823" lon="1.23449">
        <ele>93</ele>
        <time>2016-05-14T06:40:15Z</time>
      </trkpt>
      <trkpt lat="46.95808" lon="1.23501">
        <ele>93</ele>
        <time>2016-05-14T06:42:15Z</time>
      </trkpt>
      <trkpt lat="46.95785" lon="1.23571">
        <ele>93</ele>
        <time>2016-05-14T06:44:15Z</time>
      </trkpt>
      <trkpt lat="46.95776" lon="1.23601">
        <ele>93</ele>
        <time>2016-05-14T06:46:15Z</time>
      </trkpt>
      <trkpt lat="46.9577" lon="1.23626">
        <ele>93</ele>
        <time>2016-05-14T06:48:15Z</time>
      </trkpt>
      <trkpt lat="46.95764" lon="1.23649">
        <ele>93</ele>
        <time>2016-05-14T06:50:15Z</time>
      </trkpt>
      <trkpt lat="46.95758" lon="1.23672">
        <ele>93</ele>
        <time>2016-05-14T06:52:15Z</time>
      </trkpt>
      <trkpt lat="46.95749" lon="1.23707">
        <ele>93</ele>
        <time>2016-05-14T06:54:15Z</time>
      </trkpt>
      <trkpt lat="46.95741" lon="1.23745">
        <ele>94</ele>
        <time>2016-05-14T06:56:15Z</time>
      </trkpt>
      <trkpt lat="46.95732" lon="1.23785">
        <ele>94</ele>
        <time>2016-05-14T06:58:15Z</time>
      </trkpt>
      <trkpt lat="46.9572" lon="1.23831">
        <ele>94</ele>
        <time>2016-05-14T07:00:15Z</time>
      </trkpt>
      <trkpt lat="46.95713" lon="1.23861">
        <ele>93</ele>
        <time>2016-05-14T07:02:15Z</time>
      </trkpt>
      <trkpt lat="46.95709" lon="1.23874">
        <ele>93</ele>
        <time>2016-05-14T07:04:15Z</time>
      </trkpt>
      <trkpt lat="46.95703" lon="1.2389">
        <ele>93</ele>
        <time>2016-05-14T07:06:15Z</time>
      </trkpt>
      <trkpt lat="46.95697" lon="1.23906">
        <ele>93</ele>
        <time>2016-05-14T07:08:15Z</time>
      </trkpt>
      <trkpt lat="46.95695" lon="1.23911">
        <ele>93</ele>
        <time>2016-05-14T07:10:15Z</time>
      </trkpt>
      <trkpt lat="46.95691" lon="1.23922">
        <ele>93</ele>
        <time>2016-05-14T07:12:15Z</time>
      </trkpt>
      <trkpt lat="46.95685" lon="1.23939">
        <ele>93</ele>
        <time>2016-05-14T07:14:15Z</time>
      </trkpt>
      <trkpt lat="46.9568" lon="1.23955">
        <ele>93</ele>
        <time>2016-05-14T07:16:15Z</time>
      </trkpt>
      <trkpt lat="46.95675" lon="1.23972">
        <ele>94</ele>
        <time>2016-05-14T07:18:15Z</time>
      </trkpt>
      <trkpt lat="46.9567" lon="1.23989">
        <ele>94</ele>
        <time>2016-05-14T07:20:15Z</time>
      </trkpt>
      <trkpt lat="46.95666" lon="1.24008">
        <ele>94</ele>
        <time>2016-05-14T07:22:15Z</time>
      </trkpt>
      <trkpt lat="46.95662" lon="1.24022">
        <ele>94</ele>
        <time>2016-05-14T07:24:15Z</time>
      </trkpt>
      <trkpt lat="46.95662" lon="1.24022">
        <ele>94</ele>
        <time>2016-05-14T07:26:15Z</time>
      </trkpt>
      <trkpt lat="46.95595" lon="1.23988">
        <ele>91</ele>
        <time>2016-05-14T07:28:15Z</time>
      </trkpt>
      <trkpt lat="46.95557" lon="1.2397">
        <ele>91</ele>
        <time>2016-05-14T07:30:15Z</time>
      </trkpt>
      <trkpt lat="46.9552" lon="1.23951">
        <ele>91</ele>
        <time>2016-05-14T07:32:15Z</time>
      </trkpt>
      <trkpt lat="46.95499" lon="1.23941">
        <ele>92</ele>
        <time>2016-05-14T07:34:15Z</time>
      </trkpt>
      <trkpt lat="46.95489" lon="1.23938">
        <ele>92</ele>
        <time>2016-05-14T07:36:15Z</time>
      </trkpt>
      <trkpt lat="46.9548" lon="1.23935">
        <ele>92</ele>
        <time>2016-05-14T07:38:15Z</time>
      </trkpt>
      <trkpt lat="46.95472" lon="1.23933">
        <ele>92</ele>
        <time>2016-05-14T07:40:15Z</time>
      </trkpt>
      <trkpt lat="46.95458" lon="1.23932">
        <ele>92</ele>
        <time>2016-05-14T07:42:15Z</time>
      </trkpt>
      <trkpt lat="46.95438" lon="1.23933">
        <ele>91</ele>
        <time>2016-05-14T07:44:15Z</time>
      </trkpt>
      <trkpt lat="46.95423" lon="1.23935">
        <ele>91</ele>
        <time>2016-05-14T07:46:15Z</time>
      </trkpt>
      <trkpt lat="46.95402" lon="1.2394">
        <ele>92</ele>
        <time>2016-05-14T07:48:15Z</time>
      </trkpt>
      <trkpt lat="46.95392" lon="1.23945">
        <ele>92</ele>
        <time>2016-05-14T07:50:15Z</time>
      </trkpt>
      <trkpt lat="46.9538" lon="1.2395">
        <ele>92</ele>
        <time>2016-05-14T07:52:15Z</time>
      </trkpt>
      <trkpt lat="46.95365" lon="1.23957">
        <ele>92</ele>
        <time>2016-05-14T07:54:15Z</time>
      </trkpt>
      <trkpt lat="46.95331" lon="1.23975">
        <ele>92</ele>
        <time>2016-05-14T07:56:15Z</time>
      </trkpt>
      <trkpt lat="46.95305" lon="1.23989">
        <ele>92</ele>
        <time>2016-05-14T07:58:15Z</time>
      </trkpt>
      <trkpt lat="46.95273" lon="1.24006">
        <ele>92</ele>
        <time>2016-05-14T08:00:15Z</time>
      </trkpt>
      <trkpt lat="46.95243" lon="1.24027">
        <ele>92</ele>
        <time>2016-05-14T08:02:15Z</time>
      </trkpt>
      <trkpt lat="46.95222" lon="1.24042">
        <ele>94</ele>
        <time>2016-05-14T08:04:15Z</time>
      </trkpt>
      <trkpt lat="46.95193" lon="1.24065">
        <ele>95</ele>
        <time>2016-05-14T08:06:15Z</time>
      </trkpt>
      <trkpt lat="46.95165" lon="1.24085">
        <ele>96</ele>
        <time>2016-05-14T08:08:15Z</time>
      </trkpt>
      <trkpt lat="46.95143" lon="1.24102">
        <ele>95</ele>
        <time>2016-05-14T08:10:15Z</time>
      </trkpt>
      <trkpt lat="46.95129" lon="1.24112">
        <ele>94</ele>
        <time>2016-05-14T08:12:15Z</time>
      </trkpt>
      <trkpt lat="46.95109" lon="1.24126">
        <ele>94</ele>
        <time>2016-05-14T08:14:15Z</time>
      </trkpt>
      <trkpt lat="46.95096" lon="1.24135">
        <ele>93</ele>
        <time>2016-05-14T08:16:15Z</time>
      </trkpt>
      <trkpt lat="46.95096" lon="1.24135">
        <ele>93</ele>
        <time>2016-05-14T08:18:15Z</time>
      </trkpt>
      <trkpt lat="46.95094" lon="1.24136">
        <ele>93</ele>
        <time>2016-05-14T08:20:15Z</time>
      </trkpt>
      <trkpt lat="46.95078" lon="1.24145">
        <ele>93</ele>
        <time>2016-05-14T08:22:15Z</time>
      </trkpt>
      <trkpt lat="46.95068" lon="1.2415">
        <ele>93</ele>
        <time>2016-05-14T08:24:15Z</time>
      </trkpt>
      <trkpt lat="46.95058" lon="1.24154">
        <ele>94</ele>
        <time>2016-05-14T08:26:15Z</time>
      </trkpt>
      <trkpt lat="46.95047" lon="1.24156">
        <ele>94</ele>
        <time>2016-05-14T08:28:15Z</time>
      </trkpt>
      <trkpt lat="46.95037" lon="1.24158">
        <ele>94</ele>
        <time>2016-05-14T08:30:15Z</time>
      </trkpt>
      <trkpt lat="46.95022" lon="1.24159">
        <ele>94</ele>
        <time>2016-05-14T08:32:15Z</time>
      </trkpt>
      <trkpt lat="46.95008" lon="1.24158">
        <ele>94</ele>
        <time>2016-05-14T08:34:15Z</time>
      </trkpt>
      <trkpt lat="46.94994" lon="1.24156">
        <ele>94</ele>
        <time>2016-05-14T08:36:15Z</time>
      </trkpt>
      <trkpt lat="46.94979" lon="1.24152">
        <ele>95</ele>
        <time>2016-05-14T08:38:15Z</time>
      </trkpt>
      <trkpt lat="46.94962" lon="1.24146">
        <ele>95</ele>
        <time>2016-05-14T08:40:15Z</time>
      </trkpt>
      <trkpt lat="46.94957" lon="1.24144">
        <ele>95</ele>
        <time>2016-05-14T08:42:15Z</time>
      </trkpt>
      <trkpt lat="46.9495" lon="1.24143">
        <ele>96</ele>
        <time>2016-05-14T08:44:15Z</time>
      </trkpt>
      <trkpt lat="46.94945" lon="1.24142">
        <ele>96</ele>
        <time>2016-05-14T08:46:15Z</time>
      </trkpt>
      <trkpt lat="46.94939" lon="1.2414">
        <ele>96</ele>
        <time>2016-05-14T08:48:15Z</time>
      </trkpt>
      <trkpt lat="46.9493" lon="1.24135">
        <ele>96</ele>
        <time>2016-05-14T08:50:15Z</time>
      </trkpt>
      <trkpt lat="46.94921" lon="1.24129">
        <ele>97</ele>
        <time>2016-05-14T08:52:15Z</time>
      </trkpt>
      <trkpt lat="46.94906" lon="1.24113">
        <ele>98</ele>
        <time>2016-05-14T08:54:15Z</time>
      </trkpt>
      <trkpt lat="46.94889" lon="1.24095">
        <ele>99</ele>
        <time>2016-05-14T08:56:15Z</time>
      </trkpt>
      <trkpt lat="46.94841" lon="1.24046">
        <ele>102</ele>
        <time>2016-05-14T08:58:15Z</time>
      </trkpt>
      <trkpt lat="46.94815" lon="1.24019">
        <ele>103</ele>
        <time>2016-05-14T09:00:15Z</time>
      </trkpt>
      <trkpt lat="46.94805" lon="1.24008">
        <ele>103</ele>
        <time>2016-05-14T09:02:15Z</time>
      </trkpt>
      <trkpt lat="46.946" lon="1.23791">
        <ele>107</ele>
        <time>2016-05-14T09:04:15Z</time>
      </trkpt>
      <trkpt lat="46.94557" lon="1.23745">
        <ele>108</ele>
        <time>2016-05-14T09:06:15Z</time>
      </trkpt>
      <trkpt lat="46.94527" lon="1.23715">
        <ele>108</ele>
        <time>2016-05-14T09:08:15Z</time>
      </trkpt>
      <trkpt lat="46.94491" lon="1.23678">
        <ele>109</ele>
        <time>2016-05-14T09:10:15Z</time>
      </trkpt>
      <trkpt lat="46.9449" lon="1.23677">
        <ele>109</ele>
        <time>2016-05-14T09:12:15Z</time>
      </trkpt>
      <trkpt lat="46.94471" lon="1.23659">
        <ele>109</ele>
        <time>2016-05-14T09:14:15Z</time>
      </trkpt>
      <trkpt lat="46.94457" lon="1.23645">
        <ele>109</ele>
        <time>2016-05-14T09:16:15Z</time>
      </trkpt>
      <trkpt lat="46.94442" lon="1.2363">
        <ele>109</ele>
        <time>2016-05-14T09:18:15Z</time>
      </trkpt>
      <trkpt lat="46.94426" lon="1.23613">
        <ele>109</ele>
        <time>2016-05-14T09:20:15Z</time>
      </trkpt>
      <trkpt lat="46.94405" lon="1.23586">
        <ele>108</ele>
        <time>2016-05-14T09:22:15Z</time>
      </trkpt>
      <trkpt lat="46.94394" lon="1.23569">
        <ele>108</ele>
        <time>2016-05-14T09:24:15Z</time>
      </trkpt>
      <trkpt lat="46.94379" lon="1.23545">
        <ele>108</ele>
        <time>2016-05-14T09:26:15Z</time>
      </trkpt>
      <trkpt lat="46.94368" lon="1.2353">
        <ele>108</ele>
        <time>2016-05-14T09:28:15Z</time>
      </trkpt>
      <trkpt lat="46.94352" lon="1.23512">
        <ele>107</ele>
        <time>2016-05-14T09:30:15Z</time>
      </trkpt>
      <trkpt lat="46.94295" lon="1.23455">
        <ele>107</ele>
        <time>2016-05-14T09:32:15Z</time>
      </trkpt>
      <trkpt lat="46.94271" lon="1.23429">
        <ele>107</ele>
        <time>2016-05-14T09:34:15Z</time>
      </trkpt>
      <trkpt lat="46.94266" lon="1.2342">
        <ele>107</ele>
        <time>2016-05-14T09:36:15Z</time>
      </trkpt>
      <trkpt lat="46.94253" lon="1.23381">
        <ele>107</ele>
        <time>2016-05-14T09:38:15Z</time>
      </trkpt>
      <trkpt lat="46.94244" lon="1.23355">
        <ele>107</ele>
        <time>2016-05-14T09:40:15Z</time>
      </trkpt>
      <trkpt lat="46.94238" lon="1.23342">
        <ele>107</ele>
        <time>2016-05-14T09:42:15Z</time>
      </trkpt>
      <trkpt lat="46.94233" lon="1.23333">
        <ele>107</ele>
        <time>2016-05-14T09:44:15Z</time>
      </trkpt>
      <trkpt lat="46.94226" lon="1.23327">
        <ele>106</ele>
        <time>2016-05-14T09:46:15Z</time>
      </trkpt>
      <trkpt lat="46.94218" lon="1.23321">
        <ele>106</ele>
        <time>2016-05-14T09:48:15Z</time>
      </trkpt>
      <trkpt lat="46.94188" lon="1.23304">
        <ele>105</ele>
        <time>2016-05-14T09:50:15Z</time>
      </trkpt>
      <trkpt lat="46.94172" lon="1.23292">
        <ele>104</ele>
        <time>2016-05-14T09:52:15Z</time>
      </trkpt>
      <trkpt lat="46.94172" lon="1.23292">
        <ele>104</ele>
        <time>2016-05-14T09:54:15Z</time>
      </trkpt>
      <trkpt lat="46.94172" lon="1.23286">
        <ele>104</ele>
        <time>2016-05-14T09:56:15Z</time>
      </trkpt>
      <trkpt lat="46.94172" lon="1.23284">
        <ele>104</ele>
        <time>2016-05-14T09:58:15Z</time>
      </trkpt>
      <trkpt lat="46.94172" lon="1.23283">
        <ele>104</ele>
        <time>2016-05-14T10:00:15Z</time>
      </trkpt>
      <trkpt lat="46.94172" lon="1.23279">
        <ele>104</ele>
        <time>2016-05-14T10:02:15Z</time>
      </trkpt>
      <trkpt lat="46.94172" lon="1.23279">
        <ele>104</ele>
        <time>2016-05-14T10:04:15Z</time>
      </trkpt>
      <trkpt lat="46.94164" lon="1.23279">
        <ele>104</ele>
        <time>2016-05-14T10:06:15Z</time>
      </trkpt>
      <trkpt lat="46.94159" lon="1.23279">
        <ele>104</ele>
        <time>2016-05-14T10:08:15Z</time>
      </trkpt>
      <trkpt lat="46.94154" lon="1.23278">
        <ele>104</ele>
        <time>2016-05-14T10:10:15Z</time>
      </trkpt>
      <trkpt lat="46.94135" lon="1.23269">
        <ele>103</ele>
        <time>2016-05-14T10:12:15Z</time>
      </trkpt>
      <trkpt lat="46.94068" lon="1.23202">
        <ele>101</ele>
        <time>2016-05-14T10:14:15Z</time>
      </trkpt>
      <trkpt lat="46.94068" lon="1.23202">
        <ele>101</ele>
        <time>2016-05-14T10:16:15Z</time>
      </trkpt>
      <trkpt lat="46.94062" lon="1.23213">
        <ele>101</ele>
        <time>2016-05-14T10:18:15Z</time>
      </trkpt>
      <trkpt lat="46.94058" lon="1.23219">
        <ele>101</ele>
        <time>2016-05-14T10:20:15Z</time>
      </trkpt>
      <trkpt lat="46.94014" lon="1.23265">
        <ele>102</ele>
        <time>2016-05-14T10:22:15Z</time>
      </trkpt>
      <trkpt lat="46.93966" lon="1.23317">
        <ele>103</ele>
        <time>2016-05-14T10:24:15Z</time>
      </trkpt>
      <trkpt lat="46.93966" lon="1.23317">
        <ele>103</ele>
        <time>2016-05-14T10:26:15Z</time>
      </trkpt>
      <trkpt lat="46.93957" lon="1.23322">
        <ele>103</ele>
        <time>2016-05-14T10:28:15Z</time>
      </trkpt>
      <trkpt lat="46.93792" lon="1.23447">
        <ele>108</ele>
        <time>2016-05-14T10:30:15Z</time>
      </trkpt>
      <trkpt lat="46.9374" lon="1.23485">
        <ele>106</ele>
        <time>2016-05-14T10:32:15Z</time>
      </trkpt>
      <trkpt lat="46.93712" lon="1.23506">
        <ele>106</ele>
        <time>2016-05-14T10:34:15Z</time>
      </trkpt>
      <trkpt lat="46.93666" lon="1.23541">
        <ele>105</ele>
        <time>2016-05-14T10:36:15Z</time>
      </trkpt>
      <trkpt lat="46.93627" lon="1.23571">
        <ele>106</ele>
        <time>2016-05-14T10:38:15Z</time>
      </trkpt>
      <trkpt lat="46.93601" lon="1.23589">
        <ele>107</ele>
        <time>2016-05-14T10:40:15Z</time>
      </trkpt>
      <trkpt lat="46.93588" lon="1.23596">
        <ele>107</ele>
        <time>2016-05-14T10:42:15Z</time>
      </trkpt>
      <trkpt lat="46.93574" lon="1.23602">
        <ele>107</ele>
        <time>2016-05-14T10:44:15Z</time>
      </trkpt>
      <trkpt lat="46.93561" lon="1.23607">
        <ele>106</ele>
        <time>2016-05-14T10:46:15Z</time>
      </trkpt>
      <trkpt lat="46.93543" lon="1.23612">
        <ele>106</ele>
        <time>2016-05-14T10:48:15Z</time>
      </trkpt>
      <trkpt lat="46.93517" lon="1.23618">
        <ele>105</ele>
        <time>2016-05-14T10:50:15Z</time>
      </trkpt>
      <trkpt lat="46.93472" lon="1.2363">
        <ele>104</ele>
        <time>2016-05-14T10:52:15Z</time>
      </trkpt>
      <trkpt lat="46.93443" lon="1.23638">
        <ele>103</ele>
        <time>2016-05-14T10:54:15Z</time>
      </trkpt>
      <trkpt lat="46.93421" lon="1.23642">
        <ele>102</ele>
        <time>2016-05-14T10:56:15Z</time>
      </trkpt>
      <trkpt lat="46.93394" lon="1.23649">
        <ele>102</ele>
        <time>2016-05-14T10:58:15Z</time>
      </trkpt>
      <trkpt lat="46.93353" lon="1.2366">
        <ele>103</ele>
        <time>2016-05-14T11:00:15Z</time>
      </trkpt>
      <trkpt lat="46.93321" lon="1.23669">
        <ele>102</ele>
        <time>2016-05-14T11:02:15Z</time>
      </trkpt>
      <trkpt lat="46.93309" lon="1.23674">
        <ele>102</ele>
        <time>2016-05-14T11:04:15Z</time>
      </trkpt>
      <trkpt lat="46.93299" lon="1.2368">
        <ele>102</ele>
        <time>2016-05-14T11:06:15Z</time>
      </trkpt>
      <trkpt lat="46.93288" lon="1.23689">
        <ele>102</ele>
        <time>2016-05-14T11:08:15Z</time>
      </trkpt>
      <trkpt lat="46.93265" lon="1.23712">
        <ele>102</ele>
        <time>2016-05-14T11:10:15Z</time>
      </trkpt>
      <trkpt lat="46.93213" lon="1.23767">
        <ele>102</ele>
        <time>2016-05-14T11:12:15Z</time>
      </trkpt>
      <trkpt lat="46.93138" lon="1.23851">
        <ele>102</ele>
        <time>2016-05-14T11:14:15Z</time>
      </trkpt>
      <trkpt lat="46.93091" lon="1.23902">
        <ele>101</ele>
        <time>2016-05-14T11:16:15Z</time>
      </trkpt>
      <trkpt lat="46.93072" lon="1.2392">
        <ele>100</ele>
        <time>2016-05-14T11:18:15Z</time>
      </trkpt>
      <trkpt lat="46.9306" lon="1.23928">
        <ele>100</ele>
        <time>2016-05-14T11:20:15Z</time>
      </trkpt>
      <trkpt lat="46.93045" lon="1.23933">
        <ele>99</ele>
        <time>2016-05-14T11:22:15Z</time>
      </trkpt>
      <trkpt lat="46.9303" lon="1.23935">
        <ele>98</ele>
        <time>2016-05-14T11:24:15Z</time>
      </trkpt>
      <trkpt lat="46.93002" lon="1.23933">
        <ele>97</ele>
        <time>2016-05-14T11:26:15Z</time>
      </trkpt>
      <trkpt lat="46.92922" lon="1.23923">
        <ele>94</ele>
        <time>2016-05-14T11:28:15Z</time>
      </trkpt>
      <trkpt lat="46.92907" lon="1.23921">
        <ele>94</ele>
        <time>2016-05-14T11:30:15Z</time>
      </trkpt>
      <trkpt lat="46.92864" lon="1.23918">
        <ele>94</ele>
        <time>2016-05-14T11:32:15Z</time>
      </trkpt>
      <trkpt lat="46.92852" lon="1.23917">
        <ele>94</ele>
        <time>2016-05-14T11:34:15Z</time>
      </trkpt>
      <trkpt lat="46.92841" lon="1.23918">
        <ele>94</ele>
        <time>2016-05-14T11:36:15Z</time>
      </trkpt>
      <trkpt lat="46.92832" lon="1.23919">
        <ele>94</ele>
        <time>2016-05-14T11:38:15Z</time>
      </trkpt>
      <trkpt lat="46.92822" lon="1.23922">
        <ele>94</ele>
        <time>2016-05-14T11:40:15Z</time>
      </trkpt>
      <trkpt lat="46.92813" lon="1.23926">
        <ele>94</ele>
        <time>2016-05-14T11:42:15Z</time>
      </trkpt>
      <trkpt lat="46.92804" lon="1.2393">
        <ele>94</ele>
        <time>2016-05-14T11:44:15Z</time>
      </trkpt>
      <trkpt lat="46.92528" lon="1.24144">
        <ele>102</ele>
        <time>2016-05-14T11:46:15Z</time>
      </trkpt>
      <trkpt lat="46.92409" lon="1.24238">
        <ele>107</ele>
        <time>2016-05-14T11:48:15Z</time>
      </trkpt>
      <trkpt lat="46.92302" lon="1.24322">
        <ele>112</ele>
        <time>2016-05-14T11:50:15Z</time>
      </trkpt>
      <trkpt lat="46.92296" lon="1.24327">
        <ele>112</ele>
        <time>2016-05-14T11:52:15Z</time>
      </trkpt>
      <trkpt lat="46.92281" lon="1.24338">
        <ele>112</ele>
        <time>2016-05-14T11:54:15Z</time>
      </trkpt>
      <trkpt lat="46.92261" lon="1.24355">
        <ele>113</ele>
        <time>2016-05-14T11:56:15Z</time>
      </trkpt>
      <trkpt lat="46.92232" lon="1.24376">
        <ele>113</ele>
        <time>2016-05-14T11:58:15Z</time>
      </trkpt>
      <trkpt lat="46.92211" lon="1.24392">
        <ele>113</ele>
        <time>2016-05-14T12:00:15Z</time>
      </trkpt>
      <trkpt lat="46.92184" lon="1.24412">
        <ele>113</ele>
        <time>2016-05-14T12:02:15Z</time>
      </trkpt>
      <trkpt lat="46.91965" lon="1.24581">
        <ele>106</ele>
        <time>2016-05-14T12:04:15Z</time>
      </trkpt>
      <trkpt lat="46.9193" lon="1.24608">
        <ele>106</ele>
        <time>2016-05-14T12:06:15Z</time>
      </trkpt>
      <trkpt lat="46.91924" lon="1.24612">
        <ele>106</ele>
        <time>2016-05-14T12:08:15Z</time>
      </trkpt>
      <trkpt lat="46.91882" lon="1.24645">
        <ele>106</ele>
        <time>2016-05-14T12:10:15Z</time>
      </trkpt>
      <trkpt lat="46.918" lon="1.24705">
        <ele>107</ele>
        <time>2016-05-14T12:12:15Z</time>
      </trkpt>
      <trkpt lat="46.91753" lon="1.24743">
        <ele>107</ele>
        <time>2016-05-14T12:14:15Z</time>
      </trkpt>
      <trkpt lat="46.91734" lon="1.2476">
        <ele>107</ele>
        <time>2016-05-14T12:16:15Z</time>
      </trkpt>
      <trkpt lat="46.91716" lon="1.24776">
        <ele>107</ele>
        <time>2016-05-14T12:18:15Z</time>
      </trkpt>
      <trkpt lat="46.91701" lon="1.24794">
        <ele>108</ele>
        <time>2016-05-14T12:20:15Z</time>
      </trkpt>
      <trkpt lat="46.91673" lon="1.24835">
        <ele>108</ele>
        <time>2016-05-14T12:22:15Z</time>
      </trkpt>
      <trkpt lat="46.91634" lon="1.24896">
        <ele>108</ele>
        <time>2016-05-14T12:24:15Z</time>
      </trkpt>
      <trkpt lat="46.91591" lon="1.24963">
        <ele>109</ele>
        <time>2016-05-14T12:26:15Z</time>
      </trkpt>
      <trkpt lat="46.91582" lon="1.24977">
        <ele>109</ele>
        <time>2016-05-14T12:28:15Z</time>
      </trkpt>
      <trkpt lat="46.91562" lon="1.25008">
        <ele>109</ele>
        <time>2016-05-14T12:30:15Z</time>
      </trkpt>
      <trkpt lat="46.91562" lon="1.25008">
        <ele>109</ele>
        <time>2016-05-14T12:32:15Z</time>
      </trkpt>
      <trkpt lat="46.91547" lon="1.24997">
        <ele>109</ele>
        <time>2016-05-14T12:34:15Z</time>
      </trkpt>
      <trkpt lat="46.91533" lon="1.24988">
        <ele>108</ele>
        <time>2016-05-14T12:36:15Z</time>
      </trkpt>
      <trkpt lat="46.91521" lon="1.24982">
        <ele>108</ele>
        <time>2016-05-14T12:38:15Z</time>
      </trkpt>
      <trkpt lat="46.91512" lon="1.2498">
        <ele>108</ele>
        <time>2016-05-14T12:40:15Z</time>
      </trkpt>
      <trkpt lat="46.91504" lon="1.2498">
        <ele>107</ele>
        <time>2016-05-14T12:42:15Z</time>
      </trkpt>
      <trkpt lat="46.91493" lon="1.24981">
        <ele>107</ele>
        <time>2016-05-14T12:44:15Z</time>
      </trkpt>
      <trkpt lat="46.91485" lon="1.24982">
        <ele>107</ele>
        <time>2016-05-14T12:46:15Z</time>
      </trkpt>
      <trkpt lat="46.91475" lon="1.24986">
        <ele>106</ele>
        <time>2016-05-14T12:48:15Z</time>
      </trkpt>
      <trkpt lat="46.91457" lon="1.24993">
        <ele>106</ele>
        <time>2016-05-14T12:50:15Z</time>
      </trkpt>
      <trkpt lat="46.91149" lon="1.25144">
        <ele>101</ele>
        <time>2016-05-14T12:52:15Z</time>
      </trkpt>
      <trkpt lat="46.91114" lon="1.25162">
        <ele>102</ele>
        <time>2016-05-14T12:54:15Z</time>
      </trkpt>
      <trkpt lat="46.91016" lon="1.25209">
        <ele>103</ele>
        <time>2016-05-14T12:56:15Z</time>
      </trkpt>
      <trkpt lat="46.90915" lon="1.25257">
        <ele>103</ele>
        <time>2016-05-14T12:58:15Z</time>
      </trkpt>
      <trkpt lat="46.90839" lon="1.25294">
        <ele>104</ele>
        <time>2016-05-14T13:00:15Z</time>
      </trkpt>
      <trkpt lat="46.90819" lon="1.25305">
        <ele>104</ele>
        <time>2016-05-14T13:02:15Z</time>
      </trkpt>
      <trkpt lat="46.90807" lon="1.25315">
        <ele>104</ele>
        <time>2016-05-14T13:04:15Z</time>
      </trkpt>
      <trkpt lat="46.90795" lon="1.25328">
        <ele>104</ele>
        <time>2016-05-14T13:06:15Z</time>
      </trkpt>
      <trkpt lat="46.90755" lon="1.25376">
        <ele>104</ele>
        <time>2016-05-14T13:08:15Z</time>
      </trkpt>
      <trkpt lat="46.90724" lon="1.25414">
        <ele>104</ele>
        <time>2016-05-14T13:10:15Z</time>
      </trkpt>
      <trkpt lat="46.90706" lon="1.2543">
        <ele>103</ele>
        <time>2016-05-14T13:12:15Z</time>
      </trkpt>
      <trkpt lat="46.90699" lon="1.25442">
        <ele>103</ele>
        <time>2016-05-14T13:14:15Z</time>
      </trkpt>
      <trkpt lat="46.90686" lon="1.25462">
        <ele>103</ele>
        <time>2016-05-14T13:16:15Z</time>
      </trkpt>
      <trkpt lat="46.90636" lon="1.25561">
        <ele>103</ele>
        <time>2016-05-14T13:18:15Z</time>
      </trkpt>
      <trkpt lat="46.90625" lon="1.25578">
        <ele>103</ele>
        <time>2016-05-14T13:20:15Z</time>
      </trkpt>
      <trkpt lat="46.90614" lon="1.25591">
        <ele>103</ele>
        <time>2016-05-14T13:22:15Z</time>
      </trkpt>
      <trkpt lat="46.90598" lon="1.25607">
        <ele>103</ele>
        <time>2016-05-14T13:24:15Z</time>
      </trkpt>
      <trkpt lat="46.90523" lon="1.25677">
        <ele>103</ele>
        <time>2016-05-14T13:26:15Z</time>
      </trkpt>
      <trkpt lat="46.90523" lon="1.25677">
        <ele>103</ele>
        <time>2016-05-14T13:28:15Z</time>
      </trkpt>
      <trkpt lat="46.90508" lon="1.2569">
        <ele>103</ele>
        <time>2016-05-14T13:30:15Z</time>
      </trkpt>
      <trkpt lat="46.90483" lon="1.25708">
        <ele>102</ele>
        <time>2016-05-14T13:32:15Z</time>
      </trkpt>
      <trkpt lat="46.90472" lon="1.25716">
        <ele>102</ele>
        <time>2016-05-14T13:34:15Z</time>
      </trkpt>
      <trkpt lat="46.90437" lon="1.25732">
        <ele>102</ele>
        <time>2016-05-14T13:36:15Z</time>
      </trkpt>
      <trkpt lat="46.90394" lon="1.2575">
        <ele>101</ele>
        <time>2016-05-14T13:38:15Z</time>
      </trkpt>
      <trkpt lat="46.9035" lon="1.25766">
        <ele>100</ele>
        <time>2016-05-14T13:40:15Z</time>
      </trkpt>
      <trkpt lat="46.90304" lon="1.25782">
        <ele>98</ele>
        <time>2016-05-14T13:42:15Z</time>
      </trkpt>
      <trkpt lat="46.90292" lon="1.25786">
        <ele>98</ele>
        <time>2016-05-14T13:44:15Z</time>
      </trkpt>
      <trkpt lat="46.90286" lon="1.25788">
        <ele>98</ele>
        <time>2016-05-14T13:46:15Z</time>
      </trkpt>
      <trkpt lat="46.90279" lon="1.2579">
        <ele>98</ele>
        <time>2016-05-14T13:48:15Z</time>
      </trkpt>
      <trkpt lat="46.90279" lon="1.2579">
        <ele>98</ele>
        <time>2016-05-14T13:50:15Z</time>
      </trkpt>
      <trkpt lat="46.90262" lon="1.25796">
        <ele>97</ele>
        <time>2016-05-14T13:52:15Z</time>
      </trkpt>
      <trkpt lat="46.90249" lon="1.258">
        <ele>97</ele>
        <time>2016-05-14T13:54:15Z</time>
      </trkpt>
      <trkpt lat="46.90239" lon="1.25802">
        <ele>97</ele>
        <time>2016-05-14T13:56:15Z</time>
      </trkpt>
      <trkpt lat="46.90221" lon="1.25805">
        <ele>98</ele>
        <time>2016-05-14T13:58:15Z</time>
      </trkpt>
      <trkpt lat="46.90202" lon="1.25808">
        <ele>98</ele>
        <time>2016-05-14T14:00:15Z</time>
      </trkpt>
      <trkpt lat="46.90179" lon="1.25812">
        <ele>99</ele>
        <time>2016-05-14T14:02:15Z</time>
      </trkpt>
      <trkpt lat="46.90151" lon="1.25815">
        <ele>100</ele>
        <time>2016-05-14T14:04:15Z</time>
      </trkpt>
      <trkpt lat="46.90109" lon="1.25821">
        <ele>103</ele>
        <time>2016-05-14T14:06:15Z</time>
      </trkpt>
      <trkpt lat="46.901" lon="1.25822">
        <ele>103</ele>
        <time>2016-05-14T14:08:15Z</time>
      </trkpt>
      <trkpt lat="46.90086" lon="1.25826">
        <ele>104</ele>
        <time>2016-05-14T14:10:15Z</time>
      </trkpt>
      <trkpt lat="46.90072" lon="1.2583">
        <ele>104</ele>
        <time>2016-05-14T14:12:15Z</time>
      </trkpt>
      <trkpt lat="46.90048" lon="1.25841">
        <ele>105</ele>
        <time>2016-05-14T14:14:15Z</time>
      </trkpt>
      <trkpt lat="46.90029" lon="1.25848">
        <ele>106</ele>
        <time>2016-05-14T14:16:15Z</time>
      </trkpt>
      <trkpt lat="46.90006" lon="1.25858">
        <ele>107</ele>
        <time>2016-05-14T14:18:15Z</time>
      </trkpt>
      <trkpt lat="46.89987" lon="1.25865">
        <ele>108</ele>
        <time>2016-05-14T14:20:15Z</time>
      </trkpt>
      <trkpt lat="46.89962" lon="1.25875">
        <ele>108</ele>
        <time>2016-05-14T14:22:15Z</time>
      </trkpt>
      <trkpt lat="46.89936" lon="1.25884">
        <ele>109</ele>
        <time>2016-05-14T14:24:15Z</time>
      </trkpt>
      <trkpt lat="46.89891" lon="1.25898">
        <ele>109</ele>
        <time>2016-05-14T14:26:15Z</time>
      </trkpt>
      <trkpt lat="46.89872" lon="1.25906">
        <ele>109</ele>
        <time>2016-05-14T14:28:15Z</time>
      </trkpt>
      <trkpt lat="46.89854" lon="1.25916">
        <ele>109</ele>
        <time>2016-05-14T14:30:15Z</time>
      </trkpt>
      <trkpt lat="46.89841" lon="1.25924">
        <ele>109</ele>
        <time>2016-05-14T14:32:15Z</time>
      </trkpt>
      <trkpt lat="46.89826" lon="1.25934">
        <ele>109</ele>
        <time>2016-05-14T14:34:15Z</time>
      </trkpt>
      <trkpt lat="46.89808" lon="1.25949">
        <ele>110</ele>
        <time>2016-05-14T14:36:15Z</time>
      </trkpt>
      <trkpt lat="46.89781" lon="1.25975">
        <ele>110</ele>
        <time>2016-05-14T14:38:15Z</time>
      </trkpt>
      <trkpt lat="46.89734" lon="1.26018">
        <ele>112</ele>
        <time>2016-05-14T14:40:15Z</time>
      </trkpt>
      <trkpt lat="46.89712" lon="1.26044">
        <ele>113</ele>
        <time>2016-05-14T14:42:15Z</time>
      </trkpt>
      <trkpt lat="46.897" lon="1.2606">
        <ele>113</ele>
        <time>2016-05-14T14:44:15Z</time>
      </trkpt>
      <trkpt lat="46.897" lon="1.2606">
        <ele>113</ele>
        <time>2016-05-14T14:46:15Z</time>
      </trkpt>
      <trkpt lat="46.89696" lon="1.26039">
        <ele>113</ele>
        <time>2016-05-14T14:48:15Z</time>
      </trkpt>
      <trkpt lat="46.89691" lon="1.26015">
        <ele>112</ele>
        <time>2016-05-14T14:50:15Z</time>
      </trkpt>
      <trkpt lat="46.89684" lon="1.25988">
        <ele>110</ele>
        <time>2016-05-14T14:52:15Z</time>
      </trkpt>
      <trkpt lat="46.89673" lon="1.25952">
        <ele>108</ele>
        <time>2016-05-14T14:54:15Z</time>
      </trkpt>
      <trkpt lat="46.89656" lon="1.25893">
        <ele>104</ele>
        <time>2016-05-14T14:56:15Z</time>
      </trkpt>
      <trkpt lat="46.8964" lon="1.25836">
        <ele>101</ele>
        <time>2016-05-14T14:58:15Z</time>
      </trkpt>
      <trkpt lat="46.89628" lon="1.25793">
        <ele>99</ele>
        <time>2016-05-14T15:00:15Z</time>
      </trkpt>
      <trkpt lat="46.89618" lon="1.25756">
        <ele>98</ele>
        <time>2016-05-14T15:02:15Z</time>
      </trkpt>
      <trkpt lat="46.89606" lon="1.25717">
        <ele>98</ele>
        <time>2016-05-14T15:04:15Z</time>
      </trkpt>
      <trkpt lat="46.89604" lon="1.2571">
        <ele>98</ele>
        <time>2016-05-14T15:06:15Z</time>
      </trkpt>
      <trkpt lat="46.89602" lon="1.25702">
        <ele>98</ele>
        <time>2016-05-14T15:08:15Z</time>
      </trkpt>
      <trkpt lat="46.89589" lon="1.25656">
        <ele>98</ele>
        <time>2016-05-14T15:10:15Z</time>
      </trkpt>
      <trkpt lat="46.89577" lon="1.2561">
        <ele>99</ele>
        <time>2016-05-14T15:12:15Z</time>
      </trkpt>
      <trkpt lat="46.8955" lon="1.25517">
        <ele>102</ele>
        <time>2016-05-14T15:14:15Z</time>
      </trkpt>
      <trkpt lat="46.89526" lon="1.25433">
        <ele>104</ele>
        <time>2016-05-14T15:16:15Z</time>
      </trkpt>
      <trkpt lat="46.895" lon="1.25342">
        <ele>106</ele>
        <time>2016-05-14T15:18:15Z</time>
      </trkpt>
      <trkpt lat="46.89486" lon="1.25291">
        <ele>107</ele>
        <time>2016-05-14T15:20:15Z</time>
      </trkpt>
      <trkpt lat="46.89476" lon="1.2526">
        <ele>107</ele>
        <time>2016-05-14T15:22:15Z</time>
      </trkpt>
      <trkpt lat="46.89471" lon="1.25245">
        <ele>108</ele>
        <time>2016-05-14T15:24:15Z</time>
      </trkpt>
      <trkpt lat="46.89469" lon="1.25242">
        <ele>108</ele>
        <time>2016-05-14T15:26:15Z</time>
      </trkpt>
      <trkpt lat="46.89462" lon="1.25232">
        <ele>108</ele>
        <time>2016-05-14T15:28:15Z</time>
      </trkpt>
      <trkpt lat="46.89453" lon="1.25223">
        <ele>109</ele>
        <time>2016-05-14T15:30:15Z</time>
      </trkpt>
      <trkpt lat="46.89446" lon="1.25218">
        <ele>109</ele>
        <time>2016-05-14T15:32:15Z</time>
      </trkpt>
      <trkpt lat="46.89412" lon="1.25204">
        <ele>110</ele>
        <time>2016-05-14T15:34:15Z</time>
      </trkpt>
      <trkpt lat="46.89351" lon="1.25183">
        <ele>112</ele>
        <time>2016-05-14T15:36:15Z</time>
      </trkpt>
      <trkpt lat="46.89272" lon="1.25153">
        <ele>112</ele>
        <time>2016-05-14T15:38:15Z</time>
      </trkpt>
      <trkpt lat="46.89209" lon="1.2513">
        <ele>111</ele>
        <time>2016-05-14T15:40:15Z</time>
      </trkpt>
      <trkpt lat="46.89148" lon="1.25109">
        <ele>110</ele>
        <time>2016-05-14T15:42:15Z</time>
      </trkpt>
      <trkpt lat="46.89128" lon="1.25102">
        <ele>111</ele>
        <time>2016-05-14T15:44:15Z</time>
      </trkpt>
      <trkpt lat="46.89114" lon="1.251">
        <ele>111</ele>
        <time>2016-05-14T15:46:15Z</time>
      </trkpt>
      <trkpt lat="46.89111" lon="1.251">
        <ele>111</ele>
        <time>2016-05-14T15:48:15Z</time>
      </trkpt>
      <trkpt lat="46.89101" lon="1.251">
        <ele>111</ele>
        <time>2016-05-14T15:50:15Z</time>
      </trkpt>
      <trkpt lat="46.89091" lon="1.25103">
        <ele>111</ele>
        <time>2016-05-14T15:52:15Z</time>
      </trkpt>
      <trkpt lat="46.89083" lon="1.25106">
        <ele>111</ele>
        <time>2016-05-14T15:54:15Z</time>
      </trkpt>
      <trkpt lat="46.89064" lon="1.25113">
        <ele>111</ele>
        <time>2016-05-14T15:56:15Z</time>
      </trkpt>
      <trkpt lat="46.89064" lon="1.25113">
        <ele>111</ele>
        <time>2016-05-14T15:58:15Z</time>
      </trkpt>
      <trkpt lat="46.89056" lon="1.25122">
        <ele>111</ele>
        <time>2016-05-14T16:00:15Z</time>
      </trkpt>
      <trkpt lat="46.89024" lon="1.25145">
        <ele>111</ele>
        <time>2016-05-14T16:02:15Z</time>
      </trkpt>
      <trkpt lat="46.88975" lon="1.25181">
        <ele>111</ele>
        <time>2016-05-14T16:04:15Z</time>
      </trkpt>
      <trkpt lat="46.88918" lon="1.25221">
        <ele>110</ele>
        <time>2016-05-14T16:06:15Z</time>
      </trkpt>
      <trkpt lat="46.88873" lon="1.25254">
        <ele>110</ele>
        <time>2016-05-14T16:08:15Z</time>
      </trkpt>
      <trkpt lat="46.88826" lon="1.25289">
        <ele>110</ele>
        <time>2016-05-14T16:10:15Z</time>
      </trkpt>
      <trkpt lat="46.8878" lon="1.25321">
        <ele>111</ele>
        <time>2016-05-14T16:12:15Z</time>
      </trkpt>
      <trkpt lat="46.88748" lon="1.25345">
        <ele>111</ele>
        <time>2016-05-14T16:14:15Z</time>
      </trkpt>
      <trkpt lat="46.88719" lon="1.25365">
        <ele>111</ele>
        <time>2016-05-14T16:16:15Z</time>
      </trkpt>
      <trkpt lat="46.88702" lon="1.25375">
        <ele>112</ele>
        <time>2016-05-14T16:18:15Z</time>
      </trkpt>
      <trkpt lat="46.8868" lon="1.25383">
        <ele>112</ele>
        <time>2016-05-14T16:20:15Z</time>
      </trkpt>
      <trkpt lat="46.88661" lon="1.25385">
        <ele>112</ele>
        <time>2016-05-14T16:22:15Z</time>
      </trkpt>
      <trkpt lat="46.88655" lon="1.25385">
        <ele>112</ele>
        <time>2016-05-14T16:24:15Z</time>
      </trkpt>
      <trkpt lat="46.88636" lon="1.25385">
        <ele>113</ele>
        <time>2016-05-14T16:26:15Z</time>
      </trkpt>
      <trkpt lat="46.88616" lon="1.25385">
        <ele>113</ele>
        <time>2016-05-14T16:28:15Z</time>
      </trkpt>
      <trkpt lat="46.88608" lon="1.25384">
        <ele>113</ele>
        <time>2016-05-14T16:30:15Z</time>
      </trkpt>
      <trkpt lat="46.88603" lon="1.25385">
        <ele>113</ele>
        <time>2016-05-14T16:32:15Z</time>
      </trkpt>
      <trkpt lat="46.88595" lon="1.25389">
        <ele>113</ele>
        <time>2016-05-14T16:34:15Z</time>
      </trkpt>
      <trkpt lat="46.88586" lon="1.25394">
        <ele>113</ele>
        <time>2016-05-14T16:36:15Z</time>
      </trkpt>
      <trkpt lat="46.88578" lon="1.254">
        <ele>113</ele>
        <time>2016-05-14T16:38:15Z</time>
      </trkpt>
      <trkpt lat="46.88571" lon="1.25406">
        <ele>113</ele>
        <time>2016-05-14T16:40:15Z</time>
      </trkpt>
      <trkpt lat="46.88561" lon="1.25419">
        <ele>113</ele>
        <time>2016-05-14T16:42:15Z</time>
      </trkpt>
      <trkpt lat="46.88548" lon="1.25436">
        <ele>113</ele>
        <time>2016-05-14T16:44:15Z</time>
      </trkpt>
      <trkpt lat="46.88532" lon="1.25456">
        <ele>113</ele>
        <time>2016-05-14T16:46:15Z</time>
      </trkpt>
      <trkpt lat="46.88501" lon="1.25495">
        <ele>113</ele>
        <time>2016-05-14T16:48:15Z</time>
      </trkpt>
      <trkpt lat="46.88464" lon="1.25543">
        <ele>113</ele>
        <time>2016-05-14T16:50:15Z</time>
      </trkpt>
      <trkpt lat="46.88455" lon="1.25554">
        <ele>113</ele>
        <time>2016-05-14T16:52:15Z</time>
      </trkpt>
      <trkpt lat="46.88425" lon="1.2559">
        <ele>114</ele>
        <time>2016-05-14T16:54:15Z</time>
      </trkpt>
      <trkpt lat="46.88395" lon="1.25625">
        <ele>113</ele>
        <time>2016-05-14T16:56:15Z</time>
      </trkpt>
      <trkpt lat="46.8835" lon="1.25679">
        <ele>113</ele>
        <time>2016-05-14T16:58:15Z</time>
      </trkpt>
      <trkpt lat="46.88309" lon="1.25726">
        <ele>113</ele>
        <time>2016-05-14T17:00:15Z</time>
      </trkpt>
      <trkpt lat="46.88276" lon="1.25766">
        <ele>113</ele>
        <time>2016-05-14T17:02:15Z</time>
      </trkpt>
      <trkpt lat="46.88239" lon="1.25809">
        <ele>114</ele>
        <time>2016-05-14T17:04:15Z</time>
      </trkpt>
      <trkpt lat="46.88197" lon="1.25859">
        <ele>117</ele>
        <time>2016-05-14T17:06:15Z</time>
      </trkpt>
      <trkpt lat="46.88166" lon="1.25892">
        <ele>118</ele>
        <time>2016-05-14T17:08:15Z</time>
      </trkpt>
      <trkpt lat="46.88148" lon="1.25909">
        <ele>117</ele>
        <time>2016-05-14T17:10:15Z</time>
      </trkpt>
      <trkpt lat="46.88143" lon="1.25913">
        <ele>117</ele>
        <time>2016-05-14T17:12:15Z</time>
      </trkpt>
      <trkpt lat="46.88121" lon="1.25931">
        <ele>117</ele>
        <time>2016-05-14T17:14:15Z</time>
      </trkpt>
      <trkpt lat="46.88106" lon="1.25946">
        <ele>117</ele>
        <time>2016-05-14T17:16:15Z</time>
      </trkpt>
      <trkpt lat="46.88097" lon="1.25956">
        <ele>116</ele>
        <time>2016-05-14T17:18:15Z</time>
      </trkpt>
      <trkpt lat="46.88086" lon="1.2597">
        <ele>116</ele>
        <time>2016-05-14T17:20:15Z</time>
      </trkpt>
      <trkpt lat="46.88075" lon="1.25985">
        <ele>115</ele>
        <time>2016-05-14T17:22:15Z</time>
      </trkpt>
      <trkpt lat="46.88064" lon="1.26003">
        <ele>115</ele>
        <time>2016-05-14T17:24:15Z</time>
      </trkpt>
      <trkpt lat="46.88046" lon="1.26032">
        <ele>114</ele>
        <time>2016-05-14T17:26:15Z</time>
      </trkpt>
      <trkpt lat="46.88023" lon="1.26069">
        <ele>113</ele>
        <time>2016-05-14T17:28:15Z</time>
      </trkpt>
      <trkpt lat="46.88003" lon="1.26103">
        <ele>113</ele>
        <time>2016-05-14T17:30:15Z</time>
      </trkpt>
      <trkpt lat="46.87988" lon="1.26126">
        <ele>112</ele>
        <time>2016-05-14T17:32:15Z</time>
      </trkpt>
      <trkpt lat="46.87977" lon="1.26141">
        <ele>111</ele>
        <time>2016-05-14T17:34:15Z</time>
      </trkpt>
      <trkpt lat="46.87969" lon="1.2615">
        <ele>111</ele>
        <time>2016-05-14T17:36:15Z</time>
      </trkpt>
      <trkpt lat="46.87957" lon="1.26162">
        <ele>110</ele>
        <time>2016-05-14T17:38:15Z</time>
      </trkpt>
      <trkpt lat="46.87942" lon="1.26176">
        <ele>109</ele>
        <time>2016-05-14T17:40:15Z</time>
      </trkpt>
      <trkpt lat="46.87924" lon="1.26193">
        <ele>109</ele>
        <time>2016-05-14T17:42:15Z</time>
      </trkpt>
      <trkpt lat="46.87903" lon="1.26211">
        <ele>108</ele>
        <time>2016-05-14T17:44:15Z</time>
      </trkpt>
      <trkpt lat="46.87894" lon="1.2622">
        <ele>108</ele>
        <time>2016-05-14T17:46:15Z</time>
      </trkpt>
      <trkpt lat="46.8788" lon="1.26232">
        <ele>108</ele>
        <time>2016-05-14T17:48:15Z</time>
      </trkpt>
      <trkpt lat="46.87838" lon="1.26271">
        <ele>108</ele>
        <time>2016-05-14T17:50:15Z</time>
      </trkpt>
      <trkpt lat="46.87807" lon="1.26299">
        <ele>109</ele>
        <time>2016-05-14T17:52:15Z</time>
      </trkpt>
      <trkpt lat="46.87775" lon="1.26329">
        <ele>109</ele>
        <time>2016-05-14T17:54:15Z</time>
      </trkpt>
      <trkpt lat="46.87759" lon="1.26342">
        <ele>109</ele>
        <time>2016-05-14T17:56:15Z</time>
      </trkpt>
      <trkpt lat="46.87748" lon="1.26349">
        <ele>109</ele>
        <time>2016-05-14T17:58:15Z</time>
      </trkpt>
      <trkpt lat="46.87739" lon="1.26355">
        <ele>109</ele>
        <time>2016-05-14T18:00:15Z</time>
      </trkpt>
      <trkpt lat="46.87727" lon="1.26361">
        <ele>108</ele>
        <time>2016-05-14T18:02:15Z</time>
      </trkpt>
      <trkpt lat="46.87708" lon="1.2637">
        <ele>108</ele>
        <time>2016-05-14T18:04:15Z</time>
      </trkpt>
      <trkpt lat="46.87661" lon="1.26392">
        <ele>108</ele>
        <time>2016-05-14T18:06:15Z</time>
      </trkpt>
      <trkpt lat="46.87618" lon="1.26411">
        <ele>109</ele>
        <time>2016-05-14T18:08:15Z</time>
      </trkpt>
      <trkpt lat="46.87586" lon="1.26425">
        <ele>109</ele>
        <time>2016-05-14T18:10:15Z</time>
      </trkpt>
      <trkpt lat="46.8756" lon="1.26436">
        <ele>109</ele>
        <time>2016-05-14T18:12:15Z</time>
      </trkpt>
      <trkpt lat="46.87535" lon="1.26446">
        <ele>109</ele>
        <time>2016-05-14T18:14:15Z</time>
      </trkpt>
      <trkpt lat="46.87517" lon="1.26455">
        <ele>109</ele>
        <time>2016-05-14T18:16:15Z</time>
      </trkpt>
      <trkpt lat="46.87507" lon="1.26458">
        <ele>109</ele>
        <time>2016-05-14T18:18:15Z</time>
      </trkpt>
      <trkpt lat="46.87484" lon="1.26463">
        <ele>109</ele>
        <time>2016-05-14T18:20:15Z</time>
      </trkpt>
      <trkpt lat="46.87454" lon="1.26468">
        <ele>110</ele>
        <time>2016-05-14T18:22:15Z</time>
      </trkpt>
      <trkpt lat="46.87412" lon="1.26474">
        <ele>111</ele>
        <time>2016-05-14T18:24:15Z</time>
      </trkpt>
      <trkpt lat="46.87394" lon="1.26477">
        <ele>111</ele>
        <time>2016-05-14T18:26:15Z</time>
      </trkpt>
      <trkpt lat="46.87375" lon="1.26482">
        <ele>112</ele>
        <time>2016-05-14T18:28:15Z</time>
      </trkpt>
      <trkpt lat="46.87375" lon="1.26482">
        <ele>112</ele>
        <time>2016-05-14T18:30:15Z</time>
      </trkpt>
      <trkpt lat="46.87359" lon="1.26487">
        <ele>112</ele>
        <time>2016-05-14T18:32:15Z</time>
      </trkpt>
      <trkpt lat="46.87322" lon="1.26498">
        <ele>112</ele>
        <time>2016-05-14T18:34:15Z</time>
      </trkpt>
      <trkpt lat="46.87292" lon="1.26509">
        <ele>113</ele>
        <time>2016-05-14T18:36:15Z</time>
      </trkpt>
      <trkpt lat="46.87267" lon="1.26518">
        <ele>113</ele>
        <time>2016-05-14T18:38:15Z</time>
      </trkpt>
      <trkpt lat="46.87254" lon="1.26525">
        <ele>113</ele>
        <time>2016-05-14T18:40:15Z</time>
      </trkpt>
      <trkpt lat="46.87244" lon="1.26531">
        <ele>113</ele>
        <time>2016-05-14T18:42:15Z</time>
      </trkpt>
      <trkpt lat="46.87229" lon="1.26542">
        <ele>113</ele>
        <time>2016-05-14T18:44:15Z</time>
      </trkpt>
      <trkpt lat="46.87214" lon="1.2656">
        <ele>112</ele>
        <time>2016-05-14T18:46:15Z</time>
      </trkpt>
      <trkpt lat="46.87175" lon="1.26608">
        <ele>111</ele>
        <time>2016-05-14T18:48:15Z</time>
      </trkpt>
      <trkpt lat="46.87147" lon="1.26644">
        <ele>110</ele>
        <time>2016-05-14T18:50:15Z</time>
      </trkpt>
      <trkpt lat="46.87132" lon="1.26664">
        <ele>109</ele>
        <time>2016-05-14T18:52:15Z</time>
      </trkpt>
      <trkpt lat="46.87124" lon="1.26679">
        <ele>109</ele>
        <time>2016-05-14T18:54:15Z</time>
      </trkpt>
      <trkpt lat="46.87115" lon="1.26699">
        <ele>108</ele>
        <time>2016-05-14T18:56:15Z</time>
      </trkpt>
      <trkpt lat="46.87104" lon="1.26731">
        <ele>108</ele>
        <time>2016-05-14T18:58:15Z</time>
      </trkpt>
      <trkpt lat="46.87095" lon="1.26759">
        <ele>107</ele>
        <time>2016-05-14T19:00:15Z</time>
      </trkpt>
      <trkpt lat="46.87089" lon="1.26774">
        <ele>107</ele>
        <time>2016-05-14T19:02:15Z</time>
      </trkpt>
      <trkpt lat="46.87079" lon="1.26789">
        <ele>106</ele>
        <time>2016-05-14T19:04:15Z</time>
      </trkpt>
      <trkpt lat="46.87062" lon="1.26806">
        <ele>106</ele>
        <time>2016-05-14T19:06:15Z</time>
      </trkpt>
      <trkpt lat="46.8703" lon="1.2684">
        <ele>105</ele>
        <time>2016-05-14T19:08:15Z</time>
      </trkpt>
      <trkpt lat="46.86983" lon="1.26891">
        <ele>105</ele>
        <time>2016-05-14T19:10:15Z</time>
      </trkpt>
      <trkpt lat="46.86983" lon="1.26891">
        <ele>105</ele>
        <time>2016-05-14T19:12:15Z</time>
      </trkpt>
      <trkpt lat="46.86938" lon="1.26886">
        <ele>105</ele>
        <time>2016-05-14T19:14:15Z</time>
      </trkpt>
      <trkpt lat="46.86927" lon="1.26886">
        <ele>105</ele>
        <time>2016-05-14T19:16:15Z</time>
      </trkpt>
      <trkpt lat="46.86895" lon="1.2688">
        <ele>105</ele>
        <time>2016-05-14T19:18:15Z</time>
      </trkpt>
      <trkpt lat="46.86879" lon="1.2688">
        <ele>105</ele>
        <time>2016-05-14T19:20:15Z</time>
      </trkpt>
      <trkpt lat="46.86865" lon="1.2688">
        <ele>105</ele>
        <time>2016-05-14T19:22:15Z</time>
      </trkpt>
      <trkpt lat="46.8685" lon="1.26883">
        <ele>105</ele>
        <time>2016-05-14T19:24:15Z</time>
      </trkpt>
      <trkpt lat="46.86834" lon="1.26888">
        <ele>105</ele>
        <time>2016-05-14T19:26:15Z</time>
      </trkpt>
      <trkpt lat="46.86814" lon="1.26902">
        <ele>105</ele>
        <time>2016-05-14T19:28:15Z</time>
      </trkpt>
      <trkpt lat="46.86797" lon="1.26911">
        <ele>105</ele>
        <time>2016-05-14T19:30:15Z</time>
      </trkpt>
      <trkpt lat="46.86761" lon="1.26934">
        <ele>106</ele>
        <time>2016-05-14T19:32:15Z</time>
      </trkpt>
      <trkpt lat="46.86729" lon="1.26949">
        <ele>106</ele>
        <time>2016-05-14T19:34:15Z</time>
      </trkpt>
      <trkpt lat="46.8672" lon="1.26951">
        <ele>106</ele>
        <time>2016-05-14T19:36:15Z</time>
      </trkpt>
      <trkpt lat="46.86712" lon="1.26951">
        <ele>106</ele>
        <time>2016-05-14T19:38:15Z</time>
      </trkpt>
      <trkpt lat="46.86712" lon="1.26951">
        <ele>106</ele>
        <time>2016-05-14T19:40:15Z</time>
      </trkpt>
      <trkpt lat="46.86689" lon="1.26974">
        <ele>106</ele>
        <time>2016-05-14T19:42:15Z</time>
      </trkpt>
      <trkpt lat="46.86663" lon="1.2699">
        <ele>105</ele>
        <time>2016-05-14T19:44:15Z</time>
      </trkpt>
      <trkpt lat="46.86612" lon="1.27019">
        <ele>104</ele>
        <time>2016-05-14T19:46:15Z</time>
      </trkpt>
      <trkpt lat="46.86562" lon="1.27048">
        <ele>103</ele>
        <time>2016-05-14T19:48:15Z</time>
      </trkpt>
      <trkpt lat="46.86509" lon="1.2708">
        <ele>102</ele>
        <time>2016-05-14T19:50:15Z</time>
      </trkpt>
      <trkpt lat="46.86499" lon="1.27087">
        <ele>102</ele>
        <time>2016-05-14T19:52:15Z</time>
      </trkpt>
      <trkpt lat="46.86452" lon="1.27114">
        <ele>103</ele>
        <time>2016-05-14T19:54:15Z</time>
      </trkpt>
      <trkpt lat="46.86393" lon="1.27149">
        <ele>104</ele>
        <time>2016-05-14T19:56:15Z</time>
      </trkpt>
      <trkpt lat="46.8638" lon="1.27157">
        <ele>104</ele>
        <time>2016-05-14T19:58:15Z</time>
      </trkpt>
      <trkpt lat="46.86347" lon="1.27177">
        <ele>105</ele>
        <time>2016-05-14T20:00:15Z</time>
      </trkpt>
      <trkpt lat="46.86314" lon="1.27197">
        <ele>106</ele>
        <time>2016-05-14T20:02:15Z</time>
      </trkpt>
      <trkpt lat="46.86297" lon="1.27207">
        <ele>106</ele>
        <time>2016-05-14T20:04:15Z</time>
      </trkpt>
      <trkpt lat="46.86257" lon="1.2723">
        <ele>108</ele>
        <time>2016-05-14T20:06:15Z</time>
      </trkpt>
      <trkpt lat="46.86206" lon="1.2726">
        <ele>112</ele>
        <time>2016-05-14T20:08:15Z</time>
      </trkpt>
      <trkpt lat="46.86161" lon="1.27286">
        <ele>116</ele>
        <time>2016-05-14T20:10:15Z</time>
      </trkpt>
      <trkpt lat="46.86134" lon="1.27307">
        <ele>115</ele>
        <time>2016-05-14T20:12:15Z</time>
      </trkpt>
      <trkpt lat="46.86117" lon="1.27328">
        <ele>115</ele>
        <time>2016-05-14T20:14:15Z</time>
      </trkpt>
      <trkpt lat="46.86102" lon="1.27349">
        <ele>115</ele>
        <time>2016-05-14T20:16:15Z</time>
      </trkpt>
      <trkpt lat="46.86089" lon="1.27374">
        <ele>114</ele>
        <time>2016-05-14T20:18:15Z</time>
      </trkpt>
      <trkpt lat="46.86089" lon="1.27374">
        <ele>114</ele>
        <time>2016-05-14T20:20:15Z</time>
      </trkpt>
      <trkpt lat="46.86062" lon="1.27374">
        <ele>113</ele>
        <time>2016-05-14T20:22:15Z</time>
      </trkpt>
      <trkpt lat="46.86024" lon="1.27376">
        <ele>111</ele>
        <time>2016-05-14T20:24:15Z</time>
      </trkpt>
      <trkpt lat="46.85996" lon="1.27377">
        <ele>110</ele>
        <time>2016-05-14T20:26:15Z</time>
      </trkpt>
      <trkpt lat="46.85823" lon="1.27384">
        <ele>108</ele>
        <time>2016-05-14T20:28:15Z</time>
      </trkpt>
      <trkpt lat="46.85734" lon="1.27387">
        <ele>106</ele>
        <time>2016-05-14T20:30:15Z</time>
      </trkpt>
      <trkpt lat="46.85597" lon="1.27391">
        <ele>105</ele>
        <time>2016-05-14T20:32:15Z</time>
      </trkpt>
      <trkpt lat="46.85526" lon="1.27394">
        <ele>102</ele>
        <time>2016-05-14T20:34:15Z</time>
      </trkpt>
      <trkpt lat="46.85415" lon="1.27398">
        <ele>101</ele>
        <time>2016-05-14T20:36:15Z</time>
      </trkpt>
      <trkpt lat="46.85305" lon="1.27401">
        <ele>102</ele>
        <time>2016-05-14T20:38:15Z</time>
      </trkpt>
      <trkpt lat="46.85271" lon="1.27402">
        <ele>101</ele>
        <time>2016-05-14T20:40:15Z</time>
      </trkpt>
      <trkpt lat="46.85223" lon="1.27404">
        <ele>101</ele>
        <time>2016-05-14T20:42:15Z</time>
      </trkpt>
      <trkpt lat="46.85198" lon="1.27404">
        <ele>102</ele>
        <time>2016-05-14T20:44:15Z</time>
      </trkpt>
      <trkpt lat="46.85181" lon="1.27404">
        <ele>102</ele>
        <time>2016-05-14T20:46:15Z</time>
      </trkpt>
      <trkpt lat="46.85166" lon="1.27403">
        <ele>102</ele>
        <time>2016-05-14T20:48:15Z</time>
      </trkpt>
      <trkpt lat="46.85156" lon="1.27401">
        <ele>102</ele>
        <time>2016-05-14T20:50:15Z</time>
      </trkpt>
      <trkpt lat="46.85146" lon="1.27398">
        <ele>102</ele>
        <time>2016-05-14T20:52:15Z</time>
      </trkpt>
      <trkpt lat="46.85126" lon="1.27388">
        <ele>102</ele>
        <time>2016-05-14T20:54:15Z</time>
      </trkpt>
      <trkpt lat="46.85106" lon="1.2738">
        <ele>102</ele>
        <time>2016-05-14T20:56:15Z</time>
      </trkpt>
      <trkpt lat="46.85092" lon="1.27373">
        <ele>102</ele>
        <time>2016-05-14T20:58:15Z</time>
      </trkpt>
      <trkpt lat="46.85042" lon="1.27346">
        <ele>102</ele>
        <time>2016-05-14T21:00:15Z</time>
      </trkpt>
      <trkpt lat="46.84984" lon="1.27319">
        <ele>103</ele>
        <time>2016-05-14T21:02:15Z</time>
      </trkpt>
      <trkpt lat="46.84948" lon="1.27298">
        <ele>104</ele>
        <time>2016-05-14T21:04:15Z</time>
      </trkpt>
      <trkpt lat="46.84929" lon="1.2729">
        <ele>105</ele>
        <time>2016-05-14T21:06:15Z</time>
      </trkpt>
      <trkpt lat="46.84916" lon="1.27286">
        <ele>105</ele>
        <time>2016-05-14T21:08:15Z</time>
      </trkpt>
      <trkpt lat="46.84897" lon="1.27275">
        <ele>106</ele>
        <time>2016-05-14T21:10:15Z</time>
      </trkpt>
      <trkpt lat="46.84838" lon="1.27246">
        <ele>106</ele>
        <time>2016-05-14T21:12:15Z</time>
      </trkpt>
      <trkpt lat="46.84802" lon="1.27228">
        <ele>106</ele>
        <time>2016-05-14T21:14:15Z</time>
      </trkpt>
      <trkpt lat="46.84794" lon="1.27224">
        <ele>106</ele>
        <time>2016-05-14T21:16:15Z</time>
      </trkpt>
      <trkpt lat="46.84772" lon="1.27214">
        <ele>105</ele>
        <time>2016-05-14T21:18:15Z</time>
      </trkpt>
      <trkpt lat="46.8472" lon="1.27187">
        <ele>106</ele>
        <time>2016-05-14T21:20:15Z</time>
      </trkpt>
      <trkpt lat="46.84703" lon="1.27178">
        <ele>107</ele>
        <time>2016-05-14T21:22:15Z</time>
      </trkpt>
      <trkpt lat="46.84616" lon="1.27135">
        <ele>107</ele>
        <time>2016-05-14T21:24:15Z</time>
      </trkpt>
      <trkpt lat="46.84606" lon="1.27131">
        <ele>106</ele>
        <time>2016-05-14T21:26:15Z</time>
      </trkpt>
      <trkpt lat="46.84588" lon="1.27121">
        <ele>106</ele>
        <time>2016-05-14T21:28:15Z</time>
      </trkpt>
      <trkpt lat="46.84563" lon="1.2711">
        <ele>106</ele>
        <time>2016-05-14T21:30:15Z</time>
      </trkpt>
      <trkpt lat="46.84546" lon="1.27102">
        <ele>106</ele>
        <time>2016-05-14T21:32:15Z</time>
      </trkpt>
      <trkpt lat="46.84536" lon="1.27098">
        <ele>107</ele>
        <time>2016-05-14T21:34:15Z</time>
      </trkpt>
      <trkpt lat="46.8443" lon="1.27041">
        <ele>107</ele>
        <time>2016-05-14T21:36:15Z</time>
      </trkpt>
      <trkpt lat="46.84408" lon="1.27034">
        <ele>107</ele>
        <time>2016-05-14T21:38:15Z</time>
      </trkpt>
      <trkpt lat="46.84398" lon="1.2703">
        <ele>107</ele>
        <time>2016-05-14T21:40:15Z</time>
      </trkpt>
      <trkpt lat="46.84389" lon="1.27026">
        <ele>106</ele>
        <time>2016-05-14T21:42:15Z</time>
      </trkpt>
      <trkpt lat="46.84379" lon="1.27024">
        <ele>106</ele>
        <time>2016-05-14T21:44:15Z</time>
      </trkpt>
      <trkpt lat="46.8436" lon="1.27022">
        <ele>105</ele>
        <time>2016-05-14T21:46:15Z</time>
      </trkpt>
      <trkpt lat="46.84351" lon="1.27021">
        <ele>105</ele>
        <time>2016-05-14T21:48:15Z</time>
      </trkpt>
      <trkpt lat="46.84336" lon="1.27024">
        <ele>105</ele>
        <time>2016-05-14T21:50:15Z</time>
      </trkpt>
      <trkpt lat="46.84288" lon="1.27035">
        <ele>104</ele>
        <time>2016-05-14T21:52:15Z</time>
      </trkpt>
      <trkpt lat="46.84253" lon="1.27044">
        <ele>104</ele>
        <time>2016-05-14T21:54:15Z</time>
      </trkpt>
      <trkpt lat="46.84235" lon="1.27047">
        <ele>104</ele>
        <time>2016-05-14T21:56:15Z</time>
      </trkpt>
      <trkpt lat="46.84218" lon="1.27052">
        <ele>104</ele>
        <time>2016-05-14T21:58:15Z</time>
      </trkpt>
      <trkpt lat="46.8417" lon="1.27068">
        <ele>104</ele>
        <time>2016-05-14T22:00:15Z</time>
      </trkpt>
      <trkpt lat="46.84169" lon="1.27068">
        <ele>104</ele>
        <time>2016-05-14T22:02:15Z</time>
      </trkpt>
      <trkpt lat="46.8412" lon="1.27082">
        <ele>103</ele>
        <time>2016-05-14T22:04:15Z</time>
      </trkpt>
      <trkpt lat="46.8404" lon="1.27106">
        <ele>101</ele>
        <time>2016-05-14T22:06:15Z</time>
      </trkpt>
      <trkpt lat="46.83948" lon="1.27133">
        <ele>100</ele>
        <time>2016-05-14T22:08:15Z</time>
      </trkpt>
      <trkpt lat="46.83857" lon="1.2716">
        <ele>98</ele>
        <time>2016-05-14T22:10:15Z</time>
      </trkpt>
      <trkpt lat="46.83812" lon="1.27173">
        <ele>98</ele>
        <time>2016-05-14T22:12:15Z</time>
      </trkpt>
      <trkpt lat="46.83755" lon="1.2719">
        <ele>99</ele>
        <time>2016-05-14T22:14:15Z</time>
      </trkpt>
      <trkpt lat="46.83661" lon="1.27216">
        <ele>98</ele>
        <time>2016-05-14T22:16:15Z</time>
      </trkpt>
      <trkpt lat="46.83548" lon="1.2725">
        <ele>98</ele>
        <time>2016-05-14T22:18:15Z</time>
      </trkpt>
      <trkpt lat="46.8353" lon="1.27256">
        <ele>98</ele>
        <time>2016-05-14T22:20:15Z</time>
      </trkpt>
      <trkpt lat="46.83424" lon="1.2729">
        <ele>97</ele>
        <time>2016-05-14T22:22:15Z</time>
      </trkpt>
      <trkpt lat="46.83388" lon="1.27301">
        <ele>97</ele>
        <time>2016-05-14T22:24:15Z</time>
      </trkpt>
      <trkpt lat="46.83334" lon="1.27318">
        <ele>96</ele>
        <time>2016-05-14T22:26:15Z</time>
      </trkpt>
      <trkpt lat="46.83293" lon="1.2733">
        <ele>95</ele>
        <time>2016-05-14T22:28:15Z</time>
      </trkpt>
      <trkpt lat="46.83235" lon="1.27342">
        <ele>93</ele>
        <time>2016-05-14T22:30:15Z</time>
      </trkpt>
      <trkpt lat="46.83231" lon="1.27343">
        <ele>94</ele>
        <time>2016-05-14T22:32:15Z</time>
      </trkpt>
      <trkpt lat="46.83227" lon="1.27345">
        <ele>94</ele>
        <time>2016-05-14T22:34:15Z</time>
      </trkpt>
      <trkpt lat="46.83223" lon="1.27346">
        <ele>94</ele>
        <time>2016-05-14T22:36:15Z</time>
      </trkpt>
      <trkpt lat="46.83214" lon="1.27349">
        <ele>94</ele>
        <time>2016-05-14T22:38:15Z</time>
      </trkpt>
      <trkpt lat="46.83198" lon="1.27354">
        <ele>94</ele>
        <time>2016-05-14T22:40:15Z</time>
      </trkpt>
      <trkpt lat="46.83179" lon="1.27359">
        <ele>94</ele>
        <time>2016-05-14T22:42:15Z</time>
      </trkpt>
      <trkpt lat="46.83178" lon="1.2736">
        <ele>94</ele>
        <time>2016-05-14T22:44:15Z</time>
      </trkpt>
      <trkpt lat="46.83163" lon="1.27364">
        <ele>95</ele>
        <time>2016-05-14T22:46:15Z</time>
      </trkpt>
      <trkpt lat="46.83162" lon="1.27364">
        <ele>95</ele>
        <time>2016-05-14T22:48:15Z</time>
      </trkpt>
      <trkpt lat="46.83133" lon="1.27372">
        <ele>96</ele>
        <time>2016-05-14T22:50:15Z</time>
      </trkpt>
      <trkpt lat="46.83085" lon="1.27387">
        <ele>99</ele>
        <time>2016-05-14T22:52:15Z</time>
      </trkpt>
      <trkpt lat="46.83023" lon="1.27404">
        <ele>101</ele>
        <time>2016-05-14T22:54:15Z</time>
      </trkpt>
      <trkpt lat="46.82983" lon="1.27418">
        <ele>101</ele>
        <time>2016-05-14T22:56:15Z</time>
      </trkpt>
      <trkpt lat="46.82915" lon="1.27438">
        <ele>98</ele>
        <time>2016-05-14T22:58:15Z</time>
      </trkpt>
      <trkpt lat="46.82855" lon="1.27453">
        <ele>98</ele>
        <time>2016-05-14T23:00:15Z</time>
      </trkpt>
      <trkpt lat="46.82845" lon="1.27455">
        <ele>98</ele>
        <time>2016-05-14T23:02:15Z</time>
      </trkpt>
      <trkpt lat="46.82833" lon="1.27455">
        <ele>98</ele>
        <time>2016-05-14T23:04:15Z</time>
      </trkpt>
      <trkpt lat="46.82824" lon="1.27453">
        <ele>98</ele>
        <time>2016-05-14T23:06:15Z</time>
      </trkpt>
      <trkpt lat="46.82817" lon="1.2745">
        <ele>98</ele>
        <time>2016-05-14T23:08:15Z</time>
      </trkpt>
      <trkpt lat="46.828" lon="1.27444">
        <ele>98</ele>
        <time>2016-05-14T23:10:15Z</time>
      </trkpt>
      <trkpt lat="46.82796" lon="1.27441">
        <ele>98</ele>
        <time>2016-05-14T23:12:15Z</time>
      </trkpt>
      <trkpt lat="46.82795" lon="1.2744">
        <ele>98</ele>
        <time>2016-05-14T23:14:15Z</time>
      </trkpt>
      <trkpt lat="46.82766" lon="1.27422">
        <ele>98</ele>
        <time>2016-05-14T23:16:15Z</time>
      </trkpt>
      <trkpt lat="46.8273" lon="1.27398">
        <ele>98</ele>
        <time>2016-05-14T23:18:15Z</time>
      </trkpt>
      <trkpt lat="46.82617" lon="1.27322">
        <ele>98</ele>
        <time>2016-05-14T23:20:15Z</time>
      </trkpt>
      <trkpt lat="46.82556" lon="1.27281">
        <ele>98</ele>
        <time>2016-05-14T23:22:15Z</time>
      </trkpt>
      <trkpt lat="46.82543" lon="1.27272">
        <ele>97</ele>
        <time>2016-05-14T23:24:15Z</time>
      </trkpt>
      <trkpt lat="46.82542" lon="1.27271">
        <ele>97</ele>
        <time>2016-05-14T23:26:15Z</time>
      </trkpt>
      <trkpt lat="46.82532" lon="1.27263">
        <ele>97</ele>
        <time>2016-05-14T23:28:15Z</time>
      </trkpt>
      <trkpt lat="46.82479" lon="1.27228">
        <ele>97</ele>
        <time>2016-05-14T23:30:15Z</time>
      </trkpt>
      <trkpt lat="46.82346" lon="1.2714">
        <ele>96</ele>
        <time>2016-05-14T23:32:15Z</time>
      </trkpt>
      <trkpt lat="46.82262" lon="1.27083">
        <ele>94</ele>
        <time>2016-05-14T23:34:15Z</time>
      </trkpt>
      <trkpt lat="46.82183" lon="1.2703">
        <ele>95</ele>
        <time>2016-05-14T23:36:15Z</time>
      </trkpt>
      <trkpt lat="46.82142" lon="1.27002">
        <ele>95</ele>
        <time>2016-05-14T23:38:15Z</time>
      </trkpt>
      <trkpt lat="46.82122" lon="1.26991">
        <ele>96</ele>
        <time>2016-05-14T23:40:15Z</time>
      </trkpt>
      <trkpt lat="46.82105" lon="1.26983">
        <ele>96</ele>
        <time>2016-05-14T23:42:15Z</time>
      </trkpt>
      <trkpt lat="46.82074" lon="1.26968">
        <ele>96</ele>
        <time>2016-05-14T23:44:15Z</time>
      </trkpt>
      <trkpt lat="46.82007" lon="1.26935">
        <ele>97</ele>
        <time>2016-05-14T23:46:15Z</time>
      </trkpt>
      <trkpt lat="46.81938" lon="1.26898">
        <ele>96</ele>
        <time>2016-05-14T23:48:15Z</time>
      </trkpt>
      <trkpt lat="46.81932" lon="1.26895">
        <ele>96</ele>
        <time>2016-05-14T23:50:15Z</time>
      </trkpt>
      <trkpt lat="46.81926" lon="1.26892">
        <ele>96</ele>
        <time>2016-05-14T23:52:15Z</time>
      </trkpt>
      <trkpt lat="46.81897" lon="1.26877">
        <ele>96</ele>
        <time>2016-05-14T23:54:15Z</time>
      </trkpt>
      <trkpt lat="46.81858" lon="1.26858">
        <ele>96</ele>
        <time>2016-05-14T23:56:15Z</time>
      </trkpt>
      <trkpt lat="46.81823" lon="1.26839">
        <ele>96</ele>
        <time>2016-05-14T23:58:15Z</time>
      </trkpt>
      <trkpt lat="46.81809" lon="1.26831">
        <ele>95</ele>
        <time>2016-05-15T00:00:15Z</time>
      </trkpt>
      <trkpt lat="46.81788" lon="1.26821">
        <ele>95</ele>
        <time>2016-05-15T00:02:15Z</time>
      </trkpt>
      <trkpt lat="46.81761" lon="1.26807">
        <ele>94</ele>
        <time>2016-05-15T00:04:15Z</time>
      </trkpt>
      <trkpt lat="46.81748" lon="1.26799">
        <ele>94</ele>
        <time>2016-05-15T00:06:15Z</time>
      </trkpt>
      <trkpt lat="46.81748" lon="1.26799">
        <ele>94</ele>
        <time>2016-05-15T00:08:15Z</time>
      </trkpt>
      <trkpt lat="46.81753" lon="1.26778">
        <ele>95</ele>
        <time>2016-05-15T00:10:15Z</time>
      </trkpt>
      <trkpt lat="46.8176" lon="1.2675">
        <ele>95</ele>
        <time>2016-05-15T00:12:15Z</time>
      </trkpt>
      <trkpt lat="46.81764" lon="1.26736">
        <ele>95</ele>
        <time>2016-05-15T00:14:15Z</time>
      </trkpt>
      <trkpt lat="46.81766" lon="1.26729">
        <ele>95</ele>
        <time>2016-05-15T00:16:15Z</time>
      </trkpt>
      <trkpt lat="46.81772" lon="1.26707">
        <ele>95</ele>
        <time>2016-05-15T00:18:15Z</time>
      </trkpt>
      <trkpt lat="46.81788" lon="1.26659">
        <ele>95</ele>
        <time>2016-05-15T00:20:15Z</time>
      </trkpt>
      <trkpt lat="46.81805" lon="1.26609">
        <ele>95</ele>
        <time>2016-05-15T00:22:15Z</time>
      </trkpt>
      <trkpt lat="46.81862" lon="1.26449">
        <ele>94</ele>
        <time>2016-05-15T00:24:15Z</time>
      </trkpt>
      <trkpt lat="46.81916" lon="1.26299">
        <ele>93</ele>
        <time>2016-05-15T00:26:15Z</time>
      </trkpt>
      <trkpt lat="46.82192" lon="1.25523">
        <ele>92</ele>
        <time>2016-05-15T00:28:15Z</time>
      </trkpt>
      <trkpt lat="46.82192" lon="1.25523">
        <ele>92</ele>
        <time>2016-05-15T00:30:15Z</time>
      </trkpt>
      <trkpt lat="46.82189" lon="1.2552">
        <ele>92</ele>
        <time>2016-05-15T00:32:15Z</time>
      </trkpt>
      <trkpt lat="46.82185" lon="1.2552">
        <ele>92</ele>
        <time>2016-05-15T00:34:15Z</time>
      </trkpt>
      <trkpt lat="46.82168" lon="1.2552">
        <ele>92</ele>
        <time>2016-05-15T00:36:15Z</time>
      </trkpt>
      <trkpt lat="46.82166" lon="1.2552">
        <ele>92</ele>
        <time>2016-05-15T00:38:15Z</time>
      </trkpt>
      <trkpt lat="46.82158" lon="1.25521">
        <ele>92</ele>
        <time>2016-05-15T00:40:15Z</time>
      </trkpt>
      <trkpt lat="46.82118" lon="1.25522">
        <ele>92</ele>
        <time>2016-05-15T00:42:15Z</time>
      </trkpt>
      <trkpt lat="46.82033" lon="1.25527">
        <ele>93</ele>
        <time>2016-05-15T00:44:15Z</time>
      </trkpt>
      <trkpt lat="46.81945" lon="1.25531">
        <ele>94</ele>
        <time>2016-05-15T00:46:15Z</time>
      </trkpt>
      <trkpt lat="46.81864" lon="1.25535">
        <ele>94</ele>
        <time>2016-05-15T00:48:15Z</time>
      </trkpt>
      <trkpt lat="46.81805" lon="1.25538">
        <ele>94</ele>
        <time>2016-05-15T00:50:15Z</time>
      </trkpt>
      <trkpt lat="46.81723" lon="1.25541">
        <ele>94</ele>
        <time>2016-05-15T00:52:15Z</time>
      </trkpt>
      <trkpt lat="46.81676" lon="1.25544">
        <ele>94</ele>
        <time>2016-05-15T00:54:15Z</time>
      </trkpt>
      <trkpt lat="46.81621" lon="1.25548">
        <ele>95</ele>
        <time>2016-05-15T00:56:15Z</time>
      </trkpt>
      <trkpt lat="46.81549" lon="1.25551">
        <ele>95</ele>
        <time>2016-05-15T00:58:15Z</time>
      </trkpt>
      <trkpt lat="46.81484" lon="1.25555">
        <ele>96</ele>
        <time>2016-05-15T01:00:15Z</time>
      </trkpt>
      <trkpt lat="46.81472" lon="1.25555">
        <ele>97</ele>
        <time>2016-05-15T01:02:15Z</time>
      </trkpt>
      <trkpt lat="46.81463" lon="1.25555">
        <ele>97</ele>
        <time>2016-05-15T01:04:15Z</time>
      </trkpt>
      <trkpt lat="46.81394" lon="1.25556">
        <ele>99</ele>
        <time>2016-05-15T01:06:15Z</time>
      </trkpt>
      <trkpt lat="46.81339" lon="1.25561">
        <ele>99</ele>
        <time>2016-05-15T01:08:15Z</time>
      </trkpt>
      <trkpt lat="46.81333" lon="1.25561">
        <ele>99</ele>
        <time>2016-05-15T01:10:15Z</time>
      </trkpt>
      <trkpt lat="46.81301" lon="1.25562">
        <ele>99</ele>
        <time>2016-05-15T01:12:15Z</time>
      </trkpt>
      <trkpt lat="46.81221" lon="1.25567">
        <ele>97</ele>
        <time>2016-05-15T01:14:15Z</time>
      </trkpt>
      <trkpt lat="46.81147" lon="1.2557">
        <ele>96</ele>
        <time>2016-05-15T01:16:15Z</time>
      </trkpt>
      <trkpt lat="46.81065" lon="1.25574">
        <ele>97</ele>
        <time>2016-05-15T01:18:15Z</time>
      </trkpt>
      <trkpt lat="46.81002" lon="1.25578">
        <ele>98</ele>
        <time>2016-05-15T01:20:15Z</time>
      </trkpt>
      <trkpt lat="46.80911" lon="1.25582">
        <ele>100</ele>
        <time>2016-05-15T01:22:15Z</time>
      </trkpt>
      <trkpt lat="46.80842" lon="1.25585">
        <ele>103</ele>
        <time>2016-05-15T01:24:15Z</time>
      </trkpt>
      <trkpt lat="46.80788" lon="1.25588">
        <ele>103</ele>
        <time>2016-05-15T01:26:15Z</time>
      </trkpt>
      <trkpt lat="46.80723" lon="1.25591">
        <ele>101</ele>
        <time>2016-05-15T01:28:15Z</time>
      </trkpt>
      <trkpt lat="46.80618" lon="1.25596">
        <ele>99</ele>
        <time>2016-05-15T01:30:15Z</time>
      </trkpt>
      <trkpt lat="46.80609" lon="1.25597">
        <ele>99</ele>
        <time>2016-05-15T01:32:15Z</time>
      </trkpt>
      <trkpt lat="46.80541" lon="1.256">
        <ele>99</ele>
        <time>2016-05-15T01:34:15Z</time>
      </trkpt>
      <trkpt lat="46.80475" lon="1.25603">
        <ele>99</ele>
        <time>2016-05-15T01:36:15Z</time>
      </trkpt>
      <trkpt lat="46.80424" lon="1.25605">
        <ele>98</ele>
        <time>2016-05-15T01:38:15Z</time>
      </trkpt>
      <trkpt lat="46.80362" lon="1.25609">
        <ele>98</ele>
        <time>2016-05-15T01:40:15Z</time>
      </trkpt>
      <trkpt lat="46.80276" lon="1.25613">
        <ele>98</ele>
        <time>2016-05-15T01:42:15Z</time>
      </trkpt>
      <trkpt lat="46.80235" lon="1.25615">
        <ele>98</ele>
        <time>2016-05-15T01:44:15Z</time>
      </trkpt>
      <trkpt lat="46.80181" lon="1.25617">
        <ele>98</ele>
        <time>2016-05-15T01:46:15Z</time>
      </trkpt>
      <trkpt lat="46.80122" lon="1.25621">
        <ele>98</ele>
        <time>2016-05-15T01:48:15Z</time>
      </trkpt>
      <trkpt lat="46.80089" lon="1.25621">
        <ele>98</ele>
        <time>2016-05-15T01:50:15Z</time>
      </trkpt>
      <trkpt lat="46.80062" lon="1.25619">
        <ele>98</ele>
        <time>2016-05-15T01:52:15Z</time>
      </trkpt>
      <trkpt lat="46.80038" lon="1.25614">
        <ele>98</ele>
        <time>2016-05-15T01:54:15Z</time>
      </trkpt>
      <trkpt lat="46.8001" lon="1.25605">
        <ele>97</ele>
        <time>2016-05-15T01:56:15Z</time>
      </trkpt>
      <trkpt lat="46.79986" lon="1.25593">
        <ele>97</ele>
        <time>2016-05-15T01:58:15Z</time>
      </trkpt>
      <trkpt lat="46.7997" lon="1.25584">
        <ele>97</ele>
        <time>2016-05-15T02:00:15Z</time>
      </trkpt>
      <trkpt lat="46.79943" lon="1.25569">
        <ele>98</ele>
        <time>2016-05-15T02:02:15Z</time>
      </trkpt>
      <trkpt lat="46.79888" lon="1.25537">
        <ele>98</ele>
        <time>2016-05-15T02:04:15Z</time>
      </trkpt>
      <trkpt lat="46.79848" lon="1.25515">
        <ele>97</ele>
        <time>2016-05-15T02:06:15Z</time>
      </trkpt>
      <trkpt lat="46.79809" lon="1.25492">
        <ele>97</ele>
        <time>2016-05-15T02:08:15Z</time>
      </trkpt>
      <trkpt lat="46.79749" lon="1.25457">
        <ele>98</ele>
        <time>2016-05-15T02:10:15Z</time>
      </trkpt>
      <trkpt lat="46.79696" lon="1.25427">
        <ele>98</ele>
        <time>2016-05-15T02:12:15Z</time>
      </trkpt>
      <trkpt lat="46.7964" lon="1.25396">
        <ele>98</ele>
        <time>2016-05-15T02:14:15Z</time>
      </trkpt>
      <trkpt lat="46.79599" lon="1.25372">
        <ele>98</ele>
        <time>2016-05-15T02:16:15Z</time>
      </trkpt>
      <trkpt lat="46.79558" lon="1.25349">
        <ele>99</ele>
        <time>2016-05-15T02:18:15Z</time>
      </trkpt>
      <trkpt lat="46.79522" lon="1.25328">
        <ele>99</ele>
        <time>2016-05-15T02:20:15Z</time>
      </trkpt>
      <trkpt lat="46.79486" lon="1.25309">
        <ele>99</ele>
        <time>2016-05-15T02:22:15Z</time>
      </trkpt>
      <trkpt lat="46.79449" lon="1.25298">
        <ele>98</ele>
        <time>2016-05-15T02:24:15Z</time>
      </trkpt>
      <trkpt lat="46.79434" lon="1.25294">
        <ele>98</ele>
        <time>2016-05-15T02:26:15Z</time>
      </trkpt>
      <trkpt lat="46.79423" lon="1.25296">
        <ele>98</ele>
        <time>2016-05-15T02:28:15Z</time>
      </trkpt>
      <trkpt lat="46.79407" lon="1.25297">
        <ele>98</ele>
        <time>2016-05-15T02:30:15Z</time>
      </trkpt>
      <trkpt lat="46.79334" lon="1.25308">
        <ele>99</ele>
        <time>2016-05-15T02:32:15Z</time>
      </trkpt>
      <trkpt lat="46.7924" lon="1.25322">
        <ele>99</ele>
        <time>2016-05-15T02:34:15Z</time>
      </trkpt>
      <trkpt lat="46.79163" lon="1.25333">
        <ele>99</ele>
        <time>2016-05-15T02:36:15Z</time>
      </trkpt>
      <trkpt lat="46.79072" lon="1.25347">
        <ele>99</ele>
        <time>2016-05-15T02:38:15Z</time>
      </trkpt>
      <trkpt lat="46.78972" lon="1.25362">
        <ele>98</ele>
        <time>2016-05-15T02:40:15Z</time>
      </trkpt>
      <trkpt lat="46.78916" lon="1.2537">
        <ele>98</ele>
        <time>2016-05-15T02:42:15Z</time>
      </trkpt>
      <trkpt lat="46.78842" lon="1.25381">
        <ele>99</ele>
        <time>2016-05-15T02:44:15Z</time>
      </trkpt>
      <trkpt lat="46.78759" lon="1.25394">
        <ele>100</ele>
        <time>2016-05-15T02:46:15Z</time>
      </trkpt>
      <trkpt lat="46.78674" lon="1.25405">
        <ele>99</ele>
        <time>2016-05-15T02:48:15Z</time>
      </trkpt>
      <trkpt lat="46.78649" lon="1.25409">
        <ele>99</ele>
        <time>2016-05-15T02:50:15Z</time>
      </trkpt>
      <trkpt lat="46.78598" lon="1.25417">
        <ele>99</ele>
        <time>2016-05-15T02:52:15Z</time>
      </trkpt>
      <trkpt lat="46.78515" lon="1.25429">
        <ele>99</ele>
        <time>2016-05-15T02:54:15Z</time>
      </trkpt>
      <trkpt lat="46.78437" lon="1.25441">
        <ele>100</ele>
        <time>2016-05-15T02:56:15Z</time>
      </trkpt>
      <trkpt lat="46.78368" lon="1.25451">
        <ele>99</ele>
        <time>2016-05-15T02:58:15Z</time>
      </trkpt>
      <trkpt lat="46.78299" lon="1.25461">
        <ele>99</ele>
        <time>2016-05-15T03:00:15Z</time>
      </trkpt>
      <trkpt lat="46.78208" lon="1.25475">
        <ele>99</ele>
        <time>2016-05-15T03:02:15Z</time>
      </trkpt>
      <trkpt lat="46.78132" lon="1.25486">
        <ele>100</ele>
        <time>2016-05-15T03:04:15Z</time>
      </trkpt>
      <trkpt lat="46.78067" lon="1.25496">
        <ele>101</ele>
        <time>2016-05-15T03:06:15Z</time>
      </trkpt>
      <trkpt lat="46.78016" lon="1.25504">
        <ele>100</ele>
        <time>2016-05-15T03:08:15Z</time>
      </trkpt>
      <trkpt lat="46.77962" lon="1.25511">
        <ele>100</ele>
        <time>2016-05-15T03:10:15Z</time>
      </trkpt>
      <trkpt lat="46.77922" lon="1.25517">
        <ele>100</ele>
        <time>2016-05-15T03:12:15Z</time>
      </trkpt>
      <trkpt lat="46.77891" lon="1.2552">
        <ele>100</ele>
        <time>2016-05-15T03:14:15Z</time>
      </trkpt>
      <trkpt lat="46.7787" lon="1.25519">
        <ele>101</ele>
        <time>2016-05-15T03:16:15Z</time>
      </trkpt>
      <trkpt lat="46.77853" lon="1.25515">
        <ele>101</ele>
        <time>2016-05-15T03:18:15Z</time>
      </trkpt>
      <trkpt lat="46.77833" lon="1.25507">
        <ele>101</ele>
        <time>2016-05-15T03:20:15Z</time>
      </trkpt>
      <trkpt lat="46.77812" lon="1.25498">
        <ele>101</ele>
        <time>2016-05-15T03:22:15Z</time>
      </trkpt>
      <trkpt lat="46.77789" lon="1.25485">
        <ele>101</ele>
        <time>2016-05-15T03:24:15Z</time>
      </trkpt>
      <trkpt lat="46.77757" lon="1.25466">
        <ele>101</ele>
        <time>2016-05-15T03:26:15Z</time>
      </trkpt>
      <trkpt lat="46.77726" lon="1.25449">
        <ele>101</ele>
        <time>2016-05-15T03:28:15Z</time>
      </trkpt>
      <trkpt lat="46.77675" lon="1.2542">
        <ele>101</ele>
        <time>2016-05-15T03:30:15Z</time>
      </trkpt>
      <trkpt lat="46.7762" lon="1.25387">
        <ele>100</ele>
        <time>2016-05-15T03:32:15Z</time>
      </trkpt>
      <trkpt lat="46.77567" lon="1.25359">
        <ele>98</ele>
        <time>2016-05-15T03:34:15Z</time>
      </trkpt>
      <trkpt lat="46.77563" lon="1.25357">
        <ele>98</ele>
        <time>2016-05-15T03:36:15Z</time>
      </trkpt>
      <trkpt lat="46.77559" lon="1.25354">
        <ele>98</ele>
        <time>2016-05-15T03:38:15Z</time>
      </trkpt>
      <trkpt lat="46.77525" lon="1.25334">
        <ele>99</ele>
        <time>2016-05-15T03:40:15Z</time>
      </trkpt>
      <trkpt lat="46.77501" lon="1.25322">
        <ele>99</ele>
        <time>2016-05-15T03:42:15Z</time>
      </trkpt>
      <trkpt lat="46.77463" lon="1.25301">
        <ele>99</ele>
        <time>2016-05-15T03:44:15Z</time>
      </trkpt>
      <trkpt lat="46.77392" lon="1.25261">
        <ele>98</ele>
        <time>2016-05-15T03:46:15Z</time>
      </trkpt>
      <trkpt lat="46.77316" lon="1.25218">
        <ele>99</ele>
        <time>2016-05-15T03:48:15Z</time>
      </trkpt>
      <trkpt lat="46.77227" lon="1.25168">
        <ele>104</ele>
        <time>2016-05-15T03:50:15Z</time>
      </trkpt>
      <trkpt lat="46.77138" lon="1.25117">
        <ele>104</ele>
        <time>2016-05-15T03:52:15Z</time>
      </trkpt>
      <trkpt lat="46.77057" lon="1.25071">
        <ele>105</ele>
        <time>2016-05-15T03:54:15Z</time>
      </trkpt>
      <trkpt lat="46.76982" lon="1.25029">
        <ele>104</ele>
        <time>2016-05-15T03:56:15Z</time>
      </trkpt>
      <trkpt lat="46.76973" lon="1.25024">
        <ele>104</ele>
        <time>2016-05-15T03:58:15Z</time>
      </trkpt>
      <trkpt lat="46.76907" lon="1.24987">
        <ele>104</ele>
        <time>2016-05-15T04:00:15Z</time>
      </trkpt>
      <trkpt lat="46.76851" lon="1.24956">
        <ele>104</ele>
        <time>2016-05-15T04:02:15Z</time>
      </trkpt>
      <trkpt lat="46.76769" lon="1.24909">
        <ele>104</ele>
        <time>2016-05-15T04:04:15Z</time>
      </trkpt>
      <trkpt lat="46.76759" lon="1.24904">
        <ele>104</ele>
        <time>2016-05-15T04:06:15Z</time>
      </trkpt>
      <trkpt lat="46.76706" lon="1.24874">
        <ele>104</ele>
        <time>2016-05-15T04:08:15Z</time>
      </trkpt>
      <trkpt lat="46.76628" lon="1.24829">
        <ele>103</ele>
        <time>2016-05-15T04:10:15Z</time>
      </trkpt>
      <trkpt lat="46.76556" lon="1.24789">
        <ele>102</ele>
        <time>2016-05-15T04:12:15Z</time>
      </trkpt>
      <trkpt lat="46.76488" lon="1.2475">
        <ele>102</ele>
        <time>2016-05-15T04:14:15Z</time>
      </trkpt>
      <trkpt lat="46.76419" lon="1.24712">
        <ele>101</ele>
        <time>2016-05-15T04:16:15Z</time>
      </trkpt>
      <trkpt lat="46.76356" lon="1.24676">
        <ele>102</ele>
        <time>2016-05-15T04:18:15Z</time>
      </trkpt>
      <trkpt lat="46.76301" lon="1.24645">
        <ele>101</ele>
        <time>2016-05-15T04:20:15Z</time>
      </trkpt>
      <trkpt lat="46.76232" lon="1.24607">
        <ele>100</ele>
        <time>2016-05-15T04:22:15Z</time>
      </trkpt>
      <trkpt lat="46.76171" lon="1.24573">
        <ele>101</ele>
        <time>2016-05-15T04:24:15Z</time>
      </trkpt>
      <trkpt lat="46.7611" lon="1.24538">
        <ele>103</ele>
        <time>2016-05-15T04:26:15Z</time>
      </trkpt>
      <trkpt lat="46.76044" lon="1.24501">
        <ele>104</ele>
        <time>2016-05-15T04:28:15Z</time>
      </trkpt>
      <trkpt lat="46.75978" lon="1.24464">
        <ele>103</ele>
        <time>2016-05-15T04:30:15Z</time>
      </trkpt>
      <trkpt lat="46.75907" lon="1.24424">
        <ele>102</ele>
        <time>2016-05-15T04:32:15Z</time>
      </trkpt>
      <trkpt lat="46.7584" lon="1.24386">
        <ele>103</ele>
        <time>2016-05-15T04:34:15Z</time>
      </trkpt>
      <trkpt lat="46.75778" lon="1.2435">
        <ele>103</ele>
        <time>2016-05-15T04:36:15Z</time>
      </trkpt>
      <trkpt lat="46.75762" lon="1.24342">
        <ele>103</ele>
        <time>2016-05-15T04:38:15Z</time>
      </trkpt>
      <trkpt lat="46.7575" lon="1.24336">
        <ele>103</ele>
        <time>2016-05-15T04:40:15Z</time>
      </trkpt>
      <trkpt lat="46.75733" lon="1.24329">
        <ele>102</ele>
        <time>2016-05-15T04:42:15Z</time>
      </trkpt>
      <trkpt lat="46.75719" lon="1.24325">
        <ele>102</ele>
        <time>2016-05-15T04:44:15Z</time>
      </trkpt>
      <trkpt lat="46.75699" lon="1.24324">
        <ele>101</ele>
        <time>2016-05-15T04:46:15Z</time>
      </trkpt>
      <trkpt lat="46.75685" lon="1.24324">
        <ele>101</ele>
        <time>2016-05-15T04:48:15Z</time>
      </trkpt>
      <trkpt lat="46.75685" lon="1.24324">
        <ele>101</ele>
        <time>2016-05-15T04:50:15Z</time>
      </trkpt>
      <trkpt lat="46.75659" lon="1.24349">
        <ele>100</ele>
        <time>2016-05-15T04:52:15Z</time>
      </trkpt>
      <trkpt lat="46.7563" lon="1.24374">
        <ele>99</ele>
        <time>2016-05-15T04:54:15Z</time>
      </trkpt>
      <trkpt lat="46.75626" lon="1.24378">
        <ele>99</ele>
        <time>2016-05-15T04:56:15Z</time>
      </trkpt>
      <trkpt lat="46.75614" lon="1.2439">
        <ele>99</ele>
        <time>2016-05-15T04:58:15Z</time>
      </trkpt>
      <trkpt lat="46.75602" lon="1.244">
        <ele>99</ele>
        <time>2016-05-15T05:00:15Z</time>
      </trkpt>
      <trkpt lat="46.75591" lon="1.2441">
        <ele>98</ele>
        <time>2016-05-15T05:02:15Z</time>
      </trkpt>
      <trkpt lat="46.75581" lon="1.24419">
        <ele>98</ele>
        <time>2016-05-15T05:04:15Z</time>
      </trkpt>
      <trkpt lat="46.7557" lon="1.24429">
        <ele>98</ele>
        <time>2016-05-15T05:06:15Z</time>
      </trkpt>
      <trkpt lat="46.75544" lon="1.24453">
        <ele>99</ele>
        <time>2016-05-15T05:08:15Z</time>
      </trkpt>
      <trkpt lat="46.75526" lon="1.24469">
        <ele>99</ele>
        <time>2016-05-15T05:10:15Z</time>
      </trkpt>
      <trkpt lat="46.75515" lon="1.2448">
        <ele>98</ele>
        <time>2016-05-15T05:12:15Z</time>
      </trkpt>
      <trkpt lat="46.75494" lon="1.24499">
        <ele>98</ele>
        <time>2016-05-15T05:14:15Z</time>
      </trkpt>
      <trkpt lat="46.75462" lon="1.24529">
        <ele>98</ele>
        <time>2016-05-15T05:16:15Z</time>
      </trkpt>
      <trkpt lat="46.75452" lon="1.24538">
        <ele>98</ele>
        <time>2016-05-15T05:18:15Z</time>
      </trkpt>
      <trkpt lat="46.75442" lon="1.24548">
        <ele>99</ele>
        <time>2016-05-15T05:20:15Z</time>
      </trkpt>
      <trkpt lat="46.75431" lon="1.24558">
        <ele>99</ele>
        <time>2016-05-15T05:22:15Z</time>
      </trkpt>
      <trkpt lat="46.7542" lon="1.24567">
        <ele>99</ele>
        <time>2016-05-15T05:24:15Z</time>
      </trkpt>
      <trkpt lat="46.7541" lon="1.24577">
        <ele>99</ele>
        <time>2016-05-15T05:26:15Z</time>
      </trkpt>
      <trkpt lat="46.754" lon="1.24586">
        <ele>99</ele>
        <time>2016-05-15T05:28:15Z</time>
      </trkpt>
      <trkpt lat="46.7539" lon="1.24594">
        <ele>100</ele>
        <time>2016-05-15T05:30:15Z</time>
      </trkpt>
      <trkpt lat="46.75381" lon="1.24604">
        <ele>100</ele>
        <time>2016-05-15T05:32:15Z</time>
      </trkpt>
      <trkpt lat="46.75371" lon="1.24613">
        <ele>101</ele>
        <time>2016-05-15T05:34:15Z</time>
      </trkpt>
      <trkpt lat="46.75362" lon="1.24621">
        <ele>101</ele>
        <time>2016-05-15T05:36:15Z</time>
      </trkpt>
      <trkpt lat="46.75349" lon="1.24633">
        <ele>101</ele>
        <time>2016-05-15T05:38:15Z</time>
      </trkpt>
      <trkpt lat="46.75331" lon="1.2465">
        <ele>102</ele>
        <time>2016-05-15T05:40:15Z</time>
      </trkpt>
      <trkpt lat="46.7531" lon="1.24668">
        <ele>103</ele>
        <time>2016-05-15T05:42:15Z</time>
      </trkpt>
      <trkpt lat="46.75302" lon="1.24675">
        <ele>103</ele>
        <time>2016-05-15T05:44:15Z</time>
      </trkpt>
      <trkpt lat="46.75292" lon="1.24685">
        <ele>103</ele>
        <time>2016-05-15T05:46:15Z</time>
      </trkpt>
      <trkpt lat="46.75284" lon="1.24693">
        <ele>103</ele>
        <time>2016-05-15T05:48:15Z</time>
      </trkpt>
      <trkpt lat="46.75276" lon="1.24701">
        <ele>103</ele>
        <time>2016-05-15T05:50:15Z</time>
      </trkpt>
      <trkpt lat="46.75271" lon="1.24706">
        <ele>103</ele>
        <time>2016-05-15T05:52:15Z</time>
      </trkpt>
      <trkpt lat="46.75256" lon="1.24719">
        <ele>103</ele>
        <time>2016-05-15T05:54:15Z</time>
      </trkpt>
      <trkpt lat="46.75252" lon="1.2472">
        <ele>103</ele>
        <time>2016-05-15T05:56:15Z</time>
      </trkpt>
      <trkpt lat="46.75244" lon="1.24725">
        <ele>102</ele>
        <time>2016-05-15T05:58:15Z</time>
      </trkpt>
      <trkpt lat="46.75239" lon="1.24727">
        <ele>102</ele>
        <time>2016-05-15T06:00:15Z</time>
      </trkpt>
      <trkpt lat="46.7522" lon="1.24736">
        <ele>101</ele>
        <time>2016-05-15T06:02:15Z</time>
      </trkpt>
      <trkpt lat="46.75206" lon="1.24742">
        <ele>101</ele>
        <time>2016-05-15T06:04:15Z</time>
      </trkpt>
      <trkpt lat="46.75198" lon="1.24746">
        <ele>101</ele>
        <time>2016-05-15T06:06:15Z</time>
      </trkpt>
      <trkpt lat="46.7519" lon="1.24749">
        <ele>101</ele>
        <time>2016-05-15T06:08:15Z</time>
      </trkpt>
      <trkpt lat="46.75182" lon="1.24752">
        <ele>100</ele>
        <time>2016-05-15T06:10:15Z</time>
      </trkpt>
      <trkpt lat="46.75172" lon="1.24755">
        <ele>100</ele>
        <time>2016-05-15T06:12:15Z</time>
      </trkpt>
      <trkpt lat="46.75154" lon="1.24761">
        <ele>100</ele>
        <time>2016-05-15T06:14:15Z</time>
      </trkpt>
      <trkpt lat="46.75123" lon="1.24769">
        <ele>99</ele>
        <time>2016-05-15T06:16:15Z</time>
      </trkpt>
      <trkpt lat="46.75112" lon="1.24771">
        <ele>99</ele>
        <time>2016-05-15T06:18:15Z</time>
      </trkpt>
      <trkpt lat="46.75101" lon="1.24774">
        <ele>98</ele>
        <time>2016-05-15T06:20:15Z</time>
      </trkpt>
      <trkpt lat="46.75079" lon="1.24779">
        <ele>98</ele>
        <time>2016-05-15T06:22:15Z</time>
      </trkpt>
      <trkpt lat="46.75046" lon="1.24788">
        <ele>98</ele>
        <time>2016-05-15T06:24:15Z</time>
      </trkpt>
      <trkpt lat="46.75024" lon="1.24793">
        <ele>99</ele>
        <time>2016-05-15T06:26:15Z</time>
      </trkpt>
      <trkpt lat="46.74991" lon="1.248">
        <ele>99</ele>
        <time>2016-05-15T06:28:15Z</time>
      </trkpt>
      <trkpt lat="46.74937" lon="1.24813">
        <ele>99</ele>
        <time>2016-05-15T06:30:15Z</time>
      </trkpt>
      <trkpt lat="46.74928" lon="1.24815">
        <ele>99</ele>
        <time>2016-05-15T06:32:15Z</time>
      </trkpt>
      <trkpt lat="46.74884" lon="1.24826">
        <ele>99</ele>
        <time>2016-05-15T06:34:15Z</time>
      </trkpt>
      <trkpt lat="46.74827" lon="1.24839">
        <ele>99</ele>
        <time>2016-05-15T06:36:15Z</time>
      </trkpt>
      <trkpt lat="46.74781" lon="1.2485">
        <ele>99</ele>
        <time>2016-05-15T06:38:15Z</time>
      </trkpt>
      <trkpt lat="46.74708" lon="1.24867">
        <ele>100</ele>
        <time>2016-05-15T06:40:15Z</time>
      </trkpt>
      <trkpt lat="46.74703" lon="1.24868">
        <ele>100</ele>
        <time>2016-05-15T06:42:15Z</time>
      </trkpt>
      <trkpt lat="46.74689" lon="1.24872">
        <ele>100</ele>
        <time>2016-05-15T06:44:15Z</time>
      </trkpt>
      <trkpt lat="46.74678" lon="1.24874">
        <ele>100</ele>
        <time>2016-05-15T06:46:15Z</time>
      </trkpt>
      <trkpt lat="46.74656" lon="1.2488">
        <ele>101</ele>
        <time>2016-05-15T06:48:15Z</time>
      </trkpt>
      <trkpt lat="46.74633" lon="1.24885">
        <ele>100</ele>
        <time>2016-05-15T06:50:15Z</time>
      </trkpt>
      <trkpt lat="46.7461" lon="1.24889">
        <ele>100</ele>
        <time>2016-05-15T06:52:15Z</time>
      </trkpt>
      <trkpt lat="46.74599" lon="1.2489">
        <ele>100</ele>
        <time>2016-05-15T06:54:15Z</time>
      </trkpt>
      <trkpt lat="46.74587" lon="1.2489">
        <ele>100</ele>
        <time>2016-05-15T06:56:15Z</time>
      </trkpt>
      <trkpt lat="46.74576" lon="1.24889">
        <ele>100</ele>
        <time>2016-05-15T06:58:15Z</time>
      </trkpt>
      <trkpt lat="46.74565" lon="1.24887">
        <ele>100</ele>
        <time>2016-05-15T07:00:15Z</time>
      </trkpt>
      <trkpt lat="46.74554" lon="1.24884">
        <ele>100</ele>
        <time>2016-05-15T07:02:15Z</time>
      </trkpt>
      <trkpt lat="46.74543" lon="1.2488">
        <ele>100</ele>
        <time>2016-05-15T07:04:15Z</time>
      </trkpt>
      <trkpt lat="46.74532" lon="1.24874">
        <ele>100</ele>
        <time>2016-05-15T07:06:15Z</time>
      </trkpt>
      <trkpt lat="46.74481" lon="1.24841">
        <ele>99</ele>
        <time>2016-05-15T07:08:15Z</time>
      </trkpt>
      <trkpt lat="46.74439" lon="1.24812">
        <ele>98</ele>
        <time>2016-05-15T07:10:15Z</time>
      </trkpt>
      <trkpt lat="46.74396" lon="1.24782">
        <ele>98</ele>
        <time>2016-05-15T07:12:15Z</time>
      </trkpt>
      <trkpt lat="46.74342" lon="1.24745">
        <ele>98</ele>
        <time>2016-05-15T07:14:15Z</time>
      </trkpt>
      <trkpt lat="46.743" lon="1.24717">
        <ele>98</ele>
        <time>2016-05-15T07:16:15Z</time>
      </trkpt>
      <trkpt lat="46.74287" lon="1.24708">
        <ele>99</ele>
        <time>2016-05-15T07:18:15Z</time>
      </trkpt>
      <trkpt lat="46.74185" lon="1.2464">
        <ele>100</ele>
        <time>2016-05-15T07:20:15Z</time>
      </trkpt>
      <trkpt lat="46.74165" lon="1.24626">
        <ele>100</ele>
        <time>2016-05-15T07:22:15Z</time>
      </trkpt>
      <trkpt lat="46.74134" lon="1.24605">
        <ele>100</ele>
        <time>2016-05-15T07:24:15Z</time>
      </trkpt>
      <trkpt lat="46.74113" lon="1.24591">
        <ele>100</ele>
        <time>2016-05-15T07:26:15Z</time>
      </trkpt>
      <trkpt lat="46.74044" lon="1.24546">
        <ele>101</ele>
        <time>2016-05-15T07:28:15Z</time>
      </trkpt>
      <trkpt lat="46.74036" lon="1.2454">
        <ele>100</ele>
        <time>2016-05-15T07:30:15Z</time>
      </trkpt>
      <trkpt lat="46.73922" lon="1.24463">
        <ele>100</ele>
        <time>2016-05-15T07:32:15Z</time>
      </trkpt>
      <trkpt lat="46.73871" lon="1.24428">
        <ele>100</ele>
        <time>2016-05-15T07:34:15Z</time>
      </trkpt>
      <trkpt lat="46.73799" lon="1.2438">
        <ele>100</ele>
        <time>2016-05-15T07:36:15Z</time>
      </trkpt>
      <trkpt lat="46.73783" lon="1.24369">
        <ele>100</ele>
        <time>2016-05-15T07:38:15Z</time>
      </trkpt>
      <trkpt lat="46.73748" lon="1.24346">
        <ele>99</ele>
        <time>2016-05-15T07:40:15Z</time>
      </trkpt>
      <trkpt lat="46.73671" lon="1.24294">
        <ele>96</ele>
        <time>2016-05-15T07:42:15Z</time>
      </trkpt>
      <trkpt lat="46.73635" lon="1.2427">
        <ele>96</ele>
        <time>2016-05-15T07:44:15Z</time>
      </trkpt>
      <trkpt lat="46.73603" lon="1.24248">
        <ele>96</ele>
        <time>2016-05-15T07:46:15Z</time>
      </trkpt>
      <trkpt lat="46.73555" lon="1.24216">
        <ele>95</ele>
        <time>2016-05-15T07:48:15Z</time>
      </trkpt>
      <trkpt lat="46.73498" lon="1.24177">
        <ele>95</ele>
        <time>2016-05-15T07:50:15Z</time>
      </trkpt>
      <trkpt lat="46.7342" lon="1.24124">
        <ele>96</ele>
        <time>2016-05-15T07:52:15Z</time>
      </trkpt>
      <trkpt lat="46.73347" lon="1.24074">
        <ele>96</ele>
        <time>2016-05-15T07:54:15Z</time>
      </trkpt>
      <trkpt lat="46.73246" lon="1.24005">
        <ele>98</ele>
        <time>2016-05-15T07:56:15Z</time>
      </trkpt>
      <trkpt lat="46.73157" lon="1.23945">
        <ele>97</ele>
        <time>2016-05-15T07:58:15Z</time>
      </trkpt>
      <trkpt lat="46.73108" lon="1.23912">
        <ele>98</ele>
        <time>2016-05-15T08:00:15Z</time>
      </trkpt>
      <trkpt lat="46.73075" lon="1.2389">
        <ele>99</ele>
        <time>2016-05-15T08:02:15Z</time>
      </trkpt>
      <trkpt lat="46.7304" lon="1.23867">
        <ele>99</ele>
        <time>2016-05-15T08:04:15Z</time>
      </trkpt>
      <trkpt lat="46.7293" lon="1.23792">
        <ele>99</ele>
        <time>2016-05-15T08:06:15Z</time>
      </trkpt>
      <trkpt lat="46.72847" lon="1.23734">
        <ele>101</ele>
        <time>2016-05-15T08:08:15Z</time>
      </trkpt>
      <trkpt lat="46.72816" lon="1.23714">
        <ele>101</ele>
        <time>2016-05-15T08:10:15Z</time>
      </trkpt>
      <trkpt lat="46.72735" lon="1.23659">
        <ele>101</ele>
        <time>2016-05-15T08:12:15Z</time>
      </trkpt>
      <trkpt lat="46.72666" lon="1.23614">
        <ele>102</ele>
        <time>2016-05-15T08:14:15Z</time>
      </trkpt>
      <trkpt lat="46.72656" lon="1.23607">
        <ele>102</ele>
        <time>2016-05-15T08:16:15Z</time>
      </trkpt>
      <trkpt lat="46.72586" lon="1.2356">
        <ele>104</ele>
        <time>2016-05-15T08:18:15Z</time>
      </trkpt>
      <trkpt lat="46.72508" lon="1.23508">
        <ele>104</ele>
        <time>2016-05-15T08:20:15Z</time>
      </trkpt>
      <trkpt lat="46.72501" lon="1.23503">
        <ele>104</ele>
        <time>2016-05-15T08:22:15Z</time>
      </trkpt>
      <trkpt lat="46.72435" lon="1.23459">
        <ele>105</ele>
        <time>2016-05-15T08:24:15Z</time>
      </trkpt>
      <trkpt lat="46.72337" lon="1.23392">
        <ele>104</ele>
        <time>2016-05-15T08:26:15Z</time>
      </trkpt>
      <trkpt lat="46.72222" lon="1.23313">
        <ele>103</ele>
        <time>2016-05-15T08:28:15Z</time>
      </trkpt>
      <trkpt lat="46.72194" lon="1.23294">
        <ele>102</ele>
        <time>2016-05-15T08:30:15Z</time>
      </trkpt>
      <trkpt lat="46.72164" lon="1.23274">
        <ele>101</ele>
        <time>2016-05-15T08:32:15Z</time>
      </trkpt>
      <trkpt lat="46.72139" lon="1.23257">
        <ele>101</ele>
        <time>2016-05-15T08:34:15Z</time>
      </trkpt>
      <trkpt lat="46.72069" lon="1.23202">
        <ele>107</ele>
        <time>2016-05-15T08:36:15Z</time>
      </trkpt>
      <trkpt lat="46.72065" lon="1.23198">
        <ele>107</ele>
        <time>2016-05-15T08:38:15Z</time>
      </trkpt>
      <trkpt lat="46.7201" lon="1.23161">
        <ele>108</ele>
        <time>2016-05-15T08:40:15Z</time>
      </trkpt>
      <trkpt lat="46.71999" lon="1.23148">
        <ele>108</ele>
        <time>2016-05-15T08:42:15Z</time>
      </trkpt>
      <trkpt lat="46.71931" lon="1.23095">
        <ele>107</ele>
        <time>2016-05-15T08:44:15Z</time>
      </trkpt>
      <trkpt lat="46.71882" lon="1.23055">
        <ele>107</ele>
        <time>2016-05-15T08:46:15Z</time>
      </trkpt>
      <trkpt lat="46.71842" lon="1.23023">
        <ele>108</ele>
        <time>2016-05-15T08:48:15Z</time>
      </trkpt>
      <trkpt lat="46.71782" lon="1.22976">
        <ele>108</ele>
        <time>2016-05-15T08:50:15Z</time>
      </trkpt>
      <trkpt lat="46.7173" lon="1.22935">
        <ele>109</ele>
        <time>2016-05-15T08:52:15Z</time>
      </trkpt>
      <trkpt lat="46.7169" lon="1.22903">
        <ele>111</ele>
        <time>2016-05-15T08:54:15Z</time>
      </trkpt>
      <trkpt lat="46.71662" lon="1.22881">
        <ele>113</ele>
        <time>2016-05-15T08:56:15Z</time>
      </trkpt>
      <trkpt lat="46.71598" lon="1.22831">
        <ele>112</ele>
        <time>2016-05-15T08:58:15Z</time>
      </trkpt>
      <trkpt lat="46.71596" lon="1.22829">
        <ele>112</ele>
        <time>2016-05-15T09:00:15Z</time>
      </trkpt>
      <trkpt lat="46.71543" lon="1.22785">
        <ele>114</ele>
        <time>2016-05-15T09:02:15Z</time>
      </trkpt>
      <trkpt lat="46.71533" lon="1.22777">
        <ele>114</ele>
        <time>2016-05-15T09:04:15Z</time>
      </trkpt>
      <trkpt lat="46.71417" lon="1.22683">
        <ele>115</ele>
        <time>2016-05-15T09:06:15Z</time>
      </trkpt>
      <trkpt lat="46.71309" lon="1.22599">
        <ele>117</ele>
        <time>2016-05-15T09:08:15Z</time>
      </trkpt>
      <trkpt lat="46.71219" lon="1.22529">
        <ele>118</ele>
        <time>2016-05-15T09:10:15Z</time>
      </trkpt>
      <trkpt lat="46.71144" lon="1.22468">
        <ele>117</ele>
        <time>2016-05-15T09:12:15Z</time>
      </trkpt>
      <trkpt lat="46.71144" lon="1.22468">
        <ele>117</ele>
        <time>2016-05-15T09:14:15Z</time>
      </trkpt>
      <trkpt lat="46.71093" lon="1.22427">
        <ele>115</ele>
        <time>2016-05-15T09:16:15Z</time>
      </trkpt>
      <trkpt lat="46.7104" lon="1.22387">
        <ele>114</ele>
        <time>2016-05-15T09:18:15Z</time>
      </trkpt>
      <trkpt lat="46.71007" lon="1.2236">
        <ele>113</ele>
        <time>2016-05-15T09:20:15Z</time>
      </trkpt>
      <trkpt lat="46.70985" lon="1.22342">
        <ele>113</ele>
        <time>2016-05-15T09:22:15Z</time>
      </trkpt>
      <trkpt lat="46.70965" lon="1.22323">
        <ele>113</ele>
        <time>2016-05-15T09:24:15Z</time>
      </trkpt>
      <trkpt lat="46.7095" lon="1.22308">
        <ele>113</ele>
        <time>2016-05-15T09:26:15Z</time>
      </trkpt>
      <trkpt lat="46.70891" lon="1.22247">
        <ele>112</ele>
        <time>2016-05-15T09:28:15Z</time>
      </trkpt>
      <trkpt lat="46.70857" lon="1.22208">
        <ele>113</ele>
        <time>2016-05-15T09:30:15Z</time>
      </trkpt>
      <trkpt lat="46.70835" lon="1.22184">
        <ele>113</ele>
        <time>2016-05-15T09:32:15Z</time>
      </trkpt>
      <trkpt lat="46.7081" lon="1.22158">
        <ele>114</ele>
        <time>2016-05-15T09:34:15Z</time>
      </trkpt>
      <trkpt lat="46.70781" lon="1.22127">
        <ele>114</ele>
        <time>2016-05-15T09:36:15Z</time>
      </trkpt>
      <trkpt lat="46.70754" lon="1.22099">
        <ele>114</ele>
        <time>2016-05-15T09:38:15Z</time>
      </trkpt>
      <trkpt lat="46.70721" lon="1.22063">
        <ele>114</ele>
        <time>2016-05-15T09:40:15Z</time>
      </trkpt>
      <trkpt lat="46.70669" lon="1.22007">
        <ele>114</ele>
        <time>2016-05-15T09:42:15Z</time>
      </trkpt>
      <trkpt lat="46.70628" lon="1.21964">
        <ele>113</ele>
        <time>2016-05-15T09:44:15Z</time>
      </trkpt>
      <trkpt lat="46.70561" lon="1.21893">
        <ele>112</ele>
        <time>2016-05-15T09:46:15Z</time>
      </trkpt>
      <trkpt lat="46.70482" lon="1.2181">
        <ele>113</ele>
        <time>2016-05-15T09:48:15Z</time>
      </trkpt>
      <trkpt lat="46.70434" lon="1.21762">
        <ele>111</ele>
        <time>2016-05-15T09:50:15Z</time>
      </trkpt>
      <trkpt lat="46.70426" lon="1.21754">
        <ele>111</ele>
        <time>2016-05-15T09:52:15Z</time>
      </trkpt>
      <trkpt lat="46.70426" lon="1.21754">
        <ele>111</ele>
        <time>2016-05-15T09:54:15Z</time>
      </trkpt>
      <trkpt lat="46.70424" lon="1.21758">
        <ele>111</ele>
        <time>2016-05-15T09:56:15Z</time>
      </trkpt>
      <trkpt lat="46.70424" lon="1.21764">
        <ele>111</ele>
        <time>2016-05-15T09:58:15Z</time>
      </trkpt>
      <trkpt lat="46.70425" lon="1.21768">
        <ele>112</ele>
        <time>2016-05-15T10:00:15Z</time>
      </trkpt>
      <trkpt lat="46.70425" lon="1.21769">
        <ele>112</ele>
        <time>2016-05-15T10:02:15Z</time>
      </trkpt>
    </trkseg>
  </trk>
</gpx>